<?xml version="1.0" encoding="UTF-8" standalone="no" ?><gpx xmlns="http://www.topografix.com/GPX/1/1" xmlns:gpxx="http://www.garmin.com/xmlschemas/GpxExtensions/v3" xmlns:wptx1="http://www.garmin.com/xmlschemas/WaypointExtension/v1" xmlns:gpxtpx="http://www.garmin.com/xmlschemas/TrackPointExtension/v1" creator="GuideVTT.com" version="1.1" xmlns:xsi="http://www.w3.org/2001/XMLSchema-instance" xsi:schemaLocation="http://www.topografix.com/GPX/1/1 http://www.topografix.com/GPX/1/1/gpx.xsd http://www.garmin.com/xmlschemas/GpxExtensions/v3 http://www8.garmin.com/xmlschemas/GpxExtensionsv3.xsd http://www.garmin.com/xmlschemas/WaypointExtension/v1 http://www8.garmin.com/xmlschemas/WaypointExtensionv1.xsd http://www.garmin.com/xmlschemas/TrackPointExtension/v1 http://www.garmin.com/xmlschemas/TrackPointExtensionv1.xsd">
<metadata><link href="http://www.garmin.com"><text>Garmin International</text></link><time>2013-06-22T15:13:50Z</time></metadata>
<trk><name>chinon_34km_15-mars-09.gpx</name><extensions><gpxx:TrackExtension><gpxx:DisplayColor>Cyan</gpxx:DisplayColor></gpxx:TrackExtension></extensions><trkseg>
<trkpt lat="47.34294700" lon="0.61505100"><ele></ele><time>2014-6-17T4:59:35Z</time></trkpt>
<trkpt lat="47.34294400" lon="0.61513300"><ele></ele><time>2014-6-17T4:59:38Z</time></trkpt>
<trkpt lat="47.34290100" lon="0.61514600"><ele></ele><time>2014-6-17T4:59:41Z</time></trkpt>
<trkpt lat="47.34273900" lon="0.61502000"><ele></ele><time>2014-6-17T4:59:44Z</time></trkpt>
<trkpt lat="47.34250100" lon="0.61475700"><ele></ele><time>2014-6-17T4:59:47Z</time></trkpt>
<trkpt lat="47.34236400" lon="0.61451900"><ele></ele><time>2014-6-17T4:59:50Z</time></trkpt>
<trkpt lat="47.34226600" lon="0.61424200"><ele></ele><time>2014-6-17T4:59:53Z</time></trkpt>
<trkpt lat="47.34224700" lon="0.61418500"><ele></ele><time>2014-6-17T4:59:56Z</time></trkpt>
<trkpt lat="47.34222000" lon="0.61395200"><ele></ele><time>2014-6-17T4:59:59Z</time></trkpt>
<trkpt lat="47.34223800" lon="0.61348500"><ele></ele><time>2014-6-17T5:0:2Z</time></trkpt>
<trkpt lat="47.34212900" lon="0.61321400"><ele></ele><time>2014-6-17T5:0:5Z</time></trkpt>
<trkpt lat="47.34206100" lon="0.61312700"><ele></ele><time>2014-6-17T5:0:8Z</time></trkpt>
<trkpt lat="47.34191200" lon="0.61321400"><ele></ele><time>2014-6-17T5:0:11Z</time></trkpt>
<trkpt lat="47.34172000" lon="0.61345300"><ele></ele><time>2014-6-17T5:0:14Z</time></trkpt>
<trkpt lat="47.34151000" lon="0.61359000"><ele></ele><time>2014-6-17T5:0:17Z</time></trkpt>
<trkpt lat="47.34130500" lon="0.61360800"><ele></ele><time>2014-6-17T5:0:20Z</time></trkpt>
<trkpt lat="47.34114300" lon="0.61383700"><ele></ele><time>2014-6-17T5:0:23Z</time></trkpt>
<trkpt lat="47.34101200" lon="0.61403300"><ele></ele><time>2014-6-17T5:0:26Z</time></trkpt>
<trkpt lat="47.34094200" lon="0.61406700"><ele></ele><time>2014-6-17T5:0:29Z</time></trkpt>
<trkpt lat="47.34089000" lon="0.61407900"><ele></ele><time>2014-6-17T5:0:32Z</time></trkpt>
<trkpt lat="47.34084600" lon="0.61401600"><ele></ele><time>2014-6-17T5:0:35Z</time></trkpt>
<trkpt lat="47.34076400" lon="0.61400200"><ele></ele><time>2014-6-17T5:0:38Z</time></trkpt>
<trkpt lat="47.34069000" lon="0.61400900"><ele></ele><time>2014-6-17T5:0:41Z</time></trkpt>
<trkpt lat="47.34067900" lon="0.61401200"><ele></ele><time>2014-6-17T5:0:44Z</time></trkpt>
<trkpt lat="47.34057100" lon="0.61400700"><ele></ele><time>2014-6-17T5:0:47Z</time></trkpt>
<trkpt lat="47.34035000" lon="0.61398400"><ele></ele><time>2014-6-17T5:0:50Z</time></trkpt>
<trkpt lat="47.34015400" lon="0.61394700"><ele></ele><time>2014-6-17T5:0:53Z</time></trkpt>
<trkpt lat="47.33996700" lon="0.61394100"><ele></ele><time>2014-6-17T5:0:56Z</time></trkpt>
<trkpt lat="47.33966900" lon="0.61394200"><ele></ele><time>2014-6-17T5:0:59Z</time></trkpt>
<trkpt lat="47.33922900" lon="0.61396800"><ele></ele><time>2014-6-17T5:1:2Z</time></trkpt>
<trkpt lat="47.33886000" lon="0.61413100"><ele></ele><time>2014-6-17T5:1:5Z</time></trkpt>
<trkpt lat="47.33847600" lon="0.61432200"><ele></ele><time>2014-6-17T5:1:8Z</time></trkpt>
<trkpt lat="47.33815200" lon="0.61447400"><ele></ele><time>2014-6-17T5:1:11Z</time></trkpt>
<trkpt lat="47.33796600" lon="0.61457600"><ele></ele><time>2014-6-17T5:1:14Z</time></trkpt>
<trkpt lat="47.33755100" lon="0.61498900"><ele></ele><time>2014-6-17T5:1:17Z</time></trkpt>
<trkpt lat="47.33727500" lon="0.61535500"><ele></ele><time>2014-6-17T5:1:20Z</time></trkpt>
<trkpt lat="47.33710300" lon="0.61559400"><ele></ele><time>2014-6-17T5:1:23Z</time></trkpt>
<trkpt lat="47.33697900" lon="0.61577400"><ele></ele><time>2014-6-17T5:1:26Z</time></trkpt>
<trkpt lat="47.33685800" lon="0.61595000"><ele></ele><time>2014-6-17T5:1:29Z</time></trkpt>
<trkpt lat="47.33666700" lon="0.61623600"><ele></ele><time>2014-6-17T5:1:32Z</time></trkpt>
<trkpt lat="47.33653800" lon="0.61641500"><ele></ele><time>2014-6-17T5:1:35Z</time></trkpt>
<trkpt lat="47.33626200" lon="0.61672600"><ele></ele><time>2014-6-17T5:1:38Z</time></trkpt>
<trkpt lat="47.33592800" lon="0.61714000"><ele></ele><time>2014-6-17T5:1:41Z</time></trkpt>
<trkpt lat="47.33558300" lon="0.61772500"><ele></ele><time>2014-6-17T5:1:44Z</time></trkpt>
<trkpt lat="47.33544600" lon="0.61796000"><ele></ele><time>2014-6-17T5:1:47Z</time></trkpt>
<trkpt lat="47.33528100" lon="0.61828800"><ele></ele><time>2014-6-17T5:1:50Z</time></trkpt>
<trkpt lat="47.33496000" lon="0.61871000"><ele></ele><time>2014-6-17T5:1:53Z</time></trkpt>
<trkpt lat="47.33467300" lon="0.61898400"><ele></ele><time>2014-6-17T5:1:56Z</time></trkpt>
<trkpt lat="47.33460700" lon="0.61924700"><ele></ele><time>2014-6-17T5:1:59Z</time></trkpt>
<trkpt lat="47.33461400" lon="0.61960000"><ele></ele><time>2014-6-17T5:2:2Z</time></trkpt>
<trkpt lat="47.33454500" lon="0.61974800"><ele></ele><time>2014-6-17T5:2:5Z</time></trkpt>
<trkpt lat="47.33452900" lon="0.61986000"><ele></ele><time>2014-6-17T5:2:8Z</time></trkpt>
<trkpt lat="47.33449500" lon="0.61944100"><ele></ele><time>2014-6-17T5:2:11Z</time></trkpt>
<trkpt lat="47.33443400" lon="0.61889400"><ele></ele><time>2014-6-17T5:2:14Z</time></trkpt>
<trkpt lat="47.33433000" lon="0.61825800"><ele></ele><time>2014-6-17T5:2:17Z</time></trkpt>
<trkpt lat="47.33418300" lon="0.61754800"><ele></ele><time>2014-6-17T5:2:20Z</time></trkpt>
<trkpt lat="47.33404700" lon="0.61684200"><ele></ele><time>2014-6-17T5:2:23Z</time></trkpt>
<trkpt lat="47.33393400" lon="0.61626400"><ele></ele><time>2014-6-17T5:2:26Z</time></trkpt>
<trkpt lat="47.33390500" lon="0.61612300"><ele></ele><time>2014-6-17T5:2:29Z</time></trkpt>
<trkpt lat="47.33382000" lon="0.61580200"><ele></ele><time>2014-6-17T5:2:32Z</time></trkpt>
<trkpt lat="47.33378200" lon="0.61568200"><ele></ele><time>2014-6-17T5:2:35Z</time></trkpt>
<trkpt lat="47.33345200" lon="0.61511400"><ele></ele><time>2014-6-17T5:2:38Z</time></trkpt>
<trkpt lat="47.33328700" lon="0.61495100"><ele></ele><time>2014-6-17T5:2:41Z</time></trkpt>
<trkpt lat="47.33315000" lon="0.61485900"><ele></ele><time>2014-6-17T5:2:44Z</time></trkpt>
<trkpt lat="47.33281100" lon="0.61477500"><ele></ele><time>2014-6-17T5:2:47Z</time></trkpt>
<trkpt lat="47.33266700" lon="0.61477900"><ele></ele><time>2014-6-17T5:2:50Z</time></trkpt>
<trkpt lat="47.33243400" lon="0.61485600"><ele></ele><time>2014-6-17T5:2:53Z</time></trkpt>
<trkpt lat="47.33191300" lon="0.61526900"><ele></ele><time>2014-6-17T5:2:56Z</time></trkpt>
<trkpt lat="47.33153300" lon="0.61560400"><ele></ele><time>2014-6-17T5:2:59Z</time></trkpt>
<trkpt lat="47.33111500" lon="0.61597200"><ele></ele><time>2014-6-17T5:3:2Z</time></trkpt>
<trkpt lat="47.33089800" lon="0.61597400"><ele></ele><time>2014-6-17T5:3:5Z</time></trkpt>
<trkpt lat="47.33079200" lon="0.61571900"><ele></ele><time>2014-6-17T5:3:8Z</time></trkpt>
<trkpt lat="47.33082100" lon="0.61555200"><ele></ele><time>2014-6-17T5:3:11Z</time></trkpt>
<trkpt lat="47.33085600" lon="0.61544100"><ele></ele><time>2014-6-17T5:3:14Z</time></trkpt>
<trkpt lat="47.33083700" lon="0.61513200"><ele></ele><time>2014-6-17T5:3:17Z</time></trkpt>
<trkpt lat="47.33068100" lon="0.61501100"><ele></ele><time>2014-6-17T5:3:20Z</time></trkpt>
<trkpt lat="47.33046600" lon="0.61514500"><ele></ele><time>2014-6-17T5:3:23Z</time></trkpt>
<trkpt lat="47.33032500" lon="0.61522200"><ele></ele><time>2014-6-17T5:3:26Z</time></trkpt>
<trkpt lat="47.32989600" lon="0.61522700"><ele></ele><time>2014-6-17T5:3:29Z</time></trkpt>
<trkpt lat="47.32966800" lon="0.61515500"><ele></ele><time>2014-6-17T5:3:32Z</time></trkpt>
<trkpt lat="47.32922800" lon="0.61488400"><ele></ele><time>2014-6-17T5:3:35Z</time></trkpt>
<trkpt lat="47.32910300" lon="0.61480000"><ele></ele><time>2014-6-17T5:3:38Z</time></trkpt>
<trkpt lat="47.32868900" lon="0.61453600"><ele></ele><time>2014-6-17T5:3:41Z</time></trkpt>
<trkpt lat="47.32815700" lon="0.61421100"><ele></ele><time>2014-6-17T5:3:44Z</time></trkpt>
<trkpt lat="47.32756600" lon="0.61385900"><ele></ele><time>2014-6-17T5:3:47Z</time></trkpt>
<trkpt lat="47.32705900" lon="0.61352500"><ele></ele><time>2014-6-17T5:3:50Z</time></trkpt>
<trkpt lat="47.32664900" lon="0.61325000"><ele></ele><time>2014-6-17T5:3:53Z</time></trkpt>
<trkpt lat="47.32642600" lon="0.61310800"><ele></ele><time>2014-6-17T5:3:56Z</time></trkpt>
<trkpt lat="47.32592200" lon="0.61277400"><ele></ele><time>2014-6-17T5:3:59Z</time></trkpt>
<trkpt lat="47.32541200" lon="0.61244700"><ele></ele><time>2014-6-17T5:4:2Z</time></trkpt>
<trkpt lat="47.32510400" lon="0.61223200"><ele></ele><time>2014-6-17T5:4:5Z</time></trkpt>
<trkpt lat="47.32493200" lon="0.61197700"><ele></ele><time>2014-6-17T5:4:8Z</time></trkpt>
<trkpt lat="47.32488100" lon="0.61177700"><ele></ele><time>2014-6-17T5:4:11Z</time></trkpt>
<trkpt lat="47.32486600" lon="0.61102300"><ele></ele><time>2014-6-17T5:4:14Z</time></trkpt>
<trkpt lat="47.32486000" lon="0.61078900"><ele></ele><time>2014-6-17T5:4:17Z</time></trkpt>
<trkpt lat="47.32485900" lon="0.61048100"><ele></ele><time>2014-6-17T5:4:20Z</time></trkpt>
<trkpt lat="47.32484400" lon="0.61002300"><ele></ele><time>2014-6-17T5:4:23Z</time></trkpt>
<trkpt lat="47.32481900" lon="0.60941100"><ele></ele><time>2014-6-17T5:4:26Z</time></trkpt>
<trkpt lat="47.32481800" lon="0.60869200"><ele></ele><time>2014-6-17T5:4:29Z</time></trkpt>
<trkpt lat="47.32481900" lon="0.60854000"><ele></ele><time>2014-6-17T5:4:32Z</time></trkpt>
<trkpt lat="47.32482300" lon="0.60801100"><ele></ele><time>2014-6-17T5:4:35Z</time></trkpt>
<trkpt lat="47.32481900" lon="0.60755300"><ele></ele><time>2014-6-17T5:4:38Z</time></trkpt>
<trkpt lat="47.32481600" lon="0.60732100"><ele></ele><time>2014-6-17T5:4:41Z</time></trkpt>
<trkpt lat="47.32471600" lon="0.60700300"><ele></ele><time>2014-6-17T5:4:44Z</time></trkpt>
<trkpt lat="47.32461800" lon="0.60696500"><ele></ele><time>2014-6-17T5:4:47Z</time></trkpt>
<trkpt lat="47.32437900" lon="0.60691500"><ele></ele><time>2014-6-17T5:4:50Z</time></trkpt>
<trkpt lat="47.32423600" lon="0.60677300"><ele></ele><time>2014-6-17T5:4:53Z</time></trkpt>
<trkpt lat="47.32405700" lon="0.60651500"><ele></ele><time>2014-6-17T5:4:56Z</time></trkpt>
<trkpt lat="47.32395900" lon="0.60623300"><ele></ele><time>2014-6-17T5:4:59Z</time></trkpt>
<trkpt lat="47.32385000" lon="0.60611200"><ele></ele><time>2014-6-17T5:5:2Z</time></trkpt>
<trkpt lat="47.32365400" lon="0.60604200"><ele></ele><time>2014-6-17T5:5:5Z</time></trkpt>
<trkpt lat="47.32345700" lon="0.60597100"><ele></ele><time>2014-6-17T5:5:8Z</time></trkpt>
<trkpt lat="47.32336300" lon="0.60592800"><ele></ele><time>2014-6-17T5:5:11Z</time></trkpt>
<trkpt lat="47.32317600" lon="0.60587100"><ele></ele><time>2014-6-17T5:5:14Z</time></trkpt>
<trkpt lat="47.32294700" lon="0.60582300"><ele></ele><time>2014-6-17T5:5:17Z</time></trkpt>
<trkpt lat="47.32274800" lon="0.60594100"><ele></ele><time>2014-6-17T5:5:20Z</time></trkpt>
<trkpt lat="47.32271900" lon="0.60597800"><ele></ele><time>2014-6-17T5:5:23Z</time></trkpt>
<trkpt lat="47.32258800" lon="0.60602200"><ele></ele><time>2014-6-17T5:5:26Z</time></trkpt>
<trkpt lat="47.32236800" lon="0.60601200"><ele></ele><time>2014-6-17T5:5:29Z</time></trkpt>
<trkpt lat="47.32218700" lon="0.60596900"><ele></ele><time>2014-6-17T5:5:32Z</time></trkpt>
<trkpt lat="47.32194900" lon="0.60595000"><ele></ele><time>2014-6-17T5:5:35Z</time></trkpt>
<trkpt lat="47.32150300" lon="0.60595000"><ele></ele><time>2014-6-17T5:5:38Z</time></trkpt>
<trkpt lat="47.32111700" lon="0.60593600"><ele></ele><time>2014-6-17T5:5:41Z</time></trkpt>
<trkpt lat="47.32084600" lon="0.60593200"><ele></ele><time>2014-6-17T5:5:44Z</time></trkpt>
<trkpt lat="47.32072200" lon="0.60587900"><ele></ele><time>2014-6-17T5:5:47Z</time></trkpt>
<trkpt lat="47.32063400" lon="0.60583900"><ele></ele><time>2014-6-17T5:5:50Z</time></trkpt>
<trkpt lat="47.32038300" lon="0.60575700"><ele></ele><time>2014-6-17T5:5:53Z</time></trkpt>
<trkpt lat="47.32026200" lon="0.60568700"><ele></ele><time>2014-6-17T5:5:56Z</time></trkpt>
<trkpt lat="47.31997500" lon="0.60554900"><ele></ele><time>2014-6-17T5:5:59Z</time></trkpt>
<trkpt lat="47.31994400" lon="0.60553600"><ele></ele><time>2014-6-17T5:6:2Z</time></trkpt>
<trkpt lat="47.31980400" lon="0.60546000"><ele></ele><time>2014-6-17T5:6:5Z</time></trkpt>
<trkpt lat="47.31969600" lon="0.60537500"><ele></ele><time>2014-6-17T5:6:8Z</time></trkpt>
<trkpt lat="47.31939600" lon="0.60519500"><ele></ele><time>2014-6-17T5:6:11Z</time></trkpt>
<trkpt lat="47.31927400" lon="0.60513100"><ele></ele><time>2014-6-17T5:6:14Z</time></trkpt>
<trkpt lat="47.31907400" lon="0.60500800"><ele></ele><time>2014-6-17T5:6:17Z</time></trkpt>
<trkpt lat="47.31892500" lon="0.60489600"><ele></ele><time>2014-6-17T5:6:20Z</time></trkpt>
<trkpt lat="47.31891400" lon="0.60473400"><ele></ele><time>2014-6-17T5:6:23Z</time></trkpt>
<trkpt lat="47.31893900" lon="0.60452400"><ele></ele><time>2014-6-17T5:6:26Z</time></trkpt>
<trkpt lat="47.31894900" lon="0.60437500"><ele></ele><time>2014-6-17T5:6:29Z</time></trkpt>
<trkpt lat="47.31897900" lon="0.60427000"><ele></ele><time>2014-6-17T5:6:32Z</time></trkpt>
<trkpt lat="47.31897800" lon="0.60420000"><ele></ele><time>2014-6-17T5:6:35Z</time></trkpt>
<trkpt lat="47.31893500" lon="0.60400600"><ele></ele><time>2014-6-17T5:6:38Z</time></trkpt>
<trkpt lat="47.31900800" lon="0.60374900"><ele></ele><time>2014-6-17T5:6:41Z</time></trkpt>
<trkpt lat="47.31915400" lon="0.60333300"><ele></ele><time>2014-6-17T5:6:44Z</time></trkpt>
<trkpt lat="47.31922800" lon="0.60291800"><ele></ele><time>2014-6-17T5:6:47Z</time></trkpt>
<trkpt lat="47.31937500" lon="0.60191900"><ele></ele><time>2014-6-17T5:6:50Z</time></trkpt>
<trkpt lat="47.31938200" lon="0.60178200"><ele></ele><time>2014-6-17T5:6:53Z</time></trkpt>
<trkpt lat="47.31942500" lon="0.60152100"><ele></ele><time>2014-6-17T5:6:56Z</time></trkpt>
<trkpt lat="47.31946500" lon="0.60133700"><ele></ele><time>2014-6-17T5:6:59Z</time></trkpt>
<trkpt lat="47.31968000" lon="0.60084000"><ele></ele><time>2014-6-17T5:7:2Z</time></trkpt>
<trkpt lat="47.31970100" lon="0.60074600"><ele></ele><time>2014-6-17T5:7:5Z</time></trkpt>
<trkpt lat="47.31956200" lon="0.60040600"><ele></ele><time>2014-6-17T5:7:8Z</time></trkpt>
<trkpt lat="47.31947200" lon="0.60032700"><ele></ele><time>2014-6-17T5:7:11Z</time></trkpt>
<trkpt lat="47.31888700" lon="0.59996100"><ele></ele><time>2014-6-17T5:7:14Z</time></trkpt>
<trkpt lat="47.31840200" lon="0.59963700"><ele></ele><time>2014-6-17T5:7:17Z</time></trkpt>
<trkpt lat="47.31811800" lon="0.59942200"><ele></ele><time>2014-6-17T5:7:20Z</time></trkpt>
<trkpt lat="47.31765000" lon="0.59911900"><ele></ele><time>2014-6-17T5:7:23Z</time></trkpt>
<trkpt lat="47.31719600" lon="0.59876400"><ele></ele><time>2014-6-17T5:7:26Z</time></trkpt>
<trkpt lat="47.31710300" lon="0.59868300"><ele></ele><time>2014-6-17T5:7:29Z</time></trkpt>
<trkpt lat="47.31695600" lon="0.59853500"><ele></ele><time>2014-6-17T5:7:32Z</time></trkpt>
<trkpt lat="47.31673200" lon="0.59827000"><ele></ele><time>2014-6-17T5:7:35Z</time></trkpt>
<trkpt lat="47.31635300" lon="0.59783900"><ele></ele><time>2014-6-17T5:7:38Z</time></trkpt>
<trkpt lat="47.31619300" lon="0.59764800"><ele></ele><time>2014-6-17T5:7:41Z</time></trkpt>
<trkpt lat="47.31585400" lon="0.59719400"><ele></ele><time>2014-6-17T5:7:44Z</time></trkpt>
<trkpt lat="47.31556100" lon="0.59677600"><ele></ele><time>2014-6-17T5:7:47Z</time></trkpt>
<trkpt lat="47.31519100" lon="0.59624200"><ele></ele><time>2014-6-17T5:7:50Z</time></trkpt>
<trkpt lat="47.31484600" lon="0.59576300"><ele></ele><time>2014-6-17T5:7:53Z</time></trkpt>
<trkpt lat="47.31471000" lon="0.59558200"><ele></ele><time>2014-6-17T5:7:56Z</time></trkpt>
<trkpt lat="47.31457800" lon="0.59539500"><ele></ele><time>2014-6-17T5:7:59Z</time></trkpt>
<trkpt lat="47.31439100" lon="0.59511600"><ele></ele><time>2014-6-17T5:8:2Z</time></trkpt>
<trkpt lat="47.31418800" lon="0.59512200"><ele></ele><time>2014-6-17T5:8:5Z</time></trkpt>
<trkpt lat="47.31371100" lon="0.59533700"><ele></ele><time>2014-6-17T5:8:8Z</time></trkpt>
<trkpt lat="47.31352500" lon="0.59541100"><ele></ele><time>2014-6-17T5:8:11Z</time></trkpt>
<trkpt lat="47.31338300" lon="0.59546600"><ele></ele><time>2014-6-17T5:8:14Z</time></trkpt>
<trkpt lat="47.31323100" lon="0.59548000"><ele></ele><time>2014-6-17T5:8:17Z</time></trkpt>
<trkpt lat="47.31278600" lon="0.59538900"><ele></ele><time>2014-6-17T5:8:20Z</time></trkpt>
<trkpt lat="47.31220300" lon="0.59518400"><ele></ele><time>2014-6-17T5:8:23Z</time></trkpt>
<trkpt lat="47.31170500" lon="0.59503500"><ele></ele><time>2014-6-17T5:8:26Z</time></trkpt>
<trkpt lat="47.31161000" lon="0.59501400"><ele></ele><time>2014-6-17T5:8:29Z</time></trkpt>
<trkpt lat="47.31101100" lon="0.59474900"><ele></ele><time>2014-6-17T5:8:32Z</time></trkpt>
<trkpt lat="47.31055000" lon="0.59454300"><ele></ele><time>2014-6-17T5:8:35Z</time></trkpt>
<trkpt lat="47.30995700" lon="0.59429500"><ele></ele><time>2014-6-17T5:8:38Z</time></trkpt>
<trkpt lat="47.30990800" lon="0.59427900"><ele></ele><time>2014-6-17T5:8:41Z</time></trkpt>
<trkpt lat="47.30942300" lon="0.59406700"><ele></ele><time>2014-6-17T5:8:44Z</time></trkpt>
<trkpt lat="47.30899300" lon="0.59384200"><ele></ele><time>2014-6-17T5:8:47Z</time></trkpt>
<trkpt lat="47.30882800" lon="0.59353900"><ele></ele><time>2014-6-17T5:8:50Z</time></trkpt>
<trkpt lat="47.30874800" lon="0.59294600"><ele></ele><time>2014-6-17T5:8:53Z</time></trkpt>
<trkpt lat="47.30869300" lon="0.59234200"><ele></ele><time>2014-6-17T5:8:56Z</time></trkpt>
<trkpt lat="47.30865600" lon="0.59173800"><ele></ele><time>2014-6-17T5:8:59Z</time></trkpt>
<trkpt lat="47.30861600" lon="0.59106200"><ele></ele><time>2014-6-17T5:9:2Z</time></trkpt>
<trkpt lat="47.30857300" lon="0.59032900"><ele></ele><time>2014-6-17T5:9:5Z</time></trkpt>
<trkpt lat="47.30856800" lon="0.59026100"><ele></ele><time>2014-6-17T5:9:8Z</time></trkpt>
<trkpt lat="47.30853000" lon="0.58958100"><ele></ele><time>2014-6-17T5:9:11Z</time></trkpt>
<trkpt lat="47.30849400" lon="0.58894900"><ele></ele><time>2014-6-17T5:9:14Z</time></trkpt>
<trkpt lat="47.30858300" lon="0.58864100"><ele></ele><time>2014-6-17T5:9:17Z</time></trkpt>
<trkpt lat="47.30867900" lon="0.58858600"><ele></ele><time>2014-6-17T5:9:20Z</time></trkpt>
<trkpt lat="47.30912800" lon="0.58844500"><ele></ele><time>2014-6-17T5:9:23Z</time></trkpt>
<trkpt lat="47.30951000" lon="0.58829000"><ele></ele><time>2014-6-17T5:9:26Z</time></trkpt>
<trkpt lat="47.30969300" lon="0.58801600"><ele></ele><time>2014-6-17T5:9:29Z</time></trkpt>
<trkpt lat="47.30965200" lon="0.58789200"><ele></ele><time>2014-6-17T5:9:32Z</time></trkpt>
<trkpt lat="47.30959300" lon="0.58791100"><ele></ele><time>2014-6-17T5:9:35Z</time></trkpt>
<trkpt lat="47.30923200" lon="0.58812600"><ele></ele><time>2014-6-17T5:9:38Z</time></trkpt>
<trkpt lat="47.30918900" lon="0.58814200"><ele></ele><time>2014-6-17T5:9:41Z</time></trkpt>
<trkpt lat="47.30884600" lon="0.58816800"><ele></ele><time>2014-6-17T5:9:44Z</time></trkpt>
<trkpt lat="47.30876100" lon="0.58817000"><ele></ele><time>2014-6-17T5:9:47Z</time></trkpt>
<trkpt lat="47.30858500" lon="0.58821400"><ele></ele><time>2014-6-17T5:9:50Z</time></trkpt>
<trkpt lat="47.30811000" lon="0.58830300"><ele></ele><time>2014-6-17T5:9:53Z</time></trkpt>
<trkpt lat="47.30797600" lon="0.58831900"><ele></ele><time>2014-6-17T5:9:56Z</time></trkpt>
<trkpt lat="47.30757600" lon="0.58841500"><ele></ele><time>2014-6-17T5:9:59Z</time></trkpt>
<trkpt lat="47.30751900" lon="0.58843500"><ele></ele><time>2014-6-17T5:10:2Z</time></trkpt>
<trkpt lat="47.30715400" lon="0.58868300"><ele></ele><time>2014-6-17T5:10:5Z</time></trkpt>
<trkpt lat="47.30696300" lon="0.58887800"><ele></ele><time>2014-6-17T5:10:8Z</time></trkpt>
<trkpt lat="47.30684300" lon="0.58904200"><ele></ele><time>2014-6-17T5:10:11Z</time></trkpt>
<trkpt lat="47.30667900" lon="0.58932800"><ele></ele><time>2014-6-17T5:10:14Z</time></trkpt>
<trkpt lat="47.30649600" lon="0.58987700"><ele></ele><time>2014-6-17T5:10:17Z</time></trkpt>
<trkpt lat="47.30626600" lon="0.59018500"><ele></ele><time>2014-6-17T5:10:20Z</time></trkpt>
<trkpt lat="47.30604300" lon="0.59032000"><ele></ele><time>2014-6-17T5:10:23Z</time></trkpt>
<trkpt lat="47.30558100" lon="0.59032700"><ele></ele><time>2014-6-17T5:10:26Z</time></trkpt>
<trkpt lat="47.30492100" lon="0.59037400"><ele></ele><time>2014-6-17T5:10:29Z</time></trkpt>
<trkpt lat="47.30447900" lon="0.59041300"><ele></ele><time>2014-6-17T5:10:32Z</time></trkpt>
<trkpt lat="47.30399900" lon="0.59045900"><ele></ele><time>2014-6-17T5:10:35Z</time></trkpt>
<trkpt lat="47.30368500" lon="0.59047700"><ele></ele><time>2014-6-17T5:10:38Z</time></trkpt>
<trkpt lat="47.30358300" lon="0.59047900"><ele></ele><time>2014-6-17T5:10:41Z</time></trkpt>
<trkpt lat="47.30318900" lon="0.59032800"><ele></ele><time>2014-6-17T5:10:44Z</time></trkpt>
<trkpt lat="47.30275900" lon="0.59010100"><ele></ele><time>2014-6-17T5:10:47Z</time></trkpt>
<trkpt lat="47.30246600" lon="0.58994400"><ele></ele><time>2014-6-17T5:10:50Z</time></trkpt>
<trkpt lat="47.30217700" lon="0.58979100"><ele></ele><time>2014-6-17T5:10:53Z</time></trkpt>
<trkpt lat="47.30198600" lon="0.58981800"><ele></ele><time>2014-6-17T5:10:56Z</time></trkpt>
<trkpt lat="47.30144700" lon="0.59013600"><ele></ele><time>2014-6-17T5:10:59Z</time></trkpt>
<trkpt lat="47.30105200" lon="0.59036900"><ele></ele><time>2014-6-17T5:11:2Z</time></trkpt>
<trkpt lat="47.30059800" lon="0.59063400"><ele></ele><time>2014-6-17T5:11:5Z</time></trkpt>
<trkpt lat="47.30005700" lon="0.59094700"><ele></ele><time>2014-6-17T5:11:8Z</time></trkpt>
<trkpt lat="47.29956900" lon="0.59122900"><ele></ele><time>2014-6-17T5:11:11Z</time></trkpt>
<trkpt lat="47.29947300" lon="0.59128300"><ele></ele><time>2014-6-17T5:11:14Z</time></trkpt>
<trkpt lat="47.29916500" lon="0.59131300"><ele></ele><time>2014-6-17T5:11:17Z</time></trkpt>
<trkpt lat="47.29895700" lon="0.59128000"><ele></ele><time>2014-6-17T5:11:20Z</time></trkpt>
<trkpt lat="47.29850900" lon="0.59122600"><ele></ele><time>2014-6-17T5:11:23Z</time></trkpt>
<trkpt lat="47.29841800" lon="0.59121100"><ele></ele><time>2014-6-17T5:11:26Z</time></trkpt>
<trkpt lat="47.29833700" lon="0.59118700"><ele></ele><time>2014-6-17T5:11:29Z</time></trkpt>
<trkpt lat="47.29828200" lon="0.59103100"><ele></ele><time>2014-6-17T5:11:32Z</time></trkpt>
<trkpt lat="47.29838900" lon="0.59051200"><ele></ele><time>2014-6-17T5:11:35Z</time></trkpt>
<trkpt lat="47.29845700" lon="0.59008800"><ele></ele><time>2014-6-17T5:11:38Z</time></trkpt>
<trkpt lat="47.29855100" lon="0.58960000"><ele></ele><time>2014-6-17T5:11:41Z</time></trkpt>
<trkpt lat="47.29867400" lon="0.58905700"><ele></ele><time>2014-6-17T5:11:44Z</time></trkpt>
<trkpt lat="47.29868200" lon="0.58900000"><ele></ele><time>2014-6-17T5:11:47Z</time></trkpt>
<trkpt lat="47.29857600" lon="0.58884000"><ele></ele><time>2014-6-17T5:11:50Z</time></trkpt>
<trkpt lat="47.29848700" lon="0.58880900"><ele></ele><time>2014-6-17T5:11:53Z</time></trkpt>
<trkpt lat="47.29839800" lon="0.58876500"><ele></ele><time>2014-6-17T5:11:56Z</time></trkpt>
<trkpt lat="47.29798900" lon="0.58857400"><ele></ele><time>2014-6-17T5:11:59Z</time></trkpt>
<trkpt lat="47.29755700" lon="0.58830400"><ele></ele><time>2014-6-17T5:12:2Z</time></trkpt>
<trkpt lat="47.29721200" lon="0.58787100"><ele></ele><time>2014-6-17T5:12:5Z</time></trkpt>
<trkpt lat="47.29709100" lon="0.58770100"><ele></ele><time>2014-6-17T5:12:8Z</time></trkpt>
<trkpt lat="47.29674800" lon="0.58732700"><ele></ele><time>2014-6-17T5:12:11Z</time></trkpt>
<trkpt lat="47.29654000" lon="0.58716300"><ele></ele><time>2014-6-17T5:12:14Z</time></trkpt>
<trkpt lat="47.29612000" lon="0.58691000"><ele></ele><time>2014-6-17T5:12:17Z</time></trkpt>
<trkpt lat="47.29574100" lon="0.58668300"><ele></ele><time>2014-6-17T5:12:20Z</time></trkpt>
<trkpt lat="47.29537000" lon="0.58647100"><ele></ele><time>2014-6-17T5:12:23Z</time></trkpt>
<trkpt lat="47.29507500" lon="0.58630700"><ele></ele><time>2014-6-17T5:12:26Z</time></trkpt>
<trkpt lat="47.29481500" lon="0.58616000"><ele></ele><time>2014-6-17T5:12:29Z</time></trkpt>
<trkpt lat="47.29447700" lon="0.58598300"><ele></ele><time>2014-6-17T5:12:32Z</time></trkpt>
<trkpt lat="47.29429400" lon="0.58584300"><ele></ele><time>2014-6-17T5:12:35Z</time></trkpt>
<trkpt lat="47.29429000" lon="0.58565300"><ele></ele><time>2014-6-17T5:12:38Z</time></trkpt>
<trkpt lat="47.29435900" lon="0.58511700"><ele></ele><time>2014-6-17T5:12:41Z</time></trkpt>
<trkpt lat="47.29439100" lon="0.58493500"><ele></ele><time>2014-6-17T5:12:44Z</time></trkpt>
<trkpt lat="47.29447400" lon="0.58445600"><ele></ele><time>2014-6-17T5:12:47Z</time></trkpt>
<trkpt lat="47.29453200" lon="0.58392100"><ele></ele><time>2014-6-17T5:12:50Z</time></trkpt>
<trkpt lat="47.29459000" lon="0.58338300"><ele></ele><time>2014-6-17T5:12:53Z</time></trkpt>
<trkpt lat="47.29465300" lon="0.58269200"><ele></ele><time>2014-6-17T5:12:56Z</time></trkpt>
<trkpt lat="47.29468200" lon="0.58233500"><ele></ele><time>2014-6-17T5:12:59Z</time></trkpt>
<trkpt lat="47.29472100" lon="0.58167900"><ele></ele><time>2014-6-17T5:13:2Z</time></trkpt>
<trkpt lat="47.29472200" lon="0.58160300"><ele></ele><time>2014-6-17T5:13:5Z</time></trkpt>
<trkpt lat="47.29466100" lon="0.58085900"><ele></ele><time>2014-6-17T5:13:8Z</time></trkpt>
<trkpt lat="47.29454600" lon="0.58015200"><ele></ele><time>2014-6-17T5:13:11Z</time></trkpt>
<trkpt lat="47.29438900" lon="0.57922500"><ele></ele><time>2014-6-17T5:13:14Z</time></trkpt>
<trkpt lat="47.29423700" lon="0.57835100"><ele></ele><time>2014-6-17T5:13:17Z</time></trkpt>
<trkpt lat="47.29407000" lon="0.57747600"><ele></ele><time>2014-6-17T5:13:20Z</time></trkpt>
<trkpt lat="47.29384800" lon="0.57660900"><ele></ele><time>2014-6-17T5:13:23Z</time></trkpt>
<trkpt lat="47.29365600" lon="0.57587100"><ele></ele><time>2014-6-17T5:13:26Z</time></trkpt>
<trkpt lat="47.29346100" lon="0.57512300"><ele></ele><time>2014-6-17T5:13:29Z</time></trkpt>
<trkpt lat="47.29336000" lon="0.57485400"><ele></ele><time>2014-6-17T5:13:32Z</time></trkpt>
<trkpt lat="47.29325900" lon="0.57469400"><ele></ele><time>2014-6-17T5:13:35Z</time></trkpt>
<trkpt lat="47.29293700" lon="0.57412500"><ele></ele><time>2014-6-17T5:13:38Z</time></trkpt>
<trkpt lat="47.29260800" lon="0.57347000"><ele></ele><time>2014-6-17T5:13:41Z</time></trkpt>
<trkpt lat="47.29256600" lon="0.57333400"><ele></ele><time>2014-6-17T5:13:44Z</time></trkpt>
<trkpt lat="47.29252100" lon="0.57274200"><ele></ele><time>2014-6-17T5:13:47Z</time></trkpt>
<trkpt lat="47.29252800" lon="0.57252200"><ele></ele><time>2014-6-17T5:13:50Z</time></trkpt>
<trkpt lat="47.29254300" lon="0.57200300"><ele></ele><time>2014-6-17T5:13:53Z</time></trkpt>
<trkpt lat="47.29256100" lon="0.57123400"><ele></ele><time>2014-6-17T5:13:56Z</time></trkpt>
<trkpt lat="47.29257500" lon="0.57047200"><ele></ele><time>2014-6-17T5:13:59Z</time></trkpt>
<trkpt lat="47.29259400" lon="0.56971500"><ele></ele><time>2014-6-17T5:14:2Z</time></trkpt>
<trkpt lat="47.29260200" lon="0.56917300"><ele></ele><time>2014-6-17T5:14:5Z</time></trkpt>
<trkpt lat="47.29248900" lon="0.56892700"><ele></ele><time>2014-6-17T5:14:8Z</time></trkpt>
<trkpt lat="47.29229200" lon="0.56880100"><ele></ele><time>2014-6-17T5:14:11Z</time></trkpt>
<trkpt lat="47.29180900" lon="0.56843700"><ele></ele><time>2014-6-17T5:14:14Z</time></trkpt>
<trkpt lat="47.29148300" lon="0.56803900"><ele></ele><time>2014-6-17T5:14:17Z</time></trkpt>
<trkpt lat="47.29129900" lon="0.56776600"><ele></ele><time>2014-6-17T5:14:20Z</time></trkpt>
<trkpt lat="47.29100300" lon="0.56734200"><ele></ele><time>2014-6-17T5:14:23Z</time></trkpt>
<trkpt lat="47.29064300" lon="0.56686900"><ele></ele><time>2014-6-17T5:14:26Z</time></trkpt>
<trkpt lat="47.29037400" lon="0.56652300"><ele></ele><time>2014-6-17T5:14:29Z</time></trkpt>
<trkpt lat="47.28992500" lon="0.56597600"><ele></ele><time>2014-6-17T5:14:32Z</time></trkpt>
<trkpt lat="47.28934300" lon="0.56527200"><ele></ele><time>2014-6-17T5:14:35Z</time></trkpt>
<trkpt lat="47.28904500" lon="0.56475200"><ele></ele><time>2014-6-17T5:14:38Z</time></trkpt>
<trkpt lat="47.28876700" lon="0.56404600"><ele></ele><time>2014-6-17T5:14:41Z</time></trkpt>
<trkpt lat="47.28856100" lon="0.56328500"><ele></ele><time>2014-6-17T5:14:44Z</time></trkpt>
<trkpt lat="47.28838300" lon="0.56240900"><ele></ele><time>2014-6-17T5:14:47Z</time></trkpt>
<trkpt lat="47.28816500" lon="0.56174000"><ele></ele><time>2014-6-17T5:14:50Z</time></trkpt>
<trkpt lat="47.28786500" lon="0.56111300"><ele></ele><time>2014-6-17T5:14:53Z</time></trkpt>
<trkpt lat="47.28751000" lon="0.56042000"><ele></ele><time>2014-6-17T5:14:56Z</time></trkpt>
<trkpt lat="47.28707100" lon="0.55959200"><ele></ele><time>2014-6-17T5:14:59Z</time></trkpt>
<trkpt lat="47.28668900" lon="0.55893500"><ele></ele><time>2014-6-17T5:15:2Z</time></trkpt>
<trkpt lat="47.28617200" lon="0.55818400"><ele></ele><time>2014-6-17T5:15:5Z</time></trkpt>
<trkpt lat="47.28576100" lon="0.55762400"><ele></ele><time>2014-6-17T5:15:8Z</time></trkpt>
<trkpt lat="47.28560600" lon="0.55745500"><ele></ele><time>2014-6-17T5:15:11Z</time></trkpt>
<trkpt lat="47.28527600" lon="0.55715300"><ele></ele><time>2014-6-17T5:15:14Z</time></trkpt>
<trkpt lat="47.28511400" lon="0.55687000"><ele></ele><time>2014-6-17T5:15:17Z</time></trkpt>
<trkpt lat="47.28481000" lon="0.55593900"><ele></ele><time>2014-6-17T5:15:20Z</time></trkpt>
<trkpt lat="47.28456600" lon="0.55520700"><ele></ele><time>2014-6-17T5:15:23Z</time></trkpt>
<trkpt lat="47.28426500" lon="0.55442600"><ele></ele><time>2014-6-17T5:15:26Z</time></trkpt>
<trkpt lat="47.28416100" lon="0.55420400"><ele></ele><time>2014-6-17T5:15:29Z</time></trkpt>
<trkpt lat="47.28409800" lon="0.55405700"><ele></ele><time>2014-6-17T5:15:32Z</time></trkpt>
<trkpt lat="47.28402300" lon="0.55388900"><ele></ele><time>2014-6-17T5:15:35Z</time></trkpt>
<trkpt lat="47.28386400" lon="0.55352800"><ele></ele><time>2014-6-17T5:15:38Z</time></trkpt>
<trkpt lat="47.28367600" lon="0.55316000"><ele></ele><time>2014-6-17T5:15:41Z</time></trkpt>
<trkpt lat="47.28350700" lon="0.55291800"><ele></ele><time>2014-6-17T5:15:44Z</time></trkpt>
<trkpt lat="47.28329800" lon="0.55279400"><ele></ele><time>2014-6-17T5:15:47Z</time></trkpt>
<trkpt lat="47.28322500" lon="0.55278800"><ele></ele><time>2014-6-17T5:15:50Z</time></trkpt>
<trkpt lat="47.28296300" lon="0.55285700"><ele></ele><time>2014-6-17T5:15:53Z</time></trkpt>
<trkpt lat="47.28271000" lon="0.55296400"><ele></ele><time>2014-6-17T5:15:56Z</time></trkpt>
<trkpt lat="47.28262000" lon="0.55298800"><ele></ele><time>2014-6-17T5:15:59Z</time></trkpt>
<trkpt lat="47.28247600" lon="0.55313500"><ele></ele><time>2014-6-17T5:16:2Z</time></trkpt>
<trkpt lat="47.28240900" lon="0.55319100"><ele></ele><time>2014-6-17T5:16:5Z</time></trkpt>
<trkpt lat="47.28229700" lon="0.55345300"><ele></ele><time>2014-6-17T5:16:8Z</time></trkpt>
<trkpt lat="47.28216900" lon="0.55374200"><ele></ele><time>2014-6-17T5:16:11Z</time></trkpt>
<trkpt lat="47.28215400" lon="0.55378200"><ele></ele><time>2014-6-17T5:16:14Z</time></trkpt>
<trkpt lat="47.28212800" lon="0.55395200"><ele></ele><time>2014-6-17T5:16:17Z</time></trkpt>
<trkpt lat="47.28202400" lon="0.55433600"><ele></ele><time>2014-6-17T5:16:20Z</time></trkpt>
<trkpt lat="47.28198700" lon="0.55450400"><ele></ele><time>2014-6-17T5:16:23Z</time></trkpt>
<trkpt lat="47.28194300" lon="0.55458900"><ele></ele><time>2014-6-17T5:16:26Z</time></trkpt>
<trkpt lat="47.28187900" lon="0.55470800"><ele></ele><time>2014-6-17T5:16:29Z</time></trkpt>
<trkpt lat="47.28187200" lon="0.55473100"><ele></ele><time>2014-6-17T5:16:32Z</time></trkpt>
<trkpt lat="47.28184000" lon="0.55488400"><ele></ele><time>2014-6-17T5:16:35Z</time></trkpt>
<trkpt lat="47.28182900" lon="0.55506500"><ele></ele><time>2014-6-17T5:16:38Z</time></trkpt>
<trkpt lat="47.28183000" lon="0.55525500"><ele></ele><time>2014-6-17T5:16:41Z</time></trkpt>
<trkpt lat="47.28184300" lon="0.55545400"><ele></ele><time>2014-6-17T5:16:44Z</time></trkpt>
<trkpt lat="47.28184700" lon="0.55555400"><ele></ele><time>2014-6-17T5:16:47Z</time></trkpt>
<trkpt lat="47.28187300" lon="0.55584800"><ele></ele><time>2014-6-17T5:16:50Z</time></trkpt>
<trkpt lat="47.28189500" lon="0.55612100"><ele></ele><time>2014-6-17T5:16:53Z</time></trkpt>
<trkpt lat="47.28177900" lon="0.55626400"><ele></ele><time>2014-6-17T5:16:56Z</time></trkpt>
<trkpt lat="47.28165000" lon="0.55632300"><ele></ele><time>2014-6-17T5:16:59Z</time></trkpt>
<trkpt lat="47.28114700" lon="0.55653500"><ele></ele><time>2014-6-17T5:17:2Z</time></trkpt>
<trkpt lat="47.28078700" lon="0.55667200"><ele></ele><time>2014-6-17T5:17:5Z</time></trkpt>
<trkpt lat="47.28039500" lon="0.55682600"><ele></ele><time>2014-6-17T5:17:8Z</time></trkpt>
<trkpt lat="47.28003600" lon="0.55706500"><ele></ele><time>2014-6-17T5:17:11Z</time></trkpt>
<trkpt lat="47.27954700" lon="0.55739700"><ele></ele><time>2014-6-17T5:17:14Z</time></trkpt>
<trkpt lat="47.27929500" lon="0.55757500"><ele></ele><time>2014-6-17T5:17:17Z</time></trkpt>
<trkpt lat="47.27902200" lon="0.55765500"><ele></ele><time>2014-6-17T5:17:20Z</time></trkpt>
<trkpt lat="47.27893400" lon="0.55759000"><ele></ele><time>2014-6-17T5:17:23Z</time></trkpt>
<trkpt lat="47.27868700" lon="0.55737000"><ele></ele><time>2014-6-17T5:17:26Z</time></trkpt>
<trkpt lat="47.27844300" lon="0.55733400"><ele></ele><time>2014-6-17T5:17:29Z</time></trkpt>
<trkpt lat="47.27827900" lon="0.55741400"><ele></ele><time>2014-6-17T5:17:32Z</time></trkpt>
<trkpt lat="47.27818200" lon="0.55749900"><ele></ele><time>2014-6-17T5:17:35Z</time></trkpt>
<trkpt lat="47.27786400" lon="0.55789100"><ele></ele><time>2014-6-17T5:17:38Z</time></trkpt>
<trkpt lat="47.27768000" lon="0.55823700"><ele></ele><time>2014-6-17T5:17:41Z</time></trkpt>
<trkpt lat="47.27760300" lon="0.55841300"><ele></ele><time>2014-6-17T5:17:44Z</time></trkpt>
<trkpt lat="47.27756200" lon="0.55849900"><ele></ele><time>2014-6-17T5:17:47Z</time></trkpt>
<trkpt lat="47.27734600" lon="0.55889400"><ele></ele><time>2014-6-17T5:17:50Z</time></trkpt>
<trkpt lat="47.27731300" lon="0.55917700"><ele></ele><time>2014-6-17T5:17:53Z</time></trkpt>
<trkpt lat="47.27734200" lon="0.55941100"><ele></ele><time>2014-6-17T5:17:56Z</time></trkpt>
<trkpt lat="47.27739200" lon="0.55965700"><ele></ele><time>2014-6-17T5:17:59Z</time></trkpt>
<trkpt lat="47.27743200" lon="0.55990200"><ele></ele><time>2014-6-17T5:18:2Z</time></trkpt>
<trkpt lat="47.27749900" lon="0.56023700"><ele></ele><time>2014-6-17T5:18:5Z</time></trkpt>
<trkpt lat="47.27766000" lon="0.56062500"><ele></ele><time>2014-6-17T5:18:8Z</time></trkpt>
<trkpt lat="47.27773400" lon="0.56085100"><ele></ele><time>2014-6-17T5:18:11Z</time></trkpt>
<trkpt lat="47.27767300" lon="0.56091300"><ele></ele><time>2014-6-17T5:18:14Z</time></trkpt>
<trkpt lat="47.27762100" lon="0.56077800"><ele></ele><time>2014-6-17T5:18:17Z</time></trkpt>
<trkpt lat="47.27760800" lon="0.56073400"><ele></ele><time>2014-6-17T5:18:20Z</time></trkpt>
<trkpt lat="47.27747100" lon="0.56035700"><ele></ele><time>2014-6-17T5:18:23Z</time></trkpt>
<trkpt lat="47.27733500" lon="0.56005700"><ele></ele><time>2014-6-17T5:18:26Z</time></trkpt>
<trkpt lat="47.27721500" lon="0.55984300"><ele></ele><time>2014-6-17T5:18:29Z</time></trkpt>
<trkpt lat="47.27715400" lon="0.55973500"><ele></ele><time>2014-6-17T5:18:32Z</time></trkpt>
<trkpt lat="47.27700500" lon="0.55952700"><ele></ele><time>2014-6-17T5:18:35Z</time></trkpt>
<trkpt lat="47.27687300" lon="0.55937200"><ele></ele><time>2014-6-17T5:18:38Z</time></trkpt>
<trkpt lat="47.27671700" lon="0.55923500"><ele></ele><time>2014-6-17T5:18:41Z</time></trkpt>
<trkpt lat="47.27653900" lon="0.55912100"><ele></ele><time>2014-6-17T5:18:44Z</time></trkpt>
<trkpt lat="47.27635900" lon="0.55900800"><ele></ele><time>2014-6-17T5:18:47Z</time></trkpt>
<trkpt lat="47.27601500" lon="0.55887700"><ele></ele><time>2014-6-17T5:18:50Z</time></trkpt>
<trkpt lat="47.27596200" lon="0.55884600"><ele></ele><time>2014-6-17T5:18:53Z</time></trkpt>
<trkpt lat="47.27596000" lon="0.55885200"><ele></ele><time>2014-6-17T5:18:56Z</time></trkpt>
<trkpt lat="47.27584600" lon="0.55883200"><ele></ele><time>2014-6-17T5:18:59Z</time></trkpt>
<trkpt lat="47.27576600" lon="0.55879300"><ele></ele><time>2014-6-17T5:19:2Z</time></trkpt>
<trkpt lat="47.27563300" lon="0.55866100"><ele></ele><time>2014-6-17T5:19:5Z</time></trkpt>
<trkpt lat="47.27558400" lon="0.55857500"><ele></ele><time>2014-6-17T5:19:8Z</time></trkpt>
<trkpt lat="47.27550700" lon="0.55842100"><ele></ele><time>2014-6-17T5:19:11Z</time></trkpt>
<trkpt lat="47.27539800" lon="0.55802800"><ele></ele><time>2014-6-17T5:19:14Z</time></trkpt>
<trkpt lat="47.27537700" lon="0.55788000"><ele></ele><time>2014-6-17T5:19:17Z</time></trkpt>
<trkpt lat="47.27530500" lon="0.55752400"><ele></ele><time>2014-6-17T5:19:20Z</time></trkpt>
<trkpt lat="47.27529900" lon="0.55746100"><ele></ele><time>2014-6-17T5:19:23Z</time></trkpt>
<trkpt lat="47.27528400" lon="0.55734800"><ele></ele><time>2014-6-17T5:19:26Z</time></trkpt>
<trkpt lat="47.27528900" lon="0.55686600"><ele></ele><time>2014-6-17T5:19:29Z</time></trkpt>
<trkpt lat="47.27530900" lon="0.55631800"><ele></ele><time>2014-6-17T5:19:32Z</time></trkpt>
<trkpt lat="47.27536000" lon="0.55606200"><ele></ele><time>2014-6-17T5:19:35Z</time></trkpt>
<trkpt lat="47.27553100" lon="0.55562100"><ele></ele><time>2014-6-17T5:19:38Z</time></trkpt>
<trkpt lat="47.27565800" lon="0.55515900"><ele></ele><time>2014-6-17T5:19:41Z</time></trkpt>
<trkpt lat="47.27563900" lon="0.55483700"><ele></ele><time>2014-6-17T5:19:44Z</time></trkpt>
<trkpt lat="47.27548800" lon="0.55435800"><ele></ele><time>2014-6-17T5:19:47Z</time></trkpt>
<trkpt lat="47.27531600" lon="0.55382800"><ele></ele><time>2014-6-17T5:19:50Z</time></trkpt>
<trkpt lat="47.27516700" lon="0.55336600"><ele></ele><time>2014-6-17T5:19:53Z</time></trkpt>
<trkpt lat="47.27509500" lon="0.55291600"><ele></ele><time>2014-6-17T5:19:56Z</time></trkpt>
<trkpt lat="47.27505800" lon="0.55254600"><ele></ele><time>2014-6-17T5:19:59Z</time></trkpt>
<trkpt lat="47.27510500" lon="0.55236100"><ele></ele><time>2014-6-17T5:20:2Z</time></trkpt>
<trkpt lat="47.27511600" lon="0.55215400"><ele></ele><time>2014-6-17T5:20:5Z</time></trkpt>
<trkpt lat="47.27515700" lon="0.55197800"><ele></ele><time>2014-6-17T5:20:8Z</time></trkpt>
<trkpt lat="47.27517800" lon="0.55174300"><ele></ele><time>2014-6-17T5:20:11Z</time></trkpt>
<trkpt lat="47.27528100" lon="0.55132900"><ele></ele><time>2014-6-17T5:20:14Z</time></trkpt>
<trkpt lat="47.27546800" lon="0.55097900"><ele></ele><time>2014-6-17T5:20:17Z</time></trkpt>
<trkpt lat="47.27564500" lon="0.55072000"><ele></ele><time>2014-6-17T5:20:20Z</time></trkpt>
<trkpt lat="47.27580000" lon="0.55049300"><ele></ele><time>2014-6-17T5:20:23Z</time></trkpt>
<trkpt lat="47.27604400" lon="0.55031200"><ele></ele><time>2014-6-17T5:20:26Z</time></trkpt>
<trkpt lat="47.27622300" lon="0.55013200"><ele></ele><time>2014-6-17T5:20:29Z</time></trkpt>
<trkpt lat="47.27644100" lon="0.55009500"><ele></ele><time>2014-6-17T5:20:32Z</time></trkpt>
<trkpt lat="47.27667700" lon="0.55006300"><ele></ele><time>2014-6-17T5:20:35Z</time></trkpt>
<trkpt lat="47.27701600" lon="0.54988600"><ele></ele><time>2014-6-17T5:20:38Z</time></trkpt>
<trkpt lat="47.27728000" lon="0.54963400"><ele></ele><time>2014-6-17T5:20:41Z</time></trkpt>
<trkpt lat="47.27750400" lon="0.54940800"><ele></ele><time>2014-6-17T5:20:44Z</time></trkpt>
<trkpt lat="47.27768000" lon="0.54915600"><ele></ele><time>2014-6-17T5:20:47Z</time></trkpt>
<trkpt lat="47.27779200" lon="0.54877400"><ele></ele><time>2014-6-17T5:20:50Z</time></trkpt>
<trkpt lat="47.27782600" lon="0.54842500"><ele></ele><time>2014-6-17T5:20:53Z</time></trkpt>
<trkpt lat="47.27783800" lon="0.54807100"><ele></ele><time>2014-6-17T5:20:56Z</time></trkpt>
<trkpt lat="47.27781000" lon="0.54760300"><ele></ele><time>2014-6-17T5:20:59Z</time></trkpt>
<trkpt lat="47.27779100" lon="0.54714500"><ele></ele><time>2014-6-17T5:21:2Z</time></trkpt>
<trkpt lat="47.27787200" lon="0.54677300"><ele></ele><time>2014-6-17T5:21:5Z</time></trkpt>
<trkpt lat="47.27799600" lon="0.54639200"><ele></ele><time>2014-6-17T5:21:8Z</time></trkpt>
<trkpt lat="47.27814900" lon="0.54610800"><ele></ele><time>2014-6-17T5:21:11Z</time></trkpt>
<trkpt lat="47.27807000" lon="0.54598800"><ele></ele><time>2014-6-17T5:21:14Z</time></trkpt>
<trkpt lat="47.27792600" lon="0.54592200"><ele></ele><time>2014-6-17T5:21:17Z</time></trkpt>
<trkpt lat="47.27769300" lon="0.54576700"><ele></ele><time>2014-6-17T5:21:20Z</time></trkpt>
<trkpt lat="47.27741800" lon="0.54574600"><ele></ele><time>2014-6-17T5:21:23Z</time></trkpt>
<trkpt lat="47.27734800" lon="0.54576700"><ele></ele><time>2014-6-17T5:21:26Z</time></trkpt>
<trkpt lat="47.27712800" lon="0.54581300"><ele></ele><time>2014-6-17T5:21:29Z</time></trkpt>
<trkpt lat="47.27703800" lon="0.54583300"><ele></ele><time>2014-6-17T5:21:32Z</time></trkpt>
<trkpt lat="47.27694100" lon="0.54585300"><ele></ele><time>2014-6-17T5:21:35Z</time></trkpt>
<trkpt lat="47.27675700" lon="0.54589800"><ele></ele><time>2014-6-17T5:21:38Z</time></trkpt>
<trkpt lat="47.27670500" lon="0.54591100"><ele></ele><time>2014-6-17T5:21:41Z</time></trkpt>
<trkpt lat="47.27658500" lon="0.54591000"><ele></ele><time>2014-6-17T5:21:44Z</time></trkpt>
<trkpt lat="47.27642600" lon="0.54590000"><ele></ele><time>2014-6-17T5:21:47Z</time></trkpt>
<trkpt lat="47.27629900" lon="0.54589500"><ele></ele><time>2014-6-17T5:21:50Z</time></trkpt>
<trkpt lat="47.27618900" lon="0.54592400"><ele></ele><time>2014-6-17T5:21:53Z</time></trkpt>
<trkpt lat="47.27612000" lon="0.54591600"><ele></ele><time>2014-6-17T5:21:56Z</time></trkpt>
<trkpt lat="47.27592600" lon="0.54605100"><ele></ele><time>2014-6-17T5:21:59Z</time></trkpt>
<trkpt lat="47.27579500" lon="0.54615900"><ele></ele><time>2014-6-17T5:22:2Z</time></trkpt>
<trkpt lat="47.27575300" lon="0.54616700"><ele></ele><time>2014-6-17T5:22:5Z</time></trkpt>
<trkpt lat="47.27529100" lon="0.54613500"><ele></ele><time>2014-6-17T5:22:8Z</time></trkpt>
<trkpt lat="47.27500600" lon="0.54600000"><ele></ele><time>2014-6-17T5:22:11Z</time></trkpt>
<trkpt lat="47.27488300" lon="0.54575700"><ele></ele><time>2014-6-17T5:22:14Z</time></trkpt>
<trkpt lat="47.27469500" lon="0.54552500"><ele></ele><time>2014-6-17T5:22:17Z</time></trkpt>
<trkpt lat="47.27460600" lon="0.54537800"><ele></ele><time>2014-6-17T5:22:20Z</time></trkpt>
<trkpt lat="47.27451400" lon="0.54535100"><ele></ele><time>2014-6-17T5:22:23Z</time></trkpt>
<trkpt lat="47.27451300" lon="0.54559700"><ele></ele><time>2014-6-17T5:22:26Z</time></trkpt>
<trkpt lat="47.27451100" lon="0.54566500"><ele></ele><time>2014-6-17T5:22:29Z</time></trkpt>
<trkpt lat="47.27445500" lon="0.54601300"><ele></ele><time>2014-6-17T5:22:32Z</time></trkpt>
<trkpt lat="47.27443800" lon="0.54620200"><ele></ele><time>2014-6-17T5:22:35Z</time></trkpt>
<trkpt lat="47.27443800" lon="0.54629600"><ele></ele><time>2014-6-17T5:22:38Z</time></trkpt>
<trkpt lat="47.27449500" lon="0.54648000"><ele></ele><time>2014-6-17T5:22:41Z</time></trkpt>
<trkpt lat="47.27451000" lon="0.54684100"><ele></ele><time>2014-6-17T5:22:44Z</time></trkpt>
<trkpt lat="47.27438300" lon="0.54703100"><ele></ele><time>2014-6-17T5:22:47Z</time></trkpt>
<trkpt lat="47.27430400" lon="0.54706700"><ele></ele><time>2014-6-17T5:22:50Z</time></trkpt>
<trkpt lat="47.27419200" lon="0.54707900"><ele></ele><time>2014-6-17T5:22:53Z</time></trkpt>
<trkpt lat="47.27415700" lon="0.54713000"><ele></ele><time>2014-6-17T5:22:56Z</time></trkpt>
<trkpt lat="47.27407700" lon="0.54722100"><ele></ele><time>2014-6-17T5:22:59Z</time></trkpt>
<trkpt lat="47.27406200" lon="0.54723600"><ele></ele><time>2014-6-17T5:23:2Z</time></trkpt>
<trkpt lat="47.27396800" lon="0.54736300"><ele></ele><time>2014-6-17T5:23:5Z</time></trkpt>
<trkpt lat="47.27392300" lon="0.54742200"><ele></ele><time>2014-6-17T5:23:8Z</time></trkpt>
<trkpt lat="47.27377200" lon="0.54760200"><ele></ele><time>2014-6-17T5:23:11Z</time></trkpt>
<trkpt lat="47.27362300" lon="0.54774100"><ele></ele><time>2014-6-17T5:23:14Z</time></trkpt>
<trkpt lat="47.27345000" lon="0.54792800"><ele></ele><time>2014-6-17T5:23:17Z</time></trkpt>
<trkpt lat="47.27335700" lon="0.54800900"><ele></ele><time>2014-6-17T5:23:20Z</time></trkpt>
<trkpt lat="47.27315700" lon="0.54810200"><ele></ele><time>2014-6-17T5:23:23Z</time></trkpt>
<trkpt lat="47.27303500" lon="0.54817200"><ele></ele><time>2014-6-17T5:23:26Z</time></trkpt>
<trkpt lat="47.27286500" lon="0.54826400"><ele></ele><time>2014-6-17T5:23:29Z</time></trkpt>
<trkpt lat="47.27274200" lon="0.54833000"><ele></ele><time>2014-6-17T5:23:32Z</time></trkpt>
<trkpt lat="47.27254600" lon="0.54838100"><ele></ele><time>2014-6-17T5:23:35Z</time></trkpt>
<trkpt lat="47.27229000" lon="0.54850400"><ele></ele><time>2014-6-17T5:23:38Z</time></trkpt>
<trkpt lat="47.27201000" lon="0.54850700"><ele></ele><time>2014-6-17T5:23:41Z</time></trkpt>
<trkpt lat="47.27187300" lon="0.54858700"><ele></ele><time>2014-6-17T5:23:44Z</time></trkpt>
<trkpt lat="47.27177900" lon="0.54860000"><ele></ele><time>2014-6-17T5:23:47Z</time></trkpt>
<trkpt lat="47.27160600" lon="0.54868000"><ele></ele><time>2014-6-17T5:23:50Z</time></trkpt>
<trkpt lat="47.27155800" lon="0.54870600"><ele></ele><time>2014-6-17T5:23:53Z</time></trkpt>
<trkpt lat="47.27136500" lon="0.54873200"><ele></ele><time>2014-6-17T5:23:56Z</time></trkpt>
<trkpt lat="47.27113400" lon="0.54877800"><ele></ele><time>2014-6-17T5:23:59Z</time></trkpt>
<trkpt lat="47.27090000" lon="0.54891000"><ele></ele><time>2014-6-17T5:24:2Z</time></trkpt>
<trkpt lat="47.27083300" lon="0.54901900"><ele></ele><time>2014-6-17T5:24:5Z</time></trkpt>
<trkpt lat="47.27079200" lon="0.54910500"><ele></ele><time>2014-6-17T5:24:8Z</time></trkpt>
<trkpt lat="47.27079700" lon="0.54925500"><ele></ele><time>2014-6-17T5:24:11Z</time></trkpt>
<trkpt lat="47.27077300" lon="0.54937800"><ele></ele><time>2014-6-17T5:24:14Z</time></trkpt>
<trkpt lat="47.27077500" lon="0.54940400"><ele></ele><time>2014-6-17T5:24:17Z</time></trkpt>
<trkpt lat="47.27076600" lon="0.54945500"><ele></ele><time>2014-6-17T5:24:20Z</time></trkpt>
<trkpt lat="47.27074600" lon="0.54958800"><ele></ele><time>2014-6-17T5:24:23Z</time></trkpt>
<trkpt lat="47.27072300" lon="0.54967700"><ele></ele><time>2014-6-17T5:24:26Z</time></trkpt>
<trkpt lat="47.27074300" lon="0.54991900"><ele></ele><time>2014-6-17T5:24:29Z</time></trkpt>
<trkpt lat="47.27071900" lon="0.55017200"><ele></ele><time>2014-6-17T5:24:32Z</time></trkpt>
<trkpt lat="47.27070700" lon="0.55044000"><ele></ele><time>2014-6-17T5:24:35Z</time></trkpt>
<trkpt lat="47.27067700" lon="0.55078300"><ele></ele><time>2014-6-17T5:24:38Z</time></trkpt>
<trkpt lat="47.27067000" lon="0.55086100"><ele></ele><time>2014-6-17T5:24:41Z</time></trkpt>
<trkpt lat="47.27067600" lon="0.55125700"><ele></ele><time>2014-6-17T5:24:44Z</time></trkpt>
<trkpt lat="47.27068800" lon="0.55140300"><ele></ele><time>2014-6-17T5:24:47Z</time></trkpt>
<trkpt lat="47.27056200" lon="0.55183900"><ele></ele><time>2014-6-17T5:24:50Z</time></trkpt>
<trkpt lat="47.27030800" lon="0.55257600"><ele></ele><time>2014-6-17T5:24:53Z</time></trkpt>
<trkpt lat="47.27020800" lon="0.55302100"><ele></ele><time>2014-6-17T5:24:56Z</time></trkpt>
<trkpt lat="47.27018800" lon="0.55338600"><ele></ele><time>2014-6-17T5:24:59Z</time></trkpt>
<trkpt lat="47.27030200" lon="0.55353800"><ele></ele><time>2014-6-17T5:25:2Z</time></trkpt>
<trkpt lat="47.27036500" lon="0.55360500"><ele></ele><time>2014-6-17T5:25:5Z</time></trkpt>
<trkpt lat="47.27062500" lon="0.55381600"><ele></ele><time>2014-6-17T5:25:8Z</time></trkpt>
<trkpt lat="47.27069100" lon="0.55387500"><ele></ele><time>2014-6-17T5:25:11Z</time></trkpt>
<trkpt lat="47.27081900" lon="0.55396600"><ele></ele><time>2014-6-17T5:25:14Z</time></trkpt>
<trkpt lat="47.27100700" lon="0.55417000"><ele></ele><time>2014-6-17T5:25:17Z</time></trkpt>
<trkpt lat="47.27106300" lon="0.55428000"><ele></ele><time>2014-6-17T5:25:20Z</time></trkpt>
<trkpt lat="47.27113000" lon="0.55440400"><ele></ele><time>2014-6-17T5:25:23Z</time></trkpt>
<trkpt lat="47.27123800" lon="0.55460700"><ele></ele><time>2014-6-17T5:25:26Z</time></trkpt>
<trkpt lat="47.27132000" lon="0.55483200"><ele></ele><time>2014-6-17T5:25:29Z</time></trkpt>
<trkpt lat="47.27138100" lon="0.55505400"><ele></ele><time>2014-6-17T5:25:32Z</time></trkpt>
<trkpt lat="47.27152000" lon="0.55530700"><ele></ele><time>2014-6-17T5:25:35Z</time></trkpt>
<trkpt lat="47.27175900" lon="0.55574500"><ele></ele><time>2014-6-17T5:25:38Z</time></trkpt>
<trkpt lat="47.27187200" lon="0.55597900"><ele></ele><time>2014-6-17T5:25:41Z</time></trkpt>
<trkpt lat="47.27198900" lon="0.55631300"><ele></ele><time>2014-6-17T5:25:44Z</time></trkpt>
<trkpt lat="47.27217500" lon="0.55657700"><ele></ele><time>2014-6-17T5:25:47Z</time></trkpt>
<trkpt lat="47.27232700" lon="0.55663600"><ele></ele><time>2014-6-17T5:25:50Z</time></trkpt>
<trkpt lat="47.27235900" lon="0.55669000"><ele></ele><time>2014-6-17T5:25:53Z</time></trkpt>
<trkpt lat="47.27235300" lon="0.55680100"><ele></ele><time>2014-6-17T5:25:56Z</time></trkpt>
<trkpt lat="47.27235100" lon="0.55683400"><ele></ele><time>2014-6-17T5:25:59Z</time></trkpt>
<trkpt lat="47.27233200" lon="0.55706600"><ele></ele><time>2014-6-17T5:26:2Z</time></trkpt>
<trkpt lat="47.27225700" lon="0.55731600"><ele></ele><time>2014-6-17T5:26:5Z</time></trkpt>
<trkpt lat="47.27222800" lon="0.55737700"><ele></ele><time>2014-6-17T5:26:8Z</time></trkpt>
<trkpt lat="47.27214500" lon="0.55753500"><ele></ele><time>2014-6-17T5:26:11Z</time></trkpt>
<trkpt lat="47.27211700" lon="0.55760600"><ele></ele><time>2014-6-17T5:26:14Z</time></trkpt>
<trkpt lat="47.27207900" lon="0.55783300"><ele></ele><time>2014-6-17T5:26:17Z</time></trkpt>
<trkpt lat="47.27220300" lon="0.55802100"><ele></ele><time>2014-6-17T5:26:20Z</time></trkpt>
<trkpt lat="47.27230800" lon="0.55816100"><ele></ele><time>2014-6-17T5:26:23Z</time></trkpt>
<trkpt lat="47.27232800" lon="0.55834700"><ele></ele><time>2014-6-17T5:26:26Z</time></trkpt>
<trkpt lat="47.27228900" lon="0.55850500"><ele></ele><time>2014-6-17T5:26:29Z</time></trkpt>
<trkpt lat="47.27216300" lon="0.55878800"><ele></ele><time>2014-6-17T5:26:32Z</time></trkpt>
<trkpt lat="47.27203200" lon="0.55903500"><ele></ele><time>2014-6-17T5:26:35Z</time></trkpt>
<trkpt lat="47.27201000" lon="0.55908100"><ele></ele><time>2014-6-17T5:26:38Z</time></trkpt>
<trkpt lat="47.27198600" lon="0.55919200"><ele></ele><time>2014-6-17T5:26:41Z</time></trkpt>
<trkpt lat="47.27196500" lon="0.55926600"><ele></ele><time>2014-6-17T5:26:44Z</time></trkpt>
<trkpt lat="47.27193400" lon="0.55932600"><ele></ele><time>2014-6-17T5:26:47Z</time></trkpt>
<trkpt lat="47.27190800" lon="0.55936400"><ele></ele><time>2014-6-17T5:26:50Z</time></trkpt>
<trkpt lat="47.27189100" lon="0.55941700"><ele></ele><time>2014-6-17T5:26:53Z</time></trkpt>
<trkpt lat="47.27189900" lon="0.55945700"><ele></ele><time>2014-6-17T5:26:56Z</time></trkpt>
<trkpt lat="47.27189800" lon="0.55946100"><ele></ele><time>2014-6-17T5:26:59Z</time></trkpt>
<trkpt lat="47.27190600" lon="0.55946800"><ele></ele><time>2014-6-17T5:27:2Z</time></trkpt>
<trkpt lat="47.27193300" lon="0.55944900"><ele></ele><time>2014-6-17T5:27:5Z</time></trkpt>
<trkpt lat="47.27206800" lon="0.55948500"><ele></ele><time>2014-6-17T5:27:8Z</time></trkpt>
<trkpt lat="47.27209300" lon="0.55949200"><ele></ele><time>2014-6-17T5:27:11Z</time></trkpt>
<trkpt lat="47.27228300" lon="0.55953200"><ele></ele><time>2014-6-17T5:27:14Z</time></trkpt>
<trkpt lat="47.27235200" lon="0.55957900"><ele></ele><time>2014-6-17T5:27:17Z</time></trkpt>
<trkpt lat="47.27261100" lon="0.55965000"><ele></ele><time>2014-6-17T5:27:20Z</time></trkpt>
<trkpt lat="47.27273700" lon="0.55962500"><ele></ele><time>2014-6-17T5:27:23Z</time></trkpt>
<trkpt lat="47.27291900" lon="0.55954300"><ele></ele><time>2014-6-17T5:27:26Z</time></trkpt>
<trkpt lat="47.27310500" lon="0.55941100"><ele></ele><time>2014-6-17T5:27:29Z</time></trkpt>
<trkpt lat="47.27326800" lon="0.55926900"><ele></ele><time>2014-6-17T5:27:32Z</time></trkpt>
<trkpt lat="47.27337500" lon="0.55920100"><ele></ele><time>2014-6-17T5:27:35Z</time></trkpt>
<trkpt lat="47.27360300" lon="0.55921100"><ele></ele><time>2014-6-17T5:27:38Z</time></trkpt>
<trkpt lat="47.27363600" lon="0.55922800"><ele></ele><time>2014-6-17T5:27:41Z</time></trkpt>
<trkpt lat="47.27391100" lon="0.55935600"><ele></ele><time>2014-6-17T5:27:44Z</time></trkpt>
<trkpt lat="47.27405200" lon="0.55940400"><ele></ele><time>2014-6-17T5:27:47Z</time></trkpt>
<trkpt lat="47.27426400" lon="0.55950400"><ele></ele><time>2014-6-17T5:27:50Z</time></trkpt>
<trkpt lat="47.27452800" lon="0.55970500"><ele></ele><time>2014-6-17T5:27:53Z</time></trkpt>
<trkpt lat="47.27468000" lon="0.55976200"><ele></ele><time>2014-6-17T5:27:56Z</time></trkpt>
<trkpt lat="47.27465400" lon="0.55976900"><ele></ele><time>2014-6-17T5:27:59Z</time></trkpt>
<trkpt lat="47.27455900" lon="0.55973100"><ele></ele><time>2014-6-17T5:28:2Z</time></trkpt>
<trkpt lat="47.27446500" lon="0.55976900"><ele></ele><time>2014-6-17T5:28:5Z</time></trkpt>
<trkpt lat="47.27428500" lon="0.55987300"><ele></ele><time>2014-6-17T5:28:8Z</time></trkpt>
<trkpt lat="47.27420900" lon="0.55990200"><ele></ele><time>2014-6-17T5:28:11Z</time></trkpt>
<trkpt lat="47.27403100" lon="0.55995700"><ele></ele><time>2014-6-17T5:28:14Z</time></trkpt>
<trkpt lat="47.27387100" lon="0.56001400"><ele></ele><time>2014-6-17T5:28:17Z</time></trkpt>
<trkpt lat="47.27380700" lon="0.56008400"><ele></ele><time>2014-6-17T5:28:20Z</time></trkpt>
<trkpt lat="47.27362300" lon="0.56011600"><ele></ele><time>2014-6-17T5:28:23Z</time></trkpt>
<trkpt lat="47.27357200" lon="0.56013900"><ele></ele><time>2014-6-17T5:28:26Z</time></trkpt>
<trkpt lat="47.27337300" lon="0.56029100"><ele></ele><time>2014-6-17T5:28:29Z</time></trkpt>
<trkpt lat="47.27323300" lon="0.56043200"><ele></ele><time>2014-6-17T5:28:32Z</time></trkpt>
<trkpt lat="47.27316300" lon="0.56050500"><ele></ele><time>2014-6-17T5:28:35Z</time></trkpt>
<trkpt lat="47.27302600" lon="0.56051100"><ele></ele><time>2014-6-17T5:28:38Z</time></trkpt>
<trkpt lat="47.27294300" lon="0.56059700"><ele></ele><time>2014-6-17T5:28:41Z</time></trkpt>
<trkpt lat="47.27287000" lon="0.56076400"><ele></ele><time>2014-6-17T5:28:44Z</time></trkpt>
<trkpt lat="47.27280300" lon="0.56094900"><ele></ele><time>2014-6-17T5:28:47Z</time></trkpt>
<trkpt lat="47.27278900" lon="0.56099000"><ele></ele><time>2014-6-17T5:28:50Z</time></trkpt>
<trkpt lat="47.27276700" lon="0.56106900"><ele></ele><time>2014-6-17T5:28:53Z</time></trkpt>
<trkpt lat="47.27264300" lon="0.56120200"><ele></ele><time>2014-6-17T5:28:56Z</time></trkpt>
<trkpt lat="47.27261400" lon="0.56127100"><ele></ele><time>2014-6-17T5:28:59Z</time></trkpt>
<trkpt lat="47.27247700" lon="0.56141600"><ele></ele><time>2014-6-17T5:29:2Z</time></trkpt>
<trkpt lat="47.27246300" lon="0.56147300"><ele></ele><time>2014-6-17T5:29:5Z</time></trkpt>
<trkpt lat="47.27236900" lon="0.56163000"><ele></ele><time>2014-6-17T5:29:8Z</time></trkpt>
<trkpt lat="47.27223800" lon="0.56174900"><ele></ele><time>2014-6-17T5:29:11Z</time></trkpt>
<trkpt lat="47.27205000" lon="0.56185500"><ele></ele><time>2014-6-17T5:29:14Z</time></trkpt>
<trkpt lat="47.27185100" lon="0.56197800"><ele></ele><time>2014-6-17T5:29:17Z</time></trkpt>
<trkpt lat="47.27169900" lon="0.56210800"><ele></ele><time>2014-6-17T5:29:20Z</time></trkpt>
<trkpt lat="47.27153300" lon="0.56227600"><ele></ele><time>2014-6-17T5:29:23Z</time></trkpt>
<trkpt lat="47.27145000" lon="0.56230600"><ele></ele><time>2014-6-17T5:29:26Z</time></trkpt>
<trkpt lat="47.27130200" lon="0.56239000"><ele></ele><time>2014-6-17T5:29:29Z</time></trkpt>
<trkpt lat="47.27122600" lon="0.56239100"><ele></ele><time>2014-6-17T5:29:32Z</time></trkpt>
<trkpt lat="47.27113200" lon="0.56238900"><ele></ele><time>2014-6-17T5:29:35Z</time></trkpt>
<trkpt lat="47.27103000" lon="0.56233900"><ele></ele><time>2014-6-17T5:29:38Z</time></trkpt>
<trkpt lat="47.27088900" lon="0.56233000"><ele></ele><time>2014-6-17T5:29:41Z</time></trkpt>
<trkpt lat="47.27078400" lon="0.56237800"><ele></ele><time>2014-6-17T5:29:44Z</time></trkpt>
<trkpt lat="47.27077200" lon="0.56234200"><ele></ele><time>2014-6-17T5:29:47Z</time></trkpt>
<trkpt lat="47.27079400" lon="0.56228100"><ele></ele><time>2014-6-17T5:29:50Z</time></trkpt>
<trkpt lat="47.27079400" lon="0.56228100"><ele></ele><time>2014-6-17T5:29:53Z</time></trkpt>
<trkpt lat="47.27078400" lon="0.56220400"><ele></ele><time>2014-6-17T5:29:56Z</time></trkpt>
<trkpt lat="47.27076800" lon="0.56196300"><ele></ele><time>2014-6-17T5:29:59Z</time></trkpt>
<trkpt lat="47.27075400" lon="0.56183600"><ele></ele><time>2014-6-17T5:30:2Z</time></trkpt>
<trkpt lat="47.27074400" lon="0.56176300"><ele></ele><time>2014-6-17T5:30:5Z</time></trkpt>
<trkpt lat="47.27074300" lon="0.56162300"><ele></ele><time>2014-6-17T5:30:8Z</time></trkpt>
<trkpt lat="47.27073600" lon="0.56138500"><ele></ele><time>2014-6-17T5:30:11Z</time></trkpt>
<trkpt lat="47.27077500" lon="0.56119700"><ele></ele><time>2014-6-17T5:30:14Z</time></trkpt>
<trkpt lat="47.27080700" lon="0.56104700"><ele></ele><time>2014-6-17T5:30:17Z</time></trkpt>
<trkpt lat="47.27084100" lon="0.56079000"><ele></ele><time>2014-6-17T5:30:20Z</time></trkpt>
<trkpt lat="47.27084600" lon="0.56062100"><ele></ele><time>2014-6-17T5:30:23Z</time></trkpt>
<trkpt lat="47.27098700" lon="0.56030700"><ele></ele><time>2014-6-17T5:30:26Z</time></trkpt>
<trkpt lat="47.27102100" lon="0.56027000"><ele></ele><time>2014-6-17T5:30:29Z</time></trkpt>
<trkpt lat="47.27114600" lon="0.56018900"><ele></ele><time>2014-6-17T5:30:32Z</time></trkpt>
<trkpt lat="47.27136600" lon="0.56004800"><ele></ele><time>2014-6-17T5:30:35Z</time></trkpt>
<trkpt lat="47.27148400" lon="0.55988200"><ele></ele><time>2014-6-17T5:30:38Z</time></trkpt>
<trkpt lat="47.27164500" lon="0.55967200"><ele></ele><time>2014-6-17T5:30:41Z</time></trkpt>
<trkpt lat="47.27169800" lon="0.55959100"><ele></ele><time>2014-6-17T5:30:44Z</time></trkpt>
<trkpt lat="47.27170400" lon="0.55957700"><ele></ele><time>2014-6-17T5:30:47Z</time></trkpt>
<trkpt lat="47.27168200" lon="0.55951200"><ele></ele><time>2014-6-17T5:30:50Z</time></trkpt>
<trkpt lat="47.27166300" lon="0.55951600"><ele></ele><time>2014-6-17T5:30:53Z</time></trkpt>
<trkpt lat="47.27166300" lon="0.55951600"><ele></ele><time>2014-6-17T5:30:56Z</time></trkpt>
<trkpt lat="47.27165000" lon="0.55950000"><ele></ele><time>2014-6-17T5:30:59Z</time></trkpt>
<trkpt lat="47.27153100" lon="0.55953700"><ele></ele><time>2014-6-17T5:31:2Z</time></trkpt>
<trkpt lat="47.27149800" lon="0.55954300"><ele></ele><time>2014-6-17T5:31:5Z</time></trkpt>
<trkpt lat="47.27138200" lon="0.55952700"><ele></ele><time>2014-6-17T5:31:8Z</time></trkpt>
<trkpt lat="47.27112600" lon="0.55962100"><ele></ele><time>2014-6-17T5:31:11Z</time></trkpt>
<trkpt lat="47.27093400" lon="0.55965200"><ele></ele><time>2014-6-17T5:31:14Z</time></trkpt>
<trkpt lat="47.27060700" lon="0.55970900"><ele></ele><time>2014-6-17T5:31:17Z</time></trkpt>
<trkpt lat="47.27038800" lon="0.55972900"><ele></ele><time>2014-6-17T5:31:20Z</time></trkpt>
<trkpt lat="47.27009100" lon="0.55990800"><ele></ele><time>2014-6-17T5:31:23Z</time></trkpt>
<trkpt lat="47.26992000" lon="0.56016100"><ele></ele><time>2014-6-17T5:31:26Z</time></trkpt>
<trkpt lat="47.26985300" lon="0.56050900"><ele></ele><time>2014-6-17T5:31:29Z</time></trkpt>
<trkpt lat="47.26978900" lon="0.56099200"><ele></ele><time>2014-6-17T5:31:32Z</time></trkpt>
<trkpt lat="47.26970900" lon="0.56162300"><ele></ele><time>2014-6-17T5:31:35Z</time></trkpt>
<trkpt lat="47.26960400" lon="0.56243400"><ele></ele><time>2014-6-17T5:31:38Z</time></trkpt>
<trkpt lat="47.26954100" lon="0.56299600"><ele></ele><time>2014-6-17T5:31:41Z</time></trkpt>
<trkpt lat="47.26950100" lon="0.56340300"><ele></ele><time>2014-6-17T5:31:44Z</time></trkpt>
<trkpt lat="47.26950000" lon="0.56356900"><ele></ele><time>2014-6-17T5:31:47Z</time></trkpt>
<trkpt lat="47.26945900" lon="0.56394700"><ele></ele><time>2014-6-17T5:31:50Z</time></trkpt>
<trkpt lat="47.26929800" lon="0.56402600"><ele></ele><time>2014-6-17T5:31:53Z</time></trkpt>
<trkpt lat="47.26915100" lon="0.56386800"><ele></ele><time>2014-6-17T5:31:56Z</time></trkpt>
<trkpt lat="47.26861400" lon="0.56345000"><ele></ele><time>2014-6-17T5:31:59Z</time></trkpt>
<trkpt lat="47.26813900" lon="0.56304300"><ele></ele><time>2014-6-17T5:32:2Z</time></trkpt>
<trkpt lat="47.26793800" lon="0.56282100"><ele></ele><time>2014-6-17T5:32:5Z</time></trkpt>
<trkpt lat="47.26769500" lon="0.56251100"><ele></ele><time>2014-6-17T5:32:8Z</time></trkpt>
<trkpt lat="47.26751600" lon="0.56212300"><ele></ele><time>2014-6-17T5:32:11Z</time></trkpt>
<trkpt lat="47.26748300" lon="0.56189900"><ele></ele><time>2014-6-17T5:32:14Z</time></trkpt>
<trkpt lat="47.26746900" lon="0.56179200"><ele></ele><time>2014-6-17T5:32:17Z</time></trkpt>
<trkpt lat="47.26744600" lon="0.56151900"><ele></ele><time>2014-6-17T5:32:20Z</time></trkpt>
<trkpt lat="47.26740600" lon="0.56120100"><ele></ele><time>2014-6-17T5:32:23Z</time></trkpt>
<trkpt lat="47.26740300" lon="0.56106300"><ele></ele><time>2014-6-17T5:32:26Z</time></trkpt>
<trkpt lat="47.26738300" lon="0.56085400"><ele></ele><time>2014-6-17T5:32:29Z</time></trkpt>
<trkpt lat="47.26732100" lon="0.56046100"><ele></ele><time>2014-6-17T5:32:32Z</time></trkpt>
<trkpt lat="47.26730000" lon="0.56035100"><ele></ele><time>2014-6-17T5:32:35Z</time></trkpt>
<trkpt lat="47.26726200" lon="0.56007400"><ele></ele><time>2014-6-17T5:32:38Z</time></trkpt>
<trkpt lat="47.26723400" lon="0.55965300"><ele></ele><time>2014-6-17T5:32:41Z</time></trkpt>
<trkpt lat="47.26723800" lon="0.55929300"><ele></ele><time>2014-6-17T5:32:44Z</time></trkpt>
<trkpt lat="47.26722600" lon="0.55891600"><ele></ele><time>2014-6-17T5:32:47Z</time></trkpt>
<trkpt lat="47.26717900" lon="0.55862700"><ele></ele><time>2014-6-17T5:32:50Z</time></trkpt>
<trkpt lat="47.26710300" lon="0.55852600"><ele></ele><time>2014-6-17T5:32:53Z</time></trkpt>
<trkpt lat="47.26703700" lon="0.55843000"><ele></ele><time>2014-6-17T5:32:56Z</time></trkpt>
<trkpt lat="47.26696000" lon="0.55841000"><ele></ele><time>2014-6-17T5:32:59Z</time></trkpt>
<trkpt lat="47.26685800" lon="0.55830800"><ele></ele><time>2014-6-17T5:33:2Z</time></trkpt>
<trkpt lat="47.26676400" lon="0.55827400"><ele></ele><time>2014-6-17T5:33:5Z</time></trkpt>
<trkpt lat="47.26670500" lon="0.55817400"><ele></ele><time>2014-6-17T5:33:8Z</time></trkpt>
<trkpt lat="47.26665100" lon="0.55808800"><ele></ele><time>2014-6-17T5:33:11Z</time></trkpt>
<trkpt lat="47.26655600" lon="0.55798000"><ele></ele><time>2014-6-17T5:33:14Z</time></trkpt>
<trkpt lat="47.26644200" lon="0.55786100"><ele></ele><time>2014-6-17T5:33:17Z</time></trkpt>
<trkpt lat="47.26640100" lon="0.55781300"><ele></ele><time>2014-6-17T5:33:20Z</time></trkpt>
<trkpt lat="47.26631600" lon="0.55773000"><ele></ele><time>2014-6-17T5:33:23Z</time></trkpt>
<trkpt lat="47.26630400" lon="0.55772300"><ele></ele><time>2014-6-17T5:33:26Z</time></trkpt>
<trkpt lat="47.26623400" lon="0.55766300"><ele></ele><time>2014-6-17T5:33:29Z</time></trkpt>
<trkpt lat="47.26613200" lon="0.55755400"><ele></ele><time>2014-6-17T5:33:32Z</time></trkpt>
<trkpt lat="47.26606600" lon="0.55746600"><ele></ele><time>2014-6-17T5:33:35Z</time></trkpt>
<trkpt lat="47.26599700" lon="0.55738100"><ele></ele><time>2014-6-17T5:33:38Z</time></trkpt>
<trkpt lat="47.26596900" lon="0.55732100"><ele></ele><time>2014-6-17T5:33:41Z</time></trkpt>
<trkpt lat="47.26589500" lon="0.55717500"><ele></ele><time>2014-6-17T5:33:44Z</time></trkpt>
<trkpt lat="47.26577700" lon="0.55695100"><ele></ele><time>2014-6-17T5:33:47Z</time></trkpt>
<trkpt lat="47.26572100" lon="0.55685100"><ele></ele><time>2014-6-17T5:33:50Z</time></trkpt>
<trkpt lat="47.26568900" lon="0.55680200"><ele></ele><time>2014-6-17T5:33:53Z</time></trkpt>
<trkpt lat="47.26561500" lon="0.55668500"><ele></ele><time>2014-6-17T5:33:56Z</time></trkpt>
<trkpt lat="47.26548200" lon="0.55660300"><ele></ele><time>2014-6-17T5:33:59Z</time></trkpt>
<trkpt lat="47.26526400" lon="0.55654300"><ele></ele><time>2014-6-17T5:34:2Z</time></trkpt>
<trkpt lat="47.26503500" lon="0.55641200"><ele></ele><time>2014-6-17T5:34:5Z</time></trkpt>
<trkpt lat="47.26495400" lon="0.55627700"><ele></ele><time>2014-6-17T5:34:8Z</time></trkpt>
<trkpt lat="47.26487100" lon="0.55605500"><ele></ele><time>2014-6-17T5:34:11Z</time></trkpt>
<trkpt lat="47.26481400" lon="0.55579000"><ele></ele><time>2014-6-17T5:34:14Z</time></trkpt>
<trkpt lat="47.26471900" lon="0.55549500"><ele></ele><time>2014-6-17T5:34:17Z</time></trkpt>
<trkpt lat="47.26471700" lon="0.55540000"><ele></ele><time>2014-6-17T5:34:20Z</time></trkpt>
<trkpt lat="47.26464500" lon="0.55513600"><ele></ele><time>2014-6-17T5:34:23Z</time></trkpt>
<trkpt lat="47.26463300" lon="0.55508700"><ele></ele><time>2014-6-17T5:34:26Z</time></trkpt>
<trkpt lat="47.26454200" lon="0.55472700"><ele></ele><time>2014-6-17T5:34:29Z</time></trkpt>
<trkpt lat="47.26447800" lon="0.55446100"><ele></ele><time>2014-6-17T5:34:32Z</time></trkpt>
<trkpt lat="47.26445800" lon="0.55425200"><ele></ele><time>2014-6-17T5:34:35Z</time></trkpt>
<trkpt lat="47.26438500" lon="0.55394400"><ele></ele><time>2014-6-17T5:34:38Z</time></trkpt>
<trkpt lat="47.26430900" lon="0.55357400"><ele></ele><time>2014-6-17T5:34:41Z</time></trkpt>
<trkpt lat="47.26425000" lon="0.55332500"><ele></ele><time>2014-6-17T5:34:44Z</time></trkpt>
<trkpt lat="47.26422500" lon="0.55321800"><ele></ele><time>2014-6-17T5:34:47Z</time></trkpt>
<trkpt lat="47.26421600" lon="0.55308500"><ele></ele><time>2014-6-17T5:34:50Z</time></trkpt>
<trkpt lat="47.26418300" lon="0.55291200"><ele></ele><time>2014-6-17T5:34:53Z</time></trkpt>
<trkpt lat="47.26415400" lon="0.55276500"><ele></ele><time>2014-6-17T5:34:56Z</time></trkpt>
<trkpt lat="47.26409200" lon="0.55252200"><ele></ele><time>2014-6-17T5:34:59Z</time></trkpt>
<trkpt lat="47.26398000" lon="0.55222200"><ele></ele><time>2014-6-17T5:35:2Z</time></trkpt>
<trkpt lat="47.26388800" lon="0.55187200"><ele></ele><time>2014-6-17T5:35:5Z</time></trkpt>
<trkpt lat="47.26386400" lon="0.55177500"><ele></ele><time>2014-6-17T5:35:8Z</time></trkpt>
<trkpt lat="47.26385900" lon="0.55155100"><ele></ele><time>2014-6-17T5:35:11Z</time></trkpt>
<trkpt lat="47.26393200" lon="0.55147800"><ele></ele><time>2014-6-17T5:35:14Z</time></trkpt>
<trkpt lat="47.26405900" lon="0.55140600"><ele></ele><time>2014-6-17T5:35:17Z</time></trkpt>
<trkpt lat="47.26423600" lon="0.55131200"><ele></ele><time>2014-6-17T5:35:20Z</time></trkpt>
<trkpt lat="47.26441900" lon="0.55117700"><ele></ele><time>2014-6-17T5:35:23Z</time></trkpt>
<trkpt lat="47.26452000" lon="0.55114700"><ele></ele><time>2014-6-17T5:35:26Z</time></trkpt>
<trkpt lat="47.26468100" lon="0.55127200"><ele></ele><time>2014-6-17T5:35:29Z</time></trkpt>
<trkpt lat="47.26480700" lon="0.55127900"><ele></ele><time>2014-6-17T5:35:32Z</time></trkpt>
<trkpt lat="47.26501600" lon="0.55118600"><ele></ele><time>2014-6-17T5:35:35Z</time></trkpt>
<trkpt lat="47.26512000" lon="0.55112000"><ele></ele><time>2014-6-17T5:35:38Z</time></trkpt>
<trkpt lat="47.26545700" lon="0.55095700"><ele></ele><time>2014-6-17T5:35:41Z</time></trkpt>
<trkpt lat="47.26567200" lon="0.55085600"><ele></ele><time>2014-6-17T5:35:44Z</time></trkpt>
<trkpt lat="47.26578400" lon="0.55081100"><ele></ele><time>2014-6-17T5:35:47Z</time></trkpt>
<trkpt lat="47.26581500" lon="0.55078500"><ele></ele><time>2014-6-17T5:35:50Z</time></trkpt>
<trkpt lat="47.26602700" lon="0.55065700"><ele></ele><time>2014-6-17T5:35:53Z</time></trkpt>
<trkpt lat="47.26611900" lon="0.55065600"><ele></ele><time>2014-6-17T5:35:56Z</time></trkpt>
<trkpt lat="47.26622200" lon="0.55066300"><ele></ele><time>2014-6-17T5:35:59Z</time></trkpt>
<trkpt lat="47.26659800" lon="0.55069800"><ele></ele><time>2014-6-17T5:36:2Z</time></trkpt>
<trkpt lat="47.26677400" lon="0.55068400"><ele></ele><time>2014-6-17T5:36:5Z</time></trkpt>
<trkpt lat="47.26694100" lon="0.55064000"><ele></ele><time>2014-6-17T5:36:8Z</time></trkpt>
<trkpt lat="47.26712300" lon="0.55048500"><ele></ele><time>2014-6-17T5:36:11Z</time></trkpt>
<trkpt lat="47.26729600" lon="0.55025500"><ele></ele><time>2014-6-17T5:36:14Z</time></trkpt>
<trkpt lat="47.26743700" lon="0.55014600"><ele></ele><time>2014-6-17T5:36:17Z</time></trkpt>
<trkpt lat="47.26749700" lon="0.55006700"><ele></ele><time>2014-6-17T5:36:20Z</time></trkpt>
<trkpt lat="47.26752300" lon="0.55002600"><ele></ele><time>2014-6-17T5:36:23Z</time></trkpt>
<trkpt lat="47.26765300" lon="0.54989900"><ele></ele><time>2014-6-17T5:36:26Z</time></trkpt>
<trkpt lat="47.26779100" lon="0.54979800"><ele></ele><time>2014-6-17T5:36:29Z</time></trkpt>
<trkpt lat="47.26792000" lon="0.54974400"><ele></ele><time>2014-6-17T5:36:32Z</time></trkpt>
<trkpt lat="47.26808500" lon="0.54974200"><ele></ele><time>2014-6-17T5:36:35Z</time></trkpt>
<trkpt lat="47.26812100" lon="0.54974500"><ele></ele><time>2014-6-17T5:36:38Z</time></trkpt>
<trkpt lat="47.26837300" lon="0.54969300"><ele></ele><time>2014-6-17T5:36:41Z</time></trkpt>
<trkpt lat="47.26866900" lon="0.54962600"><ele></ele><time>2014-6-17T5:36:44Z</time></trkpt>
<trkpt lat="47.26875600" lon="0.54960600"><ele></ele><time>2014-6-17T5:36:47Z</time></trkpt>
<trkpt lat="47.26887400" lon="0.54957100"><ele></ele><time>2014-6-17T5:36:50Z</time></trkpt>
<trkpt lat="47.26919900" lon="0.54945400"><ele></ele><time>2014-6-17T5:36:53Z</time></trkpt>
<trkpt lat="47.26941100" lon="0.54937000"><ele></ele><time>2014-6-17T5:36:56Z</time></trkpt>
<trkpt lat="47.26950500" lon="0.54935800"><ele></ele><time>2014-6-17T5:36:59Z</time></trkpt>
<trkpt lat="47.26963200" lon="0.54925300"><ele></ele><time>2014-6-17T5:37:2Z</time></trkpt>
<trkpt lat="47.26978000" lon="0.54918600"><ele></ele><time>2014-6-17T5:37:5Z</time></trkpt>
<trkpt lat="47.26994700" lon="0.54916400"><ele></ele><time>2014-6-17T5:37:8Z</time></trkpt>
<trkpt lat="47.26998600" lon="0.54916800"><ele></ele><time>2014-6-17T5:37:11Z</time></trkpt>
<trkpt lat="47.27020900" lon="0.54917800"><ele></ele><time>2014-6-17T5:37:14Z</time></trkpt>
<trkpt lat="47.27038800" lon="0.54915600"><ele></ele><time>2014-6-17T5:37:17Z</time></trkpt>
<trkpt lat="47.27046300" lon="0.54912700"><ele></ele><time>2014-6-17T5:37:20Z</time></trkpt>
<trkpt lat="47.27056700" lon="0.54903000"><ele></ele><time>2014-6-17T5:37:23Z</time></trkpt>
<trkpt lat="47.27055900" lon="0.54869500"><ele></ele><time>2014-6-17T5:37:26Z</time></trkpt>
<trkpt lat="47.27053100" lon="0.54842300"><ele></ele><time>2014-6-17T5:37:29Z</time></trkpt>
<trkpt lat="47.27047400" lon="0.54829500"><ele></ele><time>2014-6-17T5:37:32Z</time></trkpt>
<trkpt lat="47.27044100" lon="0.54819000"><ele></ele><time>2014-6-17T5:37:35Z</time></trkpt>
<trkpt lat="47.27036000" lon="0.54798900"><ele></ele><time>2014-6-17T5:37:38Z</time></trkpt>
<trkpt lat="47.27032700" lon="0.54792800"><ele></ele><time>2014-6-17T5:37:41Z</time></trkpt>
<trkpt lat="47.27028400" lon="0.54789600"><ele></ele><time>2014-6-17T5:37:44Z</time></trkpt>
<trkpt lat="47.27020600" lon="0.54782700"><ele></ele><time>2014-6-17T5:37:47Z</time></trkpt>
<trkpt lat="47.27017400" lon="0.54779600"><ele></ele><time>2014-6-17T5:37:50Z</time></trkpt>
<trkpt lat="47.27004800" lon="0.54767800"><ele></ele><time>2014-6-17T5:37:53Z</time></trkpt>
<trkpt lat="47.26994100" lon="0.54764700"><ele></ele><time>2014-6-17T5:37:56Z</time></trkpt>
<trkpt lat="47.26984000" lon="0.54759100"><ele></ele><time>2014-6-17T5:37:59Z</time></trkpt>
<trkpt lat="47.26982000" lon="0.54758600"><ele></ele><time>2014-6-17T5:38:2Z</time></trkpt>
<trkpt lat="47.26971300" lon="0.54753500"><ele></ele><time>2014-6-17T5:38:5Z</time></trkpt>
<trkpt lat="47.26954100" lon="0.54734300"><ele></ele><time>2014-6-17T5:38:8Z</time></trkpt>
<trkpt lat="47.26951400" lon="0.54730600"><ele></ele><time>2014-6-17T5:38:11Z</time></trkpt>
<trkpt lat="47.26942800" lon="0.54723100"><ele></ele><time>2014-6-17T5:38:14Z</time></trkpt>
<trkpt lat="47.26937100" lon="0.54716800"><ele></ele><time>2014-6-17T5:38:17Z</time></trkpt>
<trkpt lat="47.26927400" lon="0.54708400"><ele></ele><time>2014-6-17T5:38:20Z</time></trkpt>
<trkpt lat="47.26924200" lon="0.54704500"><ele></ele><time>2014-6-17T5:38:23Z</time></trkpt>
<trkpt lat="47.26921800" lon="0.54701400"><ele></ele><time>2014-6-17T5:38:26Z</time></trkpt>
<trkpt lat="47.26920500" lon="0.54696200"><ele></ele><time>2014-6-17T5:38:29Z</time></trkpt>
<trkpt lat="47.26912300" lon="0.54675500"><ele></ele><time>2014-6-17T5:38:32Z</time></trkpt>
<trkpt lat="47.26909800" lon="0.54661500"><ele></ele><time>2014-6-17T5:38:35Z</time></trkpt>
<trkpt lat="47.26906900" lon="0.54650900"><ele></ele><time>2014-6-17T5:38:38Z</time></trkpt>
<trkpt lat="47.26906500" lon="0.54647700"><ele></ele><time>2014-6-17T5:38:41Z</time></trkpt>
<trkpt lat="47.26907100" lon="0.54643300"><ele></ele><time>2014-6-17T5:38:44Z</time></trkpt>
<trkpt lat="47.26904400" lon="0.54637000"><ele></ele><time>2014-6-17T5:38:47Z</time></trkpt>
<trkpt lat="47.26904400" lon="0.54637000"><ele></ele><time>2014-6-17T5:38:50Z</time></trkpt>
<trkpt lat="47.26893500" lon="0.54623000"><ele></ele><time>2014-6-17T5:38:53Z</time></trkpt>
<trkpt lat="47.26890500" lon="0.54618300"><ele></ele><time>2014-6-17T5:38:56Z</time></trkpt>
<trkpt lat="47.26886100" lon="0.54607700"><ele></ele><time>2014-6-17T5:38:59Z</time></trkpt>
<trkpt lat="47.26885100" lon="0.54587100"><ele></ele><time>2014-6-17T5:39:2Z</time></trkpt>
<trkpt lat="47.26884400" lon="0.54568700"><ele></ele><time>2014-6-17T5:39:5Z</time></trkpt>
<trkpt lat="47.26879300" lon="0.54542800"><ele></ele><time>2014-6-17T5:39:8Z</time></trkpt>
<trkpt lat="47.26877800" lon="0.54523700"><ele></ele><time>2014-6-17T5:39:11Z</time></trkpt>
<trkpt lat="47.26877500" lon="0.54522900"><ele></ele><time>2014-6-17T5:39:14Z</time></trkpt>
<trkpt lat="47.26876800" lon="0.54521400"><ele></ele><time>2014-6-17T5:39:17Z</time></trkpt>
<trkpt lat="47.26874900" lon="0.54498200"><ele></ele><time>2014-6-17T5:39:20Z</time></trkpt>
<trkpt lat="47.26870900" lon="0.54469100"><ele></ele><time>2014-6-17T5:39:23Z</time></trkpt>
<trkpt lat="47.26867000" lon="0.54442100"><ele></ele><time>2014-6-17T5:39:26Z</time></trkpt>
<trkpt lat="47.26862100" lon="0.54410700"><ele></ele><time>2014-6-17T5:39:29Z</time></trkpt>
<trkpt lat="47.26858200" lon="0.54379300"><ele></ele><time>2014-6-17T5:39:32Z</time></trkpt>
<trkpt lat="47.26853100" lon="0.54352700"><ele></ele><time>2014-6-17T5:39:35Z</time></trkpt>
<trkpt lat="47.26850400" lon="0.54325100"><ele></ele><time>2014-6-17T5:39:38Z</time></trkpt>
<trkpt lat="47.26846700" lon="0.54297100"><ele></ele><time>2014-6-17T5:39:41Z</time></trkpt>
<trkpt lat="47.26840200" lon="0.54252000"><ele></ele><time>2014-6-17T5:39:44Z</time></trkpt>
<trkpt lat="47.26835200" lon="0.54214300"><ele></ele><time>2014-6-17T5:39:47Z</time></trkpt>
<trkpt lat="47.26834600" lon="0.54204300"><ele></ele><time>2014-6-17T5:39:50Z</time></trkpt>
<trkpt lat="47.26831200" lon="0.54184300"><ele></ele><time>2014-6-17T5:39:53Z</time></trkpt>
<trkpt lat="47.26822400" lon="0.54138100"><ele></ele><time>2014-6-17T5:39:56Z</time></trkpt>
<trkpt lat="47.26820000" lon="0.54128800"><ele></ele><time>2014-6-17T5:39:59Z</time></trkpt>
<trkpt lat="47.26815900" lon="0.54105500"><ele></ele><time>2014-6-17T5:40:2Z</time></trkpt>
<trkpt lat="47.26812400" lon="0.54104000"><ele></ele><time>2014-6-17T5:40:5Z</time></trkpt>
<trkpt lat="47.26812400" lon="0.54104000"><ele></ele><time>2014-6-17T5:40:8Z</time></trkpt>
<trkpt lat="47.26805800" lon="0.54103300"><ele></ele><time>2014-6-17T5:40:11Z</time></trkpt>
<trkpt lat="47.26793300" lon="0.54115300"><ele></ele><time>2014-6-17T5:40:14Z</time></trkpt>
<trkpt lat="47.26788600" lon="0.54120400"><ele></ele><time>2014-6-17T5:40:17Z</time></trkpt>
<trkpt lat="47.26777700" lon="0.54132700"><ele></ele><time>2014-6-17T5:40:20Z</time></trkpt>
<trkpt lat="47.26766200" lon="0.54146900"><ele></ele><time>2014-6-17T5:40:23Z</time></trkpt>
<trkpt lat="47.26743500" lon="0.54171700"><ele></ele><time>2014-6-17T5:40:26Z</time></trkpt>
<trkpt lat="47.26713800" lon="0.54204900"><ele></ele><time>2014-6-17T5:40:29Z</time></trkpt>
<trkpt lat="47.26679800" lon="0.54242000"><ele></ele><time>2014-6-17T5:40:32Z</time></trkpt>
<trkpt lat="47.26654300" lon="0.54269800"><ele></ele><time>2014-6-17T5:40:35Z</time></trkpt>
<trkpt lat="47.26638000" lon="0.54289400"><ele></ele><time>2014-6-17T5:40:38Z</time></trkpt>
<trkpt lat="47.26623300" lon="0.54304800"><ele></ele><time>2014-6-17T5:40:41Z</time></trkpt>
<trkpt lat="47.26582400" lon="0.54349500"><ele></ele><time>2014-6-17T5:40:44Z</time></trkpt>
<trkpt lat="47.26555100" lon="0.54381500"><ele></ele><time>2014-6-17T5:40:47Z</time></trkpt>
<trkpt lat="47.26522700" lon="0.54416800"><ele></ele><time>2014-6-17T5:40:50Z</time></trkpt>
<trkpt lat="47.26485200" lon="0.54457800"><ele></ele><time>2014-6-17T5:40:53Z</time></trkpt>
<trkpt lat="47.26445900" lon="0.54502300"><ele></ele><time>2014-6-17T5:40:56Z</time></trkpt>
<trkpt lat="47.26409300" lon="0.54542800"><ele></ele><time>2014-6-17T5:40:59Z</time></trkpt>
<trkpt lat="47.26375000" lon="0.54581000"><ele></ele><time>2014-6-17T5:41:2Z</time></trkpt>
<trkpt lat="47.26361000" lon="0.54596200"><ele></ele><time>2014-6-17T5:41:5Z</time></trkpt>
<trkpt lat="47.26337300" lon="0.54623100"><ele></ele><time>2014-6-17T5:41:8Z</time></trkpt>
<trkpt lat="47.26327000" lon="0.54633400"><ele></ele><time>2014-6-17T5:41:11Z</time></trkpt>
<trkpt lat="47.26301800" lon="0.54640600"><ele></ele><time>2014-6-17T5:41:14Z</time></trkpt>
<trkpt lat="47.26253500" lon="0.54631100"><ele></ele><time>2014-6-17T5:41:17Z</time></trkpt>
<trkpt lat="47.26247200" lon="0.54629700"><ele></ele><time>2014-6-17T5:41:20Z</time></trkpt>
<trkpt lat="47.26222300" lon="0.54623000"><ele></ele><time>2014-6-17T5:41:23Z</time></trkpt>
<trkpt lat="47.26210800" lon="0.54639200"><ele></ele><time>2014-6-17T5:41:26Z</time></trkpt>
<trkpt lat="47.26204300" lon="0.54662300"><ele></ele><time>2014-6-17T5:41:29Z</time></trkpt>
<trkpt lat="47.26202700" lon="0.54668100"><ele></ele><time>2014-6-17T5:41:32Z</time></trkpt>
<trkpt lat="47.26196000" lon="0.54696900"><ele></ele><time>2014-6-17T5:41:35Z</time></trkpt>
<trkpt lat="47.26190100" lon="0.54732400"><ele></ele><time>2014-6-17T5:41:38Z</time></trkpt>
<trkpt lat="47.26183900" lon="0.54761400"><ele></ele><time>2014-6-17T5:41:41Z</time></trkpt>
<trkpt lat="47.26180400" lon="0.54779700"><ele></ele><time>2014-6-17T5:41:44Z</time></trkpt>
<trkpt lat="47.26172500" lon="0.54803500"><ele></ele><time>2014-6-17T5:41:47Z</time></trkpt>
<trkpt lat="47.26159800" lon="0.54855000"><ele></ele><time>2014-6-17T5:41:50Z</time></trkpt>
<trkpt lat="47.26149600" lon="0.54855900"><ele></ele><time>2014-6-17T5:41:53Z</time></trkpt>
<trkpt lat="47.26147700" lon="0.54853700"><ele></ele><time>2014-6-17T5:41:56Z</time></trkpt>
<trkpt lat="47.26139000" lon="0.54843200"><ele></ele><time>2014-6-17T5:41:59Z</time></trkpt>
<trkpt lat="47.26138000" lon="0.54842300"><ele></ele><time>2014-6-17T5:42:2Z</time></trkpt>
<trkpt lat="47.26135000" lon="0.54841200"><ele></ele><time>2014-6-17T5:42:5Z</time></trkpt>
<trkpt lat="47.26135000" lon="0.54841200"><ele></ele><time>2014-6-17T5:42:8Z</time></trkpt>
<trkpt lat="47.26130600" lon="0.54830000"><ele></ele><time>2014-6-17T5:42:11Z</time></trkpt>
<trkpt lat="47.26116500" lon="0.54808200"><ele></ele><time>2014-6-17T5:42:14Z</time></trkpt>
<trkpt lat="47.26101600" lon="0.54792600"><ele></ele><time>2014-6-17T5:42:17Z</time></trkpt>
<trkpt lat="47.26095000" lon="0.54786700"><ele></ele><time>2014-6-17T5:42:20Z</time></trkpt>
<trkpt lat="47.26086900" lon="0.54782900"><ele></ele><time>2014-6-17T5:42:23Z</time></trkpt>
<trkpt lat="47.26081200" lon="0.54778400"><ele></ele><time>2014-6-17T5:42:26Z</time></trkpt>
<trkpt lat="47.26062900" lon="0.54765600"><ele></ele><time>2014-6-17T5:42:29Z</time></trkpt>
<trkpt lat="47.26058700" lon="0.54763300"><ele></ele><time>2014-6-17T5:42:32Z</time></trkpt>
<trkpt lat="47.26033400" lon="0.54734100"><ele></ele><time>2014-6-17T5:42:35Z</time></trkpt>
<trkpt lat="47.26029300" lon="0.54728600"><ele></ele><time>2014-6-17T5:42:38Z</time></trkpt>
<trkpt lat="47.26015500" lon="0.54715800"><ele></ele><time>2014-6-17T5:42:41Z</time></trkpt>
<trkpt lat="47.25995800" lon="0.54696800"><ele></ele><time>2014-6-17T5:42:44Z</time></trkpt>
<trkpt lat="47.25973800" lon="0.54670100"><ele></ele><time>2014-6-17T5:42:47Z</time></trkpt>
<trkpt lat="47.25969800" lon="0.54663000"><ele></ele><time>2014-6-17T5:42:50Z</time></trkpt>
<trkpt lat="47.25957900" lon="0.54644300"><ele></ele><time>2014-6-17T5:42:53Z</time></trkpt>
<trkpt lat="47.25945800" lon="0.54608700"><ele></ele><time>2014-6-17T5:42:56Z</time></trkpt>
<trkpt lat="47.25941600" lon="0.54567600"><ele></ele><time>2014-6-17T5:42:59Z</time></trkpt>
<trkpt lat="47.25941600" lon="0.54536300"><ele></ele><time>2014-6-17T5:43:2Z</time></trkpt>
<trkpt lat="47.25945800" lon="0.54500100"><ele></ele><time>2014-6-17T5:43:5Z</time></trkpt>
<trkpt lat="47.25945800" lon="0.54469600"><ele></ele><time>2014-6-17T5:43:8Z</time></trkpt>
<trkpt lat="47.25946500" lon="0.54444300"><ele></ele><time>2014-6-17T5:43:11Z</time></trkpt>
<trkpt lat="47.25951600" lon="0.54416400"><ele></ele><time>2014-6-17T5:43:14Z</time></trkpt>
<trkpt lat="47.25961000" lon="0.54386600"><ele></ele><time>2014-6-17T5:43:17Z</time></trkpt>
<trkpt lat="47.25979100" lon="0.54338600"><ele></ele><time>2014-6-17T5:43:20Z</time></trkpt>
<trkpt lat="47.25987500" lon="0.54295600"><ele></ele><time>2014-6-17T5:43:23Z</time></trkpt>
<trkpt lat="47.25997200" lon="0.54238900"><ele></ele><time>2014-6-17T5:43:26Z</time></trkpt>
<trkpt lat="47.26007300" lon="0.54217700"><ele></ele><time>2014-6-17T5:43:29Z</time></trkpt>
<trkpt lat="47.26028400" lon="0.54210800"><ele></ele><time>2014-6-17T5:43:32Z</time></trkpt>
<trkpt lat="47.26038600" lon="0.54210600"><ele></ele><time>2014-6-17T5:43:35Z</time></trkpt>
<trkpt lat="47.26060000" lon="0.54206000"><ele></ele><time>2014-6-17T5:43:38Z</time></trkpt>
<trkpt lat="47.26069900" lon="0.54192600"><ele></ele><time>2014-6-17T5:43:41Z</time></trkpt>
<trkpt lat="47.26068900" lon="0.54161800"><ele></ele><time>2014-6-17T5:43:44Z</time></trkpt>
<trkpt lat="47.26064800" lon="0.54109000"><ele></ele><time>2014-6-17T5:43:47Z</time></trkpt>
<trkpt lat="47.26064100" lon="0.54077700"><ele></ele><time>2014-6-17T5:43:50Z</time></trkpt>
<trkpt lat="47.26064100" lon="0.54039400"><ele></ele><time>2014-6-17T5:43:53Z</time></trkpt>
<trkpt lat="47.26055400" lon="0.54018000"><ele></ele><time>2014-6-17T5:43:56Z</time></trkpt>
<trkpt lat="47.26039100" lon="0.53999300"><ele></ele><time>2014-6-17T5:43:59Z</time></trkpt>
<trkpt lat="47.26013000" lon="0.53967200"><ele></ele><time>2014-6-17T5:44:2Z</time></trkpt>
<trkpt lat="47.25994200" lon="0.53944100"><ele></ele><time>2014-6-17T5:44:5Z</time></trkpt>
<trkpt lat="47.25964800" lon="0.53897300"><ele></ele><time>2014-6-17T5:44:8Z</time></trkpt>
<trkpt lat="47.25958800" lon="0.53886300"><ele></ele><time>2014-6-17T5:44:11Z</time></trkpt>
<trkpt lat="47.25951400" lon="0.53868600"><ele></ele><time>2014-6-17T5:44:14Z</time></trkpt>
<trkpt lat="47.25943400" lon="0.53835500"><ele></ele><time>2014-6-17T5:44:17Z</time></trkpt>
<trkpt lat="47.25936300" lon="0.53799900"><ele></ele><time>2014-6-17T5:44:20Z</time></trkpt>
<trkpt lat="47.25930600" lon="0.53778600"><ele></ele><time>2014-6-17T5:44:23Z</time></trkpt>
<trkpt lat="47.25917700" lon="0.53746000"><ele></ele><time>2014-6-17T5:44:26Z</time></trkpt>
<trkpt lat="47.25903700" lon="0.53728600"><ele></ele><time>2014-6-17T5:44:29Z</time></trkpt>
<trkpt lat="47.25897800" lon="0.53736600"><ele></ele><time>2014-6-17T5:44:32Z</time></trkpt>
<trkpt lat="47.25872300" lon="0.53785600"><ele></ele><time>2014-6-17T5:44:35Z</time></trkpt>
<trkpt lat="47.25820700" lon="0.53851500"><ele></ele><time>2014-6-17T5:44:38Z</time></trkpt>
<trkpt lat="47.25781500" lon="0.53888400"><ele></ele><time>2014-6-17T5:44:41Z</time></trkpt>
<trkpt lat="47.25713100" lon="0.53909200"><ele></ele><time>2014-6-17T5:44:44Z</time></trkpt>
<trkpt lat="47.25631000" lon="0.53919700"><ele></ele><time>2014-6-17T5:44:47Z</time></trkpt>
<trkpt lat="47.25596700" lon="0.53925600"><ele></ele><time>2014-6-17T5:44:50Z</time></trkpt>
<trkpt lat="47.25573200" lon="0.53950200"><ele></ele><time>2014-6-17T5:44:53Z</time></trkpt>
<trkpt lat="47.25570900" lon="0.53958800"><ele></ele><time>2014-6-17T5:44:56Z</time></trkpt>
<trkpt lat="47.25544400" lon="0.54005400"><ele></ele><time>2014-6-17T5:44:59Z</time></trkpt>
<trkpt lat="47.25513900" lon="0.54029300"><ele></ele><time>2014-6-17T5:45:2Z</time></trkpt>
<trkpt lat="47.25499400" lon="0.54040500"><ele></ele><time>2014-6-17T5:45:5Z</time></trkpt>
<trkpt lat="47.25501000" lon="0.54049800"><ele></ele><time>2014-6-17T5:45:8Z</time></trkpt>
<trkpt lat="47.25503800" lon="0.54049500"><ele></ele><time>2014-6-17T5:45:11Z</time></trkpt>
<trkpt lat="47.25524400" lon="0.54052500"><ele></ele><time>2014-6-17T5:45:14Z</time></trkpt>
<trkpt lat="47.25542100" lon="0.54068900"><ele></ele><time>2014-6-17T5:45:17Z</time></trkpt>
<trkpt lat="47.25565200" lon="0.54081800"><ele></ele><time>2014-6-17T5:45:20Z</time></trkpt>
<trkpt lat="47.25578200" lon="0.54087400"><ele></ele><time>2014-6-17T5:45:23Z</time></trkpt>
<trkpt lat="47.25594400" lon="0.54098500"><ele></ele><time>2014-6-17T5:45:26Z</time></trkpt>
<trkpt lat="47.25605600" lon="0.54106800"><ele></ele><time>2014-6-17T5:45:29Z</time></trkpt>
<trkpt lat="47.25636100" lon="0.54143900"><ele></ele><time>2014-6-17T5:45:32Z</time></trkpt>
<trkpt lat="47.25661300" lon="0.54182500"><ele></ele><time>2014-6-17T5:45:35Z</time></trkpt>
<trkpt lat="47.25669700" lon="0.54195600"><ele></ele><time>2014-6-17T5:45:38Z</time></trkpt>
<trkpt lat="47.25677300" lon="0.54215000"><ele></ele><time>2014-6-17T5:45:41Z</time></trkpt>
<trkpt lat="47.25678900" lon="0.54232500"><ele></ele><time>2014-6-17T5:45:44Z</time></trkpt>
<trkpt lat="47.25681500" lon="0.54285300"><ele></ele><time>2014-6-17T5:45:47Z</time></trkpt>
<trkpt lat="47.25687900" lon="0.54342300"><ele></ele><time>2014-6-17T5:45:50Z</time></trkpt>
<trkpt lat="47.25674800" lon="0.54354600"><ele></ele><time>2014-6-17T5:45:53Z</time></trkpt>
<trkpt lat="47.25664800" lon="0.54356100"><ele></ele><time>2014-6-17T5:45:56Z</time></trkpt>
<trkpt lat="47.25649900" lon="0.54357000"><ele></ele><time>2014-6-17T5:45:59Z</time></trkpt>
<trkpt lat="47.25626300" lon="0.54365200"><ele></ele><time>2014-6-17T5:46:2Z</time></trkpt>
<trkpt lat="47.25610000" lon="0.54371900"><ele></ele><time>2014-6-17T5:46:5Z</time></trkpt>
<trkpt lat="47.25569600" lon="0.54378800"><ele></ele><time>2014-6-17T5:46:8Z</time></trkpt>
<trkpt lat="47.25562800" lon="0.54381100"><ele></ele><time>2014-6-17T5:46:11Z</time></trkpt>
<trkpt lat="47.25545300" lon="0.54385500"><ele></ele><time>2014-6-17T5:46:14Z</time></trkpt>
<trkpt lat="47.25529400" lon="0.54386900"><ele></ele><time>2014-6-17T5:46:17Z</time></trkpt>
<trkpt lat="47.25525800" lon="0.54388700"><ele></ele><time>2014-6-17T5:46:20Z</time></trkpt>
<trkpt lat="47.25482700" lon="0.54401700"><ele></ele><time>2014-6-17T5:46:23Z</time></trkpt>
<trkpt lat="47.25434600" lon="0.54416800"><ele></ele><time>2014-6-17T5:46:26Z</time></trkpt>
<trkpt lat="47.25429900" lon="0.54418000"><ele></ele><time>2014-6-17T5:46:29Z</time></trkpt>
<trkpt lat="47.25384900" lon="0.54431300"><ele></ele><time>2014-6-17T5:46:32Z</time></trkpt>
<trkpt lat="47.25330800" lon="0.54449300"><ele></ele><time>2014-6-17T5:46:35Z</time></trkpt>
<trkpt lat="47.25300200" lon="0.54463900"><ele></ele><time>2014-6-17T5:46:38Z</time></trkpt>
<trkpt lat="47.25287000" lon="0.54460600"><ele></ele><time>2014-6-17T5:46:41Z</time></trkpt>
<trkpt lat="47.25279300" lon="0.54463300"><ele></ele><time>2014-6-17T5:46:44Z</time></trkpt>
<trkpt lat="47.25238300" lon="0.54479100"><ele></ele><time>2014-6-17T5:46:47Z</time></trkpt>
<trkpt lat="47.25192500" lon="0.54492500"><ele></ele><time>2014-6-17T5:46:50Z</time></trkpt>
<trkpt lat="47.25161300" lon="0.54501100"><ele></ele><time>2014-6-17T5:46:53Z</time></trkpt>
<trkpt lat="47.25121300" lon="0.54500200"><ele></ele><time>2014-6-17T5:46:56Z</time></trkpt>
<trkpt lat="47.25076700" lon="0.54491200"><ele></ele><time>2014-6-17T5:46:59Z</time></trkpt>
<trkpt lat="47.25071700" lon="0.54489700"><ele></ele><time>2014-6-17T5:47:2Z</time></trkpt>
<trkpt lat="47.25062000" lon="0.54487300"><ele></ele><time>2014-6-17T5:47:5Z</time></trkpt>
<trkpt lat="47.25050000" lon="0.54497100"><ele></ele><time>2014-6-17T5:47:8Z</time></trkpt>
<trkpt lat="47.25052800" lon="0.54508200"><ele></ele><time>2014-6-17T5:47:11Z</time></trkpt>
<trkpt lat="47.25067600" lon="0.54549500"><ele></ele><time>2014-6-17T5:47:14Z</time></trkpt>
<trkpt lat="47.25078600" lon="0.54575300"><ele></ele><time>2014-6-17T5:47:17Z</time></trkpt>
<trkpt lat="47.25076900" lon="0.54593800"><ele></ele><time>2014-6-17T5:47:20Z</time></trkpt>
<trkpt lat="47.25068700" lon="0.54595600"><ele></ele><time>2014-6-17T5:47:23Z</time></trkpt>
<trkpt lat="47.25045300" lon="0.54605300"><ele></ele><time>2014-6-17T5:47:26Z</time></trkpt>
<trkpt lat="47.24999600" lon="0.54627300"><ele></ele><time>2014-6-17T5:47:29Z</time></trkpt>
<trkpt lat="47.24953300" lon="0.54651700"><ele></ele><time>2014-6-17T5:47:32Z</time></trkpt>
<trkpt lat="47.24930500" lon="0.54661900"><ele></ele><time>2014-6-17T5:47:35Z</time></trkpt>
<trkpt lat="47.24910500" lon="0.54672100"><ele></ele><time>2014-6-17T5:47:38Z</time></trkpt>
<trkpt lat="47.24910600" lon="0.54688200"><ele></ele><time>2014-6-17T5:47:41Z</time></trkpt>
<trkpt lat="47.24925900" lon="0.54730400"><ele></ele><time>2014-6-17T5:47:44Z</time></trkpt>
<trkpt lat="47.24942700" lon="0.54781700"><ele></ele><time>2014-6-17T5:47:47Z</time></trkpt>
<trkpt lat="47.24960600" lon="0.54829500"><ele></ele><time>2014-6-17T5:47:50Z</time></trkpt>
<trkpt lat="47.24969100" lon="0.54846500"><ele></ele><time>2014-6-17T5:47:53Z</time></trkpt>
<trkpt lat="47.24984700" lon="0.54873800"><ele></ele><time>2014-6-17T5:47:56Z</time></trkpt>
<trkpt lat="47.25018200" lon="0.54943900"><ele></ele><time>2014-6-17T5:47:59Z</time></trkpt>
<trkpt lat="47.25033500" lon="0.54977900"><ele></ele><time>2014-6-17T5:48:2Z</time></trkpt>
<trkpt lat="47.25038000" lon="0.55000000"><ele></ele><time>2014-6-17T5:48:5Z</time></trkpt>
<trkpt lat="47.25033100" lon="0.55003600"><ele></ele><time>2014-6-17T5:48:8Z</time></trkpt>
<trkpt lat="47.25006500" lon="0.55024600"><ele></ele><time>2014-6-17T5:48:11Z</time></trkpt>
<trkpt lat="47.24982100" lon="0.55043300"><ele></ele><time>2014-6-17T5:48:14Z</time></trkpt>
<trkpt lat="47.24970200" lon="0.55046600"><ele></ele><time>2014-6-17T5:48:17Z</time></trkpt>
<trkpt lat="47.24938200" lon="0.55062500"><ele></ele><time>2014-6-17T5:48:20Z</time></trkpt>
<trkpt lat="47.24933500" lon="0.55065300"><ele></ele><time>2014-6-17T5:48:23Z</time></trkpt>
<trkpt lat="47.24909100" lon="0.55085100"><ele></ele><time>2014-6-17T5:48:26Z</time></trkpt>
<trkpt lat="47.24882000" lon="0.55099100"><ele></ele><time>2014-6-17T5:48:29Z</time></trkpt>
<trkpt lat="47.24873800" lon="0.55102800"><ele></ele><time>2014-6-17T5:48:32Z</time></trkpt>
<trkpt lat="47.24873800" lon="0.55102800"><ele></ele><time>2014-6-17T5:48:35Z</time></trkpt>
<trkpt lat="47.24870300" lon="0.55114900"><ele></ele><time>2014-6-17T5:48:38Z</time></trkpt>
<trkpt lat="47.24877400" lon="0.55148300"><ele></ele><time>2014-6-17T5:48:41Z</time></trkpt>
<trkpt lat="47.24878900" lon="0.55153800"><ele></ele><time>2014-6-17T5:48:44Z</time></trkpt>
<trkpt lat="47.24885200" lon="0.55186100"><ele></ele><time>2014-6-17T5:48:47Z</time></trkpt>
<trkpt lat="47.24901200" lon="0.55261300"><ele></ele><time>2014-6-17T5:48:50Z</time></trkpt>
<trkpt lat="47.24914300" lon="0.55334400"><ele></ele><time>2014-6-17T5:48:53Z</time></trkpt>
<trkpt lat="47.24921300" lon="0.55374100"><ele></ele><time>2014-6-17T5:48:56Z</time></trkpt>
<trkpt lat="47.24914800" lon="0.55390100"><ele></ele><time>2014-6-17T5:48:59Z</time></trkpt>
<trkpt lat="47.24887800" lon="0.55391000"><ele></ele><time>2014-6-17T5:49:2Z</time></trkpt>
<trkpt lat="47.24844600" lon="0.55392700"><ele></ele><time>2014-6-17T5:49:5Z</time></trkpt>
<trkpt lat="47.24812000" lon="0.55395000"><ele></ele><time>2014-6-17T5:49:8Z</time></trkpt>
<trkpt lat="47.24785400" lon="0.55398800"><ele></ele><time>2014-6-17T5:49:11Z</time></trkpt>
<trkpt lat="47.24754100" lon="0.55396600"><ele></ele><time>2014-6-17T5:49:14Z</time></trkpt>
<trkpt lat="47.24727000" lon="0.55392300"><ele></ele><time>2014-6-17T5:49:17Z</time></trkpt>
<trkpt lat="47.24717600" lon="0.55391800"><ele></ele><time>2014-6-17T5:49:20Z</time></trkpt>
<trkpt lat="47.24699500" lon="0.55389700"><ele></ele><time>2014-6-17T5:49:23Z</time></trkpt>
<trkpt lat="47.24680300" lon="0.55395400"><ele></ele><time>2014-6-17T5:49:26Z</time></trkpt>
<trkpt lat="47.24661500" lon="0.55395600"><ele></ele><time>2014-6-17T5:49:29Z</time></trkpt>
<trkpt lat="47.24643800" lon="0.55400900"><ele></ele><time>2014-6-17T5:49:32Z</time></trkpt>
<trkpt lat="47.24619800" lon="0.55403800"><ele></ele><time>2014-6-17T5:49:35Z</time></trkpt>
<trkpt lat="47.24597700" lon="0.55407100"><ele></ele><time>2014-6-17T5:49:38Z</time></trkpt>
<trkpt lat="47.24567900" lon="0.55409300"><ele></ele><time>2014-6-17T5:49:41Z</time></trkpt>
<trkpt lat="47.24544900" lon="0.55403500"><ele></ele><time>2014-6-17T5:49:44Z</time></trkpt>
<trkpt lat="47.24517500" lon="0.55396500"><ele></ele><time>2014-6-17T5:49:47Z</time></trkpt>
<trkpt lat="47.24485300" lon="0.55390700"><ele></ele><time>2014-6-17T5:49:50Z</time></trkpt>
<trkpt lat="47.24446700" lon="0.55387500"><ele></ele><time>2014-6-17T5:49:53Z</time></trkpt>
<trkpt lat="47.24419800" lon="0.55386900"><ele></ele><time>2014-6-17T5:49:56Z</time></trkpt>
<trkpt lat="47.24390800" lon="0.55382000"><ele></ele><time>2014-6-17T5:49:59Z</time></trkpt>
<trkpt lat="47.24352500" lon="0.55373900"><ele></ele><time>2014-6-17T5:50:2Z</time></trkpt>
<trkpt lat="47.24331600" lon="0.55372400"><ele></ele><time>2014-6-17T5:50:5Z</time></trkpt>
<trkpt lat="47.24303800" lon="0.55368100"><ele></ele><time>2014-6-17T5:50:8Z</time></trkpt>
<trkpt lat="47.24279800" lon="0.55361200"><ele></ele><time>2014-6-17T5:50:11Z</time></trkpt>
<trkpt lat="47.24255600" lon="0.55358400"><ele></ele><time>2014-6-17T5:50:14Z</time></trkpt>
<trkpt lat="47.24231500" lon="0.55360900"><ele></ele><time>2014-6-17T5:50:17Z</time></trkpt>
<trkpt lat="47.24206100" lon="0.55362700"><ele></ele><time>2014-6-17T5:50:20Z</time></trkpt>
<trkpt lat="47.24185100" lon="0.55364100"><ele></ele><time>2014-6-17T5:50:23Z</time></trkpt>
<trkpt lat="47.24162300" lon="0.55364000"><ele></ele><time>2014-6-17T5:50:26Z</time></trkpt>
<trkpt lat="47.24132600" lon="0.55361400"><ele></ele><time>2014-6-17T5:50:29Z</time></trkpt>
<trkpt lat="47.24102900" lon="0.55358400"><ele></ele><time>2014-6-17T5:50:32Z</time></trkpt>
<trkpt lat="47.24066400" lon="0.55354900"><ele></ele><time>2014-6-17T5:50:35Z</time></trkpt>
<trkpt lat="47.24037800" lon="0.55356900"><ele></ele><time>2014-6-17T5:50:38Z</time></trkpt>
<trkpt lat="47.24031200" lon="0.55356000"><ele></ele><time>2014-6-17T5:50:41Z</time></trkpt>
<trkpt lat="47.24004100" lon="0.55357900"><ele></ele><time>2014-6-17T5:50:44Z</time></trkpt>
<trkpt lat="47.23986000" lon="0.55358000"><ele></ele><time>2014-6-17T5:50:47Z</time></trkpt>
<trkpt lat="47.23958600" lon="0.55359700"><ele></ele><time>2014-6-17T5:50:50Z</time></trkpt>
<trkpt lat="47.23941600" lon="0.55361200"><ele></ele><time>2014-6-17T5:50:53Z</time></trkpt>
<trkpt lat="47.23915800" lon="0.55364300"><ele></ele><time>2014-6-17T5:50:56Z</time></trkpt>
<trkpt lat="47.23895600" lon="0.55369300"><ele></ele><time>2014-6-17T5:50:59Z</time></trkpt>
<trkpt lat="47.23871500" lon="0.55391200"><ele></ele><time>2014-6-17T5:51:2Z</time></trkpt>
<trkpt lat="47.23850100" lon="0.55417800"><ele></ele><time>2014-6-17T5:51:5Z</time></trkpt>
<trkpt lat="47.23830000" lon="0.55438500"><ele></ele><time>2014-6-17T5:51:8Z</time></trkpt>
<trkpt lat="47.23810500" lon="0.55455100"><ele></ele><time>2014-6-17T5:51:11Z</time></trkpt>
<trkpt lat="47.23790700" lon="0.55473700"><ele></ele><time>2014-6-17T5:51:14Z</time></trkpt>
<trkpt lat="47.23786900" lon="0.55478900"><ele></ele><time>2014-6-17T5:51:17Z</time></trkpt>
<trkpt lat="47.23766400" lon="0.55510100"><ele></ele><time>2014-6-17T5:51:20Z</time></trkpt>
<trkpt lat="47.23751400" lon="0.55527900"><ele></ele><time>2014-6-17T5:51:23Z</time></trkpt>
<trkpt lat="47.23737300" lon="0.55542500"><ele></ele><time>2014-6-17T5:51:26Z</time></trkpt>
<trkpt lat="47.23718600" lon="0.55549900"><ele></ele><time>2014-6-17T5:51:29Z</time></trkpt>
<trkpt lat="47.23699500" lon="0.55546200"><ele></ele><time>2014-6-17T5:51:32Z</time></trkpt>
<trkpt lat="47.23675800" lon="0.55541900"><ele></ele><time>2014-6-17T5:51:35Z</time></trkpt>
<trkpt lat="47.23648200" lon="0.55540200"><ele></ele><time>2014-6-17T5:51:38Z</time></trkpt>
<trkpt lat="47.23623500" lon="0.55534500"><ele></ele><time>2014-6-17T5:51:41Z</time></trkpt>
<trkpt lat="47.23601400" lon="0.55534000"><ele></ele><time>2014-6-17T5:51:44Z</time></trkpt>
<trkpt lat="47.23578500" lon="0.55534800"><ele></ele><time>2014-6-17T5:51:47Z</time></trkpt>
<trkpt lat="47.23563000" lon="0.55537800"><ele></ele><time>2014-6-17T5:51:50Z</time></trkpt>
<trkpt lat="47.23555200" lon="0.55564600"><ele></ele><time>2014-6-17T5:51:53Z</time></trkpt>
<trkpt lat="47.23545100" lon="0.55615000"><ele></ele><time>2014-6-17T5:51:56Z</time></trkpt>
<trkpt lat="47.23536800" lon="0.55651700"><ele></ele><time>2014-6-17T5:51:59Z</time></trkpt>
<trkpt lat="47.23526700" lon="0.55687500"><ele></ele><time>2014-6-17T5:52:2Z</time></trkpt>
<trkpt lat="47.23517200" lon="0.55714400"><ele></ele><time>2014-6-17T5:52:5Z</time></trkpt>
<trkpt lat="47.23509700" lon="0.55731800"><ele></ele><time>2014-6-17T5:52:8Z</time></trkpt>
<trkpt lat="47.23497700" lon="0.55762100"><ele></ele><time>2014-6-17T5:52:11Z</time></trkpt>
<trkpt lat="47.23496100" lon="0.55768300"><ele></ele><time>2014-6-17T5:52:14Z</time></trkpt>
<trkpt lat="47.23486800" lon="0.55792400"><ele></ele><time>2014-6-17T5:52:17Z</time></trkpt>
<trkpt lat="47.23480100" lon="0.55807300"><ele></ele><time>2014-6-17T5:52:20Z</time></trkpt>
<trkpt lat="47.23471800" lon="0.55807900"><ele></ele><time>2014-6-17T5:52:23Z</time></trkpt>
<trkpt lat="47.23462900" lon="0.55790400"><ele></ele><time>2014-6-17T5:52:26Z</time></trkpt>
<trkpt lat="47.23452700" lon="0.55773100"><ele></ele><time>2014-6-17T5:52:29Z</time></trkpt>
<trkpt lat="47.23443100" lon="0.55767700"><ele></ele><time>2014-6-17T5:52:32Z</time></trkpt>
<trkpt lat="47.23426700" lon="0.55756000"><ele></ele><time>2014-6-17T5:52:35Z</time></trkpt>
<trkpt lat="47.23413500" lon="0.55742200"><ele></ele><time>2014-6-17T5:52:38Z</time></trkpt>
<trkpt lat="47.23398600" lon="0.55730700"><ele></ele><time>2014-6-17T5:52:41Z</time></trkpt>
<trkpt lat="47.23379100" lon="0.55714900"><ele></ele><time>2014-6-17T5:52:44Z</time></trkpt>
<trkpt lat="47.23366500" lon="0.55700500"><ele></ele><time>2014-6-17T5:52:47Z</time></trkpt>
<trkpt lat="47.23353000" lon="0.55681700"><ele></ele><time>2014-6-17T5:52:50Z</time></trkpt>
<trkpt lat="47.23343100" lon="0.55662900"><ele></ele><time>2014-6-17T5:52:53Z</time></trkpt>
<trkpt lat="47.23325300" lon="0.55641700"><ele></ele><time>2014-6-17T5:52:56Z</time></trkpt>
<trkpt lat="47.23313200" lon="0.55634100"><ele></ele><time>2014-6-17T5:52:59Z</time></trkpt>
<trkpt lat="47.23296800" lon="0.55618900"><ele></ele><time>2014-6-17T5:53:2Z</time></trkpt>
<trkpt lat="47.23279100" lon="0.55608000"><ele></ele><time>2014-6-17T5:53:5Z</time></trkpt>
<trkpt lat="47.23261500" lon="0.55592000"><ele></ele><time>2014-6-17T5:53:8Z</time></trkpt>
<trkpt lat="47.23245700" lon="0.55580300"><ele></ele><time>2014-6-17T5:53:11Z</time></trkpt>
<trkpt lat="47.23232800" lon="0.55568200"><ele></ele><time>2014-6-17T5:53:14Z</time></trkpt>
<trkpt lat="47.23216900" lon="0.55548100"><ele></ele><time>2014-6-17T5:53:17Z</time></trkpt>
<trkpt lat="47.23205200" lon="0.55527600"><ele></ele><time>2014-6-17T5:53:20Z</time></trkpt>
<trkpt lat="47.23186100" lon="0.55504100"><ele></ele><time>2014-6-17T5:53:23Z</time></trkpt>
<trkpt lat="47.23172400" lon="0.55491000"><ele></ele><time>2014-6-17T5:53:26Z</time></trkpt>
<trkpt lat="47.23165500" lon="0.55491400"><ele></ele><time>2014-6-17T5:53:29Z</time></trkpt>
<trkpt lat="47.23159700" lon="0.55490400"><ele></ele><time>2014-6-17T5:53:32Z</time></trkpt>
<trkpt lat="47.23146300" lon="0.55488000"><ele></ele><time>2014-6-17T5:53:35Z</time></trkpt>
<trkpt lat="47.23124400" lon="0.55481900"><ele></ele><time>2014-6-17T5:53:38Z</time></trkpt>
<trkpt lat="47.23110500" lon="0.55478100"><ele></ele><time>2014-6-17T5:53:41Z</time></trkpt>
<trkpt lat="47.23093300" lon="0.55477000"><ele></ele><time>2014-6-17T5:53:44Z</time></trkpt>
<trkpt lat="47.23083400" lon="0.55474900"><ele></ele><time>2014-6-17T5:53:47Z</time></trkpt>
<trkpt lat="47.23080000" lon="0.55474400"><ele></ele><time>2014-6-17T5:53:50Z</time></trkpt>
<trkpt lat="47.23066800" lon="0.55472600"><ele></ele><time>2014-6-17T5:53:53Z</time></trkpt>
<trkpt lat="47.23049400" lon="0.55466000"><ele></ele><time>2014-6-17T5:53:56Z</time></trkpt>
<trkpt lat="47.23035200" lon="0.55466000"><ele></ele><time>2014-6-17T5:53:59Z</time></trkpt>
<trkpt lat="47.23018200" lon="0.55461600"><ele></ele><time>2014-6-17T5:54:2Z</time></trkpt>
<trkpt lat="47.22999500" lon="0.55455800"><ele></ele><time>2014-6-17T5:54:5Z</time></trkpt>
<trkpt lat="47.22981800" lon="0.55454600"><ele></ele><time>2014-6-17T5:54:8Z</time></trkpt>
<trkpt lat="47.22959900" lon="0.55449600"><ele></ele><time>2014-6-17T5:54:11Z</time></trkpt>
<trkpt lat="47.22957200" lon="0.55449500"><ele></ele><time>2014-6-17T5:54:14Z</time></trkpt>
<trkpt lat="47.22937900" lon="0.55448200"><ele></ele><time>2014-6-17T5:54:17Z</time></trkpt>
<trkpt lat="47.22927800" lon="0.55446500"><ele></ele><time>2014-6-17T5:54:20Z</time></trkpt>
<trkpt lat="47.22905800" lon="0.55441900"><ele></ele><time>2014-6-17T5:54:23Z</time></trkpt>
<trkpt lat="47.22886800" lon="0.55443500"><ele></ele><time>2014-6-17T5:54:26Z</time></trkpt>
<trkpt lat="47.22863100" lon="0.55443100"><ele></ele><time>2014-6-17T5:54:29Z</time></trkpt>
<trkpt lat="47.22837800" lon="0.55439900"><ele></ele><time>2014-6-17T5:54:32Z</time></trkpt>
<trkpt lat="47.22824500" lon="0.55438300"><ele></ele><time>2014-6-17T5:54:35Z</time></trkpt>
<trkpt lat="47.22812500" lon="0.55435300"><ele></ele><time>2014-6-17T5:54:38Z</time></trkpt>
<trkpt lat="47.22804400" lon="0.55431400"><ele></ele><time>2014-6-17T5:54:41Z</time></trkpt>
<trkpt lat="47.22781900" lon="0.55427300"><ele></ele><time>2014-6-17T5:54:44Z</time></trkpt>
<trkpt lat="47.22765000" lon="0.55425900"><ele></ele><time>2014-6-17T5:54:47Z</time></trkpt>
<trkpt lat="47.22741600" lon="0.55419200"><ele></ele><time>2014-6-17T5:54:50Z</time></trkpt>
<trkpt lat="47.22712800" lon="0.55417100"><ele></ele><time>2014-6-17T5:54:53Z</time></trkpt>
<trkpt lat="47.22679000" lon="0.55416900"><ele></ele><time>2014-6-17T5:54:56Z</time></trkpt>
<trkpt lat="47.22670300" lon="0.55417700"><ele></ele><time>2014-6-17T5:54:59Z</time></trkpt>
<trkpt lat="47.22638200" lon="0.55417600"><ele></ele><time>2014-6-17T5:55:2Z</time></trkpt>
<trkpt lat="47.22621200" lon="0.55417400"><ele></ele><time>2014-6-17T5:55:5Z</time></trkpt>
<trkpt lat="47.22591100" lon="0.55416800"><ele></ele><time>2014-6-17T5:55:8Z</time></trkpt>
<trkpt lat="47.22551500" lon="0.55411700"><ele></ele><time>2014-6-17T5:55:11Z</time></trkpt>
<trkpt lat="47.22538900" lon="0.55412600"><ele></ele><time>2014-6-17T5:55:14Z</time></trkpt>
<trkpt lat="47.22499300" lon="0.55411200"><ele></ele><time>2014-6-17T5:55:17Z</time></trkpt>
<trkpt lat="47.22465400" lon="0.55408700"><ele></ele><time>2014-6-17T5:55:20Z</time></trkpt>
<trkpt lat="47.22451500" lon="0.55408400"><ele></ele><time>2014-6-17T5:55:23Z</time></trkpt>
<trkpt lat="47.22446100" lon="0.55405500"><ele></ele><time>2014-6-17T5:55:26Z</time></trkpt>
<trkpt lat="47.22446100" lon="0.55405500"><ele></ele><time>2014-6-17T5:55:29Z</time></trkpt>
<trkpt lat="47.22448600" lon="0.55424200"><ele></ele><time>2014-6-17T5:55:32Z</time></trkpt>
<trkpt lat="47.22450300" lon="0.55437700"><ele></ele><time>2014-6-17T5:55:35Z</time></trkpt>
<trkpt lat="47.22450700" lon="0.55481400"><ele></ele><time>2014-6-17T5:55:38Z</time></trkpt>
<trkpt lat="47.22456200" lon="0.55514900"><ele></ele><time>2014-6-17T5:55:41Z</time></trkpt>
<trkpt lat="47.22458200" lon="0.55538700"><ele></ele><time>2014-6-17T5:55:44Z</time></trkpt>
<trkpt lat="47.22462000" lon="0.55579600"><ele></ele><time>2014-6-17T5:55:47Z</time></trkpt>
<trkpt lat="47.22464300" lon="0.55612200"><ele></ele><time>2014-6-17T5:55:50Z</time></trkpt>
<trkpt lat="47.22468300" lon="0.55651300"><ele></ele><time>2014-6-17T5:55:53Z</time></trkpt>
<trkpt lat="47.22463100" lon="0.55675900"><ele></ele><time>2014-6-17T5:55:56Z</time></trkpt>
<trkpt lat="47.22453600" lon="0.55695000"><ele></ele><time>2014-6-17T5:55:59Z</time></trkpt>
<trkpt lat="47.22426200" lon="0.55730500"><ele></ele><time>2014-6-17T5:56:2Z</time></trkpt>
<trkpt lat="47.22395800" lon="0.55761500"><ele></ele><time>2014-6-17T5:56:5Z</time></trkpt>
<trkpt lat="47.22393200" lon="0.55765800"><ele></ele><time>2014-6-17T5:56:8Z</time></trkpt>
<trkpt lat="47.22397900" lon="0.55788800"><ele></ele><time>2014-6-17T5:56:11Z</time></trkpt>
<trkpt lat="47.22401000" lon="0.55792600"><ele></ele><time>2014-6-17T5:56:14Z</time></trkpt>
<trkpt lat="47.22430800" lon="0.55822400"><ele></ele><time>2014-6-17T5:56:17Z</time></trkpt>
<trkpt lat="47.22460500" lon="0.55850400"><ele></ele><time>2014-6-17T5:56:20Z</time></trkpt>
<trkpt lat="47.22482100" lon="0.55872700"><ele></ele><time>2014-6-17T5:56:23Z</time></trkpt>
<trkpt lat="47.22506000" lon="0.55897500"><ele></ele><time>2014-6-17T5:56:26Z</time></trkpt>
<trkpt lat="47.22539000" lon="0.55926900"><ele></ele><time>2014-6-17T5:56:29Z</time></trkpt>
<trkpt lat="47.22545500" lon="0.55937900"><ele></ele><time>2014-6-17T5:56:32Z</time></trkpt>
<trkpt lat="47.22572400" lon="0.55970100"><ele></ele><time>2014-6-17T5:56:35Z</time></trkpt>
<trkpt lat="47.22600300" lon="0.56000300"><ele></ele><time>2014-6-17T5:56:38Z</time></trkpt>
<trkpt lat="47.22618700" lon="0.56021800"><ele></ele><time>2014-6-17T5:56:41Z</time></trkpt>
<trkpt lat="47.22637000" lon="0.56037100"><ele></ele><time>2014-6-17T5:56:44Z</time></trkpt>
<trkpt lat="47.22654400" lon="0.56061300"><ele></ele><time>2014-6-17T5:56:47Z</time></trkpt>
<trkpt lat="47.22675200" lon="0.56083500"><ele></ele><time>2014-6-17T5:56:50Z</time></trkpt>
<trkpt lat="47.22701300" lon="0.56117300"><ele></ele><time>2014-6-17T5:56:53Z</time></trkpt>
<trkpt lat="47.22712800" lon="0.56127600"><ele></ele><time>2014-6-17T5:56:56Z</time></trkpt>
<trkpt lat="47.22744700" lon="0.56158000"><ele></ele><time>2014-6-17T5:56:59Z</time></trkpt>
<trkpt lat="47.22760000" lon="0.56169900"><ele></ele><time>2014-6-17T5:57:2Z</time></trkpt>
<trkpt lat="47.22786200" lon="0.56193300"><ele></ele><time>2014-6-17T5:57:5Z</time></trkpt>
<trkpt lat="47.22813400" lon="0.56211000"><ele></ele><time>2014-6-17T5:57:8Z</time></trkpt>
<trkpt lat="47.22824700" lon="0.56216600"><ele></ele><time>2014-6-17T5:57:11Z</time></trkpt>
<trkpt lat="47.22848300" lon="0.56234400"><ele></ele><time>2014-6-17T5:57:14Z</time></trkpt>
<trkpt lat="47.22866300" lon="0.56243800"><ele></ele><time>2014-6-17T5:57:17Z</time></trkpt>
<trkpt lat="47.22884300" lon="0.56252200"><ele></ele><time>2014-6-17T5:57:20Z</time></trkpt>
<trkpt lat="47.22891600" lon="0.56255400"><ele></ele><time>2014-6-17T5:57:23Z</time></trkpt>
<trkpt lat="47.22926700" lon="0.56273300"><ele></ele><time>2014-6-17T5:57:26Z</time></trkpt>
<trkpt lat="47.22948700" lon="0.56280400"><ele></ele><time>2014-6-17T5:57:29Z</time></trkpt>
<trkpt lat="47.22969800" lon="0.56287000"><ele></ele><time>2014-6-17T5:57:32Z</time></trkpt>
<trkpt lat="47.22995400" lon="0.56291900"><ele></ele><time>2014-6-17T5:57:35Z</time></trkpt>
<trkpt lat="47.23010400" lon="0.56297500"><ele></ele><time>2014-6-17T5:57:38Z</time></trkpt>
<trkpt lat="47.23036600" lon="0.56304700"><ele></ele><time>2014-6-17T5:57:41Z</time></trkpt>
<trkpt lat="47.23065900" lon="0.56310100"><ele></ele><time>2014-6-17T5:57:44Z</time></trkpt>
<trkpt lat="47.23095800" lon="0.56316600"><ele></ele><time>2014-6-17T5:57:47Z</time></trkpt>
<trkpt lat="47.23140100" lon="0.56331700"><ele></ele><time>2014-6-17T5:57:50Z</time></trkpt>
<trkpt lat="47.23157000" lon="0.56336600"><ele></ele><time>2014-6-17T5:57:53Z</time></trkpt>
<trkpt lat="47.23177900" lon="0.56343500"><ele></ele><time>2014-6-17T5:57:56Z</time></trkpt>
<trkpt lat="47.23222900" lon="0.56350100"><ele></ele><time>2014-6-17T5:57:59Z</time></trkpt>
<trkpt lat="47.23244600" lon="0.56354400"><ele></ele><time>2014-6-17T5:58:2Z</time></trkpt>
<trkpt lat="47.23274300" lon="0.56365300"><ele></ele><time>2014-6-17T5:58:5Z</time></trkpt>
<trkpt lat="47.23306000" lon="0.56383400"><ele></ele><time>2014-6-17T5:58:8Z</time></trkpt>
<trkpt lat="47.23334800" lon="0.56399400"><ele></ele><time>2014-6-17T5:58:11Z</time></trkpt>
<trkpt lat="47.23363400" lon="0.56407300"><ele></ele><time>2014-6-17T5:58:14Z</time></trkpt>
<trkpt lat="47.23391600" lon="0.56415800"><ele></ele><time>2014-6-17T5:58:17Z</time></trkpt>
<trkpt lat="47.23415400" lon="0.56422900"><ele></ele><time>2014-6-17T5:58:20Z</time></trkpt>
<trkpt lat="47.23439600" lon="0.56433800"><ele></ele><time>2014-6-17T5:58:23Z</time></trkpt>
<trkpt lat="47.23459700" lon="0.56454800"><ele></ele><time>2014-6-17T5:58:26Z</time></trkpt>
<trkpt lat="47.23481700" lon="0.56476100"><ele></ele><time>2014-6-17T5:58:29Z</time></trkpt>
<trkpt lat="47.23502600" lon="0.56497600"><ele></ele><time>2014-6-17T5:58:32Z</time></trkpt>
<trkpt lat="47.23529700" lon="0.56527600"><ele></ele><time>2014-6-17T5:58:35Z</time></trkpt>
<trkpt lat="47.23553600" lon="0.56554400"><ele></ele><time>2014-6-17T5:58:38Z</time></trkpt>
<trkpt lat="47.23582700" lon="0.56583700"><ele></ele><time>2014-6-17T5:58:41Z</time></trkpt>
<trkpt lat="47.23597200" lon="0.56601000"><ele></ele><time>2014-6-17T5:58:44Z</time></trkpt>
<trkpt lat="47.23619000" lon="0.56623500"><ele></ele><time>2014-6-17T5:58:47Z</time></trkpt>
<trkpt lat="47.23622300" lon="0.56636700"><ele></ele><time>2014-6-17T5:58:50Z</time></trkpt>
<trkpt lat="47.23636200" lon="0.56654800"><ele></ele><time>2014-6-17T5:58:53Z</time></trkpt>
<trkpt lat="47.23650800" lon="0.56672000"><ele></ele><time>2014-6-17T5:58:56Z</time></trkpt>
<trkpt lat="47.23663300" lon="0.56691800"><ele></ele><time>2014-6-17T5:58:59Z</time></trkpt>
<trkpt lat="47.23673700" lon="0.56707600"><ele></ele><time>2014-6-17T5:59:2Z</time></trkpt>
<trkpt lat="47.23679900" lon="0.56728700"><ele></ele><time>2014-6-17T5:59:5Z</time></trkpt>
<trkpt lat="47.23685200" lon="0.56749000"><ele></ele><time>2014-6-17T5:59:8Z</time></trkpt>
<trkpt lat="47.23689100" lon="0.56770300"><ele></ele><time>2014-6-17T5:59:11Z</time></trkpt>
<trkpt lat="47.23694700" lon="0.56788300"><ele></ele><time>2014-6-17T5:59:14Z</time></trkpt>
<trkpt lat="47.23695700" lon="0.56816200"><ele></ele><time>2014-6-17T5:59:17Z</time></trkpt>
<trkpt lat="47.23701800" lon="0.56858600"><ele></ele><time>2014-6-17T5:59:20Z</time></trkpt>
<trkpt lat="47.23702100" lon="0.56863900"><ele></ele><time>2014-6-17T5:59:23Z</time></trkpt>
<trkpt lat="47.23709700" lon="0.56903900"><ele></ele><time>2014-6-17T5:59:26Z</time></trkpt>
<trkpt lat="47.23718000" lon="0.56956600"><ele></ele><time>2014-6-17T5:59:29Z</time></trkpt>
<trkpt lat="47.23723300" lon="0.56990800"><ele></ele><time>2014-6-17T5:59:32Z</time></trkpt>
<trkpt lat="47.23732100" lon="0.57049600"><ele></ele><time>2014-6-17T5:59:35Z</time></trkpt>
<trkpt lat="47.23727900" lon="0.57068200"><ele></ele><time>2014-6-17T5:59:38Z</time></trkpt>
<trkpt lat="47.23726500" lon="0.57071000"><ele></ele><time>2014-6-17T5:59:41Z</time></trkpt>
<trkpt lat="47.23717100" lon="0.57082300"><ele></ele><time>2014-6-17T5:59:44Z</time></trkpt>
<trkpt lat="47.23698400" lon="0.57097400"><ele></ele><time>2014-6-17T5:59:47Z</time></trkpt>
<trkpt lat="47.23694600" lon="0.57114000"><ele></ele><time>2014-6-17T5:59:50Z</time></trkpt>
<trkpt lat="47.23704000" lon="0.57126500"><ele></ele><time>2014-6-17T5:59:53Z</time></trkpt>
<trkpt lat="47.23722900" lon="0.57152600"><ele></ele><time>2014-6-17T5:59:56Z</time></trkpt>
<trkpt lat="47.23728500" lon="0.57158100"><ele></ele><time>2014-6-17T5:59:59Z</time></trkpt>
<trkpt lat="47.23746200" lon="0.57176700"><ele></ele><time>2014-6-17T6:0:2Z</time></trkpt>
<trkpt lat="47.23748500" lon="0.57181000"><ele></ele><time>2014-6-17T6:0:5Z</time></trkpt>
<trkpt lat="47.23760500" lon="0.57196400"><ele></ele><time>2014-6-17T6:0:8Z</time></trkpt>
<trkpt lat="47.23777500" lon="0.57212900"><ele></ele><time>2014-6-17T6:0:11Z</time></trkpt>
<trkpt lat="47.23784300" lon="0.57219500"><ele></ele><time>2014-6-17T6:0:14Z</time></trkpt>
<trkpt lat="47.23803100" lon="0.57237900"><ele></ele><time>2014-6-17T6:0:17Z</time></trkpt>
<trkpt lat="47.23820200" lon="0.57258000"><ele></ele><time>2014-6-17T6:0:20Z</time></trkpt>
<trkpt lat="47.23837500" lon="0.57268900"><ele></ele><time>2014-6-17T6:0:23Z</time></trkpt>
<trkpt lat="47.23857900" lon="0.57283600"><ele></ele><time>2014-6-17T6:0:26Z</time></trkpt>
<trkpt lat="47.23861600" lon="0.57285700"><ele></ele><time>2014-6-17T6:0:29Z</time></trkpt>
<trkpt lat="47.23879800" lon="0.57300700"><ele></ele><time>2014-6-17T6:0:32Z</time></trkpt>
<trkpt lat="47.23886700" lon="0.57306500"><ele></ele><time>2014-6-17T6:0:35Z</time></trkpt>
<trkpt lat="47.23894200" lon="0.57312700"><ele></ele><time>2014-6-17T6:0:38Z</time></trkpt>
<trkpt lat="47.23916700" lon="0.57328300"><ele></ele><time>2014-6-17T6:0:41Z</time></trkpt>
<trkpt lat="47.23923200" lon="0.57335600"><ele></ele><time>2014-6-17T6:0:44Z</time></trkpt>
<trkpt lat="47.23954400" lon="0.57355400"><ele></ele><time>2014-6-17T6:0:47Z</time></trkpt>
<trkpt lat="47.23972600" lon="0.57359400"><ele></ele><time>2014-6-17T6:0:50Z</time></trkpt>
<trkpt lat="47.23980200" lon="0.57362700"><ele></ele><time>2014-6-17T6:0:53Z</time></trkpt>
<trkpt lat="47.24007600" lon="0.57365400"><ele></ele><time>2014-6-17T6:0:56Z</time></trkpt>
<trkpt lat="47.24036900" lon="0.57373900"><ele></ele><time>2014-6-17T6:0:59Z</time></trkpt>
<trkpt lat="47.24073800" lon="0.57380200"><ele></ele><time>2014-6-17T6:1:2Z</time></trkpt>
<trkpt lat="47.24111400" lon="0.57388200"><ele></ele><time>2014-6-17T6:1:5Z</time></trkpt>
<trkpt lat="47.24131500" lon="0.57389800"><ele></ele><time>2014-6-17T6:1:8Z</time></trkpt>
<trkpt lat="47.24134200" lon="0.57391900"><ele></ele><time>2014-6-17T6:1:11Z</time></trkpt>
<trkpt lat="47.24160900" lon="0.57406000"><ele></ele><time>2014-6-17T6:1:14Z</time></trkpt>
<trkpt lat="47.24164900" lon="0.57407400"><ele></ele><time>2014-6-17T6:1:17Z</time></trkpt>
<trkpt lat="47.24191500" lon="0.57414000"><ele></ele><time>2014-6-17T6:1:20Z</time></trkpt>
<trkpt lat="47.24219500" lon="0.57417400"><ele></ele><time>2014-6-17T6:1:23Z</time></trkpt>
<trkpt lat="47.24224100" lon="0.57418900"><ele></ele><time>2014-6-17T6:1:26Z</time></trkpt>
<trkpt lat="47.24250200" lon="0.57419600"><ele></ele><time>2014-6-17T6:1:29Z</time></trkpt>
<trkpt lat="47.24274600" lon="0.57427400"><ele></ele><time>2014-6-17T6:1:32Z</time></trkpt>
<trkpt lat="47.24328200" lon="0.57429300"><ele></ele><time>2014-6-17T6:1:35Z</time></trkpt>
<trkpt lat="47.24367600" lon="0.57428400"><ele></ele><time>2014-6-17T6:1:38Z</time></trkpt>
<trkpt lat="47.24384000" lon="0.57427200"><ele></ele><time>2014-6-17T6:1:41Z</time></trkpt>
<trkpt lat="47.24401200" lon="0.57426400"><ele></ele><time>2014-6-17T6:1:44Z</time></trkpt>
<trkpt lat="47.24414900" lon="0.57441000"><ele></ele><time>2014-6-17T6:1:47Z</time></trkpt>
<trkpt lat="47.24421900" lon="0.57462500"><ele></ele><time>2014-6-17T6:1:50Z</time></trkpt>
<trkpt lat="47.24428000" lon="0.57515700"><ele></ele><time>2014-6-17T6:1:53Z</time></trkpt>
<trkpt lat="47.24427300" lon="0.57562300"><ele></ele><time>2014-6-17T6:1:56Z</time></trkpt>
<trkpt lat="47.24429200" lon="0.57599700"><ele></ele><time>2014-6-17T6:1:59Z</time></trkpt>
<trkpt lat="47.24430100" lon="0.57605300"><ele></ele><time>2014-6-17T6:2:2Z</time></trkpt>
<trkpt lat="47.24432100" lon="0.57638600"><ele></ele><time>2014-6-17T6:2:5Z</time></trkpt>
<trkpt lat="47.24432600" lon="0.57644300"><ele></ele><time>2014-6-17T6:2:8Z</time></trkpt>
<trkpt lat="47.24436000" lon="0.57686600"><ele></ele><time>2014-6-17T6:2:11Z</time></trkpt>
<trkpt lat="47.24436700" lon="0.57706600"><ele></ele><time>2014-6-17T6:2:14Z</time></trkpt>
<trkpt lat="47.24445400" lon="0.57768800"><ele></ele><time>2014-6-17T6:2:17Z</time></trkpt>
<trkpt lat="47.24446300" lon="0.57776600"><ele></ele><time>2014-6-17T6:2:20Z</time></trkpt>
<trkpt lat="47.24449100" lon="0.57817800"><ele></ele><time>2014-6-17T6:2:23Z</time></trkpt>
<trkpt lat="47.24455000" lon="0.57848500"><ele></ele><time>2014-6-17T6:2:26Z</time></trkpt>
<trkpt lat="47.24459200" lon="0.57862500"><ele></ele><time>2014-6-17T6:2:29Z</time></trkpt>
<trkpt lat="47.24474500" lon="0.57927600"><ele></ele><time>2014-6-17T6:2:32Z</time></trkpt>
<trkpt lat="47.24484000" lon="0.57998700"><ele></ele><time>2014-6-17T6:2:35Z</time></trkpt>
<trkpt lat="47.24486500" lon="0.58027300"><ele></ele><time>2014-6-17T6:2:38Z</time></trkpt>
<trkpt lat="47.24485900" lon="0.58049400"><ele></ele><time>2014-6-17T6:2:41Z</time></trkpt>
<trkpt lat="47.24487300" lon="0.58055100"><ele></ele><time>2014-6-17T6:2:44Z</time></trkpt>
<trkpt lat="47.24506200" lon="0.58124600"><ele></ele><time>2014-6-17T6:2:47Z</time></trkpt>
<trkpt lat="47.24518100" lon="0.58196100"><ele></ele><time>2014-6-17T6:2:50Z</time></trkpt>
<trkpt lat="47.24527600" lon="0.58256200"><ele></ele><time>2014-6-17T6:2:53Z</time></trkpt>
<trkpt lat="47.24523400" lon="0.58301400"><ele></ele><time>2014-6-17T6:2:56Z</time></trkpt>
<trkpt lat="47.24523100" lon="0.58309900"><ele></ele><time>2014-6-17T6:2:59Z</time></trkpt>
<trkpt lat="47.24525800" lon="0.58346800"><ele></ele><time>2014-6-17T6:3:2Z</time></trkpt>
<trkpt lat="47.24527500" lon="0.58366900"><ele></ele><time>2014-6-17T6:3:5Z</time></trkpt>
<trkpt lat="47.24525600" lon="0.58437100"><ele></ele><time>2014-6-17T6:3:8Z</time></trkpt>
<trkpt lat="47.24524500" lon="0.58450200"><ele></ele><time>2014-6-17T6:3:11Z</time></trkpt>
<trkpt lat="47.24523700" lon="0.58477800"><ele></ele><time>2014-6-17T6:3:14Z</time></trkpt>
<trkpt lat="47.24526900" lon="0.58522100"><ele></ele><time>2014-6-17T6:3:17Z</time></trkpt>
<trkpt lat="47.24538900" lon="0.58582100"><ele></ele><time>2014-6-17T6:3:20Z</time></trkpt>
<trkpt lat="47.24541900" lon="0.58605100"><ele></ele><time>2014-6-17T6:3:23Z</time></trkpt>
<trkpt lat="47.24545700" lon="0.58643000"><ele></ele><time>2014-6-17T6:3:26Z</time></trkpt>
<trkpt lat="47.24551100" lon="0.58702100"><ele></ele><time>2014-6-17T6:3:29Z</time></trkpt>
<trkpt lat="47.24554100" lon="0.58731400"><ele></ele><time>2014-6-17T6:3:32Z</time></trkpt>
<trkpt lat="47.24561400" lon="0.58774400"><ele></ele><time>2014-6-17T6:3:35Z</time></trkpt>
<trkpt lat="47.24581600" lon="0.58807900"><ele></ele><time>2014-6-17T6:3:38Z</time></trkpt>
<trkpt lat="47.24618300" lon="0.58833800"><ele></ele><time>2014-6-17T6:3:41Z</time></trkpt>
<trkpt lat="47.24629900" lon="0.58844000"><ele></ele><time>2014-6-17T6:3:44Z</time></trkpt>
<trkpt lat="47.24635800" lon="0.58849900"><ele></ele><time>2014-6-17T6:3:47Z</time></trkpt>
<trkpt lat="47.24658000" lon="0.58891300"><ele></ele><time>2014-6-17T6:3:50Z</time></trkpt>
<trkpt lat="47.24674400" lon="0.58954500"><ele></ele><time>2014-6-17T6:3:53Z</time></trkpt>
<trkpt lat="47.24680000" lon="0.58980400"><ele></ele><time>2014-6-17T6:3:56Z</time></trkpt>
<trkpt lat="47.24681900" lon="0.58988000"><ele></ele><time>2014-6-17T6:3:59Z</time></trkpt>
<trkpt lat="47.24686100" lon="0.59012400"><ele></ele><time>2014-6-17T6:4:2Z</time></trkpt>
<trkpt lat="47.24688100" lon="0.59071000"><ele></ele><time>2014-6-17T6:4:5Z</time></trkpt>
<trkpt lat="47.24689700" lon="0.59091400"><ele></ele><time>2014-6-17T6:4:8Z</time></trkpt>
<trkpt lat="47.24690300" lon="0.59145600"><ele></ele><time>2014-6-17T6:4:11Z</time></trkpt>
<trkpt lat="47.24691200" lon="0.59167900"><ele></ele><time>2014-6-17T6:4:14Z</time></trkpt>
<trkpt lat="47.24694200" lon="0.59212900"><ele></ele><time>2014-6-17T6:4:17Z</time></trkpt>
<trkpt lat="47.24695000" lon="0.59223500"><ele></ele><time>2014-6-17T6:4:20Z</time></trkpt>
<trkpt lat="47.24702900" lon="0.59260200"><ele></ele><time>2014-6-17T6:4:23Z</time></trkpt>
<trkpt lat="47.24708200" lon="0.59307700"><ele></ele><time>2014-6-17T6:4:26Z</time></trkpt>
<trkpt lat="47.24708700" lon="0.59315200"><ele></ele><time>2014-6-17T6:4:29Z</time></trkpt>
<trkpt lat="47.24715800" lon="0.59344700"><ele></ele><time>2014-6-17T6:4:32Z</time></trkpt>
<trkpt lat="47.24728600" lon="0.59370900"><ele></ele><time>2014-6-17T6:4:35Z</time></trkpt>
<trkpt lat="47.24749200" lon="0.59385100"><ele></ele><time>2014-6-17T6:4:38Z</time></trkpt>
<trkpt lat="47.24765000" lon="0.59388300"><ele></ele><time>2014-6-17T6:4:41Z</time></trkpt>
<trkpt lat="47.24768100" lon="0.59389500"><ele></ele><time>2014-6-17T6:4:44Z</time></trkpt>
<trkpt lat="47.24784500" lon="0.59391100"><ele></ele><time>2014-6-17T6:4:47Z</time></trkpt>
<trkpt lat="47.24794600" lon="0.59390700"><ele></ele><time>2014-6-17T6:4:50Z</time></trkpt>
<trkpt lat="47.24804100" lon="0.59390500"><ele></ele><time>2014-6-17T6:4:53Z</time></trkpt>
<trkpt lat="47.24819500" lon="0.59392500"><ele></ele><time>2014-6-17T6:4:56Z</time></trkpt>
<trkpt lat="47.24824000" lon="0.59393600"><ele></ele><time>2014-6-17T6:4:59Z</time></trkpt>
<trkpt lat="47.24830500" lon="0.59393100"><ele></ele><time>2014-6-17T6:5:2Z</time></trkpt>
<trkpt lat="47.24844700" lon="0.59395800"><ele></ele><time>2014-6-17T6:5:5Z</time></trkpt>
<trkpt lat="47.24858600" lon="0.59399800"><ele></ele><time>2014-6-17T6:5:8Z</time></trkpt>
<trkpt lat="47.24872700" lon="0.59404800"><ele></ele><time>2014-6-17T6:5:11Z</time></trkpt>
<trkpt lat="47.24886200" lon="0.59413000"><ele></ele><time>2014-6-17T6:5:14Z</time></trkpt>
<trkpt lat="47.24896000" lon="0.59418800"><ele></ele><time>2014-6-17T6:5:17Z</time></trkpt>
<trkpt lat="47.24911700" lon="0.59423200"><ele></ele><time>2014-6-17T6:5:20Z</time></trkpt>
<trkpt lat="47.24925600" lon="0.59433300"><ele></ele><time>2014-6-17T6:5:23Z</time></trkpt>
<trkpt lat="47.24928700" lon="0.59438600"><ele></ele><time>2014-6-17T6:5:26Z</time></trkpt>
<trkpt lat="47.24939700" lon="0.59448200"><ele></ele><time>2014-6-17T6:5:29Z</time></trkpt>
<trkpt lat="47.24947700" lon="0.59451200"><ele></ele><time>2014-6-17T6:5:32Z</time></trkpt>
<trkpt lat="47.24962300" lon="0.59458900"><ele></ele><time>2014-6-17T6:5:35Z</time></trkpt>
<trkpt lat="47.24965100" lon="0.59461300"><ele></ele><time>2014-6-17T6:5:38Z</time></trkpt>
<trkpt lat="47.24977600" lon="0.59470700"><ele></ele><time>2014-6-17T6:5:41Z</time></trkpt>
<trkpt lat="47.24993700" lon="0.59486500"><ele></ele><time>2014-6-17T6:5:44Z</time></trkpt>
<trkpt lat="47.25002800" lon="0.59495900"><ele></ele><time>2014-6-17T6:5:47Z</time></trkpt>
<trkpt lat="47.25010100" lon="0.59509400"><ele></ele><time>2014-6-17T6:5:50Z</time></trkpt>
<trkpt lat="47.25012600" lon="0.59515500"><ele></ele><time>2014-6-17T6:5:53Z</time></trkpt>
<trkpt lat="47.25019500" lon="0.59537200"><ele></ele><time>2014-6-17T6:5:56Z</time></trkpt>
<trkpt lat="47.25028100" lon="0.59558600"><ele></ele><time>2014-6-17T6:5:59Z</time></trkpt>
<trkpt lat="47.25038400" lon="0.59575200"><ele></ele><time>2014-6-17T6:6:2Z</time></trkpt>
<trkpt lat="47.25050100" lon="0.59597200"><ele></ele><time>2014-6-17T6:6:5Z</time></trkpt>
<trkpt lat="47.25055200" lon="0.59606400"><ele></ele><time>2014-6-17T6:6:8Z</time></trkpt>
<trkpt lat="47.25071100" lon="0.59629500"><ele></ele><time>2014-6-17T6:6:11Z</time></trkpt>
<trkpt lat="47.25075200" lon="0.59633800"><ele></ele><time>2014-6-17T6:6:14Z</time></trkpt>
<trkpt lat="47.25081000" lon="0.59643300"><ele></ele><time>2014-6-17T6:6:17Z</time></trkpt>
<trkpt lat="47.25088800" lon="0.59659400"><ele></ele><time>2014-6-17T6:6:20Z</time></trkpt>
<trkpt lat="47.25092900" lon="0.59664900"><ele></ele><time>2014-6-17T6:6:23Z</time></trkpt>
<trkpt lat="47.25111500" lon="0.59689200"><ele></ele><time>2014-6-17T6:6:26Z</time></trkpt>
<trkpt lat="47.25129200" lon="0.59718000"><ele></ele><time>2014-6-17T6:6:29Z</time></trkpt>
<trkpt lat="47.25148200" lon="0.59732200"><ele></ele><time>2014-6-17T6:6:32Z</time></trkpt>
<trkpt lat="47.25167100" lon="0.59735200"><ele></ele><time>2014-6-17T6:6:35Z</time></trkpt>
<trkpt lat="47.25187800" lon="0.59738700"><ele></ele><time>2014-6-17T6:6:38Z</time></trkpt>
<trkpt lat="47.25218000" lon="0.59742600"><ele></ele><time>2014-6-17T6:6:41Z</time></trkpt>
<trkpt lat="47.25255600" lon="0.59748100"><ele></ele><time>2014-6-17T6:6:44Z</time></trkpt>
<trkpt lat="47.25284200" lon="0.59751500"><ele></ele><time>2014-6-17T6:6:47Z</time></trkpt>
<trkpt lat="47.25314000" lon="0.59756700"><ele></ele><time>2014-6-17T6:6:50Z</time></trkpt>
<trkpt lat="47.25318200" lon="0.59757000"><ele></ele><time>2014-6-17T6:6:53Z</time></trkpt>
<trkpt lat="47.25346900" lon="0.59762900"><ele></ele><time>2014-6-17T6:6:56Z</time></trkpt>
<trkpt lat="47.25383200" lon="0.59768300"><ele></ele><time>2014-6-17T6:6:59Z</time></trkpt>
<trkpt lat="47.25441700" lon="0.59777200"><ele></ele><time>2014-6-17T6:7:2Z</time></trkpt>
<trkpt lat="47.25487400" lon="0.59783600"><ele></ele><time>2014-6-17T6:7:5Z</time></trkpt>
<trkpt lat="47.25540900" lon="0.59791600"><ele></ele><time>2014-6-17T6:7:8Z</time></trkpt>
<trkpt lat="47.25567200" lon="0.59794600"><ele></ele><time>2014-6-17T6:7:11Z</time></trkpt>
<trkpt lat="47.25577900" lon="0.59815600"><ele></ele><time>2014-6-17T6:7:14Z</time></trkpt>
<trkpt lat="47.25581600" lon="0.59923200"><ele></ele><time>2014-6-17T6:7:17Z</time></trkpt>
<trkpt lat="47.25582100" lon="0.59982800"><ele></ele><time>2014-6-17T6:7:20Z</time></trkpt>
<trkpt lat="47.25581800" lon="0.59998900"><ele></ele><time>2014-6-17T6:7:23Z</time></trkpt>
<trkpt lat="47.25583800" lon="0.60071600"><ele></ele><time>2014-6-17T6:7:26Z</time></trkpt>
<trkpt lat="47.25583800" lon="0.60088600"><ele></ele><time>2014-6-17T6:7:29Z</time></trkpt>
<trkpt lat="47.25594400" lon="0.60156400"><ele></ele><time>2014-6-17T6:7:32Z</time></trkpt>
<trkpt lat="47.25597700" lon="0.60177600"><ele></ele><time>2014-6-17T6:7:35Z</time></trkpt>
<trkpt lat="47.25595400" lon="0.60207000"><ele></ele><time>2014-6-17T6:7:38Z</time></trkpt>
<trkpt lat="47.25594400" lon="0.60212800"><ele></ele><time>2014-6-17T6:7:41Z</time></trkpt>
<trkpt lat="47.25584700" lon="0.60249500"><ele></ele><time>2014-6-17T6:7:44Z</time></trkpt>
<trkpt lat="47.25580600" lon="0.60270700"><ele></ele><time>2014-6-17T6:7:47Z</time></trkpt>
<trkpt lat="47.25571600" lon="0.60309900"><ele></ele><time>2014-6-17T6:7:50Z</time></trkpt>
<trkpt lat="47.25569100" lon="0.60322500"><ele></ele><time>2014-6-17T6:7:53Z</time></trkpt>
<trkpt lat="47.25560700" lon="0.60357600"><ele></ele><time>2014-6-17T6:7:56Z</time></trkpt>
<trkpt lat="47.25552400" lon="0.60397800"><ele></ele><time>2014-6-17T6:7:59Z</time></trkpt>
<trkpt lat="47.25544700" lon="0.60438800"><ele></ele><time>2014-6-17T6:8:2Z</time></trkpt>
<trkpt lat="47.25543500" lon="0.60474500"><ele></ele><time>2014-6-17T6:8:5Z</time></trkpt>
<trkpt lat="47.25543100" lon="0.60531100"><ele></ele><time>2014-6-17T6:8:8Z</time></trkpt>
<trkpt lat="47.25540000" lon="0.60595900"><ele></ele><time>2014-6-17T6:8:11Z</time></trkpt>
<trkpt lat="47.25538600" lon="0.60647400"><ele></ele><time>2014-6-17T6:8:14Z</time></trkpt>
<trkpt lat="47.25537800" lon="0.60666800"><ele></ele><time>2014-6-17T6:8:17Z</time></trkpt>
<trkpt lat="47.25537900" lon="0.60698900"><ele></ele><time>2014-6-17T6:8:20Z</time></trkpt>
<trkpt lat="47.25537900" lon="0.60759800"><ele></ele><time>2014-6-17T6:8:23Z</time></trkpt>
<trkpt lat="47.25537700" lon="0.60802800"><ele></ele><time>2014-6-17T6:8:26Z</time></trkpt>
<trkpt lat="47.25538000" lon="0.60835800"><ele></ele><time>2014-6-17T6:8:29Z</time></trkpt>
<trkpt lat="47.25539700" lon="0.60860300"><ele></ele><time>2014-6-17T6:8:32Z</time></trkpt>
<trkpt lat="47.25545200" lon="0.60885600"><ele></ele><time>2014-6-17T6:8:35Z</time></trkpt>
<trkpt lat="47.25557000" lon="0.60932600"><ele></ele><time>2014-6-17T6:8:38Z</time></trkpt>
<trkpt lat="47.25560600" lon="0.60945800"><ele></ele><time>2014-6-17T6:8:41Z</time></trkpt>
<trkpt lat="47.25569200" lon="0.60978400"><ele></ele><time>2014-6-17T6:8:44Z</time></trkpt>
<trkpt lat="47.25574800" lon="0.60997900"><ele></ele><time>2014-6-17T6:8:47Z</time></trkpt>
<trkpt lat="47.25573900" lon="0.61022400"><ele></ele><time>2014-6-17T6:8:50Z</time></trkpt>
<trkpt lat="47.25569500" lon="0.61027300"><ele></ele><time>2014-6-17T6:8:53Z</time></trkpt>
<trkpt lat="47.25555000" lon="0.61041500"><ele></ele><time>2014-6-17T6:8:56Z</time></trkpt>
<trkpt lat="47.25550400" lon="0.61051000"><ele></ele><time>2014-6-17T6:8:59Z</time></trkpt>
<trkpt lat="47.25544000" lon="0.61056200"><ele></ele><time>2014-6-17T6:9:2Z</time></trkpt>
<trkpt lat="47.25546700" lon="0.61063700"><ele></ele><time>2014-6-17T6:9:5Z</time></trkpt>
<trkpt lat="47.25546000" lon="0.61062200"><ele></ele><time>2014-6-17T6:9:8Z</time></trkpt>
<trkpt lat="47.25548500" lon="0.61080000"><ele></ele><time>2014-6-17T6:9:11Z</time></trkpt>
<trkpt lat="47.25549800" lon="0.61087200"><ele></ele><time>2014-6-17T6:9:14Z</time></trkpt>
<trkpt lat="47.25556200" lon="0.61114900"><ele></ele><time>2014-6-17T6:9:17Z</time></trkpt>
<trkpt lat="47.25564400" lon="0.61157700"><ele></ele><time>2014-6-17T6:9:20Z</time></trkpt>
<trkpt lat="47.25563200" lon="0.61192300"><ele></ele><time>2014-6-17T6:9:23Z</time></trkpt>
<trkpt lat="47.25562700" lon="0.61208200"><ele></ele><time>2014-6-17T6:9:26Z</time></trkpt>
<trkpt lat="47.25562700" lon="0.61236300"><ele></ele><time>2014-6-17T6:9:29Z</time></trkpt>
<trkpt lat="47.25568100" lon="0.61261400"><ele></ele><time>2014-6-17T6:9:32Z</time></trkpt>
<trkpt lat="47.25578100" lon="0.61296400"><ele></ele><time>2014-6-17T6:9:35Z</time></trkpt>
<trkpt lat="47.25582300" lon="0.61328200"><ele></ele><time>2014-6-17T6:9:38Z</time></trkpt>
<trkpt lat="47.25583700" lon="0.61337600"><ele></ele><time>2014-6-17T6:9:41Z</time></trkpt>
<trkpt lat="47.25588700" lon="0.61361600"><ele></ele><time>2014-6-17T6:9:44Z</time></trkpt>
<trkpt lat="47.25594600" lon="0.61379200"><ele></ele><time>2014-6-17T6:9:47Z</time></trkpt>
<trkpt lat="47.25600100" lon="0.61403100"><ele></ele><time>2014-6-17T6:9:50Z</time></trkpt>
<trkpt lat="47.25602700" lon="0.61416700"><ele></ele><time>2014-6-17T6:9:53Z</time></trkpt>
<trkpt lat="47.25602200" lon="0.61440400"><ele></ele><time>2014-6-17T6:9:56Z</time></trkpt>
<trkpt lat="47.25597600" lon="0.61467900"><ele></ele><time>2014-6-17T6:9:59Z</time></trkpt>
<trkpt lat="47.25592900" lon="0.61496900"><ele></ele><time>2014-6-17T6:10:2Z</time></trkpt>
<trkpt lat="47.25586100" lon="0.61520000"><ele></ele><time>2014-6-17T6:10:5Z</time></trkpt>
<trkpt lat="47.25579300" lon="0.61542600"><ele></ele><time>2014-6-17T6:10:8Z</time></trkpt>
<trkpt lat="47.25573000" lon="0.61547200"><ele></ele><time>2014-6-17T6:10:11Z</time></trkpt>
<trkpt lat="47.25574900" lon="0.61554200"><ele></ele><time>2014-6-17T6:10:14Z</time></trkpt>
<trkpt lat="47.25577900" lon="0.61552400"><ele></ele><time>2014-6-17T6:10:17Z</time></trkpt>
<trkpt lat="47.25594200" lon="0.61554200"><ele></ele><time>2014-6-17T6:10:20Z</time></trkpt>
<trkpt lat="47.25618300" lon="0.61562600"><ele></ele><time>2014-6-17T6:10:23Z</time></trkpt>
<trkpt lat="47.25643200" lon="0.61574800"><ele></ele><time>2014-6-17T6:10:26Z</time></trkpt>
<trkpt lat="47.25669600" lon="0.61579400"><ele></ele><time>2014-6-17T6:10:29Z</time></trkpt>
<trkpt lat="47.25698700" lon="0.61588700"><ele></ele><time>2014-6-17T6:10:32Z</time></trkpt>
<trkpt lat="47.25725900" lon="0.61599000"><ele></ele><time>2014-6-17T6:10:35Z</time></trkpt>
<trkpt lat="47.25756600" lon="0.61605300"><ele></ele><time>2014-6-17T6:10:38Z</time></trkpt>
<trkpt lat="47.25794500" lon="0.61608300"><ele></ele><time>2014-6-17T6:10:41Z</time></trkpt>
<trkpt lat="47.25805700" lon="0.61611100"><ele></ele><time>2014-6-17T6:10:44Z</time></trkpt>
<trkpt lat="47.25848300" lon="0.61612900"><ele></ele><time>2014-6-17T6:10:47Z</time></trkpt>
<trkpt lat="47.25880600" lon="0.61615600"><ele></ele><time>2014-6-17T6:10:50Z</time></trkpt>
<trkpt lat="47.25907000" lon="0.61630600"><ele></ele><time>2014-6-17T6:10:53Z</time></trkpt>
<trkpt lat="47.25958000" lon="0.61655200"><ele></ele><time>2014-6-17T6:10:56Z</time></trkpt>
<trkpt lat="47.26001700" lon="0.61672800"><ele></ele><time>2014-6-17T6:10:59Z</time></trkpt>
<trkpt lat="47.26069900" lon="0.61683400"><ele></ele><time>2014-6-17T6:11:2Z</time></trkpt>
<trkpt lat="47.26078900" lon="0.61681000"><ele></ele><time>2014-6-17T6:11:5Z</time></trkpt>
<trkpt lat="47.26082300" lon="0.61662000"><ele></ele><time>2014-6-17T6:11:8Z</time></trkpt>
<trkpt lat="47.26084200" lon="0.61586900"><ele></ele><time>2014-6-17T6:11:11Z</time></trkpt>
<trkpt lat="47.26084300" lon="0.61501900"><ele></ele><time>2014-6-17T6:11:14Z</time></trkpt>
<trkpt lat="47.26075900" lon="0.61426500"><ele></ele><time>2014-6-17T6:11:17Z</time></trkpt>
<trkpt lat="47.26063800" lon="0.61319200"><ele></ele><time>2014-6-17T6:11:20Z</time></trkpt>
<trkpt lat="47.26051900" lon="0.61212300"><ele></ele><time>2014-6-17T6:11:23Z</time></trkpt>
<trkpt lat="47.26053900" lon="0.61141800"><ele></ele><time>2014-6-17T6:11:26Z</time></trkpt>
<trkpt lat="47.26073000" lon="0.61049500"><ele></ele><time>2014-6-17T6:11:29Z</time></trkpt>
<trkpt lat="47.26089200" lon="0.60979300"><ele></ele><time>2014-6-17T6:11:32Z</time></trkpt>
<trkpt lat="47.26104900" lon="0.60925600"><ele></ele><time>2014-6-17T6:11:35Z</time></trkpt>
<trkpt lat="47.26119900" lon="0.60880600"><ele></ele><time>2014-6-17T6:11:38Z</time></trkpt>
<trkpt lat="47.26128400" lon="0.60811100"><ele></ele><time>2014-6-17T6:11:41Z</time></trkpt>
<trkpt lat="47.26131200" lon="0.60767700"><ele></ele><time>2014-6-17T6:11:44Z</time></trkpt>
<trkpt lat="47.26133600" lon="0.60721200"><ele></ele><time>2014-6-17T6:11:47Z</time></trkpt>
<trkpt lat="47.26135800" lon="0.60684200"><ele></ele><time>2014-6-17T6:11:50Z</time></trkpt>
<trkpt lat="47.26136600" lon="0.60677100"><ele></ele><time>2014-6-17T6:11:53Z</time></trkpt>
<trkpt lat="47.26138200" lon="0.60661900"><ele></ele><time>2014-6-17T6:11:56Z</time></trkpt>
<trkpt lat="47.26147800" lon="0.60615400"><ele></ele><time>2014-6-17T6:11:59Z</time></trkpt>
<trkpt lat="47.26152100" lon="0.60594300"><ele></ele><time>2014-6-17T6:12:2Z</time></trkpt>
<trkpt lat="47.26157400" lon="0.60566700"><ele></ele><time>2014-6-17T6:12:5Z</time></trkpt>
<trkpt lat="47.26158200" lon="0.60563200"><ele></ele><time>2014-6-17T6:12:8Z</time></trkpt>
<trkpt lat="47.26164600" lon="0.60539300"><ele></ele><time>2014-6-17T6:12:11Z</time></trkpt>
<trkpt lat="47.26168600" lon="0.60517400"><ele></ele><time>2014-6-17T6:12:14Z</time></trkpt>
<trkpt lat="47.26174000" lon="0.60492500"><ele></ele><time>2014-6-17T6:12:17Z</time></trkpt>
<trkpt lat="47.26177200" lon="0.60472400"><ele></ele><time>2014-6-17T6:12:20Z</time></trkpt>
<trkpt lat="47.26180800" lon="0.60465800"><ele></ele><time>2014-6-17T6:12:23Z</time></trkpt>
<trkpt lat="47.26200100" lon="0.60442500"><ele></ele><time>2014-6-17T6:12:26Z</time></trkpt>
<trkpt lat="47.26221600" lon="0.60417000"><ele></ele><time>2014-6-17T6:12:29Z</time></trkpt>
<trkpt lat="47.26238700" lon="0.60400200"><ele></ele><time>2014-6-17T6:12:32Z</time></trkpt>
<trkpt lat="47.26251500" lon="0.60379900"><ele></ele><time>2014-6-17T6:12:35Z</time></trkpt>
<trkpt lat="47.26263000" lon="0.60365100"><ele></ele><time>2014-6-17T6:12:38Z</time></trkpt>
<trkpt lat="47.26277300" lon="0.60342600"><ele></ele><time>2014-6-17T6:12:41Z</time></trkpt>
<trkpt lat="47.26296300" lon="0.60314900"><ele></ele><time>2014-6-17T6:12:44Z</time></trkpt>
<trkpt lat="47.26305800" lon="0.60298000"><ele></ele><time>2014-6-17T6:12:47Z</time></trkpt>
<trkpt lat="47.26313900" lon="0.60264500"><ele></ele><time>2014-6-17T6:12:50Z</time></trkpt>
<trkpt lat="47.26332300" lon="0.60246000"><ele></ele><time>2014-6-17T6:12:53Z</time></trkpt>
<trkpt lat="47.26344500" lon="0.60242500"><ele></ele><time>2014-6-17T6:12:56Z</time></trkpt>
<trkpt lat="47.26362400" lon="0.60236700"><ele></ele><time>2014-6-17T6:12:59Z</time></trkpt>
<trkpt lat="47.26373800" lon="0.60224300"><ele></ele><time>2014-6-17T6:13:2Z</time></trkpt>
<trkpt lat="47.26378000" lon="0.60216600"><ele></ele><time>2014-6-17T6:13:5Z</time></trkpt>
<trkpt lat="47.26385800" lon="0.60199400"><ele></ele><time>2014-6-17T6:13:8Z</time></trkpt>
<trkpt lat="47.26405400" lon="0.60162300"><ele></ele><time>2014-6-17T6:13:11Z</time></trkpt>
<trkpt lat="47.26419600" lon="0.60132200"><ele></ele><time>2014-6-17T6:13:14Z</time></trkpt>
<trkpt lat="47.26422100" lon="0.60110700"><ele></ele><time>2014-6-17T6:13:17Z</time></trkpt>
<trkpt lat="47.26416300" lon="0.60071300"><ele></ele><time>2014-6-17T6:13:20Z</time></trkpt>
<trkpt lat="47.26415500" lon="0.60045300"><ele></ele><time>2014-6-17T6:13:23Z</time></trkpt>
<trkpt lat="47.26422400" lon="0.60025700"><ele></ele><time>2014-6-17T6:13:26Z</time></trkpt>
<trkpt lat="47.26436100" lon="0.59998500"><ele></ele><time>2014-6-17T6:13:29Z</time></trkpt>
<trkpt lat="47.26439100" lon="0.59993200"><ele></ele><time>2014-6-17T6:13:32Z</time></trkpt>
<trkpt lat="47.26441000" lon="0.59971300"><ele></ele><time>2014-6-17T6:13:35Z</time></trkpt>
<trkpt lat="47.26450500" lon="0.59976900"><ele></ele><time>2014-6-17T6:13:38Z</time></trkpt>
<trkpt lat="47.26474100" lon="0.59984600"><ele></ele><time>2014-6-17T6:13:41Z</time></trkpt>
<trkpt lat="47.26497300" lon="0.59989700"><ele></ele><time>2014-6-17T6:13:44Z</time></trkpt>
<trkpt lat="47.26522500" lon="0.60000300"><ele></ele><time>2014-6-17T6:13:47Z</time></trkpt>
<trkpt lat="47.26538000" lon="0.60007000"><ele></ele><time>2014-6-17T6:13:50Z</time></trkpt>
<trkpt lat="47.26563300" lon="0.60002000"><ele></ele><time>2014-6-17T6:13:53Z</time></trkpt>
<trkpt lat="47.26582100" lon="0.59992300"><ele></ele><time>2014-6-17T6:13:56Z</time></trkpt>
<trkpt lat="47.26617700" lon="0.59970100"><ele></ele><time>2014-6-17T6:13:59Z</time></trkpt>
<trkpt lat="47.26644800" lon="0.59954300"><ele></ele><time>2014-6-17T6:14:2Z</time></trkpt>
<trkpt lat="47.26676800" lon="0.59956400"><ele></ele><time>2014-6-17T6:14:5Z</time></trkpt>
<trkpt lat="47.26682400" lon="0.59960800"><ele></ele><time>2014-6-17T6:14:8Z</time></trkpt>
<trkpt lat="47.26713200" lon="0.59999700"><ele></ele><time>2014-6-17T6:14:11Z</time></trkpt>
<trkpt lat="47.26718700" lon="0.60013100"><ele></ele><time>2014-6-17T6:14:14Z</time></trkpt>
<trkpt lat="47.26741700" lon="0.60060200"><ele></ele><time>2014-6-17T6:14:17Z</time></trkpt>
<trkpt lat="47.26749100" lon="0.60070900"><ele></ele><time>2014-6-17T6:14:20Z</time></trkpt>
<trkpt lat="47.26790400" lon="0.60111600"><ele></ele><time>2014-6-17T6:14:23Z</time></trkpt>
<trkpt lat="47.26806600" lon="0.60127600"><ele></ele><time>2014-6-17T6:14:26Z</time></trkpt>
<trkpt lat="47.26850800" lon="0.60186400"><ele></ele><time>2014-6-17T6:14:29Z</time></trkpt>
<trkpt lat="47.26872100" lon="0.60209500"><ele></ele><time>2014-6-17T6:14:32Z</time></trkpt>
<trkpt lat="47.26893900" lon="0.60218500"><ele></ele><time>2014-6-17T6:14:35Z</time></trkpt>
<trkpt lat="47.26902900" lon="0.60209000"><ele></ele><time>2014-6-17T6:14:38Z</time></trkpt>
<trkpt lat="47.26917500" lon="0.60178300"><ele></ele><time>2014-6-17T6:14:41Z</time></trkpt>
<trkpt lat="47.26937400" lon="0.60163600"><ele></ele><time>2014-6-17T6:14:44Z</time></trkpt>
<trkpt lat="47.26982000" lon="0.60137500"><ele></ele><time>2014-6-17T6:14:47Z</time></trkpt>
<trkpt lat="47.27012100" lon="0.60119500"><ele></ele><time>2014-6-17T6:14:50Z</time></trkpt>
<trkpt lat="47.27058900" lon="0.60091600"><ele></ele><time>2014-6-17T6:14:53Z</time></trkpt>
<trkpt lat="47.27101400" lon="0.60066200"><ele></ele><time>2014-6-17T6:14:56Z</time></trkpt>
<trkpt lat="47.27117000" lon="0.60057300"><ele></ele><time>2014-6-17T6:14:59Z</time></trkpt>
<trkpt lat="47.27141400" lon="0.60043700"><ele></ele><time>2014-6-17T6:15:2Z</time></trkpt>
<trkpt lat="47.27162000" lon="0.60030400"><ele></ele><time>2014-6-17T6:15:5Z</time></trkpt>
<trkpt lat="47.27191400" lon="0.60009400"><ele></ele><time>2014-6-17T6:15:8Z</time></trkpt>
<trkpt lat="47.27200800" lon="0.60026500"><ele></ele><time>2014-6-17T6:15:11Z</time></trkpt>
<trkpt lat="47.27206500" lon="0.60036400"><ele></ele><time>2014-6-17T6:15:14Z</time></trkpt>
<trkpt lat="47.27230400" lon="0.60047400"><ele></ele><time>2014-6-17T6:15:17Z</time></trkpt>
<trkpt lat="47.27237500" lon="0.60057100"><ele></ele><time>2014-6-17T6:15:20Z</time></trkpt>
<trkpt lat="47.27270000" lon="0.60097300"><ele></ele><time>2014-6-17T6:15:23Z</time></trkpt>
<trkpt lat="47.27299100" lon="0.60108800"><ele></ele><time>2014-6-17T6:15:26Z</time></trkpt>
<trkpt lat="47.27310800" lon="0.60095000"><ele></ele><time>2014-6-17T6:15:29Z</time></trkpt>
<trkpt lat="47.27336300" lon="0.60043000"><ele></ele><time>2014-6-17T6:15:32Z</time></trkpt>
<trkpt lat="47.27339200" lon="0.60011400"><ele></ele><time>2014-6-17T6:15:35Z</time></trkpt>
<trkpt lat="47.27338200" lon="0.59985200"><ele></ele><time>2014-6-17T6:15:38Z</time></trkpt>
<trkpt lat="47.27343700" lon="0.59972400"><ele></ele><time>2014-6-17T6:15:41Z</time></trkpt>
<trkpt lat="47.27347300" lon="0.59943300"><ele></ele><time>2014-6-17T6:15:44Z</time></trkpt>
<trkpt lat="47.27339900" lon="0.59911500"><ele></ele><time>2014-6-17T6:15:47Z</time></trkpt>
<trkpt lat="47.27354100" lon="0.59893600"><ele></ele><time>2014-6-17T6:15:50Z</time></trkpt>
<trkpt lat="47.27377000" lon="0.59877600"><ele></ele><time>2014-6-17T6:15:53Z</time></trkpt>
<trkpt lat="47.27393300" lon="0.59863100"><ele></ele><time>2014-6-17T6:15:56Z</time></trkpt>
<trkpt lat="47.27412500" lon="0.59846300"><ele></ele><time>2014-6-17T6:15:59Z</time></trkpt>
<trkpt lat="47.27433200" lon="0.59820500"><ele></ele><time>2014-6-17T6:16:2Z</time></trkpt>
<trkpt lat="47.27452300" lon="0.59797500"><ele></ele><time>2014-6-17T6:16:5Z</time></trkpt>
<trkpt lat="47.27463600" lon="0.59780700"><ele></ele><time>2014-6-17T6:16:8Z</time></trkpt>
<trkpt lat="47.27478500" lon="0.59771900"><ele></ele><time>2014-6-17T6:16:11Z</time></trkpt>
<trkpt lat="47.27510200" lon="0.59748500"><ele></ele><time>2014-6-17T6:16:14Z</time></trkpt>
<trkpt lat="47.27539500" lon="0.59730500"><ele></ele><time>2014-6-17T6:16:17Z</time></trkpt>
<trkpt lat="47.27562300" lon="0.59718700"><ele></ele><time>2014-6-17T6:16:20Z</time></trkpt>
<trkpt lat="47.27584100" lon="0.59706500"><ele></ele><time>2014-6-17T6:16:23Z</time></trkpt>
<trkpt lat="47.27611200" lon="0.59690900"><ele></ele><time>2014-6-17T6:16:26Z</time></trkpt>
<trkpt lat="47.27617700" lon="0.59686200"><ele></ele><time>2014-6-17T6:16:29Z</time></trkpt>
<trkpt lat="47.27641700" lon="0.59674700"><ele></ele><time>2014-6-17T6:16:32Z</time></trkpt>
<trkpt lat="47.27662000" lon="0.59665000"><ele></ele><time>2014-6-17T6:16:35Z</time></trkpt>
<trkpt lat="47.27678000" lon="0.59658300"><ele></ele><time>2014-6-17T6:16:38Z</time></trkpt>
<trkpt lat="47.27694400" lon="0.59648300"><ele></ele><time>2014-6-17T6:16:41Z</time></trkpt>
<trkpt lat="47.27710400" lon="0.59644500"><ele></ele><time>2014-6-17T6:16:44Z</time></trkpt>
<trkpt lat="47.27732700" lon="0.59634600"><ele></ele><time>2014-6-17T6:16:47Z</time></trkpt>
<trkpt lat="47.27758300" lon="0.59625100"><ele></ele><time>2014-6-17T6:16:50Z</time></trkpt>
<trkpt lat="47.27776200" lon="0.59622600"><ele></ele><time>2014-6-17T6:16:53Z</time></trkpt>
<trkpt lat="47.27796600" lon="0.59615400"><ele></ele><time>2014-6-17T6:16:56Z</time></trkpt>
<trkpt lat="47.27810700" lon="0.59609000"><ele></ele><time>2014-6-17T6:16:59Z</time></trkpt>
<trkpt lat="47.27815800" lon="0.59604000"><ele></ele><time>2014-6-17T6:17:2Z</time></trkpt>
<trkpt lat="47.27818600" lon="0.59604400"><ele></ele><time>2014-6-17T6:17:5Z</time></trkpt>
<trkpt lat="47.27820200" lon="0.59603900"><ele></ele><time>2014-6-17T6:17:8Z</time></trkpt>
<trkpt lat="47.27822900" lon="0.59602900"><ele></ele><time>2014-6-17T6:17:11Z</time></trkpt>
<trkpt lat="47.27822900" lon="0.59608300"><ele></ele><time>2014-6-17T6:17:14Z</time></trkpt>
<trkpt lat="47.27841000" lon="0.59623600"><ele></ele><time>2014-6-17T6:17:17Z</time></trkpt>
<trkpt lat="47.27852300" lon="0.59631200"><ele></ele><time>2014-6-17T6:17:20Z</time></trkpt>
<trkpt lat="47.27884200" lon="0.59659100"><ele></ele><time>2014-6-17T6:17:23Z</time></trkpt>
<trkpt lat="47.27901800" lon="0.59674600"><ele></ele><time>2014-6-17T6:17:26Z</time></trkpt>
<trkpt lat="47.27930500" lon="0.59714300"><ele></ele><time>2014-6-17T6:17:29Z</time></trkpt>
<trkpt lat="47.27938200" lon="0.59721000"><ele></ele><time>2014-6-17T6:17:32Z</time></trkpt>
<trkpt lat="47.27945800" lon="0.59729300"><ele></ele><time>2014-6-17T6:17:35Z</time></trkpt>
<trkpt lat="47.27975300" lon="0.59751300"><ele></ele><time>2014-6-17T6:17:38Z</time></trkpt>
<trkpt lat="47.27991300" lon="0.59755000"><ele></ele><time>2014-6-17T6:17:41Z</time></trkpt>
<trkpt lat="47.27994000" lon="0.59755800"><ele></ele><time>2014-6-17T6:17:44Z</time></trkpt>
<trkpt lat="47.28009500" lon="0.59763600"><ele></ele><time>2014-6-17T6:17:47Z</time></trkpt>
<trkpt lat="47.28020800" lon="0.59771900"><ele></ele><time>2014-6-17T6:17:50Z</time></trkpt>
<trkpt lat="47.28029300" lon="0.59777200"><ele></ele><time>2014-6-17T6:17:53Z</time></trkpt>
<trkpt lat="47.28031900" lon="0.59778200"><ele></ele><time>2014-6-17T6:17:56Z</time></trkpt>
<trkpt lat="47.28055800" lon="0.59791700"><ele></ele><time>2014-6-17T6:17:59Z</time></trkpt>
<trkpt lat="47.28074200" lon="0.59804400"><ele></ele><time>2014-6-17T6:18:2Z</time></trkpt>
<trkpt lat="47.28094400" lon="0.59814300"><ele></ele><time>2014-6-17T6:18:5Z</time></trkpt>
<trkpt lat="47.28112300" lon="0.59823400"><ele></ele><time>2014-6-17T6:18:8Z</time></trkpt>
<trkpt lat="47.28143600" lon="0.59842400"><ele></ele><time>2014-6-17T6:18:11Z</time></trkpt>
<trkpt lat="47.28160800" lon="0.59855100"><ele></ele><time>2014-6-17T6:18:14Z</time></trkpt>
<trkpt lat="47.28181800" lon="0.59865500"><ele></ele><time>2014-6-17T6:18:17Z</time></trkpt>
<trkpt lat="47.28222500" lon="0.59887400"><ele></ele><time>2014-6-17T6:18:20Z</time></trkpt>
<trkpt lat="47.28260400" lon="0.59908900"><ele></ele><time>2014-6-17T6:18:23Z</time></trkpt>
<trkpt lat="47.28294700" lon="0.59934600"><ele></ele><time>2014-6-17T6:18:26Z</time></trkpt>
<trkpt lat="47.28307700" lon="0.59943000"><ele></ele><time>2014-6-17T6:18:29Z</time></trkpt>
<trkpt lat="47.28326600" lon="0.59953700"><ele></ele><time>2014-6-17T6:18:32Z</time></trkpt>
<trkpt lat="47.28348000" lon="0.59962900"><ele></ele><time>2014-6-17T6:18:35Z</time></trkpt>
<trkpt lat="47.28357800" lon="0.59968600"><ele></ele><time>2014-6-17T6:18:38Z</time></trkpt>
<trkpt lat="47.28368600" lon="0.59974100"><ele></ele><time>2014-6-17T6:18:41Z</time></trkpt>
<trkpt lat="47.28386000" lon="0.59982500"><ele></ele><time>2014-6-17T6:18:44Z</time></trkpt>
<trkpt lat="47.28416100" lon="0.59995000"><ele></ele><time>2014-6-17T6:18:47Z</time></trkpt>
<trkpt lat="47.28440100" lon="0.60008000"><ele></ele><time>2014-6-17T6:18:50Z</time></trkpt>
<trkpt lat="47.28469700" lon="0.60014100"><ele></ele><time>2014-6-17T6:18:53Z</time></trkpt>
<trkpt lat="47.28490000" lon="0.60016300"><ele></ele><time>2014-6-17T6:18:56Z</time></trkpt>
<trkpt lat="47.28516300" lon="0.60010300"><ele></ele><time>2014-6-17T6:18:59Z</time></trkpt>
<trkpt lat="47.28532600" lon="0.60007000"><ele></ele><time>2014-6-17T6:19:2Z</time></trkpt>
<trkpt lat="47.28543700" lon="0.60005800"><ele></ele><time>2014-6-17T6:19:5Z</time></trkpt>
<trkpt lat="47.28558900" lon="0.60011000"><ele></ele><time>2014-6-17T6:19:8Z</time></trkpt>
<trkpt lat="47.28585000" lon="0.60025100"><ele></ele><time>2014-6-17T6:19:11Z</time></trkpt>
<trkpt lat="47.28600400" lon="0.60031500"><ele></ele><time>2014-6-17T6:19:14Z</time></trkpt>
<trkpt lat="47.28608900" lon="0.60035800"><ele></ele><time>2014-6-17T6:19:17Z</time></trkpt>
<trkpt lat="47.28620200" lon="0.60040300"><ele></ele><time>2014-6-17T6:19:20Z</time></trkpt>
<trkpt lat="47.28635400" lon="0.60051000"><ele></ele><time>2014-6-17T6:19:23Z</time></trkpt>
<trkpt lat="47.28661700" lon="0.60063800"><ele></ele><time>2014-6-17T6:19:26Z</time></trkpt>
<trkpt lat="47.28707600" lon="0.60081500"><ele></ele><time>2014-6-17T6:19:29Z</time></trkpt>
<trkpt lat="47.28743100" lon="0.60094700"><ele></ele><time>2014-6-17T6:19:32Z</time></trkpt>
<trkpt lat="47.28768200" lon="0.60104600"><ele></ele><time>2014-6-17T6:19:35Z</time></trkpt>
<trkpt lat="47.28820100" lon="0.60128800"><ele></ele><time>2014-6-17T6:19:38Z</time></trkpt>
<trkpt lat="47.28871900" lon="0.60149400"><ele></ele><time>2014-6-17T6:19:41Z</time></trkpt>
<trkpt lat="47.28886900" lon="0.60155200"><ele></ele><time>2014-6-17T6:19:44Z</time></trkpt>
<trkpt lat="47.28918300" lon="0.60185200"><ele></ele><time>2014-6-17T6:19:47Z</time></trkpt>
<trkpt lat="47.28944600" lon="0.60222500"><ele></ele><time>2014-6-17T6:19:50Z</time></trkpt>
<trkpt lat="47.28973800" lon="0.60246500"><ele></ele><time>2014-6-17T6:19:53Z</time></trkpt>
<trkpt lat="47.28983700" lon="0.60249400"><ele></ele><time>2014-6-17T6:19:56Z</time></trkpt>
<trkpt lat="47.28999900" lon="0.60253000"><ele></ele><time>2014-6-17T6:19:59Z</time></trkpt>
<trkpt lat="47.29014700" lon="0.60257400"><ele></ele><time>2014-6-17T6:20:2Z</time></trkpt>
<trkpt lat="47.29023800" lon="0.60262300"><ele></ele><time>2014-6-17T6:20:5Z</time></trkpt>
<trkpt lat="47.29041500" lon="0.60269900"><ele></ele><time>2014-6-17T6:20:8Z</time></trkpt>
<trkpt lat="47.29046200" lon="0.60272700"><ele></ele><time>2014-6-17T6:20:11Z</time></trkpt>
<trkpt lat="47.29058000" lon="0.60283000"><ele></ele><time>2014-6-17T6:20:14Z</time></trkpt>
<trkpt lat="47.29065200" lon="0.60293000"><ele></ele><time>2014-6-17T6:20:17Z</time></trkpt>
<trkpt lat="47.29085700" lon="0.60311300"><ele></ele><time>2014-6-17T6:20:20Z</time></trkpt>
<trkpt lat="47.29101500" lon="0.60320800"><ele></ele><time>2014-6-17T6:20:23Z</time></trkpt>
<trkpt lat="47.29117600" lon="0.60328000"><ele></ele><time>2014-6-17T6:20:26Z</time></trkpt>
<trkpt lat="47.29135400" lon="0.60329800"><ele></ele><time>2014-6-17T6:20:29Z</time></trkpt>
<trkpt lat="47.29165300" lon="0.60329400"><ele></ele><time>2014-6-17T6:20:32Z</time></trkpt>
<trkpt lat="47.29196800" lon="0.60333200"><ele></ele><time>2014-6-17T6:20:35Z</time></trkpt>
<trkpt lat="47.29213000" lon="0.60335800"><ele></ele><time>2014-6-17T6:20:38Z</time></trkpt>
<trkpt lat="47.29239300" lon="0.60338900"><ele></ele><time>2014-6-17T6:20:41Z</time></trkpt>
<trkpt lat="47.29256900" lon="0.60337900"><ele></ele><time>2014-6-17T6:20:44Z</time></trkpt>
<trkpt lat="47.29269000" lon="0.60337300"><ele></ele><time>2014-6-17T6:20:47Z</time></trkpt>
<trkpt lat="47.29280300" lon="0.60337000"><ele></ele><time>2014-6-17T6:20:50Z</time></trkpt>
<trkpt lat="47.29307300" lon="0.60336800"><ele></ele><time>2014-6-17T6:20:53Z</time></trkpt>
<trkpt lat="47.29333800" lon="0.60335800"><ele></ele><time>2014-6-17T6:20:56Z</time></trkpt>
<trkpt lat="47.29352000" lon="0.60337800"><ele></ele><time>2014-6-17T6:20:59Z</time></trkpt>
<trkpt lat="47.29368700" lon="0.60343000"><ele></ele><time>2014-6-17T6:21:2Z</time></trkpt>
<trkpt lat="47.29393100" lon="0.60351900"><ele></ele><time>2014-6-17T6:21:5Z</time></trkpt>
<trkpt lat="47.29411600" lon="0.60365900"><ele></ele><time>2014-6-17T6:21:8Z</time></trkpt>
<trkpt lat="47.29431700" lon="0.60377300"><ele></ele><time>2014-6-17T6:21:11Z</time></trkpt>
<trkpt lat="47.29444800" lon="0.60388400"><ele></ele><time>2014-6-17T6:21:14Z</time></trkpt>
<trkpt lat="47.29457700" lon="0.60399600"><ele></ele><time>2014-6-17T6:21:17Z</time></trkpt>
<trkpt lat="47.29470800" lon="0.60409200"><ele></ele><time>2014-6-17T6:21:20Z</time></trkpt>
<trkpt lat="47.29499700" lon="0.60427800"><ele></ele><time>2014-6-17T6:21:23Z</time></trkpt>
<trkpt lat="47.29531700" lon="0.60449700"><ele></ele><time>2014-6-17T6:21:26Z</time></trkpt>
<trkpt lat="47.29549100" lon="0.60464400"><ele></ele><time>2014-6-17T6:21:29Z</time></trkpt>
<trkpt lat="47.29564900" lon="0.60476100"><ele></ele><time>2014-6-17T6:21:32Z</time></trkpt>
<trkpt lat="47.29612900" lon="0.60506700"><ele></ele><time>2014-6-17T6:21:35Z</time></trkpt>
<trkpt lat="47.29648500" lon="0.60538100"><ele></ele><time>2014-6-17T6:21:38Z</time></trkpt>
<trkpt lat="47.29683400" lon="0.60570500"><ele></ele><time>2014-6-17T6:21:41Z</time></trkpt>
<trkpt lat="47.29711100" lon="0.60596000"><ele></ele><time>2014-6-17T6:21:44Z</time></trkpt>
<trkpt lat="47.29741500" lon="0.60622900"><ele></ele><time>2014-6-17T6:21:47Z</time></trkpt>
<trkpt lat="47.29752500" lon="0.60635100"><ele></ele><time>2014-6-17T6:21:50Z</time></trkpt>
<trkpt lat="47.29774000" lon="0.60655900"><ele></ele><time>2014-6-17T6:21:53Z</time></trkpt>
<trkpt lat="47.29794300" lon="0.60673700"><ele></ele><time>2014-6-17T6:21:56Z</time></trkpt>
<trkpt lat="47.29804800" lon="0.60684800"><ele></ele><time>2014-6-17T6:21:59Z</time></trkpt>
<trkpt lat="47.29805400" lon="0.60693600"><ele></ele><time>2014-6-17T6:22:2Z</time></trkpt>
<trkpt lat="47.29800600" lon="0.60710900"><ele></ele><time>2014-6-17T6:22:5Z</time></trkpt>
<trkpt lat="47.29781900" lon="0.60760400"><ele></ele><time>2014-6-17T6:22:8Z</time></trkpt>
<trkpt lat="47.29779700" lon="0.60765300"><ele></ele><time>2014-6-17T6:22:11Z</time></trkpt>
<trkpt lat="47.29758500" lon="0.60822200"><ele></ele><time>2014-6-17T6:22:14Z</time></trkpt>
<trkpt lat="47.29743000" lon="0.60864200"><ele></ele><time>2014-6-17T6:22:17Z</time></trkpt>
<trkpt lat="47.29738800" lon="0.60876700"><ele></ele><time>2014-6-17T6:22:20Z</time></trkpt>
<trkpt lat="47.29729000" lon="0.60899800"><ele></ele><time>2014-6-17T6:22:23Z</time></trkpt>
<trkpt lat="47.29705500" lon="0.60960500"><ele></ele><time>2014-6-17T6:22:26Z</time></trkpt>
<trkpt lat="47.29686100" lon="0.61011500"><ele></ele><time>2014-6-17T6:22:29Z</time></trkpt>
<trkpt lat="47.29685700" lon="0.61038100"><ele></ele><time>2014-6-17T6:22:32Z</time></trkpt>
<trkpt lat="47.29693300" lon="0.61044600"><ele></ele><time>2014-6-17T6:22:35Z</time></trkpt>
<trkpt lat="47.29701800" lon="0.61048500"><ele></ele><time>2014-6-17T6:22:38Z</time></trkpt>
<trkpt lat="47.29719000" lon="0.61054200"><ele></ele><time>2014-6-17T6:22:41Z</time></trkpt>
<trkpt lat="47.29727800" lon="0.61057600"><ele></ele><time>2014-6-17T6:22:44Z</time></trkpt>
<trkpt lat="47.29744700" lon="0.61066000"><ele></ele><time>2014-6-17T6:22:47Z</time></trkpt>
<trkpt lat="47.29784200" lon="0.61085800"><ele></ele><time>2014-6-17T6:22:50Z</time></trkpt>
<trkpt lat="47.29814600" lon="0.61100200"><ele></ele><time>2014-6-17T6:22:53Z</time></trkpt>
<trkpt lat="47.29846400" lon="0.61116000"><ele></ele><time>2014-6-17T6:22:56Z</time></trkpt>
<trkpt lat="47.29879800" lon="0.61137500"><ele></ele><time>2014-6-17T6:22:59Z</time></trkpt>
<trkpt lat="47.29908800" lon="0.61141300"><ele></ele><time>2014-6-17T6:23:2Z</time></trkpt>
<trkpt lat="47.29914000" lon="0.61141000"><ele></ele><time>2014-6-17T6:23:5Z</time></trkpt>
<trkpt lat="47.29929600" lon="0.61152500"><ele></ele><time>2014-6-17T6:23:8Z</time></trkpt>
<trkpt lat="47.29929600" lon="0.61167000"><ele></ele><time>2014-6-17T6:23:11Z</time></trkpt>
<trkpt lat="47.29922400" lon="0.61248100"><ele></ele><time>2014-6-17T6:23:14Z</time></trkpt>
<trkpt lat="47.29915800" lon="0.61324600"><ele></ele><time>2014-6-17T6:23:17Z</time></trkpt>
<trkpt lat="47.29912600" lon="0.61358500"><ele></ele><time>2014-6-17T6:23:20Z</time></trkpt>
<trkpt lat="47.29905700" lon="0.61430500"><ele></ele><time>2014-6-17T6:23:23Z</time></trkpt>
<trkpt lat="47.29900500" lon="0.61495800"><ele></ele><time>2014-6-17T6:23:26Z</time></trkpt>
<trkpt lat="47.29909800" lon="0.61512200"><ele></ele><time>2014-6-17T6:23:29Z</time></trkpt>
<trkpt lat="47.29926800" lon="0.61510800"><ele></ele><time>2014-6-17T6:23:32Z</time></trkpt>
<trkpt lat="47.29974100" lon="0.61511000"><ele></ele><time>2014-6-17T6:23:35Z</time></trkpt>
<trkpt lat="47.30014200" lon="0.61511400"><ele></ele><time>2014-6-17T6:23:38Z</time></trkpt>
<trkpt lat="47.30047400" lon="0.61512700"><ele></ele><time>2014-6-17T6:23:41Z</time></trkpt>
<trkpt lat="47.30089200" lon="0.61512300"><ele></ele><time>2014-6-17T6:23:44Z</time></trkpt>
<trkpt lat="47.30126500" lon="0.61512400"><ele></ele><time>2014-6-17T6:23:47Z</time></trkpt>
<trkpt lat="47.30160300" lon="0.61513300"><ele></ele><time>2014-6-17T6:23:50Z</time></trkpt>
<trkpt lat="47.30170000" lon="0.61513500"><ele></ele><time>2014-6-17T6:23:53Z</time></trkpt>
<trkpt lat="47.30221900" lon="0.61513100"><ele></ele><time>2014-6-17T6:23:56Z</time></trkpt>
<trkpt lat="47.30278600" lon="0.61514200"><ele></ele><time>2014-6-17T6:23:59Z</time></trkpt>
<trkpt lat="47.30284600" lon="0.61514300"><ele></ele><time>2014-6-17T6:24:2Z</time></trkpt>
<trkpt lat="47.30314000" lon="0.61514000"><ele></ele><time>2014-6-17T6:24:5Z</time></trkpt>
<trkpt lat="47.30365200" lon="0.61515700"><ele></ele><time>2014-6-17T6:24:8Z</time></trkpt>
<trkpt lat="47.30408200" lon="0.61516200"><ele></ele><time>2014-6-17T6:24:11Z</time></trkpt>
<trkpt lat="47.30458800" lon="0.61516200"><ele></ele><time>2014-6-17T6:24:14Z</time></trkpt>
<trkpt lat="47.30478000" lon="0.61516900"><ele></ele><time>2014-6-17T6:24:17Z</time></trkpt>
<trkpt lat="47.30488600" lon="0.61537200"><ele></ele><time>2014-6-17T6:24:20Z</time></trkpt>
<trkpt lat="47.30495200" lon="0.61564400"><ele></ele><time>2014-6-17T6:24:23Z</time></trkpt>
<trkpt lat="47.30503600" lon="0.61565700"><ele></ele><time>2014-6-17T6:24:26Z</time></trkpt>
<trkpt lat="47.30515900" lon="0.61564900"><ele></ele><time>2014-6-17T6:24:29Z</time></trkpt>
<trkpt lat="47.30537600" lon="0.61568200"><ele></ele><time>2014-6-17T6:24:32Z</time></trkpt>
<trkpt lat="47.30552600" lon="0.61572400"><ele></ele><time>2014-6-17T6:24:35Z</time></trkpt>
<trkpt lat="47.30578700" lon="0.61580100"><ele></ele><time>2014-6-17T6:24:38Z</time></trkpt>
<trkpt lat="47.30600500" lon="0.61586700"><ele></ele><time>2014-6-17T6:24:41Z</time></trkpt>
<trkpt lat="47.30602900" lon="0.61587800"><ele></ele><time>2014-6-17T6:24:44Z</time></trkpt>
<trkpt lat="47.30608500" lon="0.61592900"><ele></ele><time>2014-6-17T6:24:47Z</time></trkpt>
<trkpt lat="47.30612100" lon="0.61593400"><ele></ele><time>2014-6-17T6:24:50Z</time></trkpt>
<trkpt lat="47.30615400" lon="0.61593400"><ele></ele><time>2014-6-17T6:24:53Z</time></trkpt>
<trkpt lat="47.30619700" lon="0.61597400"><ele></ele><time>2014-6-17T6:24:56Z</time></trkpt>
<trkpt lat="47.30634800" lon="0.61600800"><ele></ele><time>2014-6-17T6:24:59Z</time></trkpt>
<trkpt lat="47.30666000" lon="0.61603300"><ele></ele><time>2014-6-17T6:25:2Z</time></trkpt>
<trkpt lat="47.30689900" lon="0.61603900"><ele></ele><time>2014-6-17T6:25:5Z</time></trkpt>
<trkpt lat="47.30711700" lon="0.61606700"><ele></ele><time>2014-6-17T6:25:8Z</time></trkpt>
<trkpt lat="47.30736800" lon="0.61608100"><ele></ele><time>2014-6-17T6:25:11Z</time></trkpt>
<trkpt lat="47.30764500" lon="0.61609200"><ele></ele><time>2014-6-17T6:25:14Z</time></trkpt>
<trkpt lat="47.30793500" lon="0.61613500"><ele></ele><time>2014-6-17T6:25:17Z</time></trkpt>
<trkpt lat="47.30805900" lon="0.61617000"><ele></ele><time>2014-6-17T6:25:20Z</time></trkpt>
<trkpt lat="47.30830800" lon="0.61633300"><ele></ele><time>2014-6-17T6:25:23Z</time></trkpt>
<trkpt lat="47.30838500" lon="0.61641500"><ele></ele><time>2014-6-17T6:25:26Z</time></trkpt>
<trkpt lat="47.30851400" lon="0.61630000"><ele></ele><time>2014-6-17T6:25:29Z</time></trkpt>
<trkpt lat="47.30855200" lon="0.61623300"><ele></ele><time>2014-6-17T6:25:32Z</time></trkpt>
<trkpt lat="47.30865100" lon="0.61603800"><ele></ele><time>2014-6-17T6:25:35Z</time></trkpt>
<trkpt lat="47.30869200" lon="0.61595200"><ele></ele><time>2014-6-17T6:25:38Z</time></trkpt>
<trkpt lat="47.30882300" lon="0.61574900"><ele></ele><time>2014-6-17T6:25:41Z</time></trkpt>
<trkpt lat="47.30895400" lon="0.61551000"><ele></ele><time>2014-6-17T6:25:44Z</time></trkpt>
<trkpt lat="47.30897400" lon="0.61546900"><ele></ele><time>2014-6-17T6:25:47Z</time></trkpt>
<trkpt lat="47.30907700" lon="0.61523000"><ele></ele><time>2014-6-17T6:25:50Z</time></trkpt>
<trkpt lat="47.30917300" lon="0.61501300"><ele></ele><time>2014-6-17T6:25:53Z</time></trkpt>
<trkpt lat="47.30931800" lon="0.61477200"><ele></ele><time>2014-6-17T6:25:56Z</time></trkpt>
<trkpt lat="47.30944800" lon="0.61452100"><ele></ele><time>2014-6-17T6:25:59Z</time></trkpt>
<trkpt lat="47.30947200" lon="0.61447800"><ele></ele><time>2014-6-17T6:26:2Z</time></trkpt>
<trkpt lat="47.30968600" lon="0.61407500"><ele></ele><time>2014-6-17T6:26:5Z</time></trkpt>
<trkpt lat="47.30978100" lon="0.61392200"><ele></ele><time>2014-6-17T6:26:8Z</time></trkpt>
<trkpt lat="47.30992000" lon="0.61362400"><ele></ele><time>2014-6-17T6:26:11Z</time></trkpt>
<trkpt lat="47.31005300" lon="0.61339400"><ele></ele><time>2014-6-17T6:26:14Z</time></trkpt>
<trkpt lat="47.31011000" lon="0.61330400"><ele></ele><time>2014-6-17T6:26:17Z</time></trkpt>
<trkpt lat="47.31026800" lon="0.61289000"><ele></ele><time>2014-6-17T6:26:20Z</time></trkpt>
<trkpt lat="47.31029900" lon="0.61281400"><ele></ele><time>2014-6-17T6:26:23Z</time></trkpt>
<trkpt lat="47.31043400" lon="0.61265600"><ele></ele><time>2014-6-17T6:26:26Z</time></trkpt>
<trkpt lat="47.31055900" lon="0.61240200"><ele></ele><time>2014-6-17T6:26:29Z</time></trkpt>
<trkpt lat="47.31063300" lon="0.61227800"><ele></ele><time>2014-6-17T6:26:32Z</time></trkpt>
<trkpt lat="47.31064700" lon="0.61226500"><ele></ele><time>2014-6-17T6:26:35Z</time></trkpt>
<trkpt lat="47.31067400" lon="0.61225800"><ele></ele><time>2014-6-17T6:26:38Z</time></trkpt>
<trkpt lat="47.31078800" lon="0.61221700"><ele></ele><time>2014-6-17T6:26:41Z</time></trkpt>
<trkpt lat="47.31090300" lon="0.61217400"><ele></ele><time>2014-6-17T6:26:44Z</time></trkpt>
<trkpt lat="47.31099300" lon="0.61213200"><ele></ele><time>2014-6-17T6:26:47Z</time></trkpt>
<trkpt lat="47.31109900" lon="0.61206700"><ele></ele><time>2014-6-17T6:26:50Z</time></trkpt>
<trkpt lat="47.31130700" lon="0.61197000"><ele></ele><time>2014-6-17T6:26:53Z</time></trkpt>
<trkpt lat="47.31150900" lon="0.61191500"><ele></ele><time>2014-6-17T6:26:56Z</time></trkpt>
<trkpt lat="47.31189200" lon="0.61186700"><ele></ele><time>2014-6-17T6:26:59Z</time></trkpt>
<trkpt lat="47.31194100" lon="0.61186000"><ele></ele><time>2014-6-17T6:27:2Z</time></trkpt>
<trkpt lat="47.31224800" lon="0.61181800"><ele></ele><time>2014-6-17T6:27:5Z</time></trkpt>
<trkpt lat="47.31229300" lon="0.61182400"><ele></ele><time>2014-6-17T6:27:8Z</time></trkpt>
<trkpt lat="47.31239900" lon="0.61182900"><ele></ele><time>2014-6-17T6:27:11Z</time></trkpt>
<trkpt lat="47.31260400" lon="0.61179200"><ele></ele><time>2014-6-17T6:27:14Z</time></trkpt>
<trkpt lat="47.31279100" lon="0.61192800"><ele></ele><time>2014-6-17T6:27:17Z</time></trkpt>
<trkpt lat="47.31293000" lon="0.61208300"><ele></ele><time>2014-6-17T6:27:20Z</time></trkpt>
<trkpt lat="47.31303700" lon="0.61227600"><ele></ele><time>2014-6-17T6:27:23Z</time></trkpt>
<trkpt lat="47.31308800" lon="0.61235400"><ele></ele><time>2014-6-17T6:27:26Z</time></trkpt>
<trkpt lat="47.31328400" lon="0.61259800"><ele></ele><time>2014-6-17T6:27:29Z</time></trkpt>
<trkpt lat="47.31336300" lon="0.61267900"><ele></ele><time>2014-6-17T6:27:32Z</time></trkpt>
<trkpt lat="47.31349600" lon="0.61280500"><ele></ele><time>2014-6-17T6:27:35Z</time></trkpt>
<trkpt lat="47.31369500" lon="0.61298800"><ele></ele><time>2014-6-17T6:27:38Z</time></trkpt>
<trkpt lat="47.31384600" lon="0.61310000"><ele></ele><time>2014-6-17T6:27:41Z</time></trkpt>
<trkpt lat="47.31396900" lon="0.61314000"><ele></ele><time>2014-6-17T6:27:44Z</time></trkpt>
<trkpt lat="47.31403400" lon="0.61306600"><ele></ele><time>2014-6-17T6:27:47Z</time></trkpt>
<trkpt lat="47.31410100" lon="0.61302200"><ele></ele><time>2014-6-17T6:27:50Z</time></trkpt>
<trkpt lat="47.31418700" lon="0.61305200"><ele></ele><time>2014-6-17T6:27:53Z</time></trkpt>
<trkpt lat="47.31422500" lon="0.61307600"><ele></ele><time>2014-6-17T6:27:56Z</time></trkpt>
<trkpt lat="47.31430400" lon="0.61311300"><ele></ele><time>2014-6-17T6:27:59Z</time></trkpt>
<trkpt lat="47.31448100" lon="0.61320000"><ele></ele><time>2014-6-17T6:28:2Z</time></trkpt>
<trkpt lat="47.31467900" lon="0.61331800"><ele></ele><time>2014-6-17T6:28:5Z</time></trkpt>
<trkpt lat="47.31490800" lon="0.61346100"><ele></ele><time>2014-6-17T6:28:8Z</time></trkpt>
<trkpt lat="47.31510600" lon="0.61357300"><ele></ele><time>2014-6-17T6:28:11Z</time></trkpt>
<trkpt lat="47.31533100" lon="0.61371600"><ele></ele><time>2014-6-17T6:28:14Z</time></trkpt>
<trkpt lat="47.31558400" lon="0.61386100"><ele></ele><time>2014-6-17T6:28:17Z</time></trkpt>
<trkpt lat="47.31573900" lon="0.61394400"><ele></ele><time>2014-6-17T6:28:20Z</time></trkpt>
<trkpt lat="47.31577400" lon="0.61395700"><ele></ele><time>2014-6-17T6:28:23Z</time></trkpt>
<trkpt lat="47.31598000" lon="0.61402800"><ele></ele><time>2014-6-17T6:28:26Z</time></trkpt>
<trkpt lat="47.31614000" lon="0.61406900"><ele></ele><time>2014-6-17T6:28:29Z</time></trkpt>
<trkpt lat="47.31629200" lon="0.61417400"><ele></ele><time>2014-6-17T6:28:32Z</time></trkpt>
<trkpt lat="47.31644600" lon="0.61424400"><ele></ele><time>2014-6-17T6:28:35Z</time></trkpt>
<trkpt lat="47.31658700" lon="0.61433000"><ele></ele><time>2014-6-17T6:28:38Z</time></trkpt>
<trkpt lat="47.31673400" lon="0.61440100"><ele></ele><time>2014-6-17T6:28:41Z</time></trkpt>
<trkpt lat="47.31688500" lon="0.61453200"><ele></ele><time>2014-6-17T6:28:44Z</time></trkpt>
<trkpt lat="47.31709000" lon="0.61463400"><ele></ele><time>2014-6-17T6:28:47Z</time></trkpt>
<trkpt lat="47.31719200" lon="0.61470300"><ele></ele><time>2014-6-17T6:28:50Z</time></trkpt>
<trkpt lat="47.31741300" lon="0.61484500"><ele></ele><time>2014-6-17T6:28:53Z</time></trkpt>
<trkpt lat="47.31764800" lon="0.61493900"><ele></ele><time>2014-6-17T6:28:56Z</time></trkpt>
<trkpt lat="47.31782000" lon="0.61504600"><ele></ele><time>2014-6-17T6:28:59Z</time></trkpt>
<trkpt lat="47.31791000" lon="0.61508700"><ele></ele><time>2014-6-17T6:29:2Z</time></trkpt>
<trkpt lat="47.31802600" lon="0.61515900"><ele></ele><time>2014-6-17T6:29:5Z</time></trkpt>
<trkpt lat="47.31814100" lon="0.61522600"><ele></ele><time>2014-6-17T6:29:8Z</time></trkpt>
<trkpt lat="47.31820100" lon="0.61526000"><ele></ele><time>2014-6-17T6:29:11Z</time></trkpt>
<trkpt lat="47.31837400" lon="0.61533500"><ele></ele><time>2014-6-17T6:29:14Z</time></trkpt>
<trkpt lat="47.31865800" lon="0.61545200"><ele></ele><time>2014-6-17T6:29:17Z</time></trkpt>
<trkpt lat="47.31882500" lon="0.61551900"><ele></ele><time>2014-6-17T6:29:20Z</time></trkpt>
<trkpt lat="47.31909500" lon="0.61563500"><ele></ele><time>2014-6-17T6:29:23Z</time></trkpt>
<trkpt lat="47.31920400" lon="0.61571100"><ele></ele><time>2014-6-17T6:29:26Z</time></trkpt>
<trkpt lat="47.31935100" lon="0.61577800"><ele></ele><time>2014-6-17T6:29:29Z</time></trkpt>
<trkpt lat="47.31957900" lon="0.61588900"><ele></ele><time>2014-6-17T6:29:32Z</time></trkpt>
<trkpt lat="47.31981100" lon="0.61599900"><ele></ele><time>2014-6-17T6:29:35Z</time></trkpt>
<trkpt lat="47.32004200" lon="0.61613600"><ele></ele><time>2014-6-17T6:29:38Z</time></trkpt>
<trkpt lat="47.32034200" lon="0.61630400"><ele></ele><time>2014-6-17T6:29:41Z</time></trkpt>
<trkpt lat="47.32060600" lon="0.61643900"><ele></ele><time>2014-6-17T6:29:44Z</time></trkpt>
<trkpt lat="47.32071700" lon="0.61648800"><ele></ele><time>2014-6-17T6:29:47Z</time></trkpt>
<trkpt lat="47.32091000" lon="0.61659300"><ele></ele><time>2014-6-17T6:29:50Z</time></trkpt>
<trkpt lat="47.32112100" lon="0.61673500"><ele></ele><time>2014-6-17T6:29:53Z</time></trkpt>
<trkpt lat="47.32120200" lon="0.61679100"><ele></ele><time>2014-6-17T6:29:56Z</time></trkpt>
<trkpt lat="47.32139400" lon="0.61687300"><ele></ele><time>2014-6-17T6:29:59Z</time></trkpt>
<trkpt lat="47.32158200" lon="0.61699300"><ele></ele><time>2014-6-17T6:30:2Z</time></trkpt>
<trkpt lat="47.32185300" lon="0.61712900"><ele></ele><time>2014-6-17T6:30:5Z</time></trkpt>
<trkpt lat="47.32206000" lon="0.61724600"><ele></ele><time>2014-6-17T6:30:8Z</time></trkpt>
<trkpt lat="47.32213300" lon="0.61729600"><ele></ele><time>2014-6-17T6:30:11Z</time></trkpt>
<trkpt lat="47.32232800" lon="0.61739600"><ele></ele><time>2014-6-17T6:30:14Z</time></trkpt>
<trkpt lat="47.32260600" lon="0.61753300"><ele></ele><time>2014-6-17T6:30:17Z</time></trkpt>
<trkpt lat="47.32277200" lon="0.61759900"><ele></ele><time>2014-6-17T6:30:20Z</time></trkpt>
<trkpt lat="47.32293500" lon="0.61767100"><ele></ele><time>2014-6-17T6:30:23Z</time></trkpt>
<trkpt lat="47.32309100" lon="0.61774400"><ele></ele><time>2014-6-17T6:30:26Z</time></trkpt>
<trkpt lat="47.32327400" lon="0.61781000"><ele></ele><time>2014-6-17T6:30:29Z</time></trkpt>
<trkpt lat="47.32339200" lon="0.61786900"><ele></ele><time>2014-6-17T6:30:32Z</time></trkpt>
<trkpt lat="47.32349200" lon="0.61793200"><ele></ele><time>2014-6-17T6:30:35Z</time></trkpt>
<trkpt lat="47.32375900" lon="0.61807400"><ele></ele><time>2014-6-17T6:30:38Z</time></trkpt>
<trkpt lat="47.32397600" lon="0.61812300"><ele></ele><time>2014-6-17T6:30:41Z</time></trkpt>
<trkpt lat="47.32417400" lon="0.61825000"><ele></ele><time>2014-6-17T6:30:44Z</time></trkpt>
<trkpt lat="47.32439200" lon="0.61835800"><ele></ele><time>2014-6-17T6:30:47Z</time></trkpt>
<trkpt lat="47.32455900" lon="0.61847500"><ele></ele><time>2014-6-17T6:30:50Z</time></trkpt>
<trkpt lat="47.32490200" lon="0.61871700"><ele></ele><time>2014-6-17T6:30:53Z</time></trkpt>
<trkpt lat="47.32529800" lon="0.61898300"><ele></ele><time>2014-6-17T6:30:56Z</time></trkpt>
<trkpt lat="47.32552900" lon="0.61907500"><ele></ele><time>2014-6-17T6:30:59Z</time></trkpt>
<trkpt lat="47.32578400" lon="0.61899000"><ele></ele><time>2014-6-17T6:31:2Z</time></trkpt>
<trkpt lat="47.32593300" lon="0.61892600"><ele></ele><time>2014-6-17T6:31:5Z</time></trkpt>
<trkpt lat="47.32612600" lon="0.61885400"><ele></ele><time>2014-6-17T6:31:8Z</time></trkpt>
<trkpt lat="47.32638900" lon="0.61873300"><ele></ele><time>2014-6-17T6:31:11Z</time></trkpt>
<trkpt lat="47.32669900" lon="0.61860600"><ele></ele><time>2014-6-17T6:31:14Z</time></trkpt>
<trkpt lat="47.32691500" lon="0.61851500"><ele></ele><time>2014-6-17T6:31:17Z</time></trkpt>
<trkpt lat="47.32712500" lon="0.61833400"><ele></ele><time>2014-6-17T6:31:20Z</time></trkpt>
<trkpt lat="47.32737100" lon="0.61805200"><ele></ele><time>2014-6-17T6:31:23Z</time></trkpt>
<trkpt lat="47.32754100" lon="0.61791300"><ele></ele><time>2014-6-17T6:31:26Z</time></trkpt>
<trkpt lat="47.32769400" lon="0.61789200"><ele></ele><time>2014-6-17T6:31:29Z</time></trkpt>
<trkpt lat="47.32782700" lon="0.61791600"><ele></ele><time>2014-6-17T6:31:32Z</time></trkpt>
<trkpt lat="47.32804800" lon="0.61790200"><ele></ele><time>2014-6-17T6:31:35Z</time></trkpt>
<trkpt lat="47.32826600" lon="0.61775600"><ele></ele><time>2014-6-17T6:31:38Z</time></trkpt>
<trkpt lat="47.32843900" lon="0.61758800"><ele></ele><time>2014-6-17T6:31:41Z</time></trkpt>
<trkpt lat="47.32863100" lon="0.61742700"><ele></ele><time>2014-6-17T6:31:44Z</time></trkpt>
<trkpt lat="47.32882100" lon="0.61724000"><ele></ele><time>2014-6-17T6:31:47Z</time></trkpt>
<trkpt lat="47.32901300" lon="0.61703200"><ele></ele><time>2014-6-17T6:31:50Z</time></trkpt>
<trkpt lat="47.32925600" lon="0.61677800"><ele></ele><time>2014-6-17T6:31:53Z</time></trkpt>
<trkpt lat="47.32955600" lon="0.61648800"><ele></ele><time>2014-6-17T6:31:56Z</time></trkpt>
<trkpt lat="47.32986600" lon="0.61614700"><ele></ele><time>2014-6-17T6:31:59Z</time></trkpt>
<trkpt lat="47.33003600" lon="0.61597800"><ele></ele><time>2014-6-17T6:32:2Z</time></trkpt>
<trkpt lat="47.33031100" lon="0.61568700"><ele></ele><time>2014-6-17T6:32:5Z</time></trkpt>
<trkpt lat="47.33052800" lon="0.61561200"><ele></ele><time>2014-6-17T6:32:8Z</time></trkpt>
<trkpt lat="47.33059700" lon="0.61559000"><ele></ele><time>2014-6-17T6:32:11Z</time></trkpt>
<trkpt lat="47.33071100" lon="0.61573400"><ele></ele><time>2014-6-17T6:32:14Z</time></trkpt>
<trkpt lat="47.33075900" lon="0.61583900"><ele></ele><time>2014-6-17T6:32:17Z</time></trkpt>
<trkpt lat="47.33098400" lon="0.61604700"><ele></ele><time>2014-6-17T6:32:20Z</time></trkpt>
<trkpt lat="47.33115500" lon="0.61598500"><ele></ele><time>2014-6-17T6:32:23Z</time></trkpt>
<trkpt lat="47.33127600" lon="0.61589800"><ele></ele><time>2014-6-17T6:32:26Z</time></trkpt>
<trkpt lat="47.33162800" lon="0.61559900"><ele></ele><time>2014-6-17T6:32:29Z</time></trkpt>
<trkpt lat="47.33197600" lon="0.61530700"><ele></ele><time>2014-6-17T6:32:32Z</time></trkpt>
<trkpt lat="47.33218400" lon="0.61514700"><ele></ele><time>2014-6-17T6:32:35Z</time></trkpt>
<trkpt lat="47.33239200" lon="0.61496000"><ele></ele><time>2014-6-17T6:32:38Z</time></trkpt>
<trkpt lat="47.33263700" lon="0.61487700"><ele></ele><time>2014-6-17T6:32:41Z</time></trkpt>
<trkpt lat="47.33273600" lon="0.61484600"><ele></ele><time>2014-6-17T6:32:44Z</time></trkpt>
<trkpt lat="47.33299100" lon="0.61485900"><ele></ele><time>2014-6-17T6:32:47Z</time></trkpt>
<trkpt lat="47.33314600" lon="0.61491100"><ele></ele><time>2014-6-17T6:32:50Z</time></trkpt>
<trkpt lat="47.33337700" lon="0.61507400"><ele></ele><time>2014-6-17T6:32:53Z</time></trkpt>
<trkpt lat="47.33352800" lon="0.61524700"><ele></ele><time>2014-6-17T6:32:56Z</time></trkpt>
<trkpt lat="47.33373200" lon="0.61564200"><ele></ele><time>2014-6-17T6:32:59Z</time></trkpt>
<trkpt lat="47.33382700" lon="0.61594800"><ele></ele><time>2014-6-17T6:33:2Z</time></trkpt>
<trkpt lat="47.33392600" lon="0.61641800"><ele></ele><time>2014-6-17T6:33:5Z</time></trkpt>
<trkpt lat="47.33393600" lon="0.61647400"><ele></ele><time>2014-6-17T6:33:8Z</time></trkpt>
<trkpt lat="47.33400500" lon="0.61683000"><ele></ele><time>2014-6-17T6:33:11Z</time></trkpt>
<trkpt lat="47.33409900" lon="0.61729200"><ele></ele><time>2014-6-17T6:33:14Z</time></trkpt>
<trkpt lat="47.33419700" lon="0.61778900"><ele></ele><time>2014-6-17T6:33:17Z</time></trkpt>
<trkpt lat="47.33431100" lon="0.61839400"><ele></ele><time>2014-6-17T6:33:20Z</time></trkpt>
<trkpt lat="47.33439700" lon="0.61905000"><ele></ele><time>2014-6-17T6:33:23Z</time></trkpt>
<trkpt lat="47.33442000" lon="0.61927000"><ele></ele><time>2014-6-17T6:33:26Z</time></trkpt>
<trkpt lat="47.33443900" lon="0.61941200"><ele></ele><time>2014-6-17T6:33:29Z</time></trkpt>
<trkpt lat="47.33446200" lon="0.61960800"><ele></ele><time>2014-6-17T6:33:32Z</time></trkpt>
<trkpt lat="47.33457000" lon="0.61975100"><ele></ele><time>2014-6-17T6:33:35Z</time></trkpt>
<trkpt lat="47.33461700" lon="0.61966900"><ele></ele><time>2014-6-17T6:33:38Z</time></trkpt>
<trkpt lat="47.33462200" lon="0.61953700"><ele></ele><time>2014-6-17T6:33:41Z</time></trkpt>
<trkpt lat="47.33461000" lon="0.61931900"><ele></ele><time>2014-6-17T6:33:44Z</time></trkpt>
<trkpt lat="47.33471200" lon="0.61895800"><ele></ele><time>2014-6-17T6:33:47Z</time></trkpt>
<trkpt lat="47.33475700" lon="0.61891500"><ele></ele><time>2014-6-17T6:33:50Z</time></trkpt>
<trkpt lat="47.33504500" lon="0.61863100"><ele></ele><time>2014-6-17T6:33:53Z</time></trkpt>
<trkpt lat="47.33524800" lon="0.61836100"><ele></ele><time>2014-6-17T6:33:56Z</time></trkpt>
<trkpt lat="47.33541100" lon="0.61807600"><ele></ele><time>2014-6-17T6:33:59Z</time></trkpt>
<trkpt lat="47.33554000" lon="0.61786300"><ele></ele><time>2014-6-17T6:34:2Z</time></trkpt>
<trkpt lat="47.33568800" lon="0.61760500"><ele></ele><time>2014-6-17T6:34:5Z</time></trkpt>
<trkpt lat="47.33571300" lon="0.61756400"><ele></ele><time>2014-6-17T6:34:8Z</time></trkpt>
<trkpt lat="47.33579800" lon="0.61738900"><ele></ele><time>2014-6-17T6:34:11Z</time></trkpt>
<trkpt lat="47.33603600" lon="0.61703400"><ele></ele><time>2014-6-17T6:34:14Z</time></trkpt>
<trkpt lat="47.33627900" lon="0.61676400"><ele></ele><time>2014-6-17T6:34:17Z</time></trkpt>
<trkpt lat="47.33661900" lon="0.61638200"><ele></ele><time>2014-6-17T6:34:20Z</time></trkpt>
<trkpt lat="47.33668000" lon="0.61629300"><ele></ele><time>2014-6-17T6:34:23Z</time></trkpt>
<trkpt lat="47.33692400" lon="0.61598500"><ele></ele><time>2014-6-17T6:34:26Z</time></trkpt>
<trkpt lat="47.33702400" lon="0.61584800"><ele></ele><time>2014-6-17T6:34:29Z</time></trkpt>
<trkpt lat="47.33704600" lon="0.61582200"><ele></ele><time>2014-6-17T6:34:32Z</time></trkpt>
<trkpt lat="47.33715400" lon="0.61564400"><ele></ele><time>2014-6-17T6:34:35Z</time></trkpt>
<trkpt lat="47.33746100" lon="0.61519100"><ele></ele><time>2014-6-17T6:34:38Z</time></trkpt>
<trkpt lat="47.33752500" lon="0.61508600"><ele></ele><time>2014-6-17T6:34:41Z</time></trkpt>
<trkpt lat="47.33753700" lon="0.61502600"><ele></ele><time>2014-6-17T6:34:44Z</time></trkpt>
<trkpt lat="47.33742200" lon="0.61498200"><ele></ele><time>2014-6-17T6:34:47Z</time></trkpt>
<trkpt lat="47.33720400" lon="0.61474000"><ele></ele><time>2014-6-17T6:34:50Z</time></trkpt>
<trkpt lat="47.33701400" lon="0.61427300"><ele></ele><time>2014-6-17T6:34:53Z</time></trkpt>
<trkpt lat="47.33691900" lon="0.61380300"><ele></ele><time>2014-6-17T6:34:56Z</time></trkpt>
<trkpt lat="47.33685400" lon="0.61344900"><ele></ele><time>2014-6-17T6:34:59Z</time></trkpt>
<trkpt lat="47.33692800" lon="0.61329400"><ele></ele><time>2014-6-17T6:35:2Z</time></trkpt>
<trkpt lat="47.33730300" lon="0.61305700"><ele></ele><time>2014-6-17T6:35:5Z</time></trkpt>
<trkpt lat="47.33752000" lon="0.61291200"><ele></ele><time>2014-6-17T6:35:8Z</time></trkpt>
<trkpt lat="47.33772600" lon="0.61276800"><ele></ele><time>2014-6-17T6:35:11Z</time></trkpt>
<trkpt lat="47.33807600" lon="0.61250800"><ele></ele><time>2014-6-17T6:35:14Z</time></trkpt>
<trkpt lat="47.33815200" lon="0.61244500"><ele></ele><time>2014-6-17T6:35:17Z</time></trkpt>
<trkpt lat="47.33847200" lon="0.61218200"><ele></ele><time>2014-6-17T6:35:20Z</time></trkpt>
<trkpt lat="47.33875000" lon="0.61195100"><ele></ele><time>2014-6-17T6:35:23Z</time></trkpt>
<trkpt lat="47.33885900" lon="0.61185600"><ele></ele><time>2014-6-17T6:35:26Z</time></trkpt>
<trkpt lat="47.33919600" lon="0.61154500"><ele></ele><time>2014-6-17T6:35:29Z</time></trkpt>
<trkpt lat="47.33938400" lon="0.61134500"><ele></ele><time>2014-6-17T6:35:32Z</time></trkpt>
<trkpt lat="47.33957000" lon="0.61116900"><ele></ele><time>2014-6-17T6:35:35Z</time></trkpt>
<trkpt lat="47.33967600" lon="0.61109000"><ele></ele><time>2014-6-17T6:35:38Z</time></trkpt>
<trkpt lat="47.33975500" lon="0.61125500"><ele></ele><time>2014-6-17T6:35:41Z</time></trkpt>
<trkpt lat="47.33977500" lon="0.61131600"><ele></ele><time>2014-6-17T6:35:44Z</time></trkpt>
<trkpt lat="47.33996300" lon="0.61183200"><ele></ele><time>2014-6-17T6:35:47Z</time></trkpt>
<trkpt lat="47.34006300" lon="0.61210700"><ele></ele><time>2014-6-17T6:35:50Z</time></trkpt>
<trkpt lat="47.34029000" lon="0.61267000"><ele></ele><time>2014-6-17T6:35:53Z</time></trkpt>
<trkpt lat="47.34043300" lon="0.61296800"><ele></ele><time>2014-6-17T6:35:56Z</time></trkpt>
<trkpt lat="47.34054500" lon="0.61326400"><ele></ele><time>2014-6-17T6:35:59Z</time></trkpt>
<trkpt lat="47.34070900" lon="0.61376200"><ele></ele><time>2014-6-17T6:36:2Z</time></trkpt>
<trkpt lat="47.34085300" lon="0.61400800"><ele></ele><time>2014-6-17T6:36:5Z</time></trkpt>
<trkpt lat="47.34092600" lon="0.61408200"><ele></ele><time>2014-6-17T6:36:8Z</time></trkpt>
<trkpt lat="47.34106100" lon="0.61403900"><ele></ele><time>2014-6-17T6:36:11Z</time></trkpt>
<trkpt lat="47.34119500" lon="0.61382700"><ele></ele><time>2014-6-17T6:36:14Z</time></trkpt>
<trkpt lat="47.34125100" lon="0.61372100"><ele></ele><time>2014-6-17T6:36:17Z</time></trkpt>
<trkpt lat="47.34125000" lon="0.61371600"><ele></ele><time>2014-6-17T6:36:20Z</time></trkpt>
<trkpt lat="47.34125400" lon="0.61366800"><ele></ele><time>2014-6-17T6:36:23Z</time></trkpt>
<trkpt lat="47.34128400" lon="0.61360800"><ele></ele><time>2014-6-17T6:36:26Z</time></trkpt>
<trkpt lat="47.34130000" lon="0.61358600"><ele></ele><time>2014-6-17T6:36:29Z</time></trkpt>
<trkpt lat="47.34137800" lon="0.61358400"><ele></ele><time>2014-6-17T6:36:32Z</time></trkpt>
<trkpt lat="47.34148500" lon="0.61363500"><ele></ele><time>2014-6-17T6:36:35Z</time></trkpt>
<trkpt lat="47.34162800" lon="0.61352200"><ele></ele><time>2014-6-17T6:36:38Z</time></trkpt>
<trkpt lat="47.34169500" lon="0.61349200"><ele></ele><time>2014-6-17T6:36:41Z</time></trkpt>
<trkpt lat="47.34195300" lon="0.61324900"><ele></ele><time>2014-6-17T6:36:44Z</time></trkpt>
<trkpt lat="47.34198100" lon="0.61320800"><ele></ele><time>2014-6-17T6:36:47Z</time></trkpt>
<trkpt lat="47.34213800" lon="0.61324000"><ele></ele><time>2014-6-17T6:36:50Z</time></trkpt>
<trkpt lat="47.34219300" lon="0.61333900"><ele></ele><time>2014-6-17T6:36:53Z</time></trkpt>
<trkpt lat="47.34225200" lon="0.61356800"><ele></ele><time>2014-6-17T6:36:56Z</time></trkpt>
<trkpt lat="47.34224400" lon="0.61396900"><ele></ele><time>2014-6-17T6:36:59Z</time></trkpt>
<trkpt lat="47.34229400" lon="0.61431900"><ele></ele><time>2014-6-17T6:37:2Z</time></trkpt>
<trkpt lat="47.34241300" lon="0.61458800"><ele></ele><time>2014-6-17T6:37:5Z</time></trkpt>
<trkpt lat="47.34255100" lon="0.61481500"><ele></ele><time>2014-6-17T6:37:8Z</time></trkpt>
<trkpt lat="47.34275300" lon="0.61504800"><ele></ele><time>2014-6-17T6:37:11Z</time></trkpt>
<trkpt lat="47.34291200" lon="0.61505300"><ele></ele><time>2014-6-17T6:37:14Z</time></trkpt>
<trkpt lat="47.34294900" lon="0.61502600"><ele></ele><time>2014-6-17T6:37:17Z</time></trkpt>
<trkpt lat="47.34311000" lon="0.61477600"><ele></ele><time>2014-6-17T6:37:20Z</time></trkpt>
<trkpt lat="47.34314700" lon="0.61456400"><ele></ele><time>2014-6-17T6:37:23Z</time></trkpt>
<trkpt lat="47.34315600" lon="0.61452300"><ele></ele><time>2014-6-17T6:37:26Z</time></trkpt>
<trkpt lat="47.34309900" lon="0.61443600"><ele></ele><time>2014-6-17T6:37:29Z</time></trkpt>
<trkpt lat="47.34299900" lon="0.61434400"><ele></ele><time>2014-6-17T6:37:32Z</time></trkpt>
<trkpt lat="47.34298600" lon="0.61430100"><ele></ele><time>2014-6-17T6:37:35Z</time></trkpt>
<trkpt lat="47.34298500" lon="0.61428300"><ele></ele><time>2014-6-17T6:37:38Z</time></trkpt>
<trkpt lat="47.34298700" lon="0.61420700"><ele></ele><time>2014-6-17T6:37:41Z</time></trkpt>
<trkpt lat="47.34287700" lon="0.61405700"><ele></ele><time>2014-6-17T6:37:44Z</time></trkpt>
<trkpt lat="47.34285600" lon="0.61400400"><ele></ele><time>2014-6-17T6:37:47Z</time></trkpt>
<trkpt lat="47.34285600" lon="0.61395800"><ele></ele><time>2014-6-17T6:37:50Z</time></trkpt>
<trkpt lat="47.34297100" lon="0.61382600"><ele></ele><time>2014-6-17T6:37:53Z</time></trkpt>
<trkpt lat="47.34294700" lon="0.61505100"><ele></ele><time>2014-6-17T6:37:56Z</time></trkpt>
<trkpt lat="47.34294400" lon="0.61513300"><ele></ele><time>2014-6-17T6:37:59Z</time></trkpt>
<trkpt lat="47.34290100" lon="0.61514600"><ele></ele><time>2014-6-17T6:38:2Z</time></trkpt>
<trkpt lat="47.34273900" lon="0.61502000"><ele></ele><time>2014-6-17T6:38:5Z</time></trkpt>
<trkpt lat="47.34250100" lon="0.61475700"><ele></ele><time>2014-6-17T6:38:8Z</time></trkpt>
<trkpt lat="47.34236400" lon="0.61451900"><ele></ele><time>2014-6-17T6:38:11Z</time></trkpt>
<trkpt lat="47.34226600" lon="0.61424200"><ele></ele><time>2014-6-17T6:38:14Z</time></trkpt>
<trkpt lat="47.34224700" lon="0.61418500"><ele></ele><time>2014-6-17T6:38:17Z</time></trkpt>
<trkpt lat="47.34222000" lon="0.61395200"><ele></ele><time>2014-6-17T6:38:20Z</time></trkpt>
<trkpt lat="47.34223800" lon="0.61348500"><ele></ele><time>2014-6-17T6:38:23Z</time></trkpt>
<trkpt lat="47.34212900" lon="0.61321400"><ele></ele><time>2014-6-17T6:38:26Z</time></trkpt>
<trkpt lat="47.34206100" lon="0.61312700"><ele></ele><time>2014-6-17T6:38:29Z</time></trkpt>
<trkpt lat="47.34191200" lon="0.61321400"><ele></ele><time>2014-6-17T6:38:32Z</time></trkpt>
<trkpt lat="47.34172000" lon="0.61345300"><ele></ele><time>2014-6-17T6:38:35Z</time></trkpt>
<trkpt lat="47.34151000" lon="0.61359000"><ele></ele><time>2014-6-17T6:38:38Z</time></trkpt>
<trkpt lat="47.34130500" lon="0.61360800"><ele></ele><time>2014-6-17T6:38:41Z</time></trkpt>
<trkpt lat="47.34114300" lon="0.61383700"><ele></ele><time>2014-6-17T6:38:44Z</time></trkpt>
<trkpt lat="47.34101200" lon="0.61403300"><ele></ele><time>2014-6-17T6:38:47Z</time></trkpt>
<trkpt lat="47.34094200" lon="0.61406700"><ele></ele><time>2014-6-17T6:38:50Z</time></trkpt>
<trkpt lat="47.34089000" lon="0.61407900"><ele></ele><time>2014-6-17T6:38:53Z</time></trkpt>
<trkpt lat="47.34084600" lon="0.61401600"><ele></ele><time>2014-6-17T6:38:56Z</time></trkpt>
<trkpt lat="47.34076400" lon="0.61400200"><ele></ele><time>2014-6-17T6:38:59Z</time></trkpt>
<trkpt lat="47.34069000" lon="0.61400900"><ele></ele><time>2014-6-17T6:39:2Z</time></trkpt>
<trkpt lat="47.34067900" lon="0.61401200"><ele></ele><time>2014-6-17T6:39:5Z</time></trkpt>
<trkpt lat="47.34057100" lon="0.61400700"><ele></ele><time>2014-6-17T6:39:8Z</time></trkpt>
<trkpt lat="47.34035000" lon="0.61398400"><ele></ele><time>2014-6-17T6:39:11Z</time></trkpt>
<trkpt lat="47.34015400" lon="0.61394700"><ele></ele><time>2014-6-17T6:39:14Z</time></trkpt>
<trkpt lat="47.33996700" lon="0.61394100"><ele></ele><time>2014-6-17T6:39:17Z</time></trkpt>
<trkpt lat="47.33966900" lon="0.61394200"><ele></ele><time>2014-6-17T6:39:20Z</time></trkpt>
<trkpt lat="47.33922900" lon="0.61396800"><ele></ele><time>2014-6-17T6:39:23Z</time></trkpt>
<trkpt lat="47.33886000" lon="0.61413100"><ele></ele><time>2014-6-17T6:39:26Z</time></trkpt>
<trkpt lat="47.33847600" lon="0.61432200"><ele></ele><time>2014-6-17T6:39:29Z</time></trkpt>
<trkpt lat="47.33815200" lon="0.61447400"><ele></ele><time>2014-6-17T6:39:32Z</time></trkpt>
<trkpt lat="47.33796600" lon="0.61457600"><ele></ele><time>2014-6-17T6:39:35Z</time></trkpt>
<trkpt lat="47.33755100" lon="0.61498900"><ele></ele><time>2014-6-17T6:39:38Z</time></trkpt>
<trkpt lat="47.33727500" lon="0.61535500"><ele></ele><time>2014-6-17T6:39:41Z</time></trkpt>
<trkpt lat="47.33710300" lon="0.61559400"><ele></ele><time>2014-6-17T6:39:44Z</time></trkpt>
<trkpt lat="47.33697900" lon="0.61577400"><ele></ele><time>2014-6-17T6:39:47Z</time></trkpt>
<trkpt lat="47.33685800" lon="0.61595000"><ele></ele><time>2014-6-17T6:39:50Z</time></trkpt>
<trkpt lat="47.33666700" lon="0.61623600"><ele></ele><time>2014-6-17T6:39:53Z</time></trkpt>
<trkpt lat="47.33653800" lon="0.61641500"><ele></ele><time>2014-6-17T6:39:56Z</time></trkpt>
<trkpt lat="47.33626200" lon="0.61672600"><ele></ele><time>2014-6-17T6:39:59Z</time></trkpt>
<trkpt lat="47.33592800" lon="0.61714000"><ele></ele><time>2014-6-17T6:40:2Z</time></trkpt>
<trkpt lat="47.33558300" lon="0.61772500"><ele></ele><time>2014-6-17T6:40:5Z</time></trkpt>
<trkpt lat="47.33544600" lon="0.61796000"><ele></ele><time>2014-6-17T6:40:8Z</time></trkpt>
<trkpt lat="47.33528100" lon="0.61828800"><ele></ele><time>2014-6-17T6:40:11Z</time></trkpt>
<trkpt lat="47.33496000" lon="0.61871000"><ele></ele><time>2014-6-17T6:40:14Z</time></trkpt>
<trkpt lat="47.33467300" lon="0.61898400"><ele></ele><time>2014-6-17T6:40:17Z</time></trkpt>
<trkpt lat="47.33460700" lon="0.61924700"><ele></ele><time>2014-6-17T6:40:20Z</time></trkpt>
<trkpt lat="47.33461400" lon="0.61960000"><ele></ele><time>2014-6-17T6:40:23Z</time></trkpt>
<trkpt lat="47.33454500" lon="0.61974800"><ele></ele><time>2014-6-17T6:40:26Z</time></trkpt>
<trkpt lat="47.33452900" lon="0.61986000"><ele></ele><time>2014-6-17T6:40:29Z</time></trkpt>
<trkpt lat="47.33449500" lon="0.61944100"><ele></ele><time>2014-6-17T6:40:32Z</time></trkpt>
<trkpt lat="47.33443400" lon="0.61889400"><ele></ele><time>2014-6-17T6:40:35Z</time></trkpt>
<trkpt lat="47.33433000" lon="0.61825800"><ele></ele><time>2014-6-17T6:40:38Z</time></trkpt>
<trkpt lat="47.33418300" lon="0.61754800"><ele></ele><time>2014-6-17T6:40:41Z</time></trkpt>
<trkpt lat="47.33404700" lon="0.61684200"><ele></ele><time>2014-6-17T6:40:44Z</time></trkpt>
<trkpt lat="47.33393400" lon="0.61626400"><ele></ele><time>2014-6-17T6:40:47Z</time></trkpt>
<trkpt lat="47.33390500" lon="0.61612300"><ele></ele><time>2014-6-17T6:40:50Z</time></trkpt>
<trkpt lat="47.33382000" lon="0.61580200"><ele></ele><time>2014-6-17T6:40:53Z</time></trkpt>
<trkpt lat="47.33378200" lon="0.61568200"><ele></ele><time>2014-6-17T6:40:56Z</time></trkpt>
<trkpt lat="47.33345200" lon="0.61511400"><ele></ele><time>2014-6-17T6:40:59Z</time></trkpt>
<trkpt lat="47.33328700" lon="0.61495100"><ele></ele><time>2014-6-17T6:41:2Z</time></trkpt>
<trkpt lat="47.33315000" lon="0.61485900"><ele></ele><time>2014-6-17T6:41:5Z</time></trkpt>
<trkpt lat="47.33281100" lon="0.61477500"><ele></ele><time>2014-6-17T6:41:8Z</time></trkpt>
<trkpt lat="47.33266700" lon="0.61477900"><ele></ele><time>2014-6-17T6:41:11Z</time></trkpt>
<trkpt lat="47.33243400" lon="0.61485600"><ele></ele><time>2014-6-17T6:41:14Z</time></trkpt>
<trkpt lat="47.33191300" lon="0.61526900"><ele></ele><time>2014-6-17T6:41:17Z</time></trkpt>
<trkpt lat="47.33153300" lon="0.61560400"><ele></ele><time>2014-6-17T6:41:20Z</time></trkpt>
<trkpt lat="47.33111500" lon="0.61597200"><ele></ele><time>2014-6-17T6:41:23Z</time></trkpt>
<trkpt lat="47.33089800" lon="0.61597400"><ele></ele><time>2014-6-17T6:41:26Z</time></trkpt>
<trkpt lat="47.33079200" lon="0.61571900"><ele></ele><time>2014-6-17T6:41:29Z</time></trkpt>
<trkpt lat="47.33082100" lon="0.61555200"><ele></ele><time>2014-6-17T6:41:32Z</time></trkpt>
<trkpt lat="47.33085600" lon="0.61544100"><ele></ele><time>2014-6-17T6:41:35Z</time></trkpt>
<trkpt lat="47.33083700" lon="0.61513200"><ele></ele><time>2014-6-17T6:41:38Z</time></trkpt>
<trkpt lat="47.33068100" lon="0.61501100"><ele></ele><time>2014-6-17T6:41:41Z</time></trkpt>
<trkpt lat="47.33046600" lon="0.61514500"><ele></ele><time>2014-6-17T6:41:44Z</time></trkpt>
<trkpt lat="47.33032500" lon="0.61522200"><ele></ele><time>2014-6-17T6:41:47Z</time></trkpt>
<trkpt lat="47.32989600" lon="0.61522700"><ele></ele><time>2014-6-17T6:41:50Z</time></trkpt>
<trkpt lat="47.32966800" lon="0.61515500"><ele></ele><time>2014-6-17T6:41:53Z</time></trkpt>
<trkpt lat="47.32922800" lon="0.61488400"><ele></ele><time>2014-6-17T6:41:56Z</time></trkpt>
<trkpt lat="47.32910300" lon="0.61480000"><ele></ele><time>2014-6-17T6:41:59Z</time></trkpt>
<trkpt lat="47.32868900" lon="0.61453600"><ele></ele><time>2014-6-17T6:42:2Z</time></trkpt>
<trkpt lat="47.32815700" lon="0.61421100"><ele></ele><time>2014-6-17T6:42:5Z</time></trkpt>
<trkpt lat="47.32756600" lon="0.61385900"><ele></ele><time>2014-6-17T6:42:8Z</time></trkpt>
<trkpt lat="47.32705900" lon="0.61352500"><ele></ele><time>2014-6-17T6:42:11Z</time></trkpt>
<trkpt lat="47.32664900" lon="0.61325000"><ele></ele><time>2014-6-17T6:42:14Z</time></trkpt>
<trkpt lat="47.32642600" lon="0.61310800"><ele></ele><time>2014-6-17T6:42:17Z</time></trkpt>
<trkpt lat="47.32592200" lon="0.61277400"><ele></ele><time>2014-6-17T6:42:20Z</time></trkpt>
<trkpt lat="47.32541200" lon="0.61244700"><ele></ele><time>2014-6-17T6:42:23Z</time></trkpt>
<trkpt lat="47.32510400" lon="0.61223200"><ele></ele><time>2014-6-17T6:42:26Z</time></trkpt>
<trkpt lat="47.32493200" lon="0.61197700"><ele></ele><time>2014-6-17T6:42:29Z</time></trkpt>
<trkpt lat="47.32488100" lon="0.61177700"><ele></ele><time>2014-6-17T6:42:32Z</time></trkpt>
<trkpt lat="47.32486600" lon="0.61102300"><ele></ele><time>2014-6-17T6:42:35Z</time></trkpt>
<trkpt lat="47.32486000" lon="0.61078900"><ele></ele><time>2014-6-17T6:42:38Z</time></trkpt>
<trkpt lat="47.32485900" lon="0.61048100"><ele></ele><time>2014-6-17T6:42:41Z</time></trkpt>
<trkpt lat="47.32484400" lon="0.61002300"><ele></ele><time>2014-6-17T6:42:44Z</time></trkpt>
<trkpt lat="47.32481900" lon="0.60941100"><ele></ele><time>2014-6-17T6:42:47Z</time></trkpt>
<trkpt lat="47.32481800" lon="0.60869200"><ele></ele><time>2014-6-17T6:42:50Z</time></trkpt>
<trkpt lat="47.32481900" lon="0.60854000"><ele></ele><time>2014-6-17T6:42:53Z</time></trkpt>
<trkpt lat="47.32482300" lon="0.60801100"><ele></ele><time>2014-6-17T6:42:56Z</time></trkpt>
<trkpt lat="47.32481900" lon="0.60755300"><ele></ele><time>2014-6-17T6:42:59Z</time></trkpt>
<trkpt lat="47.32481600" lon="0.60732100"><ele></ele><time>2014-6-17T6:43:2Z</time></trkpt>
<trkpt lat="47.32471600" lon="0.60700300"><ele></ele><time>2014-6-17T6:43:5Z</time></trkpt>
<trkpt lat="47.32461800" lon="0.60696500"><ele></ele><time>2014-6-17T6:43:8Z</time></trkpt>
<trkpt lat="47.32437900" lon="0.60691500"><ele></ele><time>2014-6-17T6:43:11Z</time></trkpt>
<trkpt lat="47.32423600" lon="0.60677300"><ele></ele><time>2014-6-17T6:43:14Z</time></trkpt>
<trkpt lat="47.32405700" lon="0.60651500"><ele></ele><time>2014-6-17T6:43:17Z</time></trkpt>
<trkpt lat="47.32395900" lon="0.60623300"><ele></ele><time>2014-6-17T6:43:20Z</time></trkpt>
<trkpt lat="47.32385000" lon="0.60611200"><ele></ele><time>2014-6-17T6:43:23Z</time></trkpt>
<trkpt lat="47.32365400" lon="0.60604200"><ele></ele><time>2014-6-17T6:43:26Z</time></trkpt>
<trkpt lat="47.32345700" lon="0.60597100"><ele></ele><time>2014-6-17T6:43:29Z</time></trkpt>
<trkpt lat="47.32336300" lon="0.60592800"><ele></ele><time>2014-6-17T6:43:32Z</time></trkpt>
<trkpt lat="47.32317600" lon="0.60587100"><ele></ele><time>2014-6-17T6:43:35Z</time></trkpt>
<trkpt lat="47.32294700" lon="0.60582300"><ele></ele><time>2014-6-17T6:43:38Z</time></trkpt>
<trkpt lat="47.32274800" lon="0.60594100"><ele></ele><time>2014-6-17T6:43:41Z</time></trkpt>
<trkpt lat="47.32271900" lon="0.60597800"><ele></ele><time>2014-6-17T6:43:44Z</time></trkpt>
<trkpt lat="47.32258800" lon="0.60602200"><ele></ele><time>2014-6-17T6:43:47Z</time></trkpt>
<trkpt lat="47.32236800" lon="0.60601200"><ele></ele><time>2014-6-17T6:43:50Z</time></trkpt>
<trkpt lat="47.32218700" lon="0.60596900"><ele></ele><time>2014-6-17T6:43:53Z</time></trkpt>
<trkpt lat="47.32194900" lon="0.60595000"><ele></ele><time>2014-6-17T6:43:56Z</time></trkpt>
<trkpt lat="47.32150300" lon="0.60595000"><ele></ele><time>2014-6-17T6:43:59Z</time></trkpt>
<trkpt lat="47.32111700" lon="0.60593600"><ele></ele><time>2014-6-17T6:44:2Z</time></trkpt>
<trkpt lat="47.32084600" lon="0.60593200"><ele></ele><time>2014-6-17T6:44:5Z</time></trkpt>
<trkpt lat="47.32072200" lon="0.60587900"><ele></ele><time>2014-6-17T6:44:8Z</time></trkpt>
<trkpt lat="47.32063400" lon="0.60583900"><ele></ele><time>2014-6-17T6:44:11Z</time></trkpt>
<trkpt lat="47.32038300" lon="0.60575700"><ele></ele><time>2014-6-17T6:44:14Z</time></trkpt>
<trkpt lat="47.32026200" lon="0.60568700"><ele></ele><time>2014-6-17T6:44:17Z</time></trkpt>
<trkpt lat="47.31997500" lon="0.60554900"><ele></ele><time>2014-6-17T6:44:20Z</time></trkpt>
<trkpt lat="47.31994400" lon="0.60553600"><ele></ele><time>2014-6-17T6:44:23Z</time></trkpt>
<trkpt lat="47.31980400" lon="0.60546000"><ele></ele><time>2014-6-17T6:44:26Z</time></trkpt>
<trkpt lat="47.31969600" lon="0.60537500"><ele></ele><time>2014-6-17T6:44:29Z</time></trkpt>
<trkpt lat="47.31939600" lon="0.60519500"><ele></ele><time>2014-6-17T6:44:32Z</time></trkpt>
<trkpt lat="47.31927400" lon="0.60513100"><ele></ele><time>2014-6-17T6:44:35Z</time></trkpt>
<trkpt lat="47.31907400" lon="0.60500800"><ele></ele><time>2014-6-17T6:44:38Z</time></trkpt>
<trkpt lat="47.31892500" lon="0.60489600"><ele></ele><time>2014-6-17T6:44:41Z</time></trkpt>
<trkpt lat="47.31891400" lon="0.60473400"><ele></ele><time>2014-6-17T6:44:44Z</time></trkpt>
<trkpt lat="47.31893900" lon="0.60452400"><ele></ele><time>2014-6-17T6:44:47Z</time></trkpt>
<trkpt lat="47.31894900" lon="0.60437500"><ele></ele><time>2014-6-17T6:44:50Z</time></trkpt>
<trkpt lat="47.31897900" lon="0.60427000"><ele></ele><time>2014-6-17T6:44:53Z</time></trkpt>
<trkpt lat="47.31897800" lon="0.60420000"><ele></ele><time>2014-6-17T6:44:56Z</time></trkpt>
<trkpt lat="47.31893500" lon="0.60400600"><ele></ele><time>2014-6-17T6:44:59Z</time></trkpt>
<trkpt lat="47.31900800" lon="0.60374900"><ele></ele><time>2014-6-17T6:45:2Z</time></trkpt>
<trkpt lat="47.31915400" lon="0.60333300"><ele></ele><time>2014-6-17T6:45:5Z</time></trkpt>
<trkpt lat="47.31922800" lon="0.60291800"><ele></ele><time>2014-6-17T6:45:8Z</time></trkpt>
<trkpt lat="47.31937500" lon="0.60191900"><ele></ele><time>2014-6-17T6:45:11Z</time></trkpt>
<trkpt lat="47.31938200" lon="0.60178200"><ele></ele><time>2014-6-17T6:45:14Z</time></trkpt>
<trkpt lat="47.31942500" lon="0.60152100"><ele></ele><time>2014-6-17T6:45:17Z</time></trkpt>
<trkpt lat="47.31946500" lon="0.60133700"><ele></ele><time>2014-6-17T6:45:20Z</time></trkpt>
<trkpt lat="47.31968000" lon="0.60084000"><ele></ele><time>2014-6-17T6:45:23Z</time></trkpt>
<trkpt lat="47.31970100" lon="0.60074600"><ele></ele><time>2014-6-17T6:45:26Z</time></trkpt>
<trkpt lat="47.31956200" lon="0.60040600"><ele></ele><time>2014-6-17T6:45:29Z</time></trkpt>
<trkpt lat="47.31947200" lon="0.60032700"><ele></ele><time>2014-6-17T6:45:32Z</time></trkpt>
<trkpt lat="47.31888700" lon="0.59996100"><ele></ele><time>2014-6-17T6:45:35Z</time></trkpt>
<trkpt lat="47.31840200" lon="0.59963700"><ele></ele><time>2014-6-17T6:45:38Z</time></trkpt>
<trkpt lat="47.31811800" lon="0.59942200"><ele></ele><time>2014-6-17T6:45:41Z</time></trkpt>
<trkpt lat="47.31765000" lon="0.59911900"><ele></ele><time>2014-6-17T6:45:44Z</time></trkpt>
<trkpt lat="47.31719600" lon="0.59876400"><ele></ele><time>2014-6-17T6:45:47Z</time></trkpt>
<trkpt lat="47.31710300" lon="0.59868300"><ele></ele><time>2014-6-17T6:45:50Z</time></trkpt>
<trkpt lat="47.31695600" lon="0.59853500"><ele></ele><time>2014-6-17T6:45:53Z</time></trkpt>
<trkpt lat="47.31673200" lon="0.59827000"><ele></ele><time>2014-6-17T6:45:56Z</time></trkpt>
<trkpt lat="47.31635300" lon="0.59783900"><ele></ele><time>2014-6-17T6:45:59Z</time></trkpt>
<trkpt lat="47.31619300" lon="0.59764800"><ele></ele><time>2014-6-17T6:46:2Z</time></trkpt>
<trkpt lat="47.31585400" lon="0.59719400"><ele></ele><time>2014-6-17T6:46:5Z</time></trkpt>
<trkpt lat="47.31556100" lon="0.59677600"><ele></ele><time>2014-6-17T6:46:8Z</time></trkpt>
<trkpt lat="47.31519100" lon="0.59624200"><ele></ele><time>2014-6-17T6:46:11Z</time></trkpt>
<trkpt lat="47.31484600" lon="0.59576300"><ele></ele><time>2014-6-17T6:46:14Z</time></trkpt>
<trkpt lat="47.31471000" lon="0.59558200"><ele></ele><time>2014-6-17T6:46:17Z</time></trkpt>
<trkpt lat="47.31457800" lon="0.59539500"><ele></ele><time>2014-6-17T6:46:20Z</time></trkpt>
<trkpt lat="47.31439100" lon="0.59511600"><ele></ele><time>2014-6-17T6:46:23Z</time></trkpt>
<trkpt lat="47.31418800" lon="0.59512200"><ele></ele><time>2014-6-17T6:46:26Z</time></trkpt>
<trkpt lat="47.31371100" lon="0.59533700"><ele></ele><time>2014-6-17T6:46:29Z</time></trkpt>
<trkpt lat="47.31352500" lon="0.59541100"><ele></ele><time>2014-6-17T6:46:32Z</time></trkpt>
<trkpt lat="47.31338300" lon="0.59546600"><ele></ele><time>2014-6-17T6:46:35Z</time></trkpt>
<trkpt lat="47.31323100" lon="0.59548000"><ele></ele><time>2014-6-17T6:46:38Z</time></trkpt>
<trkpt lat="47.31278600" lon="0.59538900"><ele></ele><time>2014-6-17T6:46:41Z</time></trkpt>
<trkpt lat="47.31220300" lon="0.59518400"><ele></ele><time>2014-6-17T6:46:44Z</time></trkpt>
<trkpt lat="47.31170500" lon="0.59503500"><ele></ele><time>2014-6-17T6:46:47Z</time></trkpt>
<trkpt lat="47.31161000" lon="0.59501400"><ele></ele><time>2014-6-17T6:46:50Z</time></trkpt>
<trkpt lat="47.31101100" lon="0.59474900"><ele></ele><time>2014-6-17T6:46:53Z</time></trkpt>
<trkpt lat="47.31055000" lon="0.59454300"><ele></ele><time>2014-6-17T6:46:56Z</time></trkpt>
<trkpt lat="47.30995700" lon="0.59429500"><ele></ele><time>2014-6-17T6:46:59Z</time></trkpt>
<trkpt lat="47.30990800" lon="0.59427900"><ele></ele><time>2014-6-17T6:47:2Z</time></trkpt>
<trkpt lat="47.30942300" lon="0.59406700"><ele></ele><time>2014-6-17T6:47:5Z</time></trkpt>
<trkpt lat="47.30899300" lon="0.59384200"><ele></ele><time>2014-6-17T6:47:8Z</time></trkpt>
<trkpt lat="47.30882800" lon="0.59353900"><ele></ele><time>2014-6-17T6:47:11Z</time></trkpt>
<trkpt lat="47.30874800" lon="0.59294600"><ele></ele><time>2014-6-17T6:47:14Z</time></trkpt>
<trkpt lat="47.30869300" lon="0.59234200"><ele></ele><time>2014-6-17T6:47:17Z</time></trkpt>
<trkpt lat="47.30865600" lon="0.59173800"><ele></ele><time>2014-6-17T6:47:20Z</time></trkpt>
<trkpt lat="47.30861600" lon="0.59106200"><ele></ele><time>2014-6-17T6:47:23Z</time></trkpt>
<trkpt lat="47.30857300" lon="0.59032900"><ele></ele><time>2014-6-17T6:47:26Z</time></trkpt>
<trkpt lat="47.30856800" lon="0.59026100"><ele></ele><time>2014-6-17T6:47:29Z</time></trkpt>
<trkpt lat="47.30853000" lon="0.58958100"><ele></ele><time>2014-6-17T6:47:32Z</time></trkpt>
<trkpt lat="47.30849400" lon="0.58894900"><ele></ele><time>2014-6-17T6:47:35Z</time></trkpt>
<trkpt lat="47.30858300" lon="0.58864100"><ele></ele><time>2014-6-17T6:47:38Z</time></trkpt>
<trkpt lat="47.30867900" lon="0.58858600"><ele></ele><time>2014-6-17T6:47:41Z</time></trkpt>
<trkpt lat="47.30912800" lon="0.58844500"><ele></ele><time>2014-6-17T6:47:44Z</time></trkpt>
<trkpt lat="47.30951000" lon="0.58829000"><ele></ele><time>2014-6-17T6:47:47Z</time></trkpt>
<trkpt lat="47.30969300" lon="0.58801600"><ele></ele><time>2014-6-17T6:47:50Z</time></trkpt>
<trkpt lat="47.30965200" lon="0.58789200"><ele></ele><time>2014-6-17T6:47:53Z</time></trkpt>
<trkpt lat="47.30959300" lon="0.58791100"><ele></ele><time>2014-6-17T6:47:56Z</time></trkpt>
<trkpt lat="47.30923200" lon="0.58812600"><ele></ele><time>2014-6-17T6:47:59Z</time></trkpt>
<trkpt lat="47.30918900" lon="0.58814200"><ele></ele><time>2014-6-17T6:48:2Z</time></trkpt>
<trkpt lat="47.30884600" lon="0.58816800"><ele></ele><time>2014-6-17T6:48:5Z</time></trkpt>
<trkpt lat="47.30876100" lon="0.58817000"><ele></ele><time>2014-6-17T6:48:8Z</time></trkpt>
<trkpt lat="47.30858500" lon="0.58821400"><ele></ele><time>2014-6-17T6:48:11Z</time></trkpt>
<trkpt lat="47.30811000" lon="0.58830300"><ele></ele><time>2014-6-17T6:48:14Z</time></trkpt>
<trkpt lat="47.30797600" lon="0.58831900"><ele></ele><time>2014-6-17T6:48:17Z</time></trkpt>
<trkpt lat="47.30757600" lon="0.58841500"><ele></ele><time>2014-6-17T6:48:20Z</time></trkpt>
<trkpt lat="47.30751900" lon="0.58843500"><ele></ele><time>2014-6-17T6:48:23Z</time></trkpt>
<trkpt lat="47.30715400" lon="0.58868300"><ele></ele><time>2014-6-17T6:48:26Z</time></trkpt>
<trkpt lat="47.30696300" lon="0.58887800"><ele></ele><time>2014-6-17T6:48:29Z</time></trkpt>
<trkpt lat="47.30684300" lon="0.58904200"><ele></ele><time>2014-6-17T6:48:32Z</time></trkpt>
<trkpt lat="47.30667900" lon="0.58932800"><ele></ele><time>2014-6-17T6:48:35Z</time></trkpt>
<trkpt lat="47.30649600" lon="0.58987700"><ele></ele><time>2014-6-17T6:48:38Z</time></trkpt>
<trkpt lat="47.30626600" lon="0.59018500"><ele></ele><time>2014-6-17T6:48:41Z</time></trkpt>
<trkpt lat="47.30604300" lon="0.59032000"><ele></ele><time>2014-6-17T6:48:44Z</time></trkpt>
<trkpt lat="47.30558100" lon="0.59032700"><ele></ele><time>2014-6-17T6:48:47Z</time></trkpt>
<trkpt lat="47.30492100" lon="0.59037400"><ele></ele><time>2014-6-17T6:48:50Z</time></trkpt>
<trkpt lat="47.30447900" lon="0.59041300"><ele></ele><time>2014-6-17T6:48:53Z</time></trkpt>
<trkpt lat="47.30399900" lon="0.59045900"><ele></ele><time>2014-6-17T6:48:56Z</time></trkpt>
<trkpt lat="47.30368500" lon="0.59047700"><ele></ele><time>2014-6-17T6:48:59Z</time></trkpt>
<trkpt lat="47.30358300" lon="0.59047900"><ele></ele><time>2014-6-17T6:49:2Z</time></trkpt>
<trkpt lat="47.30318900" lon="0.59032800"><ele></ele><time>2014-6-17T6:49:5Z</time></trkpt>
<trkpt lat="47.30275900" lon="0.59010100"><ele></ele><time>2014-6-17T6:49:8Z</time></trkpt>
<trkpt lat="47.30246600" lon="0.58994400"><ele></ele><time>2014-6-17T6:49:11Z</time></trkpt>
<trkpt lat="47.30217700" lon="0.58979100"><ele></ele><time>2014-6-17T6:49:14Z</time></trkpt>
<trkpt lat="47.30198600" lon="0.58981800"><ele></ele><time>2014-6-17T6:49:17Z</time></trkpt>
<trkpt lat="47.30144700" lon="0.59013600"><ele></ele><time>2014-6-17T6:49:20Z</time></trkpt>
<trkpt lat="47.30105200" lon="0.59036900"><ele></ele><time>2014-6-17T6:49:23Z</time></trkpt>
<trkpt lat="47.30059800" lon="0.59063400"><ele></ele><time>2014-6-17T6:49:26Z</time></trkpt>
<trkpt lat="47.30005700" lon="0.59094700"><ele></ele><time>2014-6-17T6:49:29Z</time></trkpt>
<trkpt lat="47.29956900" lon="0.59122900"><ele></ele><time>2014-6-17T6:49:32Z</time></trkpt>
<trkpt lat="47.29947300" lon="0.59128300"><ele></ele><time>2014-6-17T6:49:35Z</time></trkpt>
<trkpt lat="47.29916500" lon="0.59131300"><ele></ele><time>2014-6-17T6:49:38Z</time></trkpt>
<trkpt lat="47.29895700" lon="0.59128000"><ele></ele><time>2014-6-17T6:49:41Z</time></trkpt>
<trkpt lat="47.29850900" lon="0.59122600"><ele></ele><time>2014-6-17T6:49:44Z</time></trkpt>
<trkpt lat="47.29841800" lon="0.59121100"><ele></ele><time>2014-6-17T6:49:47Z</time></trkpt>
<trkpt lat="47.29833700" lon="0.59118700"><ele></ele><time>2014-6-17T6:49:50Z</time></trkpt>
<trkpt lat="47.29828200" lon="0.59103100"><ele></ele><time>2014-6-17T6:49:53Z</time></trkpt>
<trkpt lat="47.29838900" lon="0.59051200"><ele></ele><time>2014-6-17T6:49:56Z</time></trkpt>
<trkpt lat="47.29845700" lon="0.59008800"><ele></ele><time>2014-6-17T6:49:59Z</time></trkpt>
<trkpt lat="47.29855100" lon="0.58960000"><ele></ele><time>2014-6-17T6:50:2Z</time></trkpt>
<trkpt lat="47.29867400" lon="0.58905700"><ele></ele><time>2014-6-17T6:50:5Z</time></trkpt>
<trkpt lat="47.29868200" lon="0.58900000"><ele></ele><time>2014-6-17T6:50:8Z</time></trkpt>
<trkpt lat="47.29857600" lon="0.58884000"><ele></ele><time>2014-6-17T6:50:11Z</time></trkpt>
<trkpt lat="47.29848700" lon="0.58880900"><ele></ele><time>2014-6-17T6:50:14Z</time></trkpt>
<trkpt lat="47.29839800" lon="0.58876500"><ele></ele><time>2014-6-17T6:50:17Z</time></trkpt>
<trkpt lat="47.29798900" lon="0.58857400"><ele></ele><time>2014-6-17T6:50:20Z</time></trkpt>
<trkpt lat="47.29755700" lon="0.58830400"><ele></ele><time>2014-6-17T6:50:23Z</time></trkpt>
<trkpt lat="47.29721200" lon="0.58787100"><ele></ele><time>2014-6-17T6:50:26Z</time></trkpt>
<trkpt lat="47.29709100" lon="0.58770100"><ele></ele><time>2014-6-17T6:50:29Z</time></trkpt>
<trkpt lat="47.29674800" lon="0.58732700"><ele></ele><time>2014-6-17T6:50:32Z</time></trkpt>
<trkpt lat="47.29654000" lon="0.58716300"><ele></ele><time>2014-6-17T6:50:35Z</time></trkpt>
<trkpt lat="47.29612000" lon="0.58691000"><ele></ele><time>2014-6-17T6:50:38Z</time></trkpt>
<trkpt lat="47.29574100" lon="0.58668300"><ele></ele><time>2014-6-17T6:50:41Z</time></trkpt>
<trkpt lat="47.29537000" lon="0.58647100"><ele></ele><time>2014-6-17T6:50:44Z</time></trkpt>
<trkpt lat="47.29507500" lon="0.58630700"><ele></ele><time>2014-6-17T6:50:47Z</time></trkpt>
<trkpt lat="47.29481500" lon="0.58616000"><ele></ele><time>2014-6-17T6:50:50Z</time></trkpt>
<trkpt lat="47.29447700" lon="0.58598300"><ele></ele><time>2014-6-17T6:50:53Z</time></trkpt>
<trkpt lat="47.29429400" lon="0.58584300"><ele></ele><time>2014-6-17T6:50:56Z</time></trkpt>
<trkpt lat="47.29429000" lon="0.58565300"><ele></ele><time>2014-6-17T6:50:59Z</time></trkpt>
<trkpt lat="47.29435900" lon="0.58511700"><ele></ele><time>2014-6-17T6:51:2Z</time></trkpt>
<trkpt lat="47.29439100" lon="0.58493500"><ele></ele><time>2014-6-17T6:51:5Z</time></trkpt>
<trkpt lat="47.29447400" lon="0.58445600"><ele></ele><time>2014-6-17T6:51:8Z</time></trkpt>
<trkpt lat="47.29453200" lon="0.58392100"><ele></ele><time>2014-6-17T6:51:11Z</time></trkpt>
<trkpt lat="47.29459000" lon="0.58338300"><ele></ele><time>2014-6-17T6:51:14Z</time></trkpt>
<trkpt lat="47.29465300" lon="0.58269200"><ele></ele><time>2014-6-17T6:51:17Z</time></trkpt>
<trkpt lat="47.29468200" lon="0.58233500"><ele></ele><time>2014-6-17T6:51:20Z</time></trkpt>
<trkpt lat="47.29472100" lon="0.58167900"><ele></ele><time>2014-6-17T6:51:23Z</time></trkpt>
<trkpt lat="47.29472200" lon="0.58160300"><ele></ele><time>2014-6-17T6:51:26Z</time></trkpt>
<trkpt lat="47.29466100" lon="0.58085900"><ele></ele><time>2014-6-17T6:51:29Z</time></trkpt>
<trkpt lat="47.29454600" lon="0.58015200"><ele></ele><time>2014-6-17T6:51:32Z</time></trkpt>
<trkpt lat="47.29438900" lon="0.57922500"><ele></ele><time>2014-6-17T6:51:35Z</time></trkpt>
<trkpt lat="47.29423700" lon="0.57835100"><ele></ele><time>2014-6-17T6:51:38Z</time></trkpt>
<trkpt lat="47.29407000" lon="0.57747600"><ele></ele><time>2014-6-17T6:51:41Z</time></trkpt>
<trkpt lat="47.29384800" lon="0.57660900"><ele></ele><time>2014-6-17T6:51:44Z</time></trkpt>
<trkpt lat="47.29365600" lon="0.57587100"><ele></ele><time>2014-6-17T6:51:47Z</time></trkpt>
<trkpt lat="47.29346100" lon="0.57512300"><ele></ele><time>2014-6-17T6:51:50Z</time></trkpt>
<trkpt lat="47.29336000" lon="0.57485400"><ele></ele><time>2014-6-17T6:51:53Z</time></trkpt>
<trkpt lat="47.29325900" lon="0.57469400"><ele></ele><time>2014-6-17T6:51:56Z</time></trkpt>
<trkpt lat="47.29293700" lon="0.57412500"><ele></ele><time>2014-6-17T6:51:59Z</time></trkpt>
<trkpt lat="47.29260800" lon="0.57347000"><ele></ele><time>2014-6-17T6:52:2Z</time></trkpt>
<trkpt lat="47.29256600" lon="0.57333400"><ele></ele><time>2014-6-17T6:52:5Z</time></trkpt>
<trkpt lat="47.29252100" lon="0.57274200"><ele></ele><time>2014-6-17T6:52:8Z</time></trkpt>
<trkpt lat="47.29252800" lon="0.57252200"><ele></ele><time>2014-6-17T6:52:11Z</time></trkpt>
<trkpt lat="47.29254300" lon="0.57200300"><ele></ele><time>2014-6-17T6:52:14Z</time></trkpt>
<trkpt lat="47.29256100" lon="0.57123400"><ele></ele><time>2014-6-17T6:52:17Z</time></trkpt>
<trkpt lat="47.29257500" lon="0.57047200"><ele></ele><time>2014-6-17T6:52:20Z</time></trkpt>
<trkpt lat="47.29259400" lon="0.56971500"><ele></ele><time>2014-6-17T6:52:23Z</time></trkpt>
<trkpt lat="47.29260200" lon="0.56917300"><ele></ele><time>2014-6-17T6:52:26Z</time></trkpt>
<trkpt lat="47.29248900" lon="0.56892700"><ele></ele><time>2014-6-17T6:52:29Z</time></trkpt>
<trkpt lat="47.29229200" lon="0.56880100"><ele></ele><time>2014-6-17T6:52:32Z</time></trkpt>
<trkpt lat="47.29180900" lon="0.56843700"><ele></ele><time>2014-6-17T6:52:35Z</time></trkpt>
<trkpt lat="47.29148300" lon="0.56803900"><ele></ele><time>2014-6-17T6:52:38Z</time></trkpt>
<trkpt lat="47.29129900" lon="0.56776600"><ele></ele><time>2014-6-17T6:52:41Z</time></trkpt>
<trkpt lat="47.29100300" lon="0.56734200"><ele></ele><time>2014-6-17T6:52:44Z</time></trkpt>
<trkpt lat="47.29064300" lon="0.56686900"><ele></ele><time>2014-6-17T6:52:47Z</time></trkpt>
<trkpt lat="47.29037400" lon="0.56652300"><ele></ele><time>2014-6-17T6:52:50Z</time></trkpt>
<trkpt lat="47.28992500" lon="0.56597600"><ele></ele><time>2014-6-17T6:52:53Z</time></trkpt>
<trkpt lat="47.28934300" lon="0.56527200"><ele></ele><time>2014-6-17T6:52:56Z</time></trkpt>
<trkpt lat="47.28904500" lon="0.56475200"><ele></ele><time>2014-6-17T6:52:59Z</time></trkpt>
<trkpt lat="47.28876700" lon="0.56404600"><ele></ele><time>2014-6-17T6:53:2Z</time></trkpt>
<trkpt lat="47.28856100" lon="0.56328500"><ele></ele><time>2014-6-17T6:53:5Z</time></trkpt>
<trkpt lat="47.28838300" lon="0.56240900"><ele></ele><time>2014-6-17T6:53:8Z</time></trkpt>
<trkpt lat="47.28816500" lon="0.56174000"><ele></ele><time>2014-6-17T6:53:11Z</time></trkpt>
<trkpt lat="47.28786500" lon="0.56111300"><ele></ele><time>2014-6-17T6:53:14Z</time></trkpt>
<trkpt lat="47.28751000" lon="0.56042000"><ele></ele><time>2014-6-17T6:53:17Z</time></trkpt>
<trkpt lat="47.28707100" lon="0.55959200"><ele></ele><time>2014-6-17T6:53:20Z</time></trkpt>
<trkpt lat="47.28668900" lon="0.55893500"><ele></ele><time>2014-6-17T6:53:23Z</time></trkpt>
<trkpt lat="47.28617200" lon="0.55818400"><ele></ele><time>2014-6-17T6:53:26Z</time></trkpt>
<trkpt lat="47.28576100" lon="0.55762400"><ele></ele><time>2014-6-17T6:53:29Z</time></trkpt>
<trkpt lat="47.28560600" lon="0.55745500"><ele></ele><time>2014-6-17T6:53:32Z</time></trkpt>
<trkpt lat="47.28527600" lon="0.55715300"><ele></ele><time>2014-6-17T6:53:35Z</time></trkpt>
<trkpt lat="47.28511400" lon="0.55687000"><ele></ele><time>2014-6-17T6:53:38Z</time></trkpt>
<trkpt lat="47.28481000" lon="0.55593900"><ele></ele><time>2014-6-17T6:53:41Z</time></trkpt>
<trkpt lat="47.28456600" lon="0.55520700"><ele></ele><time>2014-6-17T6:53:44Z</time></trkpt>
<trkpt lat="47.28426500" lon="0.55442600"><ele></ele><time>2014-6-17T6:53:47Z</time></trkpt>
<trkpt lat="47.28416100" lon="0.55420400"><ele></ele><time>2014-6-17T6:53:50Z</time></trkpt>
<trkpt lat="47.28409800" lon="0.55405700"><ele></ele><time>2014-6-17T6:53:53Z</time></trkpt>
<trkpt lat="47.28402300" lon="0.55388900"><ele></ele><time>2014-6-17T6:53:56Z</time></trkpt>
<trkpt lat="47.28386400" lon="0.55352800"><ele></ele><time>2014-6-17T6:53:59Z</time></trkpt>
<trkpt lat="47.28367600" lon="0.55316000"><ele></ele><time>2014-6-17T6:54:2Z</time></trkpt>
<trkpt lat="47.28350700" lon="0.55291800"><ele></ele><time>2014-6-17T6:54:5Z</time></trkpt>
<trkpt lat="47.28329800" lon="0.55279400"><ele></ele><time>2014-6-17T6:54:8Z</time></trkpt>
<trkpt lat="47.28322500" lon="0.55278800"><ele></ele><time>2014-6-17T6:54:11Z</time></trkpt>
<trkpt lat="47.28296300" lon="0.55285700"><ele></ele><time>2014-6-17T6:54:14Z</time></trkpt>
<trkpt lat="47.28271000" lon="0.55296400"><ele></ele><time>2014-6-17T6:54:17Z</time></trkpt>
<trkpt lat="47.28262000" lon="0.55298800"><ele></ele><time>2014-6-17T6:54:20Z</time></trkpt>
<trkpt lat="47.28247600" lon="0.55313500"><ele></ele><time>2014-6-17T6:54:23Z</time></trkpt>
<trkpt lat="47.28240900" lon="0.55319100"><ele></ele><time>2014-6-17T6:54:26Z</time></trkpt>
<trkpt lat="47.28229700" lon="0.55345300"><ele></ele><time>2014-6-17T6:54:29Z</time></trkpt>
<trkpt lat="47.28216900" lon="0.55374200"><ele></ele><time>2014-6-17T6:54:32Z</time></trkpt>
<trkpt lat="47.28215400" lon="0.55378200"><ele></ele><time>2014-6-17T6:54:35Z</time></trkpt>
<trkpt lat="47.28212800" lon="0.55395200"><ele></ele><time>2014-6-17T6:54:38Z</time></trkpt>
<trkpt lat="47.28202400" lon="0.55433600"><ele></ele><time>2014-6-17T6:54:41Z</time></trkpt>
<trkpt lat="47.28198700" lon="0.55450400"><ele></ele><time>2014-6-17T6:54:44Z</time></trkpt>
<trkpt lat="47.28194300" lon="0.55458900"><ele></ele><time>2014-6-17T6:54:47Z</time></trkpt>
<trkpt lat="47.28187900" lon="0.55470800"><ele></ele><time>2014-6-17T6:54:50Z</time></trkpt>
<trkpt lat="47.28187200" lon="0.55473100"><ele></ele><time>2014-6-17T6:54:53Z</time></trkpt>
<trkpt lat="47.28184000" lon="0.55488400"><ele></ele><time>2014-6-17T6:54:56Z</time></trkpt>
<trkpt lat="47.28182900" lon="0.55506500"><ele></ele><time>2014-6-17T6:54:59Z</time></trkpt>
<trkpt lat="47.28183000" lon="0.55525500"><ele></ele><time>2014-6-17T6:55:2Z</time></trkpt>
<trkpt lat="47.28184300" lon="0.55545400"><ele></ele><time>2014-6-17T6:55:5Z</time></trkpt>
<trkpt lat="47.28184700" lon="0.55555400"><ele></ele><time>2014-6-17T6:55:8Z</time></trkpt>
<trkpt lat="47.28187300" lon="0.55584800"><ele></ele><time>2014-6-17T6:55:11Z</time></trkpt>
<trkpt lat="47.28189500" lon="0.55612100"><ele></ele><time>2014-6-17T6:55:14Z</time></trkpt>
<trkpt lat="47.28177900" lon="0.55626400"><ele></ele><time>2014-6-17T6:55:17Z</time></trkpt>
<trkpt lat="47.28165000" lon="0.55632300"><ele></ele><time>2014-6-17T6:55:20Z</time></trkpt>
<trkpt lat="47.28114700" lon="0.55653500"><ele></ele><time>2014-6-17T6:55:23Z</time></trkpt>
<trkpt lat="47.28078700" lon="0.55667200"><ele></ele><time>2014-6-17T6:55:26Z</time></trkpt>
<trkpt lat="47.28039500" lon="0.55682600"><ele></ele><time>2014-6-17T6:55:29Z</time></trkpt>
<trkpt lat="47.28003600" lon="0.55706500"><ele></ele><time>2014-6-17T6:55:32Z</time></trkpt>
<trkpt lat="47.27954700" lon="0.55739700"><ele></ele><time>2014-6-17T6:55:35Z</time></trkpt>
<trkpt lat="47.27929500" lon="0.55757500"><ele></ele><time>2014-6-17T6:55:38Z</time></trkpt>
<trkpt lat="47.27902200" lon="0.55765500"><ele></ele><time>2014-6-17T6:55:41Z</time></trkpt>
<trkpt lat="47.27893400" lon="0.55759000"><ele></ele><time>2014-6-17T6:55:44Z</time></trkpt>
<trkpt lat="47.27868700" lon="0.55737000"><ele></ele><time>2014-6-17T6:55:47Z</time></trkpt>
<trkpt lat="47.27844300" lon="0.55733400"><ele></ele><time>2014-6-17T6:55:50Z</time></trkpt>
<trkpt lat="47.27827900" lon="0.55741400"><ele></ele><time>2014-6-17T6:55:53Z</time></trkpt>
<trkpt lat="47.27818200" lon="0.55749900"><ele></ele><time>2014-6-17T6:55:56Z</time></trkpt>
<trkpt lat="47.27786400" lon="0.55789100"><ele></ele><time>2014-6-17T6:55:59Z</time></trkpt>
<trkpt lat="47.27768000" lon="0.55823700"><ele></ele><time>2014-6-17T6:56:2Z</time></trkpt>
<trkpt lat="47.27760300" lon="0.55841300"><ele></ele><time>2014-6-17T6:56:5Z</time></trkpt>
<trkpt lat="47.27756200" lon="0.55849900"><ele></ele><time>2014-6-17T6:56:8Z</time></trkpt>
<trkpt lat="47.27734600" lon="0.55889400"><ele></ele><time>2014-6-17T6:56:11Z</time></trkpt>
<trkpt lat="47.27731300" lon="0.55917700"><ele></ele><time>2014-6-17T6:56:14Z</time></trkpt>
<trkpt lat="47.27734200" lon="0.55941100"><ele></ele><time>2014-6-17T6:56:17Z</time></trkpt>
<trkpt lat="47.27739200" lon="0.55965700"><ele></ele><time>2014-6-17T6:56:20Z</time></trkpt>
<trkpt lat="47.27743200" lon="0.55990200"><ele></ele><time>2014-6-17T6:56:23Z</time></trkpt>
<trkpt lat="47.27749900" lon="0.56023700"><ele></ele><time>2014-6-17T6:56:26Z</time></trkpt>
<trkpt lat="47.27766000" lon="0.56062500"><ele></ele><time>2014-6-17T6:56:29Z</time></trkpt>
<trkpt lat="47.27773400" lon="0.56085100"><ele></ele><time>2014-6-17T6:56:32Z</time></trkpt>
<trkpt lat="47.27767300" lon="0.56091300"><ele></ele><time>2014-6-17T6:56:35Z</time></trkpt>
<trkpt lat="47.27762100" lon="0.56077800"><ele></ele><time>2014-6-17T6:56:38Z</time></trkpt>
<trkpt lat="47.27760800" lon="0.56073400"><ele></ele><time>2014-6-17T6:56:41Z</time></trkpt>
<trkpt lat="47.27747100" lon="0.56035700"><ele></ele><time>2014-6-17T6:56:44Z</time></trkpt>
<trkpt lat="47.27733500" lon="0.56005700"><ele></ele><time>2014-6-17T6:56:47Z</time></trkpt>
<trkpt lat="47.27721500" lon="0.55984300"><ele></ele><time>2014-6-17T6:56:50Z</time></trkpt>
<trkpt lat="47.27715400" lon="0.55973500"><ele></ele><time>2014-6-17T6:56:53Z</time></trkpt>
<trkpt lat="47.27700500" lon="0.55952700"><ele></ele><time>2014-6-17T6:56:56Z</time></trkpt>
<trkpt lat="47.27687300" lon="0.55937200"><ele></ele><time>2014-6-17T6:56:59Z</time></trkpt>
<trkpt lat="47.27671700" lon="0.55923500"><ele></ele><time>2014-6-17T6:57:2Z</time></trkpt>
<trkpt lat="47.27653900" lon="0.55912100"><ele></ele><time>2014-6-17T6:57:5Z</time></trkpt>
<trkpt lat="47.27635900" lon="0.55900800"><ele></ele><time>2014-6-17T6:57:8Z</time></trkpt>
<trkpt lat="47.27601500" lon="0.55887700"><ele></ele><time>2014-6-17T6:57:11Z</time></trkpt>
<trkpt lat="47.27596200" lon="0.55884600"><ele></ele><time>2014-6-17T6:57:14Z</time></trkpt>
<trkpt lat="47.27596000" lon="0.55885200"><ele></ele><time>2014-6-17T6:57:17Z</time></trkpt>
<trkpt lat="47.27584600" lon="0.55883200"><ele></ele><time>2014-6-17T6:57:20Z</time></trkpt>
<trkpt lat="47.27576600" lon="0.55879300"><ele></ele><time>2014-6-17T6:57:23Z</time></trkpt>
<trkpt lat="47.27563300" lon="0.55866100"><ele></ele><time>2014-6-17T6:57:26Z</time></trkpt>
<trkpt lat="47.27558400" lon="0.55857500"><ele></ele><time>2014-6-17T6:57:29Z</time></trkpt>
<trkpt lat="47.27550700" lon="0.55842100"><ele></ele><time>2014-6-17T6:57:32Z</time></trkpt>
<trkpt lat="47.27539800" lon="0.55802800"><ele></ele><time>2014-6-17T6:57:35Z</time></trkpt>
<trkpt lat="47.27537700" lon="0.55788000"><ele></ele><time>2014-6-17T6:57:38Z</time></trkpt>
<trkpt lat="47.27530500" lon="0.55752400"><ele></ele><time>2014-6-17T6:57:41Z</time></trkpt>
<trkpt lat="47.27529900" lon="0.55746100"><ele></ele><time>2014-6-17T6:57:44Z</time></trkpt>
<trkpt lat="47.27528400" lon="0.55734800"><ele></ele><time>2014-6-17T6:57:47Z</time></trkpt>
<trkpt lat="47.27528900" lon="0.55686600"><ele></ele><time>2014-6-17T6:57:50Z</time></trkpt>
<trkpt lat="47.27530900" lon="0.55631800"><ele></ele><time>2014-6-17T6:57:53Z</time></trkpt>
<trkpt lat="47.27536000" lon="0.55606200"><ele></ele><time>2014-6-17T6:57:56Z</time></trkpt>
<trkpt lat="47.27553100" lon="0.55562100"><ele></ele><time>2014-6-17T6:57:59Z</time></trkpt>
<trkpt lat="47.27565800" lon="0.55515900"><ele></ele><time>2014-6-17T6:58:2Z</time></trkpt>
<trkpt lat="47.27563900" lon="0.55483700"><ele></ele><time>2014-6-17T6:58:5Z</time></trkpt>
<trkpt lat="47.27548800" lon="0.55435800"><ele></ele><time>2014-6-17T6:58:8Z</time></trkpt>
<trkpt lat="47.27531600" lon="0.55382800"><ele></ele><time>2014-6-17T6:58:11Z</time></trkpt>
<trkpt lat="47.27516700" lon="0.55336600"><ele></ele><time>2014-6-17T6:58:14Z</time></trkpt>
<trkpt lat="47.27509500" lon="0.55291600"><ele></ele><time>2014-6-17T6:58:17Z</time></trkpt>
<trkpt lat="47.27505800" lon="0.55254600"><ele></ele><time>2014-6-17T6:58:20Z</time></trkpt>
<trkpt lat="47.27510500" lon="0.55236100"><ele></ele><time>2014-6-17T6:58:23Z</time></trkpt>
<trkpt lat="47.27511600" lon="0.55215400"><ele></ele><time>2014-6-17T6:58:26Z</time></trkpt>
<trkpt lat="47.27515700" lon="0.55197800"><ele></ele><time>2014-6-17T6:58:29Z</time></trkpt>
<trkpt lat="47.27517800" lon="0.55174300"><ele></ele><time>2014-6-17T6:58:32Z</time></trkpt>
<trkpt lat="47.27528100" lon="0.55132900"><ele></ele><time>2014-6-17T6:58:35Z</time></trkpt>
<trkpt lat="47.27546800" lon="0.55097900"><ele></ele><time>2014-6-17T6:58:38Z</time></trkpt>
<trkpt lat="47.27564500" lon="0.55072000"><ele></ele><time>2014-6-17T6:58:41Z</time></trkpt>
<trkpt lat="47.27580000" lon="0.55049300"><ele></ele><time>2014-6-17T6:58:44Z</time></trkpt>
<trkpt lat="47.27604400" lon="0.55031200"><ele></ele><time>2014-6-17T6:58:47Z</time></trkpt>
<trkpt lat="47.27622300" lon="0.55013200"><ele></ele><time>2014-6-17T6:58:50Z</time></trkpt>
<trkpt lat="47.27644100" lon="0.55009500"><ele></ele><time>2014-6-17T6:58:53Z</time></trkpt>
<trkpt lat="47.27667700" lon="0.55006300"><ele></ele><time>2014-6-17T6:58:56Z</time></trkpt>
<trkpt lat="47.27701600" lon="0.54988600"><ele></ele><time>2014-6-17T6:58:59Z</time></trkpt>
<trkpt lat="47.27728000" lon="0.54963400"><ele></ele><time>2014-6-17T6:59:2Z</time></trkpt>
<trkpt lat="47.27750400" lon="0.54940800"><ele></ele><time>2014-6-17T6:59:5Z</time></trkpt>
<trkpt lat="47.27768000" lon="0.54915600"><ele></ele><time>2014-6-17T6:59:8Z</time></trkpt>
<trkpt lat="47.27779200" lon="0.54877400"><ele></ele><time>2014-6-17T6:59:11Z</time></trkpt>
<trkpt lat="47.27782600" lon="0.54842500"><ele></ele><time>2014-6-17T6:59:14Z</time></trkpt>
<trkpt lat="47.27783800" lon="0.54807100"><ele></ele><time>2014-6-17T6:59:17Z</time></trkpt>
<trkpt lat="47.27781000" lon="0.54760300"><ele></ele><time>2014-6-17T6:59:20Z</time></trkpt>
<trkpt lat="47.27779100" lon="0.54714500"><ele></ele><time>2014-6-17T6:59:23Z</time></trkpt>
<trkpt lat="47.27787200" lon="0.54677300"><ele></ele><time>2014-6-17T6:59:26Z</time></trkpt>
<trkpt lat="47.27799600" lon="0.54639200"><ele></ele><time>2014-6-17T6:59:29Z</time></trkpt>
<trkpt lat="47.27814900" lon="0.54610800"><ele></ele><time>2014-6-17T6:59:32Z</time></trkpt>
<trkpt lat="47.27807000" lon="0.54598800"><ele></ele><time>2014-6-17T6:59:35Z</time></trkpt>
<trkpt lat="47.27792600" lon="0.54592200"><ele></ele><time>2014-6-17T6:59:38Z</time></trkpt>
<trkpt lat="47.27769300" lon="0.54576700"><ele></ele><time>2014-6-17T6:59:41Z</time></trkpt>
<trkpt lat="47.27741800" lon="0.54574600"><ele></ele><time>2014-6-17T6:59:44Z</time></trkpt>
<trkpt lat="47.27734800" lon="0.54576700"><ele></ele><time>2014-6-17T6:59:47Z</time></trkpt>
<trkpt lat="47.27712800" lon="0.54581300"><ele></ele><time>2014-6-17T6:59:50Z</time></trkpt>
<trkpt lat="47.27703800" lon="0.54583300"><ele></ele><time>2014-6-17T6:59:53Z</time></trkpt>
<trkpt lat="47.27694100" lon="0.54585300"><ele></ele><time>2014-6-17T6:59:56Z</time></trkpt>
<trkpt lat="47.27675700" lon="0.54589800"><ele></ele><time>2014-6-17T6:59:59Z</time></trkpt>
<trkpt lat="47.27670500" lon="0.54591100"><ele></ele><time>2014-6-17T7:0:2Z</time></trkpt>
<trkpt lat="47.27658500" lon="0.54591000"><ele></ele><time>2014-6-17T7:0:5Z</time></trkpt>
<trkpt lat="47.27642600" lon="0.54590000"><ele></ele><time>2014-6-17T7:0:8Z</time></trkpt>
<trkpt lat="47.27629900" lon="0.54589500"><ele></ele><time>2014-6-17T7:0:11Z</time></trkpt>
<trkpt lat="47.27618900" lon="0.54592400"><ele></ele><time>2014-6-17T7:0:14Z</time></trkpt>
<trkpt lat="47.27612000" lon="0.54591600"><ele></ele><time>2014-6-17T7:0:17Z</time></trkpt>
<trkpt lat="47.27592600" lon="0.54605100"><ele></ele><time>2014-6-17T7:0:20Z</time></trkpt>
<trkpt lat="47.27579500" lon="0.54615900"><ele></ele><time>2014-6-17T7:0:23Z</time></trkpt>
<trkpt lat="47.27575300" lon="0.54616700"><ele></ele><time>2014-6-17T7:0:26Z</time></trkpt>
<trkpt lat="47.27529100" lon="0.54613500"><ele></ele><time>2014-6-17T7:0:29Z</time></trkpt>
<trkpt lat="47.27500600" lon="0.54600000"><ele></ele><time>2014-6-17T7:0:32Z</time></trkpt>
<trkpt lat="47.27488300" lon="0.54575700"><ele></ele><time>2014-6-17T7:0:35Z</time></trkpt>
<trkpt lat="47.27469500" lon="0.54552500"><ele></ele><time>2014-6-17T7:0:38Z</time></trkpt>
<trkpt lat="47.27460600" lon="0.54537800"><ele></ele><time>2014-6-17T7:0:41Z</time></trkpt>
<trkpt lat="47.27451400" lon="0.54535100"><ele></ele><time>2014-6-17T7:0:44Z</time></trkpt>
<trkpt lat="47.27451300" lon="0.54559700"><ele></ele><time>2014-6-17T7:0:47Z</time></trkpt>
<trkpt lat="47.27451100" lon="0.54566500"><ele></ele><time>2014-6-17T7:0:50Z</time></trkpt>
<trkpt lat="47.27445500" lon="0.54601300"><ele></ele><time>2014-6-17T7:0:53Z</time></trkpt>
<trkpt lat="47.27443800" lon="0.54620200"><ele></ele><time>2014-6-17T7:0:56Z</time></trkpt>
<trkpt lat="47.27443800" lon="0.54629600"><ele></ele><time>2014-6-17T7:0:59Z</time></trkpt>
<trkpt lat="47.27449500" lon="0.54648000"><ele></ele><time>2014-6-17T7:1:2Z</time></trkpt>
<trkpt lat="47.27451000" lon="0.54684100"><ele></ele><time>2014-6-17T7:1:5Z</time></trkpt>
<trkpt lat="47.27438300" lon="0.54703100"><ele></ele><time>2014-6-17T7:1:8Z</time></trkpt>
<trkpt lat="47.27430400" lon="0.54706700"><ele></ele><time>2014-6-17T7:1:11Z</time></trkpt>
<trkpt lat="47.27419200" lon="0.54707900"><ele></ele><time>2014-6-17T7:1:14Z</time></trkpt>
<trkpt lat="47.27415700" lon="0.54713000"><ele></ele><time>2014-6-17T7:1:17Z</time></trkpt>
<trkpt lat="47.27407700" lon="0.54722100"><ele></ele><time>2014-6-17T7:1:20Z</time></trkpt>
<trkpt lat="47.27406200" lon="0.54723600"><ele></ele><time>2014-6-17T7:1:23Z</time></trkpt>
<trkpt lat="47.27396800" lon="0.54736300"><ele></ele><time>2014-6-17T7:1:26Z</time></trkpt>
<trkpt lat="47.27392300" lon="0.54742200"><ele></ele><time>2014-6-17T7:1:29Z</time></trkpt>
<trkpt lat="47.27377200" lon="0.54760200"><ele></ele><time>2014-6-17T7:1:32Z</time></trkpt>
<trkpt lat="47.27362300" lon="0.54774100"><ele></ele><time>2014-6-17T7:1:35Z</time></trkpt>
<trkpt lat="47.27345000" lon="0.54792800"><ele></ele><time>2014-6-17T7:1:38Z</time></trkpt>
<trkpt lat="47.27335700" lon="0.54800900"><ele></ele><time>2014-6-17T7:1:41Z</time></trkpt>
<trkpt lat="47.27315700" lon="0.54810200"><ele></ele><time>2014-6-17T7:1:44Z</time></trkpt>
<trkpt lat="47.27303500" lon="0.54817200"><ele></ele><time>2014-6-17T7:1:47Z</time></trkpt>
<trkpt lat="47.27286500" lon="0.54826400"><ele></ele><time>2014-6-17T7:1:50Z</time></trkpt>
<trkpt lat="47.27274200" lon="0.54833000"><ele></ele><time>2014-6-17T7:1:53Z</time></trkpt>
<trkpt lat="47.27254600" lon="0.54838100"><ele></ele><time>2014-6-17T7:1:56Z</time></trkpt>
<trkpt lat="47.27229000" lon="0.54850400"><ele></ele><time>2014-6-17T7:1:59Z</time></trkpt>
<trkpt lat="47.27201000" lon="0.54850700"><ele></ele><time>2014-6-17T7:2:2Z</time></trkpt>
<trkpt lat="47.27187300" lon="0.54858700"><ele></ele><time>2014-6-17T7:2:5Z</time></trkpt>
<trkpt lat="47.27177900" lon="0.54860000"><ele></ele><time>2014-6-17T7:2:8Z</time></trkpt>
<trkpt lat="47.27160600" lon="0.54868000"><ele></ele><time>2014-6-17T7:2:11Z</time></trkpt>
<trkpt lat="47.27155800" lon="0.54870600"><ele></ele><time>2014-6-17T7:2:14Z</time></trkpt>
<trkpt lat="47.27136500" lon="0.54873200"><ele></ele><time>2014-6-17T7:2:17Z</time></trkpt>
<trkpt lat="47.27113400" lon="0.54877800"><ele></ele><time>2014-6-17T7:2:20Z</time></trkpt>
<trkpt lat="47.27090000" lon="0.54891000"><ele></ele><time>2014-6-17T7:2:23Z</time></trkpt>
<trkpt lat="47.27083300" lon="0.54901900"><ele></ele><time>2014-6-17T7:2:26Z</time></trkpt>
<trkpt lat="47.27079200" lon="0.54910500"><ele></ele><time>2014-6-17T7:2:29Z</time></trkpt>
<trkpt lat="47.27079700" lon="0.54925500"><ele></ele><time>2014-6-17T7:2:32Z</time></trkpt>
<trkpt lat="47.27077300" lon="0.54937800"><ele></ele><time>2014-6-17T7:2:35Z</time></trkpt>
<trkpt lat="47.27077500" lon="0.54940400"><ele></ele><time>2014-6-17T7:2:38Z</time></trkpt>
<trkpt lat="47.27076600" lon="0.54945500"><ele></ele><time>2014-6-17T7:2:41Z</time></trkpt>
<trkpt lat="47.27074600" lon="0.54958800"><ele></ele><time>2014-6-17T7:2:44Z</time></trkpt>
<trkpt lat="47.27072300" lon="0.54967700"><ele></ele><time>2014-6-17T7:2:47Z</time></trkpt>
<trkpt lat="47.27074300" lon="0.54991900"><ele></ele><time>2014-6-17T7:2:50Z</time></trkpt>
<trkpt lat="47.27071900" lon="0.55017200"><ele></ele><time>2014-6-17T7:2:53Z</time></trkpt>
<trkpt lat="47.27070700" lon="0.55044000"><ele></ele><time>2014-6-17T7:2:56Z</time></trkpt>
<trkpt lat="47.27067700" lon="0.55078300"><ele></ele><time>2014-6-17T7:2:59Z</time></trkpt>
<trkpt lat="47.27067000" lon="0.55086100"><ele></ele><time>2014-6-17T7:3:2Z</time></trkpt>
<trkpt lat="47.27067600" lon="0.55125700"><ele></ele><time>2014-6-17T7:3:5Z</time></trkpt>
<trkpt lat="47.27068800" lon="0.55140300"><ele></ele><time>2014-6-17T7:3:8Z</time></trkpt>
<trkpt lat="47.27056200" lon="0.55183900"><ele></ele><time>2014-6-17T7:3:11Z</time></trkpt>
<trkpt lat="47.27030800" lon="0.55257600"><ele></ele><time>2014-6-17T7:3:14Z</time></trkpt>
<trkpt lat="47.27020800" lon="0.55302100"><ele></ele><time>2014-6-17T7:3:17Z</time></trkpt>
<trkpt lat="47.27018800" lon="0.55338600"><ele></ele><time>2014-6-17T7:3:20Z</time></trkpt>
<trkpt lat="47.27030200" lon="0.55353800"><ele></ele><time>2014-6-17T7:3:23Z</time></trkpt>
<trkpt lat="47.27036500" lon="0.55360500"><ele></ele><time>2014-6-17T7:3:26Z</time></trkpt>
<trkpt lat="47.27062500" lon="0.55381600"><ele></ele><time>2014-6-17T7:3:29Z</time></trkpt>
<trkpt lat="47.27069100" lon="0.55387500"><ele></ele><time>2014-6-17T7:3:32Z</time></trkpt>
<trkpt lat="47.27081900" lon="0.55396600"><ele></ele><time>2014-6-17T7:3:35Z</time></trkpt>
<trkpt lat="47.27100700" lon="0.55417000"><ele></ele><time>2014-6-17T7:3:38Z</time></trkpt>
<trkpt lat="47.27106300" lon="0.55428000"><ele></ele><time>2014-6-17T7:3:41Z</time></trkpt>
<trkpt lat="47.27113000" lon="0.55440400"><ele></ele><time>2014-6-17T7:3:44Z</time></trkpt>
<trkpt lat="47.27123800" lon="0.55460700"><ele></ele><time>2014-6-17T7:3:47Z</time></trkpt>
<trkpt lat="47.27132000" lon="0.55483200"><ele></ele><time>2014-6-17T7:3:50Z</time></trkpt>
<trkpt lat="47.27138100" lon="0.55505400"><ele></ele><time>2014-6-17T7:3:53Z</time></trkpt>
<trkpt lat="47.27152000" lon="0.55530700"><ele></ele><time>2014-6-17T7:3:56Z</time></trkpt>
<trkpt lat="47.27175900" lon="0.55574500"><ele></ele><time>2014-6-17T7:3:59Z</time></trkpt>
<trkpt lat="47.27187200" lon="0.55597900"><ele></ele><time>2014-6-17T7:4:2Z</time></trkpt>
<trkpt lat="47.27198900" lon="0.55631300"><ele></ele><time>2014-6-17T7:4:5Z</time></trkpt>
<trkpt lat="47.27217500" lon="0.55657700"><ele></ele><time>2014-6-17T7:4:8Z</time></trkpt>
<trkpt lat="47.27232700" lon="0.55663600"><ele></ele><time>2014-6-17T7:4:11Z</time></trkpt>
<trkpt lat="47.27235900" lon="0.55669000"><ele></ele><time>2014-6-17T7:4:14Z</time></trkpt>
<trkpt lat="47.27235300" lon="0.55680100"><ele></ele><time>2014-6-17T7:4:17Z</time></trkpt>
<trkpt lat="47.27235100" lon="0.55683400"><ele></ele><time>2014-6-17T7:4:20Z</time></trkpt>
<trkpt lat="47.27233200" lon="0.55706600"><ele></ele><time>2014-6-17T7:4:23Z</time></trkpt>
<trkpt lat="47.27225700" lon="0.55731600"><ele></ele><time>2014-6-17T7:4:26Z</time></trkpt>
<trkpt lat="47.27222800" lon="0.55737700"><ele></ele><time>2014-6-17T7:4:29Z</time></trkpt>
<trkpt lat="47.27214500" lon="0.55753500"><ele></ele><time>2014-6-17T7:4:32Z</time></trkpt>
<trkpt lat="47.27211700" lon="0.55760600"><ele></ele><time>2014-6-17T7:4:35Z</time></trkpt>
<trkpt lat="47.27207900" lon="0.55783300"><ele></ele><time>2014-6-17T7:4:38Z</time></trkpt>
<trkpt lat="47.27220300" lon="0.55802100"><ele></ele><time>2014-6-17T7:4:41Z</time></trkpt>
<trkpt lat="47.27230800" lon="0.55816100"><ele></ele><time>2014-6-17T7:4:44Z</time></trkpt>
<trkpt lat="47.27232800" lon="0.55834700"><ele></ele><time>2014-6-17T7:4:47Z</time></trkpt>
<trkpt lat="47.27228900" lon="0.55850500"><ele></ele><time>2014-6-17T7:4:50Z</time></trkpt>
<trkpt lat="47.27216300" lon="0.55878800"><ele></ele><time>2014-6-17T7:4:53Z</time></trkpt>
<trkpt lat="47.27203200" lon="0.55903500"><ele></ele><time>2014-6-17T7:4:56Z</time></trkpt>
<trkpt lat="47.27201000" lon="0.55908100"><ele></ele><time>2014-6-17T7:4:59Z</time></trkpt>
<trkpt lat="47.27198600" lon="0.55919200"><ele></ele><time>2014-6-17T7:5:2Z</time></trkpt>
<trkpt lat="47.27196500" lon="0.55926600"><ele></ele><time>2014-6-17T7:5:5Z</time></trkpt>
<trkpt lat="47.27193400" lon="0.55932600"><ele></ele><time>2014-6-17T7:5:8Z</time></trkpt>
<trkpt lat="47.27190800" lon="0.55936400"><ele></ele><time>2014-6-17T7:5:11Z</time></trkpt>
<trkpt lat="47.27189100" lon="0.55941700"><ele></ele><time>2014-6-17T7:5:14Z</time></trkpt>
<trkpt lat="47.27189900" lon="0.55945700"><ele></ele><time>2014-6-17T7:5:17Z</time></trkpt>
<trkpt lat="47.27189800" lon="0.55946100"><ele></ele><time>2014-6-17T7:5:20Z</time></trkpt>
<trkpt lat="47.27190600" lon="0.55946800"><ele></ele><time>2014-6-17T7:5:23Z</time></trkpt>
<trkpt lat="47.27193300" lon="0.55944900"><ele></ele><time>2014-6-17T7:5:26Z</time></trkpt>
<trkpt lat="47.27206800" lon="0.55948500"><ele></ele><time>2014-6-17T7:5:29Z</time></trkpt>
<trkpt lat="47.27209300" lon="0.55949200"><ele></ele><time>2014-6-17T7:5:32Z</time></trkpt>
<trkpt lat="47.27228300" lon="0.55953200"><ele></ele><time>2014-6-17T7:5:35Z</time></trkpt>
<trkpt lat="47.27235200" lon="0.55957900"><ele></ele><time>2014-6-17T7:5:38Z</time></trkpt>
<trkpt lat="47.27261100" lon="0.55965000"><ele></ele><time>2014-6-17T7:5:41Z</time></trkpt>
<trkpt lat="47.27273700" lon="0.55962500"><ele></ele><time>2014-6-17T7:5:44Z</time></trkpt>
<trkpt lat="47.27291900" lon="0.55954300"><ele></ele><time>2014-6-17T7:5:47Z</time></trkpt>
<trkpt lat="47.27310500" lon="0.55941100"><ele></ele><time>2014-6-17T7:5:50Z</time></trkpt>
<trkpt lat="47.27326800" lon="0.55926900"><ele></ele><time>2014-6-17T7:5:53Z</time></trkpt>
<trkpt lat="47.27337500" lon="0.55920100"><ele></ele><time>2014-6-17T7:5:56Z</time></trkpt>
<trkpt lat="47.27360300" lon="0.55921100"><ele></ele><time>2014-6-17T7:5:59Z</time></trkpt>
<trkpt lat="47.27363600" lon="0.55922800"><ele></ele><time>2014-6-17T7:6:2Z</time></trkpt>
<trkpt lat="47.27391100" lon="0.55935600"><ele></ele><time>2014-6-17T7:6:5Z</time></trkpt>
<trkpt lat="47.27405200" lon="0.55940400"><ele></ele><time>2014-6-17T7:6:8Z</time></trkpt>
<trkpt lat="47.27426400" lon="0.55950400"><ele></ele><time>2014-6-17T7:6:11Z</time></trkpt>
<trkpt lat="47.27452800" lon="0.55970500"><ele></ele><time>2014-6-17T7:6:14Z</time></trkpt>
<trkpt lat="47.27468000" lon="0.55976200"><ele></ele><time>2014-6-17T7:6:17Z</time></trkpt>
<trkpt lat="47.27465400" lon="0.55976900"><ele></ele><time>2014-6-17T7:6:20Z</time></trkpt>
<trkpt lat="47.27455900" lon="0.55973100"><ele></ele><time>2014-6-17T7:6:23Z</time></trkpt>
<trkpt lat="47.27446500" lon="0.55976900"><ele></ele><time>2014-6-17T7:6:26Z</time></trkpt>
<trkpt lat="47.27428500" lon="0.55987300"><ele></ele><time>2014-6-17T7:6:29Z</time></trkpt>
<trkpt lat="47.27420900" lon="0.55990200"><ele></ele><time>2014-6-17T7:6:32Z</time></trkpt>
<trkpt lat="47.27403100" lon="0.55995700"><ele></ele><time>2014-6-17T7:6:35Z</time></trkpt>
<trkpt lat="47.27387100" lon="0.56001400"><ele></ele><time>2014-6-17T7:6:38Z</time></trkpt>
<trkpt lat="47.27380700" lon="0.56008400"><ele></ele><time>2014-6-17T7:6:41Z</time></trkpt>
<trkpt lat="47.27362300" lon="0.56011600"><ele></ele><time>2014-6-17T7:6:44Z</time></trkpt>
<trkpt lat="47.27357200" lon="0.56013900"><ele></ele><time>2014-6-17T7:6:47Z</time></trkpt>
<trkpt lat="47.27337300" lon="0.56029100"><ele></ele><time>2014-6-17T7:6:50Z</time></trkpt>
<trkpt lat="47.27323300" lon="0.56043200"><ele></ele><time>2014-6-17T7:6:53Z</time></trkpt>
<trkpt lat="47.27316300" lon="0.56050500"><ele></ele><time>2014-6-17T7:6:56Z</time></trkpt>
<trkpt lat="47.27302600" lon="0.56051100"><ele></ele><time>2014-6-17T7:6:59Z</time></trkpt>
<trkpt lat="47.27294300" lon="0.56059700"><ele></ele><time>2014-6-17T7:7:2Z</time></trkpt>
<trkpt lat="47.27287000" lon="0.56076400"><ele></ele><time>2014-6-17T7:7:5Z</time></trkpt>
<trkpt lat="47.27280300" lon="0.56094900"><ele></ele><time>2014-6-17T7:7:8Z</time></trkpt>
<trkpt lat="47.27278900" lon="0.56099000"><ele></ele><time>2014-6-17T7:7:11Z</time></trkpt>
<trkpt lat="47.27276700" lon="0.56106900"><ele></ele><time>2014-6-17T7:7:14Z</time></trkpt>
<trkpt lat="47.27264300" lon="0.56120200"><ele></ele><time>2014-6-17T7:7:17Z</time></trkpt>
<trkpt lat="47.27261400" lon="0.56127100"><ele></ele><time>2014-6-17T7:7:20Z</time></trkpt>
<trkpt lat="47.27247700" lon="0.56141600"><ele></ele><time>2014-6-17T7:7:23Z</time></trkpt>
<trkpt lat="47.27246300" lon="0.56147300"><ele></ele><time>2014-6-17T7:7:26Z</time></trkpt>
<trkpt lat="47.27236900" lon="0.56163000"><ele></ele><time>2014-6-17T7:7:29Z</time></trkpt>
<trkpt lat="47.27223800" lon="0.56174900"><ele></ele><time>2014-6-17T7:7:32Z</time></trkpt>
<trkpt lat="47.27205000" lon="0.56185500"><ele></ele><time>2014-6-17T7:7:35Z</time></trkpt>
<trkpt lat="47.27185100" lon="0.56197800"><ele></ele><time>2014-6-17T7:7:38Z</time></trkpt>
<trkpt lat="47.27169900" lon="0.56210800"><ele></ele><time>2014-6-17T7:7:41Z</time></trkpt>
<trkpt lat="47.27153300" lon="0.56227600"><ele></ele><time>2014-6-17T7:7:44Z</time></trkpt>
<trkpt lat="47.27145000" lon="0.56230600"><ele></ele><time>2014-6-17T7:7:47Z</time></trkpt>
<trkpt lat="47.27130200" lon="0.56239000"><ele></ele><time>2014-6-17T7:7:50Z</time></trkpt>
<trkpt lat="47.27122600" lon="0.56239100"><ele></ele><time>2014-6-17T7:7:53Z</time></trkpt>
<trkpt lat="47.27113200" lon="0.56238900"><ele></ele><time>2014-6-17T7:7:56Z</time></trkpt>
<trkpt lat="47.27103000" lon="0.56233900"><ele></ele><time>2014-6-17T7:7:59Z</time></trkpt>
<trkpt lat="47.27088900" lon="0.56233000"><ele></ele><time>2014-6-17T7:8:2Z</time></trkpt>
<trkpt lat="47.27078400" lon="0.56237800"><ele></ele><time>2014-6-17T7:8:5Z</time></trkpt>
<trkpt lat="47.27077200" lon="0.56234200"><ele></ele><time>2014-6-17T7:8:8Z</time></trkpt>
<trkpt lat="47.27079400" lon="0.56228100"><ele></ele><time>2014-6-17T7:8:11Z</time></trkpt>
<trkpt lat="47.27079400" lon="0.56228100"><ele></ele><time>2014-6-17T7:8:14Z</time></trkpt>
<trkpt lat="47.27078400" lon="0.56220400"><ele></ele><time>2014-6-17T7:8:17Z</time></trkpt>
<trkpt lat="47.27076800" lon="0.56196300"><ele></ele><time>2014-6-17T7:8:20Z</time></trkpt>
<trkpt lat="47.27075400" lon="0.56183600"><ele></ele><time>2014-6-17T7:8:23Z</time></trkpt>
<trkpt lat="47.27074400" lon="0.56176300"><ele></ele><time>2014-6-17T7:8:26Z</time></trkpt>
<trkpt lat="47.27074300" lon="0.56162300"><ele></ele><time>2014-6-17T7:8:29Z</time></trkpt>
<trkpt lat="47.27073600" lon="0.56138500"><ele></ele><time>2014-6-17T7:8:32Z</time></trkpt>
<trkpt lat="47.27077500" lon="0.56119700"><ele></ele><time>2014-6-17T7:8:35Z</time></trkpt>
<trkpt lat="47.27080700" lon="0.56104700"><ele></ele><time>2014-6-17T7:8:38Z</time></trkpt>
<trkpt lat="47.27084100" lon="0.56079000"><ele></ele><time>2014-6-17T7:8:41Z</time></trkpt>
<trkpt lat="47.27084600" lon="0.56062100"><ele></ele><time>2014-6-17T7:8:44Z</time></trkpt>
<trkpt lat="47.27098700" lon="0.56030700"><ele></ele><time>2014-6-17T7:8:47Z</time></trkpt>
<trkpt lat="47.27102100" lon="0.56027000"><ele></ele><time>2014-6-17T7:8:50Z</time></trkpt>
<trkpt lat="47.27114600" lon="0.56018900"><ele></ele><time>2014-6-17T7:8:53Z</time></trkpt>
<trkpt lat="47.27136600" lon="0.56004800"><ele></ele><time>2014-6-17T7:8:56Z</time></trkpt>
<trkpt lat="47.27148400" lon="0.55988200"><ele></ele><time>2014-6-17T7:8:59Z</time></trkpt>
<trkpt lat="47.27164500" lon="0.55967200"><ele></ele><time>2014-6-17T7:9:2Z</time></trkpt>
<trkpt lat="47.27169800" lon="0.55959100"><ele></ele><time>2014-6-17T7:9:5Z</time></trkpt>
<trkpt lat="47.27170400" lon="0.55957700"><ele></ele><time>2014-6-17T7:9:8Z</time></trkpt>
<trkpt lat="47.27168200" lon="0.55951200"><ele></ele><time>2014-6-17T7:9:11Z</time></trkpt>
<trkpt lat="47.27166300" lon="0.55951600"><ele></ele><time>2014-6-17T7:9:14Z</time></trkpt>
<trkpt lat="47.27166300" lon="0.55951600"><ele></ele><time>2014-6-17T7:9:17Z</time></trkpt>
<trkpt lat="47.27165000" lon="0.55950000"><ele></ele><time>2014-6-17T7:9:20Z</time></trkpt>
<trkpt lat="47.27153100" lon="0.55953700"><ele></ele><time>2014-6-17T7:9:23Z</time></trkpt>
<trkpt lat="47.27149800" lon="0.55954300"><ele></ele><time>2014-6-17T7:9:26Z</time></trkpt>
<trkpt lat="47.27138200" lon="0.55952700"><ele></ele><time>2014-6-17T7:9:29Z</time></trkpt>
<trkpt lat="47.27112600" lon="0.55962100"><ele></ele><time>2014-6-17T7:9:32Z</time></trkpt>
<trkpt lat="47.27093400" lon="0.55965200"><ele></ele><time>2014-6-17T7:9:35Z</time></trkpt>
<trkpt lat="47.27060700" lon="0.55970900"><ele></ele><time>2014-6-17T7:9:38Z</time></trkpt>
<trkpt lat="47.27038800" lon="0.55972900"><ele></ele><time>2014-6-17T7:9:41Z</time></trkpt>
<trkpt lat="47.27009100" lon="0.55990800"><ele></ele><time>2014-6-17T7:9:44Z</time></trkpt>
<trkpt lat="47.26992000" lon="0.56016100"><ele></ele><time>2014-6-17T7:9:47Z</time></trkpt>
<trkpt lat="47.26985300" lon="0.56050900"><ele></ele><time>2014-6-17T7:9:50Z</time></trkpt>
<trkpt lat="47.26978900" lon="0.56099200"><ele></ele><time>2014-6-17T7:9:53Z</time></trkpt>
<trkpt lat="47.26970900" lon="0.56162300"><ele></ele><time>2014-6-17T7:9:56Z</time></trkpt>
<trkpt lat="47.26960400" lon="0.56243400"><ele></ele><time>2014-6-17T7:9:59Z</time></trkpt>
<trkpt lat="47.26954100" lon="0.56299600"><ele></ele><time>2014-6-17T7:10:2Z</time></trkpt>
<trkpt lat="47.26950100" lon="0.56340300"><ele></ele><time>2014-6-17T7:10:5Z</time></trkpt>
<trkpt lat="47.26950000" lon="0.56356900"><ele></ele><time>2014-6-17T7:10:8Z</time></trkpt>
<trkpt lat="47.26945900" lon="0.56394700"><ele></ele><time>2014-6-17T7:10:11Z</time></trkpt>
<trkpt lat="47.26929800" lon="0.56402600"><ele></ele><time>2014-6-17T7:10:14Z</time></trkpt>
<trkpt lat="47.26915100" lon="0.56386800"><ele></ele><time>2014-6-17T7:10:17Z</time></trkpt>
<trkpt lat="47.26861400" lon="0.56345000"><ele></ele><time>2014-6-17T7:10:20Z</time></trkpt>
<trkpt lat="47.26813900" lon="0.56304300"><ele></ele><time>2014-6-17T7:10:23Z</time></trkpt>
<trkpt lat="47.26793800" lon="0.56282100"><ele></ele><time>2014-6-17T7:10:26Z</time></trkpt>
<trkpt lat="47.26769500" lon="0.56251100"><ele></ele><time>2014-6-17T7:10:29Z</time></trkpt>
<trkpt lat="47.26751600" lon="0.56212300"><ele></ele><time>2014-6-17T7:10:32Z</time></trkpt>
<trkpt lat="47.26748300" lon="0.56189900"><ele></ele><time>2014-6-17T7:10:35Z</time></trkpt>
<trkpt lat="47.26746900" lon="0.56179200"><ele></ele><time>2014-6-17T7:10:38Z</time></trkpt>
<trkpt lat="47.26744600" lon="0.56151900"><ele></ele><time>2014-6-17T7:10:41Z</time></trkpt>
<trkpt lat="47.26740600" lon="0.56120100"><ele></ele><time>2014-6-17T7:10:44Z</time></trkpt>
<trkpt lat="47.26740300" lon="0.56106300"><ele></ele><time>2014-6-17T7:10:47Z</time></trkpt>
<trkpt lat="47.26738300" lon="0.56085400"><ele></ele><time>2014-6-17T7:10:50Z</time></trkpt>
<trkpt lat="47.26732100" lon="0.56046100"><ele></ele><time>2014-6-17T7:10:53Z</time></trkpt>
<trkpt lat="47.26730000" lon="0.56035100"><ele></ele><time>2014-6-17T7:10:56Z</time></trkpt>
<trkpt lat="47.26726200" lon="0.56007400"><ele></ele><time>2014-6-17T7:10:59Z</time></trkpt>
<trkpt lat="47.26723400" lon="0.55965300"><ele></ele><time>2014-6-17T7:11:2Z</time></trkpt>
<trkpt lat="47.26723800" lon="0.55929300"><ele></ele><time>2014-6-17T7:11:5Z</time></trkpt>
<trkpt lat="47.26722600" lon="0.55891600"><ele></ele><time>2014-6-17T7:11:8Z</time></trkpt>
<trkpt lat="47.26717900" lon="0.55862700"><ele></ele><time>2014-6-17T7:11:11Z</time></trkpt>
<trkpt lat="47.26710300" lon="0.55852600"><ele></ele><time>2014-6-17T7:11:14Z</time></trkpt>
<trkpt lat="47.26703700" lon="0.55843000"><ele></ele><time>2014-6-17T7:11:17Z</time></trkpt>
<trkpt lat="47.26696000" lon="0.55841000"><ele></ele><time>2014-6-17T7:11:20Z</time></trkpt>
<trkpt lat="47.26685800" lon="0.55830800"><ele></ele><time>2014-6-17T7:11:23Z</time></trkpt>
<trkpt lat="47.26676400" lon="0.55827400"><ele></ele><time>2014-6-17T7:11:26Z</time></trkpt>
<trkpt lat="47.26670500" lon="0.55817400"><ele></ele><time>2014-6-17T7:11:29Z</time></trkpt>
<trkpt lat="47.26665100" lon="0.55808800"><ele></ele><time>2014-6-17T7:11:32Z</time></trkpt>
<trkpt lat="47.26655600" lon="0.55798000"><ele></ele><time>2014-6-17T7:11:35Z</time></trkpt>
<trkpt lat="47.26644200" lon="0.55786100"><ele></ele><time>2014-6-17T7:11:38Z</time></trkpt>
<trkpt lat="47.26640100" lon="0.55781300"><ele></ele><time>2014-6-17T7:11:41Z</time></trkpt>
<trkpt lat="47.26631600" lon="0.55773000"><ele></ele><time>2014-6-17T7:11:44Z</time></trkpt>
<trkpt lat="47.26630400" lon="0.55772300"><ele></ele><time>2014-6-17T7:11:47Z</time></trkpt>
<trkpt lat="47.26623400" lon="0.55766300"><ele></ele><time>2014-6-17T7:11:50Z</time></trkpt>
<trkpt lat="47.26613200" lon="0.55755400"><ele></ele><time>2014-6-17T7:11:53Z</time></trkpt>
<trkpt lat="47.26606600" lon="0.55746600"><ele></ele><time>2014-6-17T7:11:56Z</time></trkpt>
<trkpt lat="47.26599700" lon="0.55738100"><ele></ele><time>2014-6-17T7:11:59Z</time></trkpt>
<trkpt lat="47.26596900" lon="0.55732100"><ele></ele><time>2014-6-17T7:12:2Z</time></trkpt>
<trkpt lat="47.26589500" lon="0.55717500"><ele></ele><time>2014-6-17T7:12:5Z</time></trkpt>
<trkpt lat="47.26577700" lon="0.55695100"><ele></ele><time>2014-6-17T7:12:8Z</time></trkpt>
<trkpt lat="47.26572100" lon="0.55685100"><ele></ele><time>2014-6-17T7:12:11Z</time></trkpt>
<trkpt lat="47.26568900" lon="0.55680200"><ele></ele><time>2014-6-17T7:12:14Z</time></trkpt>
<trkpt lat="47.26561500" lon="0.55668500"><ele></ele><time>2014-6-17T7:12:17Z</time></trkpt>
<trkpt lat="47.26548200" lon="0.55660300"><ele></ele><time>2014-6-17T7:12:20Z</time></trkpt>
<trkpt lat="47.26526400" lon="0.55654300"><ele></ele><time>2014-6-17T7:12:23Z</time></trkpt>
<trkpt lat="47.26503500" lon="0.55641200"><ele></ele><time>2014-6-17T7:12:26Z</time></trkpt>
<trkpt lat="47.26495400" lon="0.55627700"><ele></ele><time>2014-6-17T7:12:29Z</time></trkpt>
<trkpt lat="47.26487100" lon="0.55605500"><ele></ele><time>2014-6-17T7:12:32Z</time></trkpt>
<trkpt lat="47.26481400" lon="0.55579000"><ele></ele><time>2014-6-17T7:12:35Z</time></trkpt>
<trkpt lat="47.26471900" lon="0.55549500"><ele></ele><time>2014-6-17T7:12:38Z</time></trkpt>
<trkpt lat="47.26471700" lon="0.55540000"><ele></ele><time>2014-6-17T7:12:41Z</time></trkpt>
<trkpt lat="47.26464500" lon="0.55513600"><ele></ele><time>2014-6-17T7:12:44Z</time></trkpt>
<trkpt lat="47.26463300" lon="0.55508700"><ele></ele><time>2014-6-17T7:12:47Z</time></trkpt>
<trkpt lat="47.26454200" lon="0.55472700"><ele></ele><time>2014-6-17T7:12:50Z</time></trkpt>
<trkpt lat="47.26447800" lon="0.55446100"><ele></ele><time>2014-6-17T7:12:53Z</time></trkpt>
<trkpt lat="47.26445800" lon="0.55425200"><ele></ele><time>2014-6-17T7:12:56Z</time></trkpt>
<trkpt lat="47.26438500" lon="0.55394400"><ele></ele><time>2014-6-17T7:12:59Z</time></trkpt>
<trkpt lat="47.26430900" lon="0.55357400"><ele></ele><time>2014-6-17T7:13:2Z</time></trkpt>
<trkpt lat="47.26425000" lon="0.55332500"><ele></ele><time>2014-6-17T7:13:5Z</time></trkpt>
<trkpt lat="47.26422500" lon="0.55321800"><ele></ele><time>2014-6-17T7:13:8Z</time></trkpt>
<trkpt lat="47.26421600" lon="0.55308500"><ele></ele><time>2014-6-17T7:13:11Z</time></trkpt>
<trkpt lat="47.26418300" lon="0.55291200"><ele></ele><time>2014-6-17T7:13:14Z</time></trkpt>
<trkpt lat="47.26415400" lon="0.55276500"><ele></ele><time>2014-6-17T7:13:17Z</time></trkpt>
<trkpt lat="47.26409200" lon="0.55252200"><ele></ele><time>2014-6-17T7:13:20Z</time></trkpt>
<trkpt lat="47.26398000" lon="0.55222200"><ele></ele><time>2014-6-17T7:13:23Z</time></trkpt>
<trkpt lat="47.26388800" lon="0.55187200"><ele></ele><time>2014-6-17T7:13:26Z</time></trkpt>
<trkpt lat="47.26386400" lon="0.55177500"><ele></ele><time>2014-6-17T7:13:29Z</time></trkpt>
<trkpt lat="47.26385900" lon="0.55155100"><ele></ele><time>2014-6-17T7:13:32Z</time></trkpt>
<trkpt lat="47.26393200" lon="0.55147800"><ele></ele><time>2014-6-17T7:13:35Z</time></trkpt>
<trkpt lat="47.26405900" lon="0.55140600"><ele></ele><time>2014-6-17T7:13:38Z</time></trkpt>
<trkpt lat="47.26423600" lon="0.55131200"><ele></ele><time>2014-6-17T7:13:41Z</time></trkpt>
<trkpt lat="47.26441900" lon="0.55117700"><ele></ele><time>2014-6-17T7:13:44Z</time></trkpt>
<trkpt lat="47.26452000" lon="0.55114700"><ele></ele><time>2014-6-17T7:13:47Z</time></trkpt>
<trkpt lat="47.26468100" lon="0.55127200"><ele></ele><time>2014-6-17T7:13:50Z</time></trkpt>
<trkpt lat="47.26480700" lon="0.55127900"><ele></ele><time>2014-6-17T7:13:53Z</time></trkpt>
<trkpt lat="47.26501600" lon="0.55118600"><ele></ele><time>2014-6-17T7:13:56Z</time></trkpt>
<trkpt lat="47.26512000" lon="0.55112000"><ele></ele><time>2014-6-17T7:13:59Z</time></trkpt>
<trkpt lat="47.26545700" lon="0.55095700"><ele></ele><time>2014-6-17T7:14:2Z</time></trkpt>
<trkpt lat="47.26567200" lon="0.55085600"><ele></ele><time>2014-6-17T7:14:5Z</time></trkpt>
<trkpt lat="47.26578400" lon="0.55081100"><ele></ele><time>2014-6-17T7:14:8Z</time></trkpt>
<trkpt lat="47.26581500" lon="0.55078500"><ele></ele><time>2014-6-17T7:14:11Z</time></trkpt>
<trkpt lat="47.26602700" lon="0.55065700"><ele></ele><time>2014-6-17T7:14:14Z</time></trkpt>
<trkpt lat="47.26611900" lon="0.55065600"><ele></ele><time>2014-6-17T7:14:17Z</time></trkpt>
<trkpt lat="47.26622200" lon="0.55066300"><ele></ele><time>2014-6-17T7:14:20Z</time></trkpt>
<trkpt lat="47.26659800" lon="0.55069800"><ele></ele><time>2014-6-17T7:14:23Z</time></trkpt>
<trkpt lat="47.26677400" lon="0.55068400"><ele></ele><time>2014-6-17T7:14:26Z</time></trkpt>
<trkpt lat="47.26694100" lon="0.55064000"><ele></ele><time>2014-6-17T7:14:29Z</time></trkpt>
<trkpt lat="47.26712300" lon="0.55048500"><ele></ele><time>2014-6-17T7:14:32Z</time></trkpt>
<trkpt lat="47.26729600" lon="0.55025500"><ele></ele><time>2014-6-17T7:14:35Z</time></trkpt>
<trkpt lat="47.26743700" lon="0.55014600"><ele></ele><time>2014-6-17T7:14:38Z</time></trkpt>
<trkpt lat="47.26749700" lon="0.55006700"><ele></ele><time>2014-6-17T7:14:41Z</time></trkpt>
<trkpt lat="47.26752300" lon="0.55002600"><ele></ele><time>2014-6-17T7:14:44Z</time></trkpt>
<trkpt lat="47.26765300" lon="0.54989900"><ele></ele><time>2014-6-17T7:14:47Z</time></trkpt>
<trkpt lat="47.26779100" lon="0.54979800"><ele></ele><time>2014-6-17T7:14:50Z</time></trkpt>
<trkpt lat="47.26792000" lon="0.54974400"><ele></ele><time>2014-6-17T7:14:53Z</time></trkpt>
<trkpt lat="47.26808500" lon="0.54974200"><ele></ele><time>2014-6-17T7:14:56Z</time></trkpt>
<trkpt lat="47.26812100" lon="0.54974500"><ele></ele><time>2014-6-17T7:14:59Z</time></trkpt>
<trkpt lat="47.26837300" lon="0.54969300"><ele></ele><time>2014-6-17T7:15:2Z</time></trkpt>
<trkpt lat="47.26866900" lon="0.54962600"><ele></ele><time>2014-6-17T7:15:5Z</time></trkpt>
<trkpt lat="47.26875600" lon="0.54960600"><ele></ele><time>2014-6-17T7:15:8Z</time></trkpt>
<trkpt lat="47.26887400" lon="0.54957100"><ele></ele><time>2014-6-17T7:15:11Z</time></trkpt>
<trkpt lat="47.26919900" lon="0.54945400"><ele></ele><time>2014-6-17T7:15:14Z</time></trkpt>
<trkpt lat="47.26941100" lon="0.54937000"><ele></ele><time>2014-6-17T7:15:17Z</time></trkpt>
<trkpt lat="47.26950500" lon="0.54935800"><ele></ele><time>2014-6-17T7:15:20Z</time></trkpt>
<trkpt lat="47.26963200" lon="0.54925300"><ele></ele><time>2014-6-17T7:15:23Z</time></trkpt>
<trkpt lat="47.26978000" lon="0.54918600"><ele></ele><time>2014-6-17T7:15:26Z</time></trkpt>
<trkpt lat="47.26994700" lon="0.54916400"><ele></ele><time>2014-6-17T7:15:29Z</time></trkpt>
<trkpt lat="47.26998600" lon="0.54916800"><ele></ele><time>2014-6-17T7:15:32Z</time></trkpt>
<trkpt lat="47.27020900" lon="0.54917800"><ele></ele><time>2014-6-17T7:15:35Z</time></trkpt>
<trkpt lat="47.27038800" lon="0.54915600"><ele></ele><time>2014-6-17T7:15:38Z</time></trkpt>
<trkpt lat="47.27046300" lon="0.54912700"><ele></ele><time>2014-6-17T7:15:41Z</time></trkpt>
<trkpt lat="47.27056700" lon="0.54903000"><ele></ele><time>2014-6-17T7:15:44Z</time></trkpt>
<trkpt lat="47.27055900" lon="0.54869500"><ele></ele><time>2014-6-17T7:15:47Z</time></trkpt>
<trkpt lat="47.27053100" lon="0.54842300"><ele></ele><time>2014-6-17T7:15:50Z</time></trkpt>
<trkpt lat="47.27047400" lon="0.54829500"><ele></ele><time>2014-6-17T7:15:53Z</time></trkpt>
<trkpt lat="47.27044100" lon="0.54819000"><ele></ele><time>2014-6-17T7:15:56Z</time></trkpt>
<trkpt lat="47.27036000" lon="0.54798900"><ele></ele><time>2014-6-17T7:15:59Z</time></trkpt>
<trkpt lat="47.27032700" lon="0.54792800"><ele></ele><time>2014-6-17T7:16:2Z</time></trkpt>
<trkpt lat="47.27028400" lon="0.54789600"><ele></ele><time>2014-6-17T7:16:5Z</time></trkpt>
<trkpt lat="47.27020600" lon="0.54782700"><ele></ele><time>2014-6-17T7:16:8Z</time></trkpt>
<trkpt lat="47.27017400" lon="0.54779600"><ele></ele><time>2014-6-17T7:16:11Z</time></trkpt>
<trkpt lat="47.27004800" lon="0.54767800"><ele></ele><time>2014-6-17T7:16:14Z</time></trkpt>
<trkpt lat="47.26994100" lon="0.54764700"><ele></ele><time>2014-6-17T7:16:17Z</time></trkpt>
<trkpt lat="47.26984000" lon="0.54759100"><ele></ele><time>2014-6-17T7:16:20Z</time></trkpt>
<trkpt lat="47.26982000" lon="0.54758600"><ele></ele><time>2014-6-17T7:16:23Z</time></trkpt>
<trkpt lat="47.26971300" lon="0.54753500"><ele></ele><time>2014-6-17T7:16:26Z</time></trkpt>
<trkpt lat="47.26954100" lon="0.54734300"><ele></ele><time>2014-6-17T7:16:29Z</time></trkpt>
<trkpt lat="47.26951400" lon="0.54730600"><ele></ele><time>2014-6-17T7:16:32Z</time></trkpt>
<trkpt lat="47.26942800" lon="0.54723100"><ele></ele><time>2014-6-17T7:16:35Z</time></trkpt>
<trkpt lat="47.26937100" lon="0.54716800"><ele></ele><time>2014-6-17T7:16:38Z</time></trkpt>
<trkpt lat="47.26927400" lon="0.54708400"><ele></ele><time>2014-6-17T7:16:41Z</time></trkpt>
<trkpt lat="47.26924200" lon="0.54704500"><ele></ele><time>2014-6-17T7:16:44Z</time></trkpt>
<trkpt lat="47.26921800" lon="0.54701400"><ele></ele><time>2014-6-17T7:16:47Z</time></trkpt>
<trkpt lat="47.26920500" lon="0.54696200"><ele></ele><time>2014-6-17T7:16:50Z</time></trkpt>
<trkpt lat="47.26912300" lon="0.54675500"><ele></ele><time>2014-6-17T7:16:53Z</time></trkpt>
<trkpt lat="47.26909800" lon="0.54661500"><ele></ele><time>2014-6-17T7:16:56Z</time></trkpt>
<trkpt lat="47.26906900" lon="0.54650900"><ele></ele><time>2014-6-17T7:16:59Z</time></trkpt>
<trkpt lat="47.26906500" lon="0.54647700"><ele></ele><time>2014-6-17T7:17:2Z</time></trkpt>
<trkpt lat="47.26907100" lon="0.54643300"><ele></ele><time>2014-6-17T7:17:5Z</time></trkpt>
<trkpt lat="47.26904400" lon="0.54637000"><ele></ele><time>2014-6-17T7:17:8Z</time></trkpt>
<trkpt lat="47.26904400" lon="0.54637000"><ele></ele><time>2014-6-17T7:17:11Z</time></trkpt>
<trkpt lat="47.26893500" lon="0.54623000"><ele></ele><time>2014-6-17T7:17:14Z</time></trkpt>
<trkpt lat="47.26890500" lon="0.54618300"><ele></ele><time>2014-6-17T7:17:17Z</time></trkpt>
<trkpt lat="47.26886100" lon="0.54607700"><ele></ele><time>2014-6-17T7:17:20Z</time></trkpt>
<trkpt lat="47.26885100" lon="0.54587100"><ele></ele><time>2014-6-17T7:17:23Z</time></trkpt>
<trkpt lat="47.26884400" lon="0.54568700"><ele></ele><time>2014-6-17T7:17:26Z</time></trkpt>
<trkpt lat="47.26879300" lon="0.54542800"><ele></ele><time>2014-6-17T7:17:29Z</time></trkpt>
<trkpt lat="47.26877800" lon="0.54523700"><ele></ele><time>2014-6-17T7:17:32Z</time></trkpt>
<trkpt lat="47.26877500" lon="0.54522900"><ele></ele><time>2014-6-17T7:17:35Z</time></trkpt>
<trkpt lat="47.26876800" lon="0.54521400"><ele></ele><time>2014-6-17T7:17:38Z</time></trkpt>
<trkpt lat="47.26874900" lon="0.54498200"><ele></ele><time>2014-6-17T7:17:41Z</time></trkpt>
<trkpt lat="47.26870900" lon="0.54469100"><ele></ele><time>2014-6-17T7:17:44Z</time></trkpt>
<trkpt lat="47.26867000" lon="0.54442100"><ele></ele><time>2014-6-17T7:17:47Z</time></trkpt>
<trkpt lat="47.26862100" lon="0.54410700"><ele></ele><time>2014-6-17T7:17:50Z</time></trkpt>
<trkpt lat="47.26858200" lon="0.54379300"><ele></ele><time>2014-6-17T7:17:53Z</time></trkpt>
<trkpt lat="47.26853100" lon="0.54352700"><ele></ele><time>2014-6-17T7:17:56Z</time></trkpt>
<trkpt lat="47.26850400" lon="0.54325100"><ele></ele><time>2014-6-17T7:17:59Z</time></trkpt>
<trkpt lat="47.26846700" lon="0.54297100"><ele></ele><time>2014-6-17T7:18:2Z</time></trkpt>
<trkpt lat="47.26840200" lon="0.54252000"><ele></ele><time>2014-6-17T7:18:5Z</time></trkpt>
<trkpt lat="47.26835200" lon="0.54214300"><ele></ele><time>2014-6-17T7:18:8Z</time></trkpt>
<trkpt lat="47.26834600" lon="0.54204300"><ele></ele><time>2014-6-17T7:18:11Z</time></trkpt>
<trkpt lat="47.26831200" lon="0.54184300"><ele></ele><time>2014-6-17T7:18:14Z</time></trkpt>
<trkpt lat="47.26822400" lon="0.54138100"><ele></ele><time>2014-6-17T7:18:17Z</time></trkpt>
<trkpt lat="47.26820000" lon="0.54128800"><ele></ele><time>2014-6-17T7:18:20Z</time></trkpt>
<trkpt lat="47.26815900" lon="0.54105500"><ele></ele><time>2014-6-17T7:18:23Z</time></trkpt>
<trkpt lat="47.26812400" lon="0.54104000"><ele></ele><time>2014-6-17T7:18:26Z</time></trkpt>
<trkpt lat="47.26812400" lon="0.54104000"><ele></ele><time>2014-6-17T7:18:29Z</time></trkpt>
<trkpt lat="47.26805800" lon="0.54103300"><ele></ele><time>2014-6-17T7:18:32Z</time></trkpt>
<trkpt lat="47.26793300" lon="0.54115300"><ele></ele><time>2014-6-17T7:18:35Z</time></trkpt>
<trkpt lat="47.26788600" lon="0.54120400"><ele></ele><time>2014-6-17T7:18:38Z</time></trkpt>
<trkpt lat="47.26777700" lon="0.54132700"><ele></ele><time>2014-6-17T7:18:41Z</time></trkpt>
<trkpt lat="47.26766200" lon="0.54146900"><ele></ele><time>2014-6-17T7:18:44Z</time></trkpt>
<trkpt lat="47.26743500" lon="0.54171700"><ele></ele><time>2014-6-17T7:18:47Z</time></trkpt>
<trkpt lat="47.26713800" lon="0.54204900"><ele></ele><time>2014-6-17T7:18:50Z</time></trkpt>
<trkpt lat="47.26679800" lon="0.54242000"><ele></ele><time>2014-6-17T7:18:53Z</time></trkpt>
<trkpt lat="47.26654300" lon="0.54269800"><ele></ele><time>2014-6-17T7:18:56Z</time></trkpt>
<trkpt lat="47.26638000" lon="0.54289400"><ele></ele><time>2014-6-17T7:18:59Z</time></trkpt>
<trkpt lat="47.26623300" lon="0.54304800"><ele></ele><time>2014-6-17T7:19:2Z</time></trkpt>
<trkpt lat="47.26582400" lon="0.54349500"><ele></ele><time>2014-6-17T7:19:5Z</time></trkpt>
<trkpt lat="47.26555100" lon="0.54381500"><ele></ele><time>2014-6-17T7:19:8Z</time></trkpt>
<trkpt lat="47.26522700" lon="0.54416800"><ele></ele><time>2014-6-17T7:19:11Z</time></trkpt>
<trkpt lat="47.26485200" lon="0.54457800"><ele></ele><time>2014-6-17T7:19:14Z</time></trkpt>
<trkpt lat="47.26445900" lon="0.54502300"><ele></ele><time>2014-6-17T7:19:17Z</time></trkpt>
<trkpt lat="47.26409300" lon="0.54542800"><ele></ele><time>2014-6-17T7:19:20Z</time></trkpt>
<trkpt lat="47.26375000" lon="0.54581000"><ele></ele><time>2014-6-17T7:19:23Z</time></trkpt>
<trkpt lat="47.26361000" lon="0.54596200"><ele></ele><time>2014-6-17T7:19:26Z</time></trkpt>
<trkpt lat="47.26337300" lon="0.54623100"><ele></ele><time>2014-6-17T7:19:29Z</time></trkpt>
<trkpt lat="47.26327000" lon="0.54633400"><ele></ele><time>2014-6-17T7:19:32Z</time></trkpt>
<trkpt lat="47.26301800" lon="0.54640600"><ele></ele><time>2014-6-17T7:19:35Z</time></trkpt>
<trkpt lat="47.26253500" lon="0.54631100"><ele></ele><time>2014-6-17T7:19:38Z</time></trkpt>
<trkpt lat="47.26247200" lon="0.54629700"><ele></ele><time>2014-6-17T7:19:41Z</time></trkpt>
<trkpt lat="47.26222300" lon="0.54623000"><ele></ele><time>2014-6-17T7:19:44Z</time></trkpt>
<trkpt lat="47.26210800" lon="0.54639200"><ele></ele><time>2014-6-17T7:19:47Z</time></trkpt>
<trkpt lat="47.26204300" lon="0.54662300"><ele></ele><time>2014-6-17T7:19:50Z</time></trkpt>
<trkpt lat="47.26202700" lon="0.54668100"><ele></ele><time>2014-6-17T7:19:53Z</time></trkpt>
<trkpt lat="47.26196000" lon="0.54696900"><ele></ele><time>2014-6-17T7:19:56Z</time></trkpt>
<trkpt lat="47.26190100" lon="0.54732400"><ele></ele><time>2014-6-17T7:19:59Z</time></trkpt>
<trkpt lat="47.26183900" lon="0.54761400"><ele></ele><time>2014-6-17T7:20:2Z</time></trkpt>
<trkpt lat="47.26180400" lon="0.54779700"><ele></ele><time>2014-6-17T7:20:5Z</time></trkpt>
<trkpt lat="47.26172500" lon="0.54803500"><ele></ele><time>2014-6-17T7:20:8Z</time></trkpt>
<trkpt lat="47.26159800" lon="0.54855000"><ele></ele><time>2014-6-17T7:20:11Z</time></trkpt>
<trkpt lat="47.26149600" lon="0.54855900"><ele></ele><time>2014-6-17T7:20:14Z</time></trkpt>
<trkpt lat="47.26147700" lon="0.54853700"><ele></ele><time>2014-6-17T7:20:17Z</time></trkpt>
<trkpt lat="47.26139000" lon="0.54843200"><ele></ele><time>2014-6-17T7:20:20Z</time></trkpt>
<trkpt lat="47.26138000" lon="0.54842300"><ele></ele><time>2014-6-17T7:20:23Z</time></trkpt>
<trkpt lat="47.26135000" lon="0.54841200"><ele></ele><time>2014-6-17T7:20:26Z</time></trkpt>
<trkpt lat="47.26135000" lon="0.54841200"><ele></ele><time>2014-6-17T7:20:29Z</time></trkpt>
<trkpt lat="47.26130600" lon="0.54830000"><ele></ele><time>2014-6-17T7:20:32Z</time></trkpt>
<trkpt lat="47.26116500" lon="0.54808200"><ele></ele><time>2014-6-17T7:20:35Z</time></trkpt>
<trkpt lat="47.26101600" lon="0.54792600"><ele></ele><time>2014-6-17T7:20:38Z</time></trkpt>
<trkpt lat="47.26095000" lon="0.54786700"><ele></ele><time>2014-6-17T7:20:41Z</time></trkpt>
<trkpt lat="47.26086900" lon="0.54782900"><ele></ele><time>2014-6-17T7:20:44Z</time></trkpt>
<trkpt lat="47.26081200" lon="0.54778400"><ele></ele><time>2014-6-17T7:20:47Z</time></trkpt>
<trkpt lat="47.26062900" lon="0.54765600"><ele></ele><time>2014-6-17T7:20:50Z</time></trkpt>
<trkpt lat="47.26058700" lon="0.54763300"><ele></ele><time>2014-6-17T7:20:53Z</time></trkpt>
<trkpt lat="47.26033400" lon="0.54734100"><ele></ele><time>2014-6-17T7:20:56Z</time></trkpt>
<trkpt lat="47.26029300" lon="0.54728600"><ele></ele><time>2014-6-17T7:20:59Z</time></trkpt>
<trkpt lat="47.26015500" lon="0.54715800"><ele></ele><time>2014-6-17T7:21:2Z</time></trkpt>
<trkpt lat="47.25995800" lon="0.54696800"><ele></ele><time>2014-6-17T7:21:5Z</time></trkpt>
<trkpt lat="47.25973800" lon="0.54670100"><ele></ele><time>2014-6-17T7:21:8Z</time></trkpt>
<trkpt lat="47.25969800" lon="0.54663000"><ele></ele><time>2014-6-17T7:21:11Z</time></trkpt>
<trkpt lat="47.25957900" lon="0.54644300"><ele></ele><time>2014-6-17T7:21:14Z</time></trkpt>
<trkpt lat="47.25945800" lon="0.54608700"><ele></ele><time>2014-6-17T7:21:17Z</time></trkpt>
<trkpt lat="47.25941600" lon="0.54567600"><ele></ele><time>2014-6-17T7:21:20Z</time></trkpt>
<trkpt lat="47.25941600" lon="0.54536300"><ele></ele><time>2014-6-17T7:21:23Z</time></trkpt>
<trkpt lat="47.25945800" lon="0.54500100"><ele></ele><time>2014-6-17T7:21:26Z</time></trkpt>
<trkpt lat="47.25945800" lon="0.54469600"><ele></ele><time>2014-6-17T7:21:29Z</time></trkpt>
<trkpt lat="47.25946500" lon="0.54444300"><ele></ele><time>2014-6-17T7:21:32Z</time></trkpt>
<trkpt lat="47.25951600" lon="0.54416400"><ele></ele><time>2014-6-17T7:21:35Z</time></trkpt>
<trkpt lat="47.25961000" lon="0.54386600"><ele></ele><time>2014-6-17T7:21:38Z</time></trkpt>
<trkpt lat="47.25979100" lon="0.54338600"><ele></ele><time>2014-6-17T7:21:41Z</time></trkpt>
<trkpt lat="47.25987500" lon="0.54295600"><ele></ele><time>2014-6-17T7:21:44Z</time></trkpt>
<trkpt lat="47.25997200" lon="0.54238900"><ele></ele><time>2014-6-17T7:21:47Z</time></trkpt>
<trkpt lat="47.26007300" lon="0.54217700"><ele></ele><time>2014-6-17T7:21:50Z</time></trkpt>
<trkpt lat="47.26028400" lon="0.54210800"><ele></ele><time>2014-6-17T7:21:53Z</time></trkpt>
<trkpt lat="47.26038600" lon="0.54210600"><ele></ele><time>2014-6-17T7:21:56Z</time></trkpt>
<trkpt lat="47.26060000" lon="0.54206000"><ele></ele><time>2014-6-17T7:21:59Z</time></trkpt>
<trkpt lat="47.26069900" lon="0.54192600"><ele></ele><time>2014-6-17T7:22:2Z</time></trkpt>
<trkpt lat="47.26068900" lon="0.54161800"><ele></ele><time>2014-6-17T7:22:5Z</time></trkpt>
<trkpt lat="47.26064800" lon="0.54109000"><ele></ele><time>2014-6-17T7:22:8Z</time></trkpt>
<trkpt lat="47.26064100" lon="0.54077700"><ele></ele><time>2014-6-17T7:22:11Z</time></trkpt>
<trkpt lat="47.26064100" lon="0.54039400"><ele></ele><time>2014-6-17T7:22:14Z</time></trkpt>
<trkpt lat="47.26055400" lon="0.54018000"><ele></ele><time>2014-6-17T7:22:17Z</time></trkpt>
<trkpt lat="47.26039100" lon="0.53999300"><ele></ele><time>2014-6-17T7:22:20Z</time></trkpt>
<trkpt lat="47.26013000" lon="0.53967200"><ele></ele><time>2014-6-17T7:22:23Z</time></trkpt>
<trkpt lat="47.25994200" lon="0.53944100"><ele></ele><time>2014-6-17T7:22:26Z</time></trkpt>
<trkpt lat="47.25964800" lon="0.53897300"><ele></ele><time>2014-6-17T7:22:29Z</time></trkpt>
<trkpt lat="47.25958800" lon="0.53886300"><ele></ele><time>2014-6-17T7:22:32Z</time></trkpt>
<trkpt lat="47.25951400" lon="0.53868600"><ele></ele><time>2014-6-17T7:22:35Z</time></trkpt>
<trkpt lat="47.25943400" lon="0.53835500"><ele></ele><time>2014-6-17T7:22:38Z</time></trkpt>
<trkpt lat="47.25936300" lon="0.53799900"><ele></ele><time>2014-6-17T7:22:41Z</time></trkpt>
<trkpt lat="47.25930600" lon="0.53778600"><ele></ele><time>2014-6-17T7:22:44Z</time></trkpt>
<trkpt lat="47.25917700" lon="0.53746000"><ele></ele><time>2014-6-17T7:22:47Z</time></trkpt>
<trkpt lat="47.25903700" lon="0.53728600"><ele></ele><time>2014-6-17T7:22:50Z</time></trkpt>
<trkpt lat="47.25897800" lon="0.53736600"><ele></ele><time>2014-6-17T7:22:53Z</time></trkpt>
<trkpt lat="47.25872300" lon="0.53785600"><ele></ele><time>2014-6-17T7:22:56Z</time></trkpt>
<trkpt lat="47.25820700" lon="0.53851500"><ele></ele><time>2014-6-17T7:22:59Z</time></trkpt>
<trkpt lat="47.25781500" lon="0.53888400"><ele></ele><time>2014-6-17T7:23:2Z</time></trkpt>
<trkpt lat="47.25713100" lon="0.53909200"><ele></ele><time>2014-6-17T7:23:5Z</time></trkpt>
<trkpt lat="47.25631000" lon="0.53919700"><ele></ele><time>2014-6-17T7:23:8Z</time></trkpt>
<trkpt lat="47.25596700" lon="0.53925600"><ele></ele><time>2014-6-17T7:23:11Z</time></trkpt>
<trkpt lat="47.25573200" lon="0.53950200"><ele></ele><time>2014-6-17T7:23:14Z</time></trkpt>
<trkpt lat="47.25570900" lon="0.53958800"><ele></ele><time>2014-6-17T7:23:17Z</time></trkpt>
<trkpt lat="47.25544400" lon="0.54005400"><ele></ele><time>2014-6-17T7:23:20Z</time></trkpt>
<trkpt lat="47.25513900" lon="0.54029300"><ele></ele><time>2014-6-17T7:23:23Z</time></trkpt>
<trkpt lat="47.25499400" lon="0.54040500"><ele></ele><time>2014-6-17T7:23:26Z</time></trkpt>
<trkpt lat="47.25501000" lon="0.54049800"><ele></ele><time>2014-6-17T7:23:29Z</time></trkpt>
<trkpt lat="47.25503800" lon="0.54049500"><ele></ele><time>2014-6-17T7:23:32Z</time></trkpt>
<trkpt lat="47.25524400" lon="0.54052500"><ele></ele><time>2014-6-17T7:23:35Z</time></trkpt>
<trkpt lat="47.25542100" lon="0.54068900"><ele></ele><time>2014-6-17T7:23:38Z</time></trkpt>
<trkpt lat="47.25565200" lon="0.54081800"><ele></ele><time>2014-6-17T7:23:41Z</time></trkpt>
<trkpt lat="47.25578200" lon="0.54087400"><ele></ele><time>2014-6-17T7:23:44Z</time></trkpt>
<trkpt lat="47.25594400" lon="0.54098500"><ele></ele><time>2014-6-17T7:23:47Z</time></trkpt>
<trkpt lat="47.25605600" lon="0.54106800"><ele></ele><time>2014-6-17T7:23:50Z</time></trkpt>
<trkpt lat="47.25636100" lon="0.54143900"><ele></ele><time>2014-6-17T7:23:53Z</time></trkpt>
<trkpt lat="47.25661300" lon="0.54182500"><ele></ele><time>2014-6-17T7:23:56Z</time></trkpt>
<trkpt lat="47.25669700" lon="0.54195600"><ele></ele><time>2014-6-17T7:23:59Z</time></trkpt>
<trkpt lat="47.25677300" lon="0.54215000"><ele></ele><time>2014-6-17T7:24:2Z</time></trkpt>
<trkpt lat="47.25678900" lon="0.54232500"><ele></ele><time>2014-6-17T7:24:5Z</time></trkpt>
<trkpt lat="47.25681500" lon="0.54285300"><ele></ele><time>2014-6-17T7:24:8Z</time></trkpt>
<trkpt lat="47.25687900" lon="0.54342300"><ele></ele><time>2014-6-17T7:24:11Z</time></trkpt>
<trkpt lat="47.25674800" lon="0.54354600"><ele></ele><time>2014-6-17T7:24:14Z</time></trkpt>
<trkpt lat="47.25664800" lon="0.54356100"><ele></ele><time>2014-6-17T7:24:17Z</time></trkpt>
<trkpt lat="47.25649900" lon="0.54357000"><ele></ele><time>2014-6-17T7:24:20Z</time></trkpt>
<trkpt lat="47.25626300" lon="0.54365200"><ele></ele><time>2014-6-17T7:24:23Z</time></trkpt>
<trkpt lat="47.25610000" lon="0.54371900"><ele></ele><time>2014-6-17T7:24:26Z</time></trkpt>
<trkpt lat="47.25569600" lon="0.54378800"><ele></ele><time>2014-6-17T7:24:29Z</time></trkpt>
<trkpt lat="47.25562800" lon="0.54381100"><ele></ele><time>2014-6-17T7:24:32Z</time></trkpt>
<trkpt lat="47.25545300" lon="0.54385500"><ele></ele><time>2014-6-17T7:24:35Z</time></trkpt>
<trkpt lat="47.25529400" lon="0.54386900"><ele></ele><time>2014-6-17T7:24:38Z</time></trkpt>
<trkpt lat="47.25525800" lon="0.54388700"><ele></ele><time>2014-6-17T7:24:41Z</time></trkpt>
<trkpt lat="47.25482700" lon="0.54401700"><ele></ele><time>2014-6-17T7:24:44Z</time></trkpt>
<trkpt lat="47.25434600" lon="0.54416800"><ele></ele><time>2014-6-17T7:24:47Z</time></trkpt>
<trkpt lat="47.25429900" lon="0.54418000"><ele></ele><time>2014-6-17T7:24:50Z</time></trkpt>
<trkpt lat="47.25384900" lon="0.54431300"><ele></ele><time>2014-6-17T7:24:53Z</time></trkpt>
<trkpt lat="47.25330800" lon="0.54449300"><ele></ele><time>2014-6-17T7:24:56Z</time></trkpt>
<trkpt lat="47.25300200" lon="0.54463900"><ele></ele><time>2014-6-17T7:24:59Z</time></trkpt>
<trkpt lat="47.25287000" lon="0.54460600"><ele></ele><time>2014-6-17T7:25:2Z</time></trkpt>
<trkpt lat="47.25279300" lon="0.54463300"><ele></ele><time>2014-6-17T7:25:5Z</time></trkpt>
<trkpt lat="47.25238300" lon="0.54479100"><ele></ele><time>2014-6-17T7:25:8Z</time></trkpt>
<trkpt lat="47.25192500" lon="0.54492500"><ele></ele><time>2014-6-17T7:25:11Z</time></trkpt>
<trkpt lat="47.25161300" lon="0.54501100"><ele></ele><time>2014-6-17T7:25:14Z</time></trkpt>
<trkpt lat="47.25121300" lon="0.54500200"><ele></ele><time>2014-6-17T7:25:17Z</time></trkpt>
<trkpt lat="47.25076700" lon="0.54491200"><ele></ele><time>2014-6-17T7:25:20Z</time></trkpt>
<trkpt lat="47.25071700" lon="0.54489700"><ele></ele><time>2014-6-17T7:25:23Z</time></trkpt>
<trkpt lat="47.25062000" lon="0.54487300"><ele></ele><time>2014-6-17T7:25:26Z</time></trkpt>
<trkpt lat="47.25050000" lon="0.54497100"><ele></ele><time>2014-6-17T7:25:29Z</time></trkpt>
<trkpt lat="47.25052800" lon="0.54508200"><ele></ele><time>2014-6-17T7:25:32Z</time></trkpt>
<trkpt lat="47.25067600" lon="0.54549500"><ele></ele><time>2014-6-17T7:25:35Z</time></trkpt>
<trkpt lat="47.25078600" lon="0.54575300"><ele></ele><time>2014-6-17T7:25:38Z</time></trkpt>
<trkpt lat="47.25076900" lon="0.54593800"><ele></ele><time>2014-6-17T7:25:41Z</time></trkpt>
<trkpt lat="47.25068700" lon="0.54595600"><ele></ele><time>2014-6-17T7:25:44Z</time></trkpt>
<trkpt lat="47.25045300" lon="0.54605300"><ele></ele><time>2014-6-17T7:25:47Z</time></trkpt>
<trkpt lat="47.24999600" lon="0.54627300"><ele></ele><time>2014-6-17T7:25:50Z</time></trkpt>
<trkpt lat="47.24953300" lon="0.54651700"><ele></ele><time>2014-6-17T7:25:53Z</time></trkpt>
<trkpt lat="47.24930500" lon="0.54661900"><ele></ele><time>2014-6-17T7:25:56Z</time></trkpt>
<trkpt lat="47.24910500" lon="0.54672100"><ele></ele><time>2014-6-17T7:25:59Z</time></trkpt>
<trkpt lat="47.24910600" lon="0.54688200"><ele></ele><time>2014-6-17T7:26:2Z</time></trkpt>
<trkpt lat="47.24925900" lon="0.54730400"><ele></ele><time>2014-6-17T7:26:5Z</time></trkpt>
<trkpt lat="47.24942700" lon="0.54781700"><ele></ele><time>2014-6-17T7:26:8Z</time></trkpt>
<trkpt lat="47.24960600" lon="0.54829500"><ele></ele><time>2014-6-17T7:26:11Z</time></trkpt>
<trkpt lat="47.24969100" lon="0.54846500"><ele></ele><time>2014-6-17T7:26:14Z</time></trkpt>
<trkpt lat="47.24984700" lon="0.54873800"><ele></ele><time>2014-6-17T7:26:17Z</time></trkpt>
<trkpt lat="47.25018200" lon="0.54943900"><ele></ele><time>2014-6-17T7:26:20Z</time></trkpt>
<trkpt lat="47.25033500" lon="0.54977900"><ele></ele><time>2014-6-17T7:26:23Z</time></trkpt>
<trkpt lat="47.25038000" lon="0.55000000"><ele></ele><time>2014-6-17T7:26:26Z</time></trkpt>
<trkpt lat="47.25033100" lon="0.55003600"><ele></ele><time>2014-6-17T7:26:29Z</time></trkpt>
<trkpt lat="47.25006500" lon="0.55024600"><ele></ele><time>2014-6-17T7:26:32Z</time></trkpt>
<trkpt lat="47.24982100" lon="0.55043300"><ele></ele><time>2014-6-17T7:26:35Z</time></trkpt>
<trkpt lat="47.24970200" lon="0.55046600"><ele></ele><time>2014-6-17T7:26:38Z</time></trkpt>
<trkpt lat="47.24938200" lon="0.55062500"><ele></ele><time>2014-6-17T7:26:41Z</time></trkpt>
<trkpt lat="47.24933500" lon="0.55065300"><ele></ele><time>2014-6-17T7:26:44Z</time></trkpt>
<trkpt lat="47.24909100" lon="0.55085100"><ele></ele><time>2014-6-17T7:26:47Z</time></trkpt>
<trkpt lat="47.24882000" lon="0.55099100"><ele></ele><time>2014-6-17T7:26:50Z</time></trkpt>
<trkpt lat="47.24873800" lon="0.55102800"><ele></ele><time>2014-6-17T7:26:53Z</time></trkpt>
<trkpt lat="47.24873800" lon="0.55102800"><ele></ele><time>2014-6-17T7:26:56Z</time></trkpt>
<trkpt lat="47.24870300" lon="0.55114900"><ele></ele><time>2014-6-17T7:26:59Z</time></trkpt>
<trkpt lat="47.24877400" lon="0.55148300"><ele></ele><time>2014-6-17T7:27:2Z</time></trkpt>
<trkpt lat="47.24878900" lon="0.55153800"><ele></ele><time>2014-6-17T7:27:5Z</time></trkpt>
<trkpt lat="47.24885200" lon="0.55186100"><ele></ele><time>2014-6-17T7:27:8Z</time></trkpt>
<trkpt lat="47.24901200" lon="0.55261300"><ele></ele><time>2014-6-17T7:27:11Z</time></trkpt>
<trkpt lat="47.24914300" lon="0.55334400"><ele></ele><time>2014-6-17T7:27:14Z</time></trkpt>
<trkpt lat="47.24921300" lon="0.55374100"><ele></ele><time>2014-6-17T7:27:17Z</time></trkpt>
<trkpt lat="47.24914800" lon="0.55390100"><ele></ele><time>2014-6-17T7:27:20Z</time></trkpt>
<trkpt lat="47.24887800" lon="0.55391000"><ele></ele><time>2014-6-17T7:27:23Z</time></trkpt>
<trkpt lat="47.24844600" lon="0.55392700"><ele></ele><time>2014-6-17T7:27:26Z</time></trkpt>
<trkpt lat="47.24812000" lon="0.55395000"><ele></ele><time>2014-6-17T7:27:29Z</time></trkpt>
<trkpt lat="47.24785400" lon="0.55398800"><ele></ele><time>2014-6-17T7:27:32Z</time></trkpt>
<trkpt lat="47.24754100" lon="0.55396600"><ele></ele><time>2014-6-17T7:27:35Z</time></trkpt>
<trkpt lat="47.24727000" lon="0.55392300"><ele></ele><time>2014-6-17T7:27:38Z</time></trkpt>
<trkpt lat="47.24717600" lon="0.55391800"><ele></ele><time>2014-6-17T7:27:41Z</time></trkpt>
<trkpt lat="47.24699500" lon="0.55389700"><ele></ele><time>2014-6-17T7:27:44Z</time></trkpt>
<trkpt lat="47.24680300" lon="0.55395400"><ele></ele><time>2014-6-17T7:27:47Z</time></trkpt>
<trkpt lat="47.24661500" lon="0.55395600"><ele></ele><time>2014-6-17T7:27:50Z</time></trkpt>
<trkpt lat="47.24643800" lon="0.55400900"><ele></ele><time>2014-6-17T7:27:53Z</time></trkpt>
<trkpt lat="47.24619800" lon="0.55403800"><ele></ele><time>2014-6-17T7:27:56Z</time></trkpt>
<trkpt lat="47.24597700" lon="0.55407100"><ele></ele><time>2014-6-17T7:27:59Z</time></trkpt>
<trkpt lat="47.24567900" lon="0.55409300"><ele></ele><time>2014-6-17T7:28:2Z</time></trkpt>
<trkpt lat="47.24544900" lon="0.55403500"><ele></ele><time>2014-6-17T7:28:5Z</time></trkpt>
<trkpt lat="47.24517500" lon="0.55396500"><ele></ele><time>2014-6-17T7:28:8Z</time></trkpt>
<trkpt lat="47.24485300" lon="0.55390700"><ele></ele><time>2014-6-17T7:28:11Z</time></trkpt>
<trkpt lat="47.24446700" lon="0.55387500"><ele></ele><time>2014-6-17T7:28:14Z</time></trkpt>
<trkpt lat="47.24419800" lon="0.55386900"><ele></ele><time>2014-6-17T7:28:17Z</time></trkpt>
<trkpt lat="47.24390800" lon="0.55382000"><ele></ele><time>2014-6-17T7:28:20Z</time></trkpt>
<trkpt lat="47.24352500" lon="0.55373900"><ele></ele><time>2014-6-17T7:28:23Z</time></trkpt>
<trkpt lat="47.24331600" lon="0.55372400"><ele></ele><time>2014-6-17T7:28:26Z</time></trkpt>
<trkpt lat="47.24303800" lon="0.55368100"><ele></ele><time>2014-6-17T7:28:29Z</time></trkpt>
<trkpt lat="47.24279800" lon="0.55361200"><ele></ele><time>2014-6-17T7:28:32Z</time></trkpt>
<trkpt lat="47.24255600" lon="0.55358400"><ele></ele><time>2014-6-17T7:28:35Z</time></trkpt>
<trkpt lat="47.24231500" lon="0.55360900"><ele></ele><time>2014-6-17T7:28:38Z</time></trkpt>
<trkpt lat="47.24206100" lon="0.55362700"><ele></ele><time>2014-6-17T7:28:41Z</time></trkpt>
<trkpt lat="47.24185100" lon="0.55364100"><ele></ele><time>2014-6-17T7:28:44Z</time></trkpt>
<trkpt lat="47.24162300" lon="0.55364000"><ele></ele><time>2014-6-17T7:28:47Z</time></trkpt>
<trkpt lat="47.24132600" lon="0.55361400"><ele></ele><time>2014-6-17T7:28:50Z</time></trkpt>
<trkpt lat="47.24102900" lon="0.55358400"><ele></ele><time>2014-6-17T7:28:53Z</time></trkpt>
<trkpt lat="47.24066400" lon="0.55354900"><ele></ele><time>2014-6-17T7:28:56Z</time></trkpt>
<trkpt lat="47.24037800" lon="0.55356900"><ele></ele><time>2014-6-17T7:28:59Z</time></trkpt>
<trkpt lat="47.24031200" lon="0.55356000"><ele></ele><time>2014-6-17T7:29:2Z</time></trkpt>
<trkpt lat="47.24004100" lon="0.55357900"><ele></ele><time>2014-6-17T7:29:5Z</time></trkpt>
<trkpt lat="47.23986000" lon="0.55358000"><ele></ele><time>2014-6-17T7:29:8Z</time></trkpt>
<trkpt lat="47.23958600" lon="0.55359700"><ele></ele><time>2014-6-17T7:29:11Z</time></trkpt>
<trkpt lat="47.23941600" lon="0.55361200"><ele></ele><time>2014-6-17T7:29:14Z</time></trkpt>
<trkpt lat="47.23915800" lon="0.55364300"><ele></ele><time>2014-6-17T7:29:17Z</time></trkpt>
<trkpt lat="47.23895600" lon="0.55369300"><ele></ele><time>2014-6-17T7:29:20Z</time></trkpt>
<trkpt lat="47.23871500" lon="0.55391200"><ele></ele><time>2014-6-17T7:29:23Z</time></trkpt>
<trkpt lat="47.23850100" lon="0.55417800"><ele></ele><time>2014-6-17T7:29:26Z</time></trkpt>
<trkpt lat="47.23830000" lon="0.55438500"><ele></ele><time>2014-6-17T7:29:29Z</time></trkpt>
<trkpt lat="47.23810500" lon="0.55455100"><ele></ele><time>2014-6-17T7:29:32Z</time></trkpt>
<trkpt lat="47.23790700" lon="0.55473700"><ele></ele><time>2014-6-17T7:29:35Z</time></trkpt>
<trkpt lat="47.23786900" lon="0.55478900"><ele></ele><time>2014-6-17T7:29:38Z</time></trkpt>
<trkpt lat="47.23766400" lon="0.55510100"><ele></ele><time>2014-6-17T7:29:41Z</time></trkpt>
<trkpt lat="47.23751400" lon="0.55527900"><ele></ele><time>2014-6-17T7:29:44Z</time></trkpt>
<trkpt lat="47.23737300" lon="0.55542500"><ele></ele><time>2014-6-17T7:29:47Z</time></trkpt>
<trkpt lat="47.23718600" lon="0.55549900"><ele></ele><time>2014-6-17T7:29:50Z</time></trkpt>
<trkpt lat="47.23699500" lon="0.55546200"><ele></ele><time>2014-6-17T7:29:53Z</time></trkpt>
<trkpt lat="47.23675800" lon="0.55541900"><ele></ele><time>2014-6-17T7:29:56Z</time></trkpt>
<trkpt lat="47.23648200" lon="0.55540200"><ele></ele><time>2014-6-17T7:29:59Z</time></trkpt>
<trkpt lat="47.23623500" lon="0.55534500"><ele></ele><time>2014-6-17T7:30:2Z</time></trkpt>
<trkpt lat="47.23601400" lon="0.55534000"><ele></ele><time>2014-6-17T7:30:5Z</time></trkpt>
<trkpt lat="47.23578500" lon="0.55534800"><ele></ele><time>2014-6-17T7:30:8Z</time></trkpt>
<trkpt lat="47.23563000" lon="0.55537800"><ele></ele><time>2014-6-17T7:30:11Z</time></trkpt>
<trkpt lat="47.23555200" lon="0.55564600"><ele></ele><time>2014-6-17T7:30:14Z</time></trkpt>
<trkpt lat="47.23545100" lon="0.55615000"><ele></ele><time>2014-6-17T7:30:17Z</time></trkpt>
<trkpt lat="47.23536800" lon="0.55651700"><ele></ele><time>2014-6-17T7:30:20Z</time></trkpt>
<trkpt lat="47.23526700" lon="0.55687500"><ele></ele><time>2014-6-17T7:30:23Z</time></trkpt>
<trkpt lat="47.23517200" lon="0.55714400"><ele></ele><time>2014-6-17T7:30:26Z</time></trkpt>
<trkpt lat="47.23509700" lon="0.55731800"><ele></ele><time>2014-6-17T7:30:29Z</time></trkpt>
<trkpt lat="47.23497700" lon="0.55762100"><ele></ele><time>2014-6-17T7:30:32Z</time></trkpt>
<trkpt lat="47.23496100" lon="0.55768300"><ele></ele><time>2014-6-17T7:30:35Z</time></trkpt>
<trkpt lat="47.23486800" lon="0.55792400"><ele></ele><time>2014-6-17T7:30:38Z</time></trkpt>
<trkpt lat="47.23480100" lon="0.55807300"><ele></ele><time>2014-6-17T7:30:41Z</time></trkpt>
<trkpt lat="47.23471800" lon="0.55807900"><ele></ele><time>2014-6-17T7:30:44Z</time></trkpt>
<trkpt lat="47.23462900" lon="0.55790400"><ele></ele><time>2014-6-17T7:30:47Z</time></trkpt>
<trkpt lat="47.23452700" lon="0.55773100"><ele></ele><time>2014-6-17T7:30:50Z</time></trkpt>
<trkpt lat="47.23443100" lon="0.55767700"><ele></ele><time>2014-6-17T7:30:53Z</time></trkpt>
<trkpt lat="47.23426700" lon="0.55756000"><ele></ele><time>2014-6-17T7:30:56Z</time></trkpt>
<trkpt lat="47.23413500" lon="0.55742200"><ele></ele><time>2014-6-17T7:30:59Z</time></trkpt>
<trkpt lat="47.23398600" lon="0.55730700"><ele></ele><time>2014-6-17T7:31:2Z</time></trkpt>
<trkpt lat="47.23379100" lon="0.55714900"><ele></ele><time>2014-6-17T7:31:5Z</time></trkpt>
<trkpt lat="47.23366500" lon="0.55700500"><ele></ele><time>2014-6-17T7:31:8Z</time></trkpt>
<trkpt lat="47.23353000" lon="0.55681700"><ele></ele><time>2014-6-17T7:31:11Z</time></trkpt>
<trkpt lat="47.23343100" lon="0.55662900"><ele></ele><time>2014-6-17T7:31:14Z</time></trkpt>
<trkpt lat="47.23325300" lon="0.55641700"><ele></ele><time>2014-6-17T7:31:17Z</time></trkpt>
<trkpt lat="47.23313200" lon="0.55634100"><ele></ele><time>2014-6-17T7:31:20Z</time></trkpt>
<trkpt lat="47.23296800" lon="0.55618900"><ele></ele><time>2014-6-17T7:31:23Z</time></trkpt>
<trkpt lat="47.23279100" lon="0.55608000"><ele></ele><time>2014-6-17T7:31:26Z</time></trkpt>
<trkpt lat="47.23261500" lon="0.55592000"><ele></ele><time>2014-6-17T7:31:29Z</time></trkpt>
<trkpt lat="47.23245700" lon="0.55580300"><ele></ele><time>2014-6-17T7:31:32Z</time></trkpt>
<trkpt lat="47.23232800" lon="0.55568200"><ele></ele><time>2014-6-17T7:31:35Z</time></trkpt>
<trkpt lat="47.23216900" lon="0.55548100"><ele></ele><time>2014-6-17T7:31:38Z</time></trkpt>
<trkpt lat="47.23205200" lon="0.55527600"><ele></ele><time>2014-6-17T7:31:41Z</time></trkpt>
<trkpt lat="47.23186100" lon="0.55504100"><ele></ele><time>2014-6-17T7:31:44Z</time></trkpt>
<trkpt lat="47.23172400" lon="0.55491000"><ele></ele><time>2014-6-17T7:31:47Z</time></trkpt>
<trkpt lat="47.23165500" lon="0.55491400"><ele></ele><time>2014-6-17T7:31:50Z</time></trkpt>
<trkpt lat="47.23159700" lon="0.55490400"><ele></ele><time>2014-6-17T7:31:53Z</time></trkpt>
<trkpt lat="47.23146300" lon="0.55488000"><ele></ele><time>2014-6-17T7:31:56Z</time></trkpt>
<trkpt lat="47.23124400" lon="0.55481900"><ele></ele><time>2014-6-17T7:31:59Z</time></trkpt>
<trkpt lat="47.23110500" lon="0.55478100"><ele></ele><time>2014-6-17T7:32:2Z</time></trkpt>
<trkpt lat="47.23093300" lon="0.55477000"><ele></ele><time>2014-6-17T7:32:5Z</time></trkpt>
<trkpt lat="47.23083400" lon="0.55474900"><ele></ele><time>2014-6-17T7:32:8Z</time></trkpt>
<trkpt lat="47.23080000" lon="0.55474400"><ele></ele><time>2014-6-17T7:32:11Z</time></trkpt>
<trkpt lat="47.23066800" lon="0.55472600"><ele></ele><time>2014-6-17T7:32:14Z</time></trkpt>
<trkpt lat="47.23049400" lon="0.55466000"><ele></ele><time>2014-6-17T7:32:17Z</time></trkpt>
<trkpt lat="47.23035200" lon="0.55466000"><ele></ele><time>2014-6-17T7:32:20Z</time></trkpt>
<trkpt lat="47.23018200" lon="0.55461600"><ele></ele><time>2014-6-17T7:32:23Z</time></trkpt>
<trkpt lat="47.22999500" lon="0.55455800"><ele></ele><time>2014-6-17T7:32:26Z</time></trkpt>
<trkpt lat="47.22981800" lon="0.55454600"><ele></ele><time>2014-6-17T7:32:29Z</time></trkpt>
<trkpt lat="47.22959900" lon="0.55449600"><ele></ele><time>2014-6-17T7:32:32Z</time></trkpt>
<trkpt lat="47.22957200" lon="0.55449500"><ele></ele><time>2014-6-17T7:32:35Z</time></trkpt>
<trkpt lat="47.22937900" lon="0.55448200"><ele></ele><time>2014-6-17T7:32:38Z</time></trkpt>
<trkpt lat="47.22927800" lon="0.55446500"><ele></ele><time>2014-6-17T7:32:41Z</time></trkpt>
<trkpt lat="47.22905800" lon="0.55441900"><ele></ele><time>2014-6-17T7:32:44Z</time></trkpt>
<trkpt lat="47.22886800" lon="0.55443500"><ele></ele><time>2014-6-17T7:32:47Z</time></trkpt>
<trkpt lat="47.22863100" lon="0.55443100"><ele></ele><time>2014-6-17T7:32:50Z</time></trkpt>
<trkpt lat="47.22837800" lon="0.55439900"><ele></ele><time>2014-6-17T7:32:53Z</time></trkpt>
<trkpt lat="47.22824500" lon="0.55438300"><ele></ele><time>2014-6-17T7:32:56Z</time></trkpt>
<trkpt lat="47.22812500" lon="0.55435300"><ele></ele><time>2014-6-17T7:32:59Z</time></trkpt>
<trkpt lat="47.22804400" lon="0.55431400"><ele></ele><time>2014-6-17T7:33:2Z</time></trkpt>
<trkpt lat="47.22781900" lon="0.55427300"><ele></ele><time>2014-6-17T7:33:5Z</time></trkpt>
<trkpt lat="47.22765000" lon="0.55425900"><ele></ele><time>2014-6-17T7:33:8Z</time></trkpt>
<trkpt lat="47.22741600" lon="0.55419200"><ele></ele><time>2014-6-17T7:33:11Z</time></trkpt>
<trkpt lat="47.22712800" lon="0.55417100"><ele></ele><time>2014-6-17T7:33:14Z</time></trkpt>
<trkpt lat="47.22679000" lon="0.55416900"><ele></ele><time>2014-6-17T7:33:17Z</time></trkpt>
<trkpt lat="47.22670300" lon="0.55417700"><ele></ele><time>2014-6-17T7:33:20Z</time></trkpt>
<trkpt lat="47.22638200" lon="0.55417600"><ele></ele><time>2014-6-17T7:33:23Z</time></trkpt>
<trkpt lat="47.22621200" lon="0.55417400"><ele></ele><time>2014-6-17T7:33:26Z</time></trkpt>
<trkpt lat="47.22591100" lon="0.55416800"><ele></ele><time>2014-6-17T7:33:29Z</time></trkpt>
<trkpt lat="47.22551500" lon="0.55411700"><ele></ele><time>2014-6-17T7:33:32Z</time></trkpt>
<trkpt lat="47.22538900" lon="0.55412600"><ele></ele><time>2014-6-17T7:33:35Z</time></trkpt>
<trkpt lat="47.22499300" lon="0.55411200"><ele></ele><time>2014-6-17T7:33:38Z</time></trkpt>
<trkpt lat="47.22465400" lon="0.55408700"><ele></ele><time>2014-6-17T7:33:41Z</time></trkpt>
<trkpt lat="47.22451500" lon="0.55408400"><ele></ele><time>2014-6-17T7:33:44Z</time></trkpt>
<trkpt lat="47.22446100" lon="0.55405500"><ele></ele><time>2014-6-17T7:33:47Z</time></trkpt>
<trkpt lat="47.22446100" lon="0.55405500"><ele></ele><time>2014-6-17T7:33:50Z</time></trkpt>
<trkpt lat="47.22448600" lon="0.55424200"><ele></ele><time>2014-6-17T7:33:53Z</time></trkpt>
<trkpt lat="47.22450300" lon="0.55437700"><ele></ele><time>2014-6-17T7:33:56Z</time></trkpt>
<trkpt lat="47.22450700" lon="0.55481400"><ele></ele><time>2014-6-17T7:33:59Z</time></trkpt>
<trkpt lat="47.22456200" lon="0.55514900"><ele></ele><time>2014-6-17T7:34:2Z</time></trkpt>
<trkpt lat="47.22458200" lon="0.55538700"><ele></ele><time>2014-6-17T7:34:5Z</time></trkpt>
<trkpt lat="47.22462000" lon="0.55579600"><ele></ele><time>2014-6-17T7:34:8Z</time></trkpt>
<trkpt lat="47.22464300" lon="0.55612200"><ele></ele><time>2014-6-17T7:34:11Z</time></trkpt>
<trkpt lat="47.22468300" lon="0.55651300"><ele></ele><time>2014-6-17T7:34:14Z</time></trkpt>
<trkpt lat="47.22463100" lon="0.55675900"><ele></ele><time>2014-6-17T7:34:17Z</time></trkpt>
<trkpt lat="47.22453600" lon="0.55695000"><ele></ele><time>2014-6-17T7:34:20Z</time></trkpt>
<trkpt lat="47.22426200" lon="0.55730500"><ele></ele><time>2014-6-17T7:34:23Z</time></trkpt>
<trkpt lat="47.22395800" lon="0.55761500"><ele></ele><time>2014-6-17T7:34:26Z</time></trkpt>
<trkpt lat="47.22393200" lon="0.55765800"><ele></ele><time>2014-6-17T7:34:29Z</time></trkpt>
<trkpt lat="47.22397900" lon="0.55788800"><ele></ele><time>2014-6-17T7:34:32Z</time></trkpt>
<trkpt lat="47.22401000" lon="0.55792600"><ele></ele><time>2014-6-17T7:34:35Z</time></trkpt>
<trkpt lat="47.22430800" lon="0.55822400"><ele></ele><time>2014-6-17T7:34:38Z</time></trkpt>
<trkpt lat="47.22460500" lon="0.55850400"><ele></ele><time>2014-6-17T7:34:41Z</time></trkpt>
<trkpt lat="47.22482100" lon="0.55872700"><ele></ele><time>2014-6-17T7:34:44Z</time></trkpt>
<trkpt lat="47.22506000" lon="0.55897500"><ele></ele><time>2014-6-17T7:34:47Z</time></trkpt>
<trkpt lat="47.22539000" lon="0.55926900"><ele></ele><time>2014-6-17T7:34:50Z</time></trkpt>
<trkpt lat="47.22545500" lon="0.55937900"><ele></ele><time>2014-6-17T7:34:53Z</time></trkpt>
<trkpt lat="47.22572400" lon="0.55970100"><ele></ele><time>2014-6-17T7:34:56Z</time></trkpt>
<trkpt lat="47.22600300" lon="0.56000300"><ele></ele><time>2014-6-17T7:34:59Z</time></trkpt>
<trkpt lat="47.22618700" lon="0.56021800"><ele></ele><time>2014-6-17T7:35:2Z</time></trkpt>
<trkpt lat="47.22637000" lon="0.56037100"><ele></ele><time>2014-6-17T7:35:5Z</time></trkpt>
<trkpt lat="47.22654400" lon="0.56061300"><ele></ele><time>2014-6-17T7:35:8Z</time></trkpt>
<trkpt lat="47.22675200" lon="0.56083500"><ele></ele><time>2014-6-17T7:35:11Z</time></trkpt>
<trkpt lat="47.22701300" lon="0.56117300"><ele></ele><time>2014-6-17T7:35:14Z</time></trkpt>
<trkpt lat="47.22712800" lon="0.56127600"><ele></ele><time>2014-6-17T7:35:17Z</time></trkpt>
<trkpt lat="47.22744700" lon="0.56158000"><ele></ele><time>2014-6-17T7:35:20Z</time></trkpt>
<trkpt lat="47.22760000" lon="0.56169900"><ele></ele><time>2014-6-17T7:35:23Z</time></trkpt>
<trkpt lat="47.22786200" lon="0.56193300"><ele></ele><time>2014-6-17T7:35:26Z</time></trkpt>
<trkpt lat="47.22813400" lon="0.56211000"><ele></ele><time>2014-6-17T7:35:29Z</time></trkpt>
<trkpt lat="47.22824700" lon="0.56216600"><ele></ele><time>2014-6-17T7:35:32Z</time></trkpt>
<trkpt lat="47.22848300" lon="0.56234400"><ele></ele><time>2014-6-17T7:35:35Z</time></trkpt>
<trkpt lat="47.22866300" lon="0.56243800"><ele></ele><time>2014-6-17T7:35:38Z</time></trkpt>
<trkpt lat="47.22884300" lon="0.56252200"><ele></ele><time>2014-6-17T7:35:41Z</time></trkpt>
<trkpt lat="47.22891600" lon="0.56255400"><ele></ele><time>2014-6-17T7:35:44Z</time></trkpt>
<trkpt lat="47.22926700" lon="0.56273300"><ele></ele><time>2014-6-17T7:35:47Z</time></trkpt>
<trkpt lat="47.22948700" lon="0.56280400"><ele></ele><time>2014-6-17T7:35:50Z</time></trkpt>
<trkpt lat="47.22969800" lon="0.56287000"><ele></ele><time>2014-6-17T7:35:53Z</time></trkpt>
<trkpt lat="47.22995400" lon="0.56291900"><ele></ele><time>2014-6-17T7:35:56Z</time></trkpt>
<trkpt lat="47.23010400" lon="0.56297500"><ele></ele><time>2014-6-17T7:35:59Z</time></trkpt>
<trkpt lat="47.23036600" lon="0.56304700"><ele></ele><time>2014-6-17T7:36:2Z</time></trkpt>
<trkpt lat="47.23065900" lon="0.56310100"><ele></ele><time>2014-6-17T7:36:5Z</time></trkpt>
<trkpt lat="47.23095800" lon="0.56316600"><ele></ele><time>2014-6-17T7:36:8Z</time></trkpt>
<trkpt lat="47.23140100" lon="0.56331700"><ele></ele><time>2014-6-17T7:36:11Z</time></trkpt>
<trkpt lat="47.23157000" lon="0.56336600"><ele></ele><time>2014-6-17T7:36:14Z</time></trkpt>
<trkpt lat="47.23177900" lon="0.56343500"><ele></ele><time>2014-6-17T7:36:17Z</time></trkpt>
<trkpt lat="47.23222900" lon="0.56350100"><ele></ele><time>2014-6-17T7:36:20Z</time></trkpt>
<trkpt lat="47.23244600" lon="0.56354400"><ele></ele><time>2014-6-17T7:36:23Z</time></trkpt>
<trkpt lat="47.23274300" lon="0.56365300"><ele></ele><time>2014-6-17T7:36:26Z</time></trkpt>
<trkpt lat="47.23306000" lon="0.56383400"><ele></ele><time>2014-6-17T7:36:29Z</time></trkpt>
<trkpt lat="47.23334800" lon="0.56399400"><ele></ele><time>2014-6-17T7:36:32Z</time></trkpt>
<trkpt lat="47.23363400" lon="0.56407300"><ele></ele><time>2014-6-17T7:36:35Z</time></trkpt>
<trkpt lat="47.23391600" lon="0.56415800"><ele></ele><time>2014-6-17T7:36:38Z</time></trkpt>
<trkpt lat="47.23415400" lon="0.56422900"><ele></ele><time>2014-6-17T7:36:41Z</time></trkpt>
<trkpt lat="47.23439600" lon="0.56433800"><ele></ele><time>2014-6-17T7:36:44Z</time></trkpt>
<trkpt lat="47.23459700" lon="0.56454800"><ele></ele><time>2014-6-17T7:36:47Z</time></trkpt>
<trkpt lat="47.23481700" lon="0.56476100"><ele></ele><time>2014-6-17T7:36:50Z</time></trkpt>
<trkpt lat="47.23502600" lon="0.56497600"><ele></ele><time>2014-6-17T7:36:53Z</time></trkpt>
<trkpt lat="47.23529700" lon="0.56527600"><ele></ele><time>2014-6-17T7:36:56Z</time></trkpt>
<trkpt lat="47.23553600" lon="0.56554400"><ele></ele><time>2014-6-17T7:36:59Z</time></trkpt>
<trkpt lat="47.23582700" lon="0.56583700"><ele></ele><time>2014-6-17T7:37:2Z</time></trkpt>
<trkpt lat="47.23597200" lon="0.56601000"><ele></ele><time>2014-6-17T7:37:5Z</time></trkpt>
<trkpt lat="47.23619000" lon="0.56623500"><ele></ele><time>2014-6-17T7:37:8Z</time></trkpt>
<trkpt lat="47.23622300" lon="0.56636700"><ele></ele><time>2014-6-17T7:37:11Z</time></trkpt>
<trkpt lat="47.23636200" lon="0.56654800"><ele></ele><time>2014-6-17T7:37:14Z</time></trkpt>
<trkpt lat="47.23650800" lon="0.56672000"><ele></ele><time>2014-6-17T7:37:17Z</time></trkpt>
<trkpt lat="47.23663300" lon="0.56691800"><ele></ele><time>2014-6-17T7:37:20Z</time></trkpt>
<trkpt lat="47.23673700" lon="0.56707600"><ele></ele><time>2014-6-17T7:37:23Z</time></trkpt>
<trkpt lat="47.23679900" lon="0.56728700"><ele></ele><time>2014-6-17T7:37:26Z</time></trkpt>
<trkpt lat="47.23685200" lon="0.56749000"><ele></ele><time>2014-6-17T7:37:29Z</time></trkpt>
<trkpt lat="47.23689100" lon="0.56770300"><ele></ele><time>2014-6-17T7:37:32Z</time></trkpt>
<trkpt lat="47.23694700" lon="0.56788300"><ele></ele><time>2014-6-17T7:37:35Z</time></trkpt>
<trkpt lat="47.23695700" lon="0.56816200"><ele></ele><time>2014-6-17T7:37:38Z</time></trkpt>
<trkpt lat="47.23701800" lon="0.56858600"><ele></ele><time>2014-6-17T7:37:41Z</time></trkpt>
<trkpt lat="47.23702100" lon="0.56863900"><ele></ele><time>2014-6-17T7:37:44Z</time></trkpt>
<trkpt lat="47.23709700" lon="0.56903900"><ele></ele><time>2014-6-17T7:37:47Z</time></trkpt>
<trkpt lat="47.23718000" lon="0.56956600"><ele></ele><time>2014-6-17T7:37:50Z</time></trkpt>
<trkpt lat="47.23723300" lon="0.56990800"><ele></ele><time>2014-6-17T7:37:53Z</time></trkpt>
<trkpt lat="47.23732100" lon="0.57049600"><ele></ele><time>2014-6-17T7:37:56Z</time></trkpt>
<trkpt lat="47.23727900" lon="0.57068200"><ele></ele><time>2014-6-17T7:37:59Z</time></trkpt>
<trkpt lat="47.23726500" lon="0.57071000"><ele></ele><time>2014-6-17T7:38:2Z</time></trkpt>
<trkpt lat="47.23717100" lon="0.57082300"><ele></ele><time>2014-6-17T7:38:5Z</time></trkpt>
<trkpt lat="47.23698400" lon="0.57097400"><ele></ele><time>2014-6-17T7:38:8Z</time></trkpt>
<trkpt lat="47.23694600" lon="0.57114000"><ele></ele><time>2014-6-17T7:38:11Z</time></trkpt>
<trkpt lat="47.23704000" lon="0.57126500"><ele></ele><time>2014-6-17T7:38:14Z</time></trkpt>
<trkpt lat="47.23722900" lon="0.57152600"><ele></ele><time>2014-6-17T7:38:17Z</time></trkpt>
<trkpt lat="47.23728500" lon="0.57158100"><ele></ele><time>2014-6-17T7:38:20Z</time></trkpt>
<trkpt lat="47.23746200" lon="0.57176700"><ele></ele><time>2014-6-17T7:38:23Z</time></trkpt>
<trkpt lat="47.23748500" lon="0.57181000"><ele></ele><time>2014-6-17T7:38:26Z</time></trkpt>
<trkpt lat="47.23760500" lon="0.57196400"><ele></ele><time>2014-6-17T7:38:29Z</time></trkpt>
<trkpt lat="47.23777500" lon="0.57212900"><ele></ele><time>2014-6-17T7:38:32Z</time></trkpt>
<trkpt lat="47.23784300" lon="0.57219500"><ele></ele><time>2014-6-17T7:38:35Z</time></trkpt>
<trkpt lat="47.23803100" lon="0.57237900"><ele></ele><time>2014-6-17T7:38:38Z</time></trkpt>
<trkpt lat="47.23820200" lon="0.57258000"><ele></ele><time>2014-6-17T7:38:41Z</time></trkpt>
<trkpt lat="47.23837500" lon="0.57268900"><ele></ele><time>2014-6-17T7:38:44Z</time></trkpt>
<trkpt lat="47.23857900" lon="0.57283600"><ele></ele><time>2014-6-17T7:38:47Z</time></trkpt>
<trkpt lat="47.23861600" lon="0.57285700"><ele></ele><time>2014-6-17T7:38:50Z</time></trkpt>
<trkpt lat="47.23879800" lon="0.57300700"><ele></ele><time>2014-6-17T7:38:53Z</time></trkpt>
<trkpt lat="47.23886700" lon="0.57306500"><ele></ele><time>2014-6-17T7:38:56Z</time></trkpt>
<trkpt lat="47.23894200" lon="0.57312700"><ele></ele><time>2014-6-17T7:38:59Z</time></trkpt>
<trkpt lat="47.23916700" lon="0.57328300"><ele></ele><time>2014-6-17T7:39:2Z</time></trkpt>
<trkpt lat="47.23923200" lon="0.57335600"><ele></ele><time>2014-6-17T7:39:5Z</time></trkpt>
<trkpt lat="47.23954400" lon="0.57355400"><ele></ele><time>2014-6-17T7:39:8Z</time></trkpt>
<trkpt lat="47.23972600" lon="0.57359400"><ele></ele><time>2014-6-17T7:39:11Z</time></trkpt>
<trkpt lat="47.23980200" lon="0.57362700"><ele></ele><time>2014-6-17T7:39:14Z</time></trkpt>
<trkpt lat="47.24007600" lon="0.57365400"><ele></ele><time>2014-6-17T7:39:17Z</time></trkpt>
<trkpt lat="47.24036900" lon="0.57373900"><ele></ele><time>2014-6-17T7:39:20Z</time></trkpt>
<trkpt lat="47.24073800" lon="0.57380200"><ele></ele><time>2014-6-17T7:39:23Z</time></trkpt>
<trkpt lat="47.24111400" lon="0.57388200"><ele></ele><time>2014-6-17T7:39:26Z</time></trkpt>
<trkpt lat="47.24131500" lon="0.57389800"><ele></ele><time>2014-6-17T7:39:29Z</time></trkpt>
<trkpt lat="47.24134200" lon="0.57391900"><ele></ele><time>2014-6-17T7:39:32Z</time></trkpt>
<trkpt lat="47.24160900" lon="0.57406000"><ele></ele><time>2014-6-17T7:39:35Z</time></trkpt>
<trkpt lat="47.24164900" lon="0.57407400"><ele></ele><time>2014-6-17T7:39:38Z</time></trkpt>
<trkpt lat="47.24191500" lon="0.57414000"><ele></ele><time>2014-6-17T7:39:41Z</time></trkpt>
<trkpt lat="47.24219500" lon="0.57417400"><ele></ele><time>2014-6-17T7:39:44Z</time></trkpt>
<trkpt lat="47.24224100" lon="0.57418900"><ele></ele><time>2014-6-17T7:39:47Z</time></trkpt>
<trkpt lat="47.24250200" lon="0.57419600"><ele></ele><time>2014-6-17T7:39:50Z</time></trkpt>
<trkpt lat="47.24274600" lon="0.57427400"><ele></ele><time>2014-6-17T7:39:53Z</time></trkpt>
<trkpt lat="47.24328200" lon="0.57429300"><ele></ele><time>2014-6-17T7:39:56Z</time></trkpt>
<trkpt lat="47.24367600" lon="0.57428400"><ele></ele><time>2014-6-17T7:39:59Z</time></trkpt>
<trkpt lat="47.24384000" lon="0.57427200"><ele></ele><time>2014-6-17T7:40:2Z</time></trkpt>
<trkpt lat="47.24401200" lon="0.57426400"><ele></ele><time>2014-6-17T7:40:5Z</time></trkpt>
<trkpt lat="47.24414900" lon="0.57441000"><ele></ele><time>2014-6-17T7:40:8Z</time></trkpt>
<trkpt lat="47.24421900" lon="0.57462500"><ele></ele><time>2014-6-17T7:40:11Z</time></trkpt>
<trkpt lat="47.24428000" lon="0.57515700"><ele></ele><time>2014-6-17T7:40:14Z</time></trkpt>
<trkpt lat="47.24427300" lon="0.57562300"><ele></ele><time>2014-6-17T7:40:17Z</time></trkpt>
<trkpt lat="47.24429200" lon="0.57599700"><ele></ele><time>2014-6-17T7:40:20Z</time></trkpt>
<trkpt lat="47.24430100" lon="0.57605300"><ele></ele><time>2014-6-17T7:40:23Z</time></trkpt>
<trkpt lat="47.24432100" lon="0.57638600"><ele></ele><time>2014-6-17T7:40:26Z</time></trkpt>
<trkpt lat="47.24432600" lon="0.57644300"><ele></ele><time>2014-6-17T7:40:29Z</time></trkpt>
<trkpt lat="47.24436000" lon="0.57686600"><ele></ele><time>2014-6-17T7:40:32Z</time></trkpt>
<trkpt lat="47.24436700" lon="0.57706600"><ele></ele><time>2014-6-17T7:40:35Z</time></trkpt>
<trkpt lat="47.24445400" lon="0.57768800"><ele></ele><time>2014-6-17T7:40:38Z</time></trkpt>
<trkpt lat="47.24446300" lon="0.57776600"><ele></ele><time>2014-6-17T7:40:41Z</time></trkpt>
<trkpt lat="47.24449100" lon="0.57817800"><ele></ele><time>2014-6-17T7:40:44Z</time></trkpt>
<trkpt lat="47.24455000" lon="0.57848500"><ele></ele><time>2014-6-17T7:40:47Z</time></trkpt>
<trkpt lat="47.24459200" lon="0.57862500"><ele></ele><time>2014-6-17T7:40:50Z</time></trkpt>
<trkpt lat="47.24474500" lon="0.57927600"><ele></ele><time>2014-6-17T7:40:53Z</time></trkpt>
<trkpt lat="47.24484000" lon="0.57998700"><ele></ele><time>2014-6-17T7:40:56Z</time></trkpt>
<trkpt lat="47.24486500" lon="0.58027300"><ele></ele><time>2014-6-17T7:40:59Z</time></trkpt>
<trkpt lat="47.24485900" lon="0.58049400"><ele></ele><time>2014-6-17T7:41:2Z</time></trkpt>
<trkpt lat="47.24487300" lon="0.58055100"><ele></ele><time>2014-6-17T7:41:5Z</time></trkpt>
<trkpt lat="47.24506200" lon="0.58124600"><ele></ele><time>2014-6-17T7:41:8Z</time></trkpt>
<trkpt lat="47.24518100" lon="0.58196100"><ele></ele><time>2014-6-17T7:41:11Z</time></trkpt>
<trkpt lat="47.24527600" lon="0.58256200"><ele></ele><time>2014-6-17T7:41:14Z</time></trkpt>
<trkpt lat="47.24523400" lon="0.58301400"><ele></ele><time>2014-6-17T7:41:17Z</time></trkpt>
<trkpt lat="47.24523100" lon="0.58309900"><ele></ele><time>2014-6-17T7:41:20Z</time></trkpt>
<trkpt lat="47.24525800" lon="0.58346800"><ele></ele><time>2014-6-17T7:41:23Z</time></trkpt>
<trkpt lat="47.24527500" lon="0.58366900"><ele></ele><time>2014-6-17T7:41:26Z</time></trkpt>
<trkpt lat="47.24525600" lon="0.58437100"><ele></ele><time>2014-6-17T7:41:29Z</time></trkpt>
<trkpt lat="47.24524500" lon="0.58450200"><ele></ele><time>2014-6-17T7:41:32Z</time></trkpt>
<trkpt lat="47.24523700" lon="0.58477800"><ele></ele><time>2014-6-17T7:41:35Z</time></trkpt>
<trkpt lat="47.24526900" lon="0.58522100"><ele></ele><time>2014-6-17T7:41:38Z</time></trkpt>
<trkpt lat="47.24538900" lon="0.58582100"><ele></ele><time>2014-6-17T7:41:41Z</time></trkpt>
<trkpt lat="47.24541900" lon="0.58605100"><ele></ele><time>2014-6-17T7:41:44Z</time></trkpt>
<trkpt lat="47.24545700" lon="0.58643000"><ele></ele><time>2014-6-17T7:41:47Z</time></trkpt>
<trkpt lat="47.24551100" lon="0.58702100"><ele></ele><time>2014-6-17T7:41:50Z</time></trkpt>
<trkpt lat="47.24554100" lon="0.58731400"><ele></ele><time>2014-6-17T7:41:53Z</time></trkpt>
<trkpt lat="47.24561400" lon="0.58774400"><ele></ele><time>2014-6-17T7:41:56Z</time></trkpt>
<trkpt lat="47.24581600" lon="0.58807900"><ele></ele><time>2014-6-17T7:41:59Z</time></trkpt>
<trkpt lat="47.24618300" lon="0.58833800"><ele></ele><time>2014-6-17T7:42:2Z</time></trkpt>
<trkpt lat="47.24629900" lon="0.58844000"><ele></ele><time>2014-6-17T7:42:5Z</time></trkpt>
<trkpt lat="47.24635800" lon="0.58849900"><ele></ele><time>2014-6-17T7:42:8Z</time></trkpt>
<trkpt lat="47.24658000" lon="0.58891300"><ele></ele><time>2014-6-17T7:42:11Z</time></trkpt>
<trkpt lat="47.24674400" lon="0.58954500"><ele></ele><time>2014-6-17T7:42:14Z</time></trkpt>
<trkpt lat="47.24680000" lon="0.58980400"><ele></ele><time>2014-6-17T7:42:17Z</time></trkpt>
<trkpt lat="47.24681900" lon="0.58988000"><ele></ele><time>2014-6-17T7:42:20Z</time></trkpt>
<trkpt lat="47.24686100" lon="0.59012400"><ele></ele><time>2014-6-17T7:42:23Z</time></trkpt>
<trkpt lat="47.24688100" lon="0.59071000"><ele></ele><time>2014-6-17T7:42:26Z</time></trkpt>
<trkpt lat="47.24689700" lon="0.59091400"><ele></ele><time>2014-6-17T7:42:29Z</time></trkpt>
<trkpt lat="47.24690300" lon="0.59145600"><ele></ele><time>2014-6-17T7:42:32Z</time></trkpt>
<trkpt lat="47.24691200" lon="0.59167900"><ele></ele><time>2014-6-17T7:42:35Z</time></trkpt>
<trkpt lat="47.24694200" lon="0.59212900"><ele></ele><time>2014-6-17T7:42:38Z</time></trkpt>
<trkpt lat="47.24695000" lon="0.59223500"><ele></ele><time>2014-6-17T7:42:41Z</time></trkpt>
<trkpt lat="47.24702900" lon="0.59260200"><ele></ele><time>2014-6-17T7:42:44Z</time></trkpt>
<trkpt lat="47.24708200" lon="0.59307700"><ele></ele><time>2014-6-17T7:42:47Z</time></trkpt>
<trkpt lat="47.24708700" lon="0.59315200"><ele></ele><time>2014-6-17T7:42:50Z</time></trkpt>
<trkpt lat="47.24715800" lon="0.59344700"><ele></ele><time>2014-6-17T7:42:53Z</time></trkpt>
<trkpt lat="47.24728600" lon="0.59370900"><ele></ele><time>2014-6-17T7:42:56Z</time></trkpt>
<trkpt lat="47.24749200" lon="0.59385100"><ele></ele><time>2014-6-17T7:42:59Z</time></trkpt>
<trkpt lat="47.24765000" lon="0.59388300"><ele></ele><time>2014-6-17T7:43:2Z</time></trkpt>
<trkpt lat="47.24768100" lon="0.59389500"><ele></ele><time>2014-6-17T7:43:5Z</time></trkpt>
<trkpt lat="47.24784500" lon="0.59391100"><ele></ele><time>2014-6-17T7:43:8Z</time></trkpt>
<trkpt lat="47.24794600" lon="0.59390700"><ele></ele><time>2014-6-17T7:43:11Z</time></trkpt>
<trkpt lat="47.24804100" lon="0.59390500"><ele></ele><time>2014-6-17T7:43:14Z</time></trkpt>
<trkpt lat="47.24819500" lon="0.59392500"><ele></ele><time>2014-6-17T7:43:17Z</time></trkpt>
<trkpt lat="47.24824000" lon="0.59393600"><ele></ele><time>2014-6-17T7:43:20Z</time></trkpt>
<trkpt lat="47.24830500" lon="0.59393100"><ele></ele><time>2014-6-17T7:43:23Z</time></trkpt>
<trkpt lat="47.24844700" lon="0.59395800"><ele></ele><time>2014-6-17T7:43:26Z</time></trkpt>
<trkpt lat="47.24858600" lon="0.59399800"><ele></ele><time>2014-6-17T7:43:29Z</time></trkpt>
<trkpt lat="47.24872700" lon="0.59404800"><ele></ele><time>2014-6-17T7:43:32Z</time></trkpt>
<trkpt lat="47.24886200" lon="0.59413000"><ele></ele><time>2014-6-17T7:43:35Z</time></trkpt>
<trkpt lat="47.24896000" lon="0.59418800"><ele></ele><time>2014-6-17T7:43:38Z</time></trkpt>
<trkpt lat="47.24911700" lon="0.59423200"><ele></ele><time>2014-6-17T7:43:41Z</time></trkpt>
<trkpt lat="47.24925600" lon="0.59433300"><ele></ele><time>2014-6-17T7:43:44Z</time></trkpt>
<trkpt lat="47.24928700" lon="0.59438600"><ele></ele><time>2014-6-17T7:43:47Z</time></trkpt>
<trkpt lat="47.24939700" lon="0.59448200"><ele></ele><time>2014-6-17T7:43:50Z</time></trkpt>
<trkpt lat="47.24947700" lon="0.59451200"><ele></ele><time>2014-6-17T7:43:53Z</time></trkpt>
<trkpt lat="47.24962300" lon="0.59458900"><ele></ele><time>2014-6-17T7:43:56Z</time></trkpt>
<trkpt lat="47.24965100" lon="0.59461300"><ele></ele><time>2014-6-17T7:43:59Z</time></trkpt>
<trkpt lat="47.24977600" lon="0.59470700"><ele></ele><time>2014-6-17T7:44:2Z</time></trkpt>
<trkpt lat="47.24993700" lon="0.59486500"><ele></ele><time>2014-6-17T7:44:5Z</time></trkpt>
<trkpt lat="47.25002800" lon="0.59495900"><ele></ele><time>2014-6-17T7:44:8Z</time></trkpt>
<trkpt lat="47.25010100" lon="0.59509400"><ele></ele><time>2014-6-17T7:44:11Z</time></trkpt>
<trkpt lat="47.25012600" lon="0.59515500"><ele></ele><time>2014-6-17T7:44:14Z</time></trkpt>
<trkpt lat="47.25019500" lon="0.59537200"><ele></ele><time>2014-6-17T7:44:17Z</time></trkpt>
<trkpt lat="47.25028100" lon="0.59558600"><ele></ele><time>2014-6-17T7:44:20Z</time></trkpt>
<trkpt lat="47.25038400" lon="0.59575200"><ele></ele><time>2014-6-17T7:44:23Z</time></trkpt>
<trkpt lat="47.25050100" lon="0.59597200"><ele></ele><time>2014-6-17T7:44:26Z</time></trkpt>
<trkpt lat="47.25055200" lon="0.59606400"><ele></ele><time>2014-6-17T7:44:29Z</time></trkpt>
<trkpt lat="47.25071100" lon="0.59629500"><ele></ele><time>2014-6-17T7:44:32Z</time></trkpt>
<trkpt lat="47.25075200" lon="0.59633800"><ele></ele><time>2014-6-17T7:44:35Z</time></trkpt>
<trkpt lat="47.25081000" lon="0.59643300"><ele></ele><time>2014-6-17T7:44:38Z</time></trkpt>
<trkpt lat="47.25088800" lon="0.59659400"><ele></ele><time>2014-6-17T7:44:41Z</time></trkpt>
<trkpt lat="47.25092900" lon="0.59664900"><ele></ele><time>2014-6-17T7:44:44Z</time></trkpt>
<trkpt lat="47.25111500" lon="0.59689200"><ele></ele><time>2014-6-17T7:44:47Z</time></trkpt>
<trkpt lat="47.25129200" lon="0.59718000"><ele></ele><time>2014-6-17T7:44:50Z</time></trkpt>
<trkpt lat="47.25148200" lon="0.59732200"><ele></ele><time>2014-6-17T7:44:53Z</time></trkpt>
<trkpt lat="47.25167100" lon="0.59735200"><ele></ele><time>2014-6-17T7:44:56Z</time></trkpt>
<trkpt lat="47.25187800" lon="0.59738700"><ele></ele><time>2014-6-17T7:44:59Z</time></trkpt>
<trkpt lat="47.25218000" lon="0.59742600"><ele></ele><time>2014-6-17T7:45:2Z</time></trkpt>
<trkpt lat="47.25255600" lon="0.59748100"><ele></ele><time>2014-6-17T7:45:5Z</time></trkpt>
<trkpt lat="47.25284200" lon="0.59751500"><ele></ele><time>2014-6-17T7:45:8Z</time></trkpt>
<trkpt lat="47.25314000" lon="0.59756700"><ele></ele><time>2014-6-17T7:45:11Z</time></trkpt>
<trkpt lat="47.25318200" lon="0.59757000"><ele></ele><time>2014-6-17T7:45:14Z</time></trkpt>
<trkpt lat="47.25346900" lon="0.59762900"><ele></ele><time>2014-6-17T7:45:17Z</time></trkpt>
<trkpt lat="47.25383200" lon="0.59768300"><ele></ele><time>2014-6-17T7:45:20Z</time></trkpt>
<trkpt lat="47.25441700" lon="0.59777200"><ele></ele><time>2014-6-17T7:45:23Z</time></trkpt>
<trkpt lat="47.25487400" lon="0.59783600"><ele></ele><time>2014-6-17T7:45:26Z</time></trkpt>
<trkpt lat="47.25540900" lon="0.59791600"><ele></ele><time>2014-6-17T7:45:29Z</time></trkpt>
<trkpt lat="47.25567200" lon="0.59794600"><ele></ele><time>2014-6-17T7:45:32Z</time></trkpt>
<trkpt lat="47.25577900" lon="0.59815600"><ele></ele><time>2014-6-17T7:45:35Z</time></trkpt>
<trkpt lat="47.25581600" lon="0.59923200"><ele></ele><time>2014-6-17T7:45:38Z</time></trkpt>
<trkpt lat="47.25582100" lon="0.59982800"><ele></ele><time>2014-6-17T7:45:41Z</time></trkpt>
<trkpt lat="47.25581800" lon="0.59998900"><ele></ele><time>2014-6-17T7:45:44Z</time></trkpt>
<trkpt lat="47.25583800" lon="0.60071600"><ele></ele><time>2014-6-17T7:45:47Z</time></trkpt>
<trkpt lat="47.25583800" lon="0.60088600"><ele></ele><time>2014-6-17T7:45:50Z</time></trkpt>
<trkpt lat="47.25594400" lon="0.60156400"><ele></ele><time>2014-6-17T7:45:53Z</time></trkpt>
<trkpt lat="47.25597700" lon="0.60177600"><ele></ele><time>2014-6-17T7:45:56Z</time></trkpt>
<trkpt lat="47.25595400" lon="0.60207000"><ele></ele><time>2014-6-17T7:45:59Z</time></trkpt>
<trkpt lat="47.25594400" lon="0.60212800"><ele></ele><time>2014-6-17T7:46:2Z</time></trkpt>
<trkpt lat="47.25584700" lon="0.60249500"><ele></ele><time>2014-6-17T7:46:5Z</time></trkpt>
<trkpt lat="47.25580600" lon="0.60270700"><ele></ele><time>2014-6-17T7:46:8Z</time></trkpt>
<trkpt lat="47.25571600" lon="0.60309900"><ele></ele><time>2014-6-17T7:46:11Z</time></trkpt>
<trkpt lat="47.25569100" lon="0.60322500"><ele></ele><time>2014-6-17T7:46:14Z</time></trkpt>
<trkpt lat="47.25560700" lon="0.60357600"><ele></ele><time>2014-6-17T7:46:17Z</time></trkpt>
<trkpt lat="47.25552400" lon="0.60397800"><ele></ele><time>2014-6-17T7:46:20Z</time></trkpt>
<trkpt lat="47.25544700" lon="0.60438800"><ele></ele><time>2014-6-17T7:46:23Z</time></trkpt>
<trkpt lat="47.25543500" lon="0.60474500"><ele></ele><time>2014-6-17T7:46:26Z</time></trkpt>
<trkpt lat="47.25543100" lon="0.60531100"><ele></ele><time>2014-6-17T7:46:29Z</time></trkpt>
<trkpt lat="47.25540000" lon="0.60595900"><ele></ele><time>2014-6-17T7:46:32Z</time></trkpt>
<trkpt lat="47.25538600" lon="0.60647400"><ele></ele><time>2014-6-17T7:46:35Z</time></trkpt>
<trkpt lat="47.25537800" lon="0.60666800"><ele></ele><time>2014-6-17T7:46:38Z</time></trkpt>
<trkpt lat="47.25537900" lon="0.60698900"><ele></ele><time>2014-6-17T7:46:41Z</time></trkpt>
<trkpt lat="47.25537900" lon="0.60759800"><ele></ele><time>2014-6-17T7:46:44Z</time></trkpt>
<trkpt lat="47.25537700" lon="0.60802800"><ele></ele><time>2014-6-17T7:46:47Z</time></trkpt>
<trkpt lat="47.25538000" lon="0.60835800"><ele></ele><time>2014-6-17T7:46:50Z</time></trkpt>
<trkpt lat="47.25539700" lon="0.60860300"><ele></ele><time>2014-6-17T7:46:53Z</time></trkpt>
<trkpt lat="47.25545200" lon="0.60885600"><ele></ele><time>2014-6-17T7:46:56Z</time></trkpt>
<trkpt lat="47.25557000" lon="0.60932600"><ele></ele><time>2014-6-17T7:46:59Z</time></trkpt>
<trkpt lat="47.25560600" lon="0.60945800"><ele></ele><time>2014-6-17T7:47:2Z</time></trkpt>
<trkpt lat="47.25569200" lon="0.60978400"><ele></ele><time>2014-6-17T7:47:5Z</time></trkpt>
<trkpt lat="47.25574800" lon="0.60997900"><ele></ele><time>2014-6-17T7:47:8Z</time></trkpt>
<trkpt lat="47.25573900" lon="0.61022400"><ele></ele><time>2014-6-17T7:47:11Z</time></trkpt>
<trkpt lat="47.25569500" lon="0.61027300"><ele></ele><time>2014-6-17T7:47:14Z</time></trkpt>
<trkpt lat="47.25555000" lon="0.61041500"><ele></ele><time>2014-6-17T7:47:17Z</time></trkpt>
<trkpt lat="47.25550400" lon="0.61051000"><ele></ele><time>2014-6-17T7:47:20Z</time></trkpt>
<trkpt lat="47.25544000" lon="0.61056200"><ele></ele><time>2014-6-17T7:47:23Z</time></trkpt>
<trkpt lat="47.25546700" lon="0.61063700"><ele></ele><time>2014-6-17T7:47:26Z</time></trkpt>
<trkpt lat="47.25546000" lon="0.61062200"><ele></ele><time>2014-6-17T7:47:29Z</time></trkpt>
<trkpt lat="47.25548500" lon="0.61080000"><ele></ele><time>2014-6-17T7:47:32Z</time></trkpt>
<trkpt lat="47.25549800" lon="0.61087200"><ele></ele><time>2014-6-17T7:47:35Z</time></trkpt>
<trkpt lat="47.25556200" lon="0.61114900"><ele></ele><time>2014-6-17T7:47:38Z</time></trkpt>
<trkpt lat="47.25564400" lon="0.61157700"><ele></ele><time>2014-6-17T7:47:41Z</time></trkpt>
<trkpt lat="47.25563200" lon="0.61192300"><ele></ele><time>2014-6-17T7:47:44Z</time></trkpt>
<trkpt lat="47.25562700" lon="0.61208200"><ele></ele><time>2014-6-17T7:47:47Z</time></trkpt>
<trkpt lat="47.25562700" lon="0.61236300"><ele></ele><time>2014-6-17T7:47:50Z</time></trkpt>
<trkpt lat="47.25568100" lon="0.61261400"><ele></ele><time>2014-6-17T7:47:53Z</time></trkpt>
<trkpt lat="47.25578100" lon="0.61296400"><ele></ele><time>2014-6-17T7:47:56Z</time></trkpt>
<trkpt lat="47.25582300" lon="0.61328200"><ele></ele><time>2014-6-17T7:47:59Z</time></trkpt>
<trkpt lat="47.25583700" lon="0.61337600"><ele></ele><time>2014-6-17T7:48:2Z</time></trkpt>
<trkpt lat="47.25588700" lon="0.61361600"><ele></ele><time>2014-6-17T7:48:5Z</time></trkpt>
<trkpt lat="47.25594600" lon="0.61379200"><ele></ele><time>2014-6-17T7:48:8Z</time></trkpt>
<trkpt lat="47.25600100" lon="0.61403100"><ele></ele><time>2014-6-17T7:48:11Z</time></trkpt>
<trkpt lat="47.25602700" lon="0.61416700"><ele></ele><time>2014-6-17T7:48:14Z</time></trkpt>
<trkpt lat="47.25602200" lon="0.61440400"><ele></ele><time>2014-6-17T7:48:17Z</time></trkpt>
<trkpt lat="47.25597600" lon="0.61467900"><ele></ele><time>2014-6-17T7:48:20Z</time></trkpt>
<trkpt lat="47.25592900" lon="0.61496900"><ele></ele><time>2014-6-17T7:48:23Z</time></trkpt>
<trkpt lat="47.25586100" lon="0.61520000"><ele></ele><time>2014-6-17T7:48:26Z</time></trkpt>
<trkpt lat="47.25579300" lon="0.61542600"><ele></ele><time>2014-6-17T7:48:29Z</time></trkpt>
<trkpt lat="47.25573000" lon="0.61547200"><ele></ele><time>2014-6-17T7:48:32Z</time></trkpt>
<trkpt lat="47.25574900" lon="0.61554200"><ele></ele><time>2014-6-17T7:48:35Z</time></trkpt>
<trkpt lat="47.25577900" lon="0.61552400"><ele></ele><time>2014-6-17T7:48:38Z</time></trkpt>
<trkpt lat="47.25594200" lon="0.61554200"><ele></ele><time>2014-6-17T7:48:41Z</time></trkpt>
<trkpt lat="47.25618300" lon="0.61562600"><ele></ele><time>2014-6-17T7:48:44Z</time></trkpt>
<trkpt lat="47.25643200" lon="0.61574800"><ele></ele><time>2014-6-17T7:48:47Z</time></trkpt>
<trkpt lat="47.25669600" lon="0.61579400"><ele></ele><time>2014-6-17T7:48:50Z</time></trkpt>
<trkpt lat="47.25698700" lon="0.61588700"><ele></ele><time>2014-6-17T7:48:53Z</time></trkpt>
<trkpt lat="47.25725900" lon="0.61599000"><ele></ele><time>2014-6-17T7:48:56Z</time></trkpt>
<trkpt lat="47.25756600" lon="0.61605300"><ele></ele><time>2014-6-17T7:48:59Z</time></trkpt>
<trkpt lat="47.25794500" lon="0.61608300"><ele></ele><time>2014-6-17T7:49:2Z</time></trkpt>
<trkpt lat="47.25805700" lon="0.61611100"><ele></ele><time>2014-6-17T7:49:5Z</time></trkpt>
<trkpt lat="47.25848300" lon="0.61612900"><ele></ele><time>2014-6-17T7:49:8Z</time></trkpt>
<trkpt lat="47.25880600" lon="0.61615600"><ele></ele><time>2014-6-17T7:49:11Z</time></trkpt>
<trkpt lat="47.25907000" lon="0.61630600"><ele></ele><time>2014-6-17T7:49:14Z</time></trkpt>
<trkpt lat="47.25958000" lon="0.61655200"><ele></ele><time>2014-6-17T7:49:17Z</time></trkpt>
<trkpt lat="47.26001700" lon="0.61672800"><ele></ele><time>2014-6-17T7:49:20Z</time></trkpt>
<trkpt lat="47.26069900" lon="0.61683400"><ele></ele><time>2014-6-17T7:49:23Z</time></trkpt>
<trkpt lat="47.26078900" lon="0.61681000"><ele></ele><time>2014-6-17T7:49:26Z</time></trkpt>
<trkpt lat="47.26082300" lon="0.61662000"><ele></ele><time>2014-6-17T7:49:29Z</time></trkpt>
<trkpt lat="47.26084200" lon="0.61586900"><ele></ele><time>2014-6-17T7:49:32Z</time></trkpt>
<trkpt lat="47.26084300" lon="0.61501900"><ele></ele><time>2014-6-17T7:49:35Z</time></trkpt>
<trkpt lat="47.26075900" lon="0.61426500"><ele></ele><time>2014-6-17T7:49:38Z</time></trkpt>
<trkpt lat="47.26063800" lon="0.61319200"><ele></ele><time>2014-6-17T7:49:41Z</time></trkpt>
<trkpt lat="47.26051900" lon="0.61212300"><ele></ele><time>2014-6-17T7:49:44Z</time></trkpt>
<trkpt lat="47.26053900" lon="0.61141800"><ele></ele><time>2014-6-17T7:49:47Z</time></trkpt>
<trkpt lat="47.26073000" lon="0.61049500"><ele></ele><time>2014-6-17T7:49:50Z</time></trkpt>
<trkpt lat="47.26089200" lon="0.60979300"><ele></ele><time>2014-6-17T7:49:53Z</time></trkpt>
<trkpt lat="47.26104900" lon="0.60925600"><ele></ele><time>2014-6-17T7:49:56Z</time></trkpt>
<trkpt lat="47.26119900" lon="0.60880600"><ele></ele><time>2014-6-17T7:49:59Z</time></trkpt>
<trkpt lat="47.26128400" lon="0.60811100"><ele></ele><time>2014-6-17T7:50:2Z</time></trkpt>
<trkpt lat="47.26131200" lon="0.60767700"><ele></ele><time>2014-6-17T7:50:5Z</time></trkpt>
<trkpt lat="47.26133600" lon="0.60721200"><ele></ele><time>2014-6-17T7:50:8Z</time></trkpt>
<trkpt lat="47.26135800" lon="0.60684200"><ele></ele><time>2014-6-17T7:50:11Z</time></trkpt>
<trkpt lat="47.26136600" lon="0.60677100"><ele></ele><time>2014-6-17T7:50:14Z</time></trkpt>
<trkpt lat="47.26138200" lon="0.60661900"><ele></ele><time>2014-6-17T7:50:17Z</time></trkpt>
<trkpt lat="47.26147800" lon="0.60615400"><ele></ele><time>2014-6-17T7:50:20Z</time></trkpt>
<trkpt lat="47.26152100" lon="0.60594300"><ele></ele><time>2014-6-17T7:50:23Z</time></trkpt>
<trkpt lat="47.26157400" lon="0.60566700"><ele></ele><time>2014-6-17T7:50:26Z</time></trkpt>
<trkpt lat="47.26158200" lon="0.60563200"><ele></ele><time>2014-6-17T7:50:29Z</time></trkpt>
<trkpt lat="47.26164600" lon="0.60539300"><ele></ele><time>2014-6-17T7:50:32Z</time></trkpt>
<trkpt lat="47.26168600" lon="0.60517400"><ele></ele><time>2014-6-17T7:50:35Z</time></trkpt>
<trkpt lat="47.26174000" lon="0.60492500"><ele></ele><time>2014-6-17T7:50:38Z</time></trkpt>
<trkpt lat="47.26177200" lon="0.60472400"><ele></ele><time>2014-6-17T7:50:41Z</time></trkpt>
<trkpt lat="47.26180800" lon="0.60465800"><ele></ele><time>2014-6-17T7:50:44Z</time></trkpt>
<trkpt lat="47.26200100" lon="0.60442500"><ele></ele><time>2014-6-17T7:50:47Z</time></trkpt>
<trkpt lat="47.26221600" lon="0.60417000"><ele></ele><time>2014-6-17T7:50:50Z</time></trkpt>
<trkpt lat="47.26238700" lon="0.60400200"><ele></ele><time>2014-6-17T7:50:53Z</time></trkpt>
<trkpt lat="47.26251500" lon="0.60379900"><ele></ele><time>2014-6-17T7:50:56Z</time></trkpt>
<trkpt lat="47.26263000" lon="0.60365100"><ele></ele><time>2014-6-17T7:50:59Z</time></trkpt>
<trkpt lat="47.26277300" lon="0.60342600"><ele></ele><time>2014-6-17T7:51:2Z</time></trkpt>
<trkpt lat="47.26296300" lon="0.60314900"><ele></ele><time>2014-6-17T7:51:5Z</time></trkpt>
<trkpt lat="47.26305800" lon="0.60298000"><ele></ele><time>2014-6-17T7:51:8Z</time></trkpt>
<trkpt lat="47.26313900" lon="0.60264500"><ele></ele><time>2014-6-17T7:51:11Z</time></trkpt>
<trkpt lat="47.26332300" lon="0.60246000"><ele></ele><time>2014-6-17T7:51:14Z</time></trkpt>
<trkpt lat="47.26344500" lon="0.60242500"><ele></ele><time>2014-6-17T7:51:17Z</time></trkpt>
<trkpt lat="47.26362400" lon="0.60236700"><ele></ele><time>2014-6-17T7:51:20Z</time></trkpt>
<trkpt lat="47.26373800" lon="0.60224300"><ele></ele><time>2014-6-17T7:51:23Z</time></trkpt>
<trkpt lat="47.26378000" lon="0.60216600"><ele></ele><time>2014-6-17T7:51:26Z</time></trkpt>
<trkpt lat="47.26385800" lon="0.60199400"><ele></ele><time>2014-6-17T7:51:29Z</time></trkpt>
<trkpt lat="47.26405400" lon="0.60162300"><ele></ele><time>2014-6-17T7:51:32Z</time></trkpt>
<trkpt lat="47.26419600" lon="0.60132200"><ele></ele><time>2014-6-17T7:51:35Z</time></trkpt>
<trkpt lat="47.26422100" lon="0.60110700"><ele></ele><time>2014-6-17T7:51:38Z</time></trkpt>
<trkpt lat="47.26416300" lon="0.60071300"><ele></ele><time>2014-6-17T7:51:41Z</time></trkpt>
<trkpt lat="47.26415500" lon="0.60045300"><ele></ele><time>2014-6-17T7:51:44Z</time></trkpt>
<trkpt lat="47.26422400" lon="0.60025700"><ele></ele><time>2014-6-17T7:51:47Z</time></trkpt>
<trkpt lat="47.26436100" lon="0.59998500"><ele></ele><time>2014-6-17T7:51:50Z</time></trkpt>
<trkpt lat="47.26439100" lon="0.59993200"><ele></ele><time>2014-6-17T7:51:53Z</time></trkpt>
<trkpt lat="47.26441000" lon="0.59971300"><ele></ele><time>2014-6-17T7:51:56Z</time></trkpt>
<trkpt lat="47.26450500" lon="0.59976900"><ele></ele><time>2014-6-17T7:51:59Z</time></trkpt>
<trkpt lat="47.26474100" lon="0.59984600"><ele></ele><time>2014-6-17T7:52:2Z</time></trkpt>
<trkpt lat="47.26497300" lon="0.59989700"><ele></ele><time>2014-6-17T7:52:5Z</time></trkpt>
<trkpt lat="47.26522500" lon="0.60000300"><ele></ele><time>2014-6-17T7:52:8Z</time></trkpt>
<trkpt lat="47.26538000" lon="0.60007000"><ele></ele><time>2014-6-17T7:52:11Z</time></trkpt>
<trkpt lat="47.26563300" lon="0.60002000"><ele></ele><time>2014-6-17T7:52:14Z</time></trkpt>
<trkpt lat="47.26582100" lon="0.59992300"><ele></ele><time>2014-6-17T7:52:17Z</time></trkpt>
<trkpt lat="47.26617700" lon="0.59970100"><ele></ele><time>2014-6-17T7:52:20Z</time></trkpt>
<trkpt lat="47.26644800" lon="0.59954300"><ele></ele><time>2014-6-17T7:52:23Z</time></trkpt>
<trkpt lat="47.26676800" lon="0.59956400"><ele></ele><time>2014-6-17T7:52:26Z</time></trkpt>
<trkpt lat="47.26682400" lon="0.59960800"><ele></ele><time>2014-6-17T7:52:29Z</time></trkpt>
<trkpt lat="47.26713200" lon="0.59999700"><ele></ele><time>2014-6-17T7:52:32Z</time></trkpt>
<trkpt lat="47.26718700" lon="0.60013100"><ele></ele><time>2014-6-17T7:52:35Z</time></trkpt>
<trkpt lat="47.26741700" lon="0.60060200"><ele></ele><time>2014-6-17T7:52:38Z</time></trkpt>
<trkpt lat="47.26749100" lon="0.60070900"><ele></ele><time>2014-6-17T7:52:41Z</time></trkpt>
<trkpt lat="47.26790400" lon="0.60111600"><ele></ele><time>2014-6-17T7:52:44Z</time></trkpt>
<trkpt lat="47.26806600" lon="0.60127600"><ele></ele><time>2014-6-17T7:52:47Z</time></trkpt>
<trkpt lat="47.26850800" lon="0.60186400"><ele></ele><time>2014-6-17T7:52:50Z</time></trkpt>
<trkpt lat="47.26872100" lon="0.60209500"><ele></ele><time>2014-6-17T7:52:53Z</time></trkpt>
<trkpt lat="47.26893900" lon="0.60218500"><ele></ele><time>2014-6-17T7:52:56Z</time></trkpt>
<trkpt lat="47.26902900" lon="0.60209000"><ele></ele><time>2014-6-17T7:52:59Z</time></trkpt>
<trkpt lat="47.26917500" lon="0.60178300"><ele></ele><time>2014-6-17T7:53:2Z</time></trkpt>
<trkpt lat="47.26937400" lon="0.60163600"><ele></ele><time>2014-6-17T7:53:5Z</time></trkpt>
<trkpt lat="47.26982000" lon="0.60137500"><ele></ele><time>2014-6-17T7:53:8Z</time></trkpt>
<trkpt lat="47.27012100" lon="0.60119500"><ele></ele><time>2014-6-17T7:53:11Z</time></trkpt>
<trkpt lat="47.27058900" lon="0.60091600"><ele></ele><time>2014-6-17T7:53:14Z</time></trkpt>
<trkpt lat="47.27101400" lon="0.60066200"><ele></ele><time>2014-6-17T7:53:17Z</time></trkpt>
<trkpt lat="47.27117000" lon="0.60057300"><ele></ele><time>2014-6-17T7:53:20Z</time></trkpt>
<trkpt lat="47.27141400" lon="0.60043700"><ele></ele><time>2014-6-17T7:53:23Z</time></trkpt>
<trkpt lat="47.27162000" lon="0.60030400"><ele></ele><time>2014-6-17T7:53:26Z</time></trkpt>
<trkpt lat="47.27191400" lon="0.60009400"><ele></ele><time>2014-6-17T7:53:29Z</time></trkpt>
<trkpt lat="47.27200800" lon="0.60026500"><ele></ele><time>2014-6-17T7:53:32Z</time></trkpt>
<trkpt lat="47.27206500" lon="0.60036400"><ele></ele><time>2014-6-17T7:53:35Z</time></trkpt>
<trkpt lat="47.27230400" lon="0.60047400"><ele></ele><time>2014-6-17T7:53:38Z</time></trkpt>
<trkpt lat="47.27237500" lon="0.60057100"><ele></ele><time>2014-6-17T7:53:41Z</time></trkpt>
<trkpt lat="47.27270000" lon="0.60097300"><ele></ele><time>2014-6-17T7:53:44Z</time></trkpt>
<trkpt lat="47.27299100" lon="0.60108800"><ele></ele><time>2014-6-17T7:53:47Z</time></trkpt>
<trkpt lat="47.27310800" lon="0.60095000"><ele></ele><time>2014-6-17T7:53:50Z</time></trkpt>
<trkpt lat="47.27336300" lon="0.60043000"><ele></ele><time>2014-6-17T7:53:53Z</time></trkpt>
<trkpt lat="47.27339200" lon="0.60011400"><ele></ele><time>2014-6-17T7:53:56Z</time></trkpt>
<trkpt lat="47.27338200" lon="0.59985200"><ele></ele><time>2014-6-17T7:53:59Z</time></trkpt>
<trkpt lat="47.27343700" lon="0.59972400"><ele></ele><time>2014-6-17T7:54:2Z</time></trkpt>
<trkpt lat="47.27347300" lon="0.59943300"><ele></ele><time>2014-6-17T7:54:5Z</time></trkpt>
<trkpt lat="47.27339900" lon="0.59911500"><ele></ele><time>2014-6-17T7:54:8Z</time></trkpt>
<trkpt lat="47.27354100" lon="0.59893600"><ele></ele><time>2014-6-17T7:54:11Z</time></trkpt>
<trkpt lat="47.27377000" lon="0.59877600"><ele></ele><time>2014-6-17T7:54:14Z</time></trkpt>
<trkpt lat="47.27393300" lon="0.59863100"><ele></ele><time>2014-6-17T7:54:17Z</time></trkpt>
<trkpt lat="47.27412500" lon="0.59846300"><ele></ele><time>2014-6-17T7:54:20Z</time></trkpt>
<trkpt lat="47.27433200" lon="0.59820500"><ele></ele><time>2014-6-17T7:54:23Z</time></trkpt>
<trkpt lat="47.27452300" lon="0.59797500"><ele></ele><time>2014-6-17T7:54:26Z</time></trkpt>
<trkpt lat="47.27463600" lon="0.59780700"><ele></ele><time>2014-6-17T7:54:29Z</time></trkpt>
<trkpt lat="47.27478500" lon="0.59771900"><ele></ele><time>2014-6-17T7:54:32Z</time></trkpt>
<trkpt lat="47.27510200" lon="0.59748500"><ele></ele><time>2014-6-17T7:54:35Z</time></trkpt>
<trkpt lat="47.27539500" lon="0.59730500"><ele></ele><time>2014-6-17T7:54:38Z</time></trkpt>
<trkpt lat="47.27562300" lon="0.59718700"><ele></ele><time>2014-6-17T7:54:41Z</time></trkpt>
<trkpt lat="47.27584100" lon="0.59706500"><ele></ele><time>2014-6-17T7:54:44Z</time></trkpt>
<trkpt lat="47.27611200" lon="0.59690900"><ele></ele><time>2014-6-17T7:54:47Z</time></trkpt>
<trkpt lat="47.27617700" lon="0.59686200"><ele></ele><time>2014-6-17T7:54:50Z</time></trkpt>
<trkpt lat="47.27641700" lon="0.59674700"><ele></ele><time>2014-6-17T7:54:53Z</time></trkpt>
<trkpt lat="47.27662000" lon="0.59665000"><ele></ele><time>2014-6-17T7:54:56Z</time></trkpt>
<trkpt lat="47.27678000" lon="0.59658300"><ele></ele><time>2014-6-17T7:54:59Z</time></trkpt>
<trkpt lat="47.27694400" lon="0.59648300"><ele></ele><time>2014-6-17T7:55:2Z</time></trkpt>
<trkpt lat="47.27710400" lon="0.59644500"><ele></ele><time>2014-6-17T7:55:5Z</time></trkpt>
<trkpt lat="47.27732700" lon="0.59634600"><ele></ele><time>2014-6-17T7:55:8Z</time></trkpt>
<trkpt lat="47.27758300" lon="0.59625100"><ele></ele><time>2014-6-17T7:55:11Z</time></trkpt>
<trkpt lat="47.27776200" lon="0.59622600"><ele></ele><time>2014-6-17T7:55:14Z</time></trkpt>
<trkpt lat="47.27796600" lon="0.59615400"><ele></ele><time>2014-6-17T7:55:17Z</time></trkpt>
<trkpt lat="47.27810700" lon="0.59609000"><ele></ele><time>2014-6-17T7:55:20Z</time></trkpt>
<trkpt lat="47.27815800" lon="0.59604000"><ele></ele><time>2014-6-17T7:55:23Z</time></trkpt>
<trkpt lat="47.27818600" lon="0.59604400"><ele></ele><time>2014-6-17T7:55:26Z</time></trkpt>
<trkpt lat="47.27820200" lon="0.59603900"><ele></ele><time>2014-6-17T7:55:29Z</time></trkpt>
<trkpt lat="47.27822900" lon="0.59602900"><ele></ele><time>2014-6-17T7:55:32Z</time></trkpt>
<trkpt lat="47.27822900" lon="0.59608300"><ele></ele><time>2014-6-17T7:55:35Z</time></trkpt>
<trkpt lat="47.27841000" lon="0.59623600"><ele></ele><time>2014-6-17T7:55:38Z</time></trkpt>
<trkpt lat="47.27852300" lon="0.59631200"><ele></ele><time>2014-6-17T7:55:41Z</time></trkpt>
<trkpt lat="47.27884200" lon="0.59659100"><ele></ele><time>2014-6-17T7:55:44Z</time></trkpt>
<trkpt lat="47.27901800" lon="0.59674600"><ele></ele><time>2014-6-17T7:55:47Z</time></trkpt>
<trkpt lat="47.27930500" lon="0.59714300"><ele></ele><time>2014-6-17T7:55:50Z</time></trkpt>
<trkpt lat="47.27938200" lon="0.59721000"><ele></ele><time>2014-6-17T7:55:53Z</time></trkpt>
<trkpt lat="47.27945800" lon="0.59729300"><ele></ele><time>2014-6-17T7:55:56Z</time></trkpt>
<trkpt lat="47.27975300" lon="0.59751300"><ele></ele><time>2014-6-17T7:55:59Z</time></trkpt>
<trkpt lat="47.27991300" lon="0.59755000"><ele></ele><time>2014-6-17T7:56:2Z</time></trkpt>
<trkpt lat="47.27994000" lon="0.59755800"><ele></ele><time>2014-6-17T7:56:5Z</time></trkpt>
<trkpt lat="47.28009500" lon="0.59763600"><ele></ele><time>2014-6-17T7:56:8Z</time></trkpt>
<trkpt lat="47.28020800" lon="0.59771900"><ele></ele><time>2014-6-17T7:56:11Z</time></trkpt>
<trkpt lat="47.28029300" lon="0.59777200"><ele></ele><time>2014-6-17T7:56:14Z</time></trkpt>
<trkpt lat="47.28031900" lon="0.59778200"><ele></ele><time>2014-6-17T7:56:17Z</time></trkpt>
<trkpt lat="47.28055800" lon="0.59791700"><ele></ele><time>2014-6-17T7:56:20Z</time></trkpt>
<trkpt lat="47.28074200" lon="0.59804400"><ele></ele><time>2014-6-17T7:56:23Z</time></trkpt>
<trkpt lat="47.28094400" lon="0.59814300"><ele></ele><time>2014-6-17T7:56:26Z</time></trkpt>
<trkpt lat="47.28112300" lon="0.59823400"><ele></ele><time>2014-6-17T7:56:29Z</time></trkpt>
<trkpt lat="47.28143600" lon="0.59842400"><ele></ele><time>2014-6-17T7:56:32Z</time></trkpt>
<trkpt lat="47.28160800" lon="0.59855100"><ele></ele><time>2014-6-17T7:56:35Z</time></trkpt>
<trkpt lat="47.28181800" lon="0.59865500"><ele></ele><time>2014-6-17T7:56:38Z</time></trkpt>
<trkpt lat="47.28222500" lon="0.59887400"><ele></ele><time>2014-6-17T7:56:41Z</time></trkpt>
<trkpt lat="47.28260400" lon="0.59908900"><ele></ele><time>2014-6-17T7:56:44Z</time></trkpt>
<trkpt lat="47.28294700" lon="0.59934600"><ele></ele><time>2014-6-17T7:56:47Z</time></trkpt>
<trkpt lat="47.28307700" lon="0.59943000"><ele></ele><time>2014-6-17T7:56:50Z</time></trkpt>
<trkpt lat="47.28326600" lon="0.59953700"><ele></ele><time>2014-6-17T7:56:53Z</time></trkpt>
<trkpt lat="47.28348000" lon="0.59962900"><ele></ele><time>2014-6-17T7:56:56Z</time></trkpt>
<trkpt lat="47.28357800" lon="0.59968600"><ele></ele><time>2014-6-17T7:56:59Z</time></trkpt>
<trkpt lat="47.28368600" lon="0.59974100"><ele></ele><time>2014-6-17T7:57:2Z</time></trkpt>
<trkpt lat="47.28386000" lon="0.59982500"><ele></ele><time>2014-6-17T7:57:5Z</time></trkpt>
<trkpt lat="47.28416100" lon="0.59995000"><ele></ele><time>2014-6-17T7:57:8Z</time></trkpt>
<trkpt lat="47.28440100" lon="0.60008000"><ele></ele><time>2014-6-17T7:57:11Z</time></trkpt>
<trkpt lat="47.28469700" lon="0.60014100"><ele></ele><time>2014-6-17T7:57:14Z</time></trkpt>
<trkpt lat="47.28490000" lon="0.60016300"><ele></ele><time>2014-6-17T7:57:17Z</time></trkpt>
<trkpt lat="47.28516300" lon="0.60010300"><ele></ele><time>2014-6-17T7:57:20Z</time></trkpt>
<trkpt lat="47.28532600" lon="0.60007000"><ele></ele><time>2014-6-17T7:57:23Z</time></trkpt>
<trkpt lat="47.28543700" lon="0.60005800"><ele></ele><time>2014-6-17T7:57:26Z</time></trkpt>
<trkpt lat="47.28558900" lon="0.60011000"><ele></ele><time>2014-6-17T7:57:29Z</time></trkpt>
<trkpt lat="47.28585000" lon="0.60025100"><ele></ele><time>2014-6-17T7:57:32Z</time></trkpt>
<trkpt lat="47.28600400" lon="0.60031500"><ele></ele><time>2014-6-17T7:57:35Z</time></trkpt>
<trkpt lat="47.28608900" lon="0.60035800"><ele></ele><time>2014-6-17T7:57:38Z</time></trkpt>
<trkpt lat="47.28620200" lon="0.60040300"><ele></ele><time>2014-6-17T7:57:41Z</time></trkpt>
<trkpt lat="47.28635400" lon="0.60051000"><ele></ele><time>2014-6-17T7:57:44Z</time></trkpt>
<trkpt lat="47.28661700" lon="0.60063800"><ele></ele><time>2014-6-17T7:57:47Z</time></trkpt>
<trkpt lat="47.28707600" lon="0.60081500"><ele></ele><time>2014-6-17T7:57:50Z</time></trkpt>
<trkpt lat="47.28743100" lon="0.60094700"><ele></ele><time>2014-6-17T7:57:53Z</time></trkpt>
<trkpt lat="47.28768200" lon="0.60104600"><ele></ele><time>2014-6-17T7:57:56Z</time></trkpt>
<trkpt lat="47.28820100" lon="0.60128800"><ele></ele><time>2014-6-17T7:57:59Z</time></trkpt>
<trkpt lat="47.28871900" lon="0.60149400"><ele></ele><time>2014-6-17T7:58:2Z</time></trkpt>
<trkpt lat="47.28886900" lon="0.60155200"><ele></ele><time>2014-6-17T7:58:5Z</time></trkpt>
<trkpt lat="47.28918300" lon="0.60185200"><ele></ele><time>2014-6-17T7:58:8Z</time></trkpt>
<trkpt lat="47.28944600" lon="0.60222500"><ele></ele><time>2014-6-17T7:58:11Z</time></trkpt>
<trkpt lat="47.28973800" lon="0.60246500"><ele></ele><time>2014-6-17T7:58:14Z</time></trkpt>
<trkpt lat="47.28983700" lon="0.60249400"><ele></ele><time>2014-6-17T7:58:17Z</time></trkpt>
<trkpt lat="47.28999900" lon="0.60253000"><ele></ele><time>2014-6-17T7:58:20Z</time></trkpt>
<trkpt lat="47.29014700" lon="0.60257400"><ele></ele><time>2014-6-17T7:58:23Z</time></trkpt>
<trkpt lat="47.29023800" lon="0.60262300"><ele></ele><time>2014-6-17T7:58:26Z</time></trkpt>
<trkpt lat="47.29041500" lon="0.60269900"><ele></ele><time>2014-6-17T7:58:29Z</time></trkpt>
<trkpt lat="47.29046200" lon="0.60272700"><ele></ele><time>2014-6-17T7:58:32Z</time></trkpt>
<trkpt lat="47.29058000" lon="0.60283000"><ele></ele><time>2014-6-17T7:58:35Z</time></trkpt>
<trkpt lat="47.29065200" lon="0.60293000"><ele></ele><time>2014-6-17T7:58:38Z</time></trkpt>
<trkpt lat="47.29085700" lon="0.60311300"><ele></ele><time>2014-6-17T7:58:41Z</time></trkpt>
<trkpt lat="47.29101500" lon="0.60320800"><ele></ele><time>2014-6-17T7:58:44Z</time></trkpt>
<trkpt lat="47.29117600" lon="0.60328000"><ele></ele><time>2014-6-17T7:58:47Z</time></trkpt>
<trkpt lat="47.29135400" lon="0.60329800"><ele></ele><time>2014-6-17T7:58:50Z</time></trkpt>
<trkpt lat="47.29165300" lon="0.60329400"><ele></ele><time>2014-6-17T7:58:53Z</time></trkpt>
<trkpt lat="47.29196800" lon="0.60333200"><ele></ele><time>2014-6-17T7:58:56Z</time></trkpt>
<trkpt lat="47.29213000" lon="0.60335800"><ele></ele><time>2014-6-17T7:58:59Z</time></trkpt>
<trkpt lat="47.29239300" lon="0.60338900"><ele></ele><time>2014-6-17T7:59:2Z</time></trkpt>
<trkpt lat="47.29256900" lon="0.60337900"><ele></ele><time>2014-6-17T7:59:5Z</time></trkpt>
<trkpt lat="47.29269000" lon="0.60337300"><ele></ele><time>2014-6-17T7:59:8Z</time></trkpt>
<trkpt lat="47.29280300" lon="0.60337000"><ele></ele><time>2014-6-17T7:59:11Z</time></trkpt>
<trkpt lat="47.29307300" lon="0.60336800"><ele></ele><time>2014-6-17T7:59:14Z</time></trkpt>
<trkpt lat="47.29333800" lon="0.60335800"><ele></ele><time>2014-6-17T7:59:17Z</time></trkpt>
<trkpt lat="47.29352000" lon="0.60337800"><ele></ele><time>2014-6-17T7:59:20Z</time></trkpt>
<trkpt lat="47.29368700" lon="0.60343000"><ele></ele><time>2014-6-17T7:59:23Z</time></trkpt>
<trkpt lat="47.29393100" lon="0.60351900"><ele></ele><time>2014-6-17T7:59:26Z</time></trkpt>
<trkpt lat="47.29411600" lon="0.60365900"><ele></ele><time>2014-6-17T7:59:29Z</time></trkpt>
<trkpt lat="47.29431700" lon="0.60377300"><ele></ele><time>2014-6-17T7:59:32Z</time></trkpt>
<trkpt lat="47.29444800" lon="0.60388400"><ele></ele><time>2014-6-17T7:59:35Z</time></trkpt>
<trkpt lat="47.29457700" lon="0.60399600"><ele></ele><time>2014-6-17T7:59:38Z</time></trkpt>
<trkpt lat="47.29470800" lon="0.60409200"><ele></ele><time>2014-6-17T7:59:41Z</time></trkpt>
<trkpt lat="47.29499700" lon="0.60427800"><ele></ele><time>2014-6-17T7:59:44Z</time></trkpt>
<trkpt lat="47.29531700" lon="0.60449700"><ele></ele><time>2014-6-17T7:59:47Z</time></trkpt>
<trkpt lat="47.29549100" lon="0.60464400"><ele></ele><time>2014-6-17T7:59:50Z</time></trkpt>
<trkpt lat="47.29564900" lon="0.60476100"><ele></ele><time>2014-6-17T7:59:53Z</time></trkpt>
<trkpt lat="47.29612900" lon="0.60506700"><ele></ele><time>2014-6-17T7:59:56Z</time></trkpt>
<trkpt lat="47.29648500" lon="0.60538100"><ele></ele><time>2014-6-17T7:59:59Z</time></trkpt>
<trkpt lat="47.29683400" lon="0.60570500"><ele></ele><time>2014-6-17T8:0:2Z</time></trkpt>
<trkpt lat="47.29711100" lon="0.60596000"><ele></ele><time>2014-6-17T8:0:5Z</time></trkpt>
<trkpt lat="47.29741500" lon="0.60622900"><ele></ele><time>2014-6-17T8:0:8Z</time></trkpt>
<trkpt lat="47.29752500" lon="0.60635100"><ele></ele><time>2014-6-17T8:0:11Z</time></trkpt>
<trkpt lat="47.29774000" lon="0.60655900"><ele></ele><time>2014-6-17T8:0:14Z</time></trkpt>
<trkpt lat="47.29794300" lon="0.60673700"><ele></ele><time>2014-6-17T8:0:17Z</time></trkpt>
<trkpt lat="47.29804800" lon="0.60684800"><ele></ele><time>2014-6-17T8:0:20Z</time></trkpt>
<trkpt lat="47.29805400" lon="0.60693600"><ele></ele><time>2014-6-17T8:0:23Z</time></trkpt>
<trkpt lat="47.29800600" lon="0.60710900"><ele></ele><time>2014-6-17T8:0:26Z</time></trkpt>
<trkpt lat="47.29781900" lon="0.60760400"><ele></ele><time>2014-6-17T8:0:29Z</time></trkpt>
<trkpt lat="47.29779700" lon="0.60765300"><ele></ele><time>2014-6-17T8:0:32Z</time></trkpt>
<trkpt lat="47.29758500" lon="0.60822200"><ele></ele><time>2014-6-17T8:0:35Z</time></trkpt>
<trkpt lat="47.29743000" lon="0.60864200"><ele></ele><time>2014-6-17T8:0:38Z</time></trkpt>
<trkpt lat="47.29738800" lon="0.60876700"><ele></ele><time>2014-6-17T8:0:41Z</time></trkpt>
<trkpt lat="47.29729000" lon="0.60899800"><ele></ele><time>2014-6-17T8:0:44Z</time></trkpt>
<trkpt lat="47.29705500" lon="0.60960500"><ele></ele><time>2014-6-17T8:0:47Z</time></trkpt>
<trkpt lat="47.29686100" lon="0.61011500"><ele></ele><time>2014-6-17T8:0:50Z</time></trkpt>
<trkpt lat="47.29685700" lon="0.61038100"><ele></ele><time>2014-6-17T8:0:53Z</time></trkpt>
<trkpt lat="47.29693300" lon="0.61044600"><ele></ele><time>2014-6-17T8:0:56Z</time></trkpt>
<trkpt lat="47.29701800" lon="0.61048500"><ele></ele><time>2014-6-17T8:0:59Z</time></trkpt>
<trkpt lat="47.29719000" lon="0.61054200"><ele></ele><time>2014-6-17T8:1:2Z</time></trkpt>
<trkpt lat="47.29727800" lon="0.61057600"><ele></ele><time>2014-6-17T8:1:5Z</time></trkpt>
<trkpt lat="47.29744700" lon="0.61066000"><ele></ele><time>2014-6-17T8:1:8Z</time></trkpt>
<trkpt lat="47.29784200" lon="0.61085800"><ele></ele><time>2014-6-17T8:1:11Z</time></trkpt>
<trkpt lat="47.29814600" lon="0.61100200"><ele></ele><time>2014-6-17T8:1:14Z</time></trkpt>
<trkpt lat="47.29846400" lon="0.61116000"><ele></ele><time>2014-6-17T8:1:17Z</time></trkpt>
<trkpt lat="47.29879800" lon="0.61137500"><ele></ele><time>2014-6-17T8:1:20Z</time></trkpt>
<trkpt lat="47.29908800" lon="0.61141300"><ele></ele><time>2014-6-17T8:1:23Z</time></trkpt>
<trkpt lat="47.29914000" lon="0.61141000"><ele></ele><time>2014-6-17T8:1:26Z</time></trkpt>
<trkpt lat="47.29929600" lon="0.61152500"><ele></ele><time>2014-6-17T8:1:29Z</time></trkpt>
<trkpt lat="47.29929600" lon="0.61167000"><ele></ele><time>2014-6-17T8:1:32Z</time></trkpt>
<trkpt lat="47.29922400" lon="0.61248100"><ele></ele><time>2014-6-17T8:1:35Z</time></trkpt>
<trkpt lat="47.29915800" lon="0.61324600"><ele></ele><time>2014-6-17T8:1:38Z</time></trkpt>
<trkpt lat="47.29912600" lon="0.61358500"><ele></ele><time>2014-6-17T8:1:41Z</time></trkpt>
<trkpt lat="47.29905700" lon="0.61430500"><ele></ele><time>2014-6-17T8:1:44Z</time></trkpt>
<trkpt lat="47.29900500" lon="0.61495800"><ele></ele><time>2014-6-17T8:1:47Z</time></trkpt>
<trkpt lat="47.29909800" lon="0.61512200"><ele></ele><time>2014-6-17T8:1:50Z</time></trkpt>
<trkpt lat="47.29926800" lon="0.61510800"><ele></ele><time>2014-6-17T8:1:53Z</time></trkpt>
<trkpt lat="47.29974100" lon="0.61511000"><ele></ele><time>2014-6-17T8:1:56Z</time></trkpt>
<trkpt lat="47.30014200" lon="0.61511400"><ele></ele><time>2014-6-17T8:1:59Z</time></trkpt>
<trkpt lat="47.30047400" lon="0.61512700"><ele></ele><time>2014-6-17T8:2:2Z</time></trkpt>
<trkpt lat="47.30089200" lon="0.61512300"><ele></ele><time>2014-6-17T8:2:5Z</time></trkpt>
<trkpt lat="47.30126500" lon="0.61512400"><ele></ele><time>2014-6-17T8:2:8Z</time></trkpt>
<trkpt lat="47.30160300" lon="0.61513300"><ele></ele><time>2014-6-17T8:2:11Z</time></trkpt>
<trkpt lat="47.30170000" lon="0.61513500"><ele></ele><time>2014-6-17T8:2:14Z</time></trkpt>
<trkpt lat="47.30221900" lon="0.61513100"><ele></ele><time>2014-6-17T8:2:17Z</time></trkpt>
<trkpt lat="47.30278600" lon="0.61514200"><ele></ele><time>2014-6-17T8:2:20Z</time></trkpt>
<trkpt lat="47.30284600" lon="0.61514300"><ele></ele><time>2014-6-17T8:2:23Z</time></trkpt>
<trkpt lat="47.30314000" lon="0.61514000"><ele></ele><time>2014-6-17T8:2:26Z</time></trkpt>
<trkpt lat="47.30365200" lon="0.61515700"><ele></ele><time>2014-6-17T8:2:29Z</time></trkpt>
<trkpt lat="47.30408200" lon="0.61516200"><ele></ele><time>2014-6-17T8:2:32Z</time></trkpt>
<trkpt lat="47.30458800" lon="0.61516200"><ele></ele><time>2014-6-17T8:2:35Z</time></trkpt>
<trkpt lat="47.30478000" lon="0.61516900"><ele></ele><time>2014-6-17T8:2:38Z</time></trkpt>
<trkpt lat="47.30488600" lon="0.61537200"><ele></ele><time>2014-6-17T8:2:41Z</time></trkpt>
<trkpt lat="47.30495200" lon="0.61564400"><ele></ele><time>2014-6-17T8:2:44Z</time></trkpt>
<trkpt lat="47.30503600" lon="0.61565700"><ele></ele><time>2014-6-17T8:2:47Z</time></trkpt>
<trkpt lat="47.30515900" lon="0.61564900"><ele></ele><time>2014-6-17T8:2:50Z</time></trkpt>
<trkpt lat="47.30537600" lon="0.61568200"><ele></ele><time>2014-6-17T8:2:53Z</time></trkpt>
<trkpt lat="47.30552600" lon="0.61572400"><ele></ele><time>2014-6-17T8:2:56Z</time></trkpt>
<trkpt lat="47.30578700" lon="0.61580100"><ele></ele><time>2014-6-17T8:2:59Z</time></trkpt>
<trkpt lat="47.30600500" lon="0.61586700"><ele></ele><time>2014-6-17T8:3:2Z</time></trkpt>
<trkpt lat="47.30602900" lon="0.61587800"><ele></ele><time>2014-6-17T8:3:5Z</time></trkpt>
<trkpt lat="47.30608500" lon="0.61592900"><ele></ele><time>2014-6-17T8:3:8Z</time></trkpt>
<trkpt lat="47.30612100" lon="0.61593400"><ele></ele><time>2014-6-17T8:3:11Z</time></trkpt>
<trkpt lat="47.30615400" lon="0.61593400"><ele></ele><time>2014-6-17T8:3:14Z</time></trkpt>
<trkpt lat="47.30619700" lon="0.61597400"><ele></ele><time>2014-6-17T8:3:17Z</time></trkpt>
<trkpt lat="47.30634800" lon="0.61600800"><ele></ele><time>2014-6-17T8:3:20Z</time></trkpt>
<trkpt lat="47.30666000" lon="0.61603300"><ele></ele><time>2014-6-17T8:3:23Z</time></trkpt>
<trkpt lat="47.30689900" lon="0.61603900"><ele></ele><time>2014-6-17T8:3:26Z</time></trkpt>
<trkpt lat="47.30711700" lon="0.61606700"><ele></ele><time>2014-6-17T8:3:29Z</time></trkpt>
<trkpt lat="47.30736800" lon="0.61608100"><ele></ele><time>2014-6-17T8:3:32Z</time></trkpt>
<trkpt lat="47.30764500" lon="0.61609200"><ele></ele><time>2014-6-17T8:3:35Z</time></trkpt>
<trkpt lat="47.30793500" lon="0.61613500"><ele></ele><time>2014-6-17T8:3:38Z</time></trkpt>
<trkpt lat="47.30805900" lon="0.61617000"><ele></ele><time>2014-6-17T8:3:41Z</time></trkpt>
<trkpt lat="47.30830800" lon="0.61633300"><ele></ele><time>2014-6-17T8:3:44Z</time></trkpt>
<trkpt lat="47.30838500" lon="0.61641500"><ele></ele><time>2014-6-17T8:3:47Z</time></trkpt>
<trkpt lat="47.30851400" lon="0.61630000"><ele></ele><time>2014-6-17T8:3:50Z</time></trkpt>
<trkpt lat="47.30855200" lon="0.61623300"><ele></ele><time>2014-6-17T8:3:53Z</time></trkpt>
<trkpt lat="47.30865100" lon="0.61603800"><ele></ele><time>2014-6-17T8:3:56Z</time></trkpt>
<trkpt lat="47.30869200" lon="0.61595200"><ele></ele><time>2014-6-17T8:3:59Z</time></trkpt>
<trkpt lat="47.30882300" lon="0.61574900"><ele></ele><time>2014-6-17T8:4:2Z</time></trkpt>
<trkpt lat="47.30895400" lon="0.61551000"><ele></ele><time>2014-6-17T8:4:5Z</time></trkpt>
<trkpt lat="47.30897400" lon="0.61546900"><ele></ele><time>2014-6-17T8:4:8Z</time></trkpt>
<trkpt lat="47.30907700" lon="0.61523000"><ele></ele><time>2014-6-17T8:4:11Z</time></trkpt>
<trkpt lat="47.30917300" lon="0.61501300"><ele></ele><time>2014-6-17T8:4:14Z</time></trkpt>
<trkpt lat="47.30931800" lon="0.61477200"><ele></ele><time>2014-6-17T8:4:17Z</time></trkpt>
<trkpt lat="47.30944800" lon="0.61452100"><ele></ele><time>2014-6-17T8:4:20Z</time></trkpt>
<trkpt lat="47.30947200" lon="0.61447800"><ele></ele><time>2014-6-17T8:4:23Z</time></trkpt>
<trkpt lat="47.30968600" lon="0.61407500"><ele></ele><time>2014-6-17T8:4:26Z</time></trkpt>
<trkpt lat="47.30978100" lon="0.61392200"><ele></ele><time>2014-6-17T8:4:29Z</time></trkpt>
<trkpt lat="47.30992000" lon="0.61362400"><ele></ele><time>2014-6-17T8:4:32Z</time></trkpt>
<trkpt lat="47.31005300" lon="0.61339400"><ele></ele><time>2014-6-17T8:4:35Z</time></trkpt>
<trkpt lat="47.31011000" lon="0.61330400"><ele></ele><time>2014-6-17T8:4:38Z</time></trkpt>
<trkpt lat="47.31026800" lon="0.61289000"><ele></ele><time>2014-6-17T8:4:41Z</time></trkpt>
<trkpt lat="47.31029900" lon="0.61281400"><ele></ele><time>2014-6-17T8:4:44Z</time></trkpt>
<trkpt lat="47.31043400" lon="0.61265600"><ele></ele><time>2014-6-17T8:4:47Z</time></trkpt>
<trkpt lat="47.31055900" lon="0.61240200"><ele></ele><time>2014-6-17T8:4:50Z</time></trkpt>
<trkpt lat="47.31063300" lon="0.61227800"><ele></ele><time>2014-6-17T8:4:53Z</time></trkpt>
<trkpt lat="47.31064700" lon="0.61226500"><ele></ele><time>2014-6-17T8:4:56Z</time></trkpt>
<trkpt lat="47.31067400" lon="0.61225800"><ele></ele><time>2014-6-17T8:4:59Z</time></trkpt>
<trkpt lat="47.31078800" lon="0.61221700"><ele></ele><time>2014-6-17T8:5:2Z</time></trkpt>
<trkpt lat="47.31090300" lon="0.61217400"><ele></ele><time>2014-6-17T8:5:5Z</time></trkpt>
<trkpt lat="47.31099300" lon="0.61213200"><ele></ele><time>2014-6-17T8:5:8Z</time></trkpt>
<trkpt lat="47.31109900" lon="0.61206700"><ele></ele><time>2014-6-17T8:5:11Z</time></trkpt>
<trkpt lat="47.31130700" lon="0.61197000"><ele></ele><time>2014-6-17T8:5:14Z</time></trkpt>
<trkpt lat="47.31150900" lon="0.61191500"><ele></ele><time>2014-6-17T8:5:17Z</time></trkpt>
<trkpt lat="47.31189200" lon="0.61186700"><ele></ele><time>2014-6-17T8:5:20Z</time></trkpt>
<trkpt lat="47.31194100" lon="0.61186000"><ele></ele><time>2014-6-17T8:5:23Z</time></trkpt>
<trkpt lat="47.31224800" lon="0.61181800"><ele></ele><time>2014-6-17T8:5:26Z</time></trkpt>
<trkpt lat="47.31229300" lon="0.61182400"><ele></ele><time>2014-6-17T8:5:29Z</time></trkpt>
<trkpt lat="47.31239900" lon="0.61182900"><ele></ele><time>2014-6-17T8:5:32Z</time></trkpt>
<trkpt lat="47.31260400" lon="0.61179200"><ele></ele><time>2014-6-17T8:5:35Z</time></trkpt>
<trkpt lat="47.31279100" lon="0.61192800"><ele></ele><time>2014-6-17T8:5:38Z</time></trkpt>
<trkpt lat="47.31293000" lon="0.61208300"><ele></ele><time>2014-6-17T8:5:41Z</time></trkpt>
<trkpt lat="47.31303700" lon="0.61227600"><ele></ele><time>2014-6-17T8:5:44Z</time></trkpt>
<trkpt lat="47.31308800" lon="0.61235400"><ele></ele><time>2014-6-17T8:5:47Z</time></trkpt>
<trkpt lat="47.31328400" lon="0.61259800"><ele></ele><time>2014-6-17T8:5:50Z</time></trkpt>
<trkpt lat="47.31336300" lon="0.61267900"><ele></ele><time>2014-6-17T8:5:53Z</time></trkpt>
<trkpt lat="47.31349600" lon="0.61280500"><ele></ele><time>2014-6-17T8:5:56Z</time></trkpt>
<trkpt lat="47.31369500" lon="0.61298800"><ele></ele><time>2014-6-17T8:5:59Z</time></trkpt>
<trkpt lat="47.31384600" lon="0.61310000"><ele></ele><time>2014-6-17T8:6:2Z</time></trkpt>
<trkpt lat="47.31396900" lon="0.61314000"><ele></ele><time>2014-6-17T8:6:5Z</time></trkpt>
<trkpt lat="47.31403400" lon="0.61306600"><ele></ele><time>2014-6-17T8:6:8Z</time></trkpt>
<trkpt lat="47.31410100" lon="0.61302200"><ele></ele><time>2014-6-17T8:6:11Z</time></trkpt>
<trkpt lat="47.31418700" lon="0.61305200"><ele></ele><time>2014-6-17T8:6:14Z</time></trkpt>
<trkpt lat="47.31422500" lon="0.61307600"><ele></ele><time>2014-6-17T8:6:17Z</time></trkpt>
<trkpt lat="47.31430400" lon="0.61311300"><ele></ele><time>2014-6-17T8:6:20Z</time></trkpt>
<trkpt lat="47.31448100" lon="0.61320000"><ele></ele><time>2014-6-17T8:6:23Z</time></trkpt>
<trkpt lat="47.31467900" lon="0.61331800"><ele></ele><time>2014-6-17T8:6:26Z</time></trkpt>
<trkpt lat="47.31490800" lon="0.61346100"><ele></ele><time>2014-6-17T8:6:29Z</time></trkpt>
<trkpt lat="47.31510600" lon="0.61357300"><ele></ele><time>2014-6-17T8:6:32Z</time></trkpt>
<trkpt lat="47.31533100" lon="0.61371600"><ele></ele><time>2014-6-17T8:6:35Z</time></trkpt>
<trkpt lat="47.31558400" lon="0.61386100"><ele></ele><time>2014-6-17T8:6:38Z</time></trkpt>
<trkpt lat="47.31573900" lon="0.61394400"><ele></ele><time>2014-6-17T8:6:41Z</time></trkpt>
<trkpt lat="47.31577400" lon="0.61395700"><ele></ele><time>2014-6-17T8:6:44Z</time></trkpt>
<trkpt lat="47.31598000" lon="0.61402800"><ele></ele><time>2014-6-17T8:6:47Z</time></trkpt>
<trkpt lat="47.31614000" lon="0.61406900"><ele></ele><time>2014-6-17T8:6:50Z</time></trkpt>
<trkpt lat="47.31629200" lon="0.61417400"><ele></ele><time>2014-6-17T8:6:53Z</time></trkpt>
<trkpt lat="47.31644600" lon="0.61424400"><ele></ele><time>2014-6-17T8:6:56Z</time></trkpt>
<trkpt lat="47.31658700" lon="0.61433000"><ele></ele><time>2014-6-17T8:6:59Z</time></trkpt>
<trkpt lat="47.31673400" lon="0.61440100"><ele></ele><time>2014-6-17T8:7:2Z</time></trkpt>
<trkpt lat="47.31688500" lon="0.61453200"><ele></ele><time>2014-6-17T8:7:5Z</time></trkpt>
<trkpt lat="47.31709000" lon="0.61463400"><ele></ele><time>2014-6-17T8:7:8Z</time></trkpt>
<trkpt lat="47.31719200" lon="0.61470300"><ele></ele><time>2014-6-17T8:7:11Z</time></trkpt>
<trkpt lat="47.31741300" lon="0.61484500"><ele></ele><time>2014-6-17T8:7:14Z</time></trkpt>
<trkpt lat="47.31764800" lon="0.61493900"><ele></ele><time>2014-6-17T8:7:17Z</time></trkpt>
<trkpt lat="47.31782000" lon="0.61504600"><ele></ele><time>2014-6-17T8:7:20Z</time></trkpt>
<trkpt lat="47.31791000" lon="0.61508700"><ele></ele><time>2014-6-17T8:7:23Z</time></trkpt>
<trkpt lat="47.31802600" lon="0.61515900"><ele></ele><time>2014-6-17T8:7:26Z</time></trkpt>
<trkpt lat="47.31814100" lon="0.61522600"><ele></ele><time>2014-6-17T8:7:29Z</time></trkpt>
<trkpt lat="47.31820100" lon="0.61526000"><ele></ele><time>2014-6-17T8:7:32Z</time></trkpt>
<trkpt lat="47.31837400" lon="0.61533500"><ele></ele><time>2014-6-17T8:7:35Z</time></trkpt>
<trkpt lat="47.31865800" lon="0.61545200"><ele></ele><time>2014-6-17T8:7:38Z</time></trkpt>
<trkpt lat="47.31882500" lon="0.61551900"><ele></ele><time>2014-6-17T8:7:41Z</time></trkpt>
<trkpt lat="47.31909500" lon="0.61563500"><ele></ele><time>2014-6-17T8:7:44Z</time></trkpt>
<trkpt lat="47.31920400" lon="0.61571100"><ele></ele><time>2014-6-17T8:7:47Z</time></trkpt>
<trkpt lat="47.31935100" lon="0.61577800"><ele></ele><time>2014-6-17T8:7:50Z</time></trkpt>
<trkpt lat="47.31957900" lon="0.61588900"><ele></ele><time>2014-6-17T8:7:53Z</time></trkpt>
<trkpt lat="47.31981100" lon="0.61599900"><ele></ele><time>2014-6-17T8:7:56Z</time></trkpt>
<trkpt lat="47.32004200" lon="0.61613600"><ele></ele><time>2014-6-17T8:7:59Z</time></trkpt>
<trkpt lat="47.32034200" lon="0.61630400"><ele></ele><time>2014-6-17T8:8:2Z</time></trkpt>
<trkpt lat="47.32060600" lon="0.61643900"><ele></ele><time>2014-6-17T8:8:5Z</time></trkpt>
<trkpt lat="47.32071700" lon="0.61648800"><ele></ele><time>2014-6-17T8:8:8Z</time></trkpt>
<trkpt lat="47.32091000" lon="0.61659300"><ele></ele><time>2014-6-17T8:8:11Z</time></trkpt>
<trkpt lat="47.32112100" lon="0.61673500"><ele></ele><time>2014-6-17T8:8:14Z</time></trkpt>
<trkpt lat="47.32120200" lon="0.61679100"><ele></ele><time>2014-6-17T8:8:17Z</time></trkpt>
<trkpt lat="47.32139400" lon="0.61687300"><ele></ele><time>2014-6-17T8:8:20Z</time></trkpt>
<trkpt lat="47.32158200" lon="0.61699300"><ele></ele><time>2014-6-17T8:8:23Z</time></trkpt>
<trkpt lat="47.32185300" lon="0.61712900"><ele></ele><time>2014-6-17T8:8:26Z</time></trkpt>
<trkpt lat="47.32206000" lon="0.61724600"><ele></ele><time>2014-6-17T8:8:29Z</time></trkpt>
<trkpt lat="47.32213300" lon="0.61729600"><ele></ele><time>2014-6-17T8:8:32Z</time></trkpt>
<trkpt lat="47.32232800" lon="0.61739600"><ele></ele><time>2014-6-17T8:8:35Z</time></trkpt>
<trkpt lat="47.32260600" lon="0.61753300"><ele></ele><time>2014-6-17T8:8:38Z</time></trkpt>
<trkpt lat="47.32277200" lon="0.61759900"><ele></ele><time>2014-6-17T8:8:41Z</time></trkpt>
<trkpt lat="47.32293500" lon="0.61767100"><ele></ele><time>2014-6-17T8:8:44Z</time></trkpt>
<trkpt lat="47.32309100" lon="0.61774400"><ele></ele><time>2014-6-17T8:8:47Z</time></trkpt>
<trkpt lat="47.32327400" lon="0.61781000"><ele></ele><time>2014-6-17T8:8:50Z</time></trkpt>
<trkpt lat="47.32339200" lon="0.61786900"><ele></ele><time>2014-6-17T8:8:53Z</time></trkpt>
<trkpt lat="47.32349200" lon="0.61793200"><ele></ele><time>2014-6-17T8:8:56Z</time></trkpt>
<trkpt lat="47.32375900" lon="0.61807400"><ele></ele><time>2014-6-17T8:8:59Z</time></trkpt>
<trkpt lat="47.32397600" lon="0.61812300"><ele></ele><time>2014-6-17T8:9:2Z</time></trkpt>
<trkpt lat="47.32417400" lon="0.61825000"><ele></ele><time>2014-6-17T8:9:5Z</time></trkpt>
<trkpt lat="47.32439200" lon="0.61835800"><ele></ele><time>2014-6-17T8:9:8Z</time></trkpt>
<trkpt lat="47.32455900" lon="0.61847500"><ele></ele><time>2014-6-17T8:9:11Z</time></trkpt>
<trkpt lat="47.32490200" lon="0.61871700"><ele></ele><time>2014-6-17T8:9:14Z</time></trkpt>
<trkpt lat="47.32529800" lon="0.61898300"><ele></ele><time>2014-6-17T8:9:17Z</time></trkpt>
<trkpt lat="47.32552900" lon="0.61907500"><ele></ele><time>2014-6-17T8:9:20Z</time></trkpt>
<trkpt lat="47.32578400" lon="0.61899000"><ele></ele><time>2014-6-17T8:9:23Z</time></trkpt>
<trkpt lat="47.32593300" lon="0.61892600"><ele></ele><time>2014-6-17T8:9:26Z</time></trkpt>
<trkpt lat="47.32612600" lon="0.61885400"><ele></ele><time>2014-6-17T8:9:29Z</time></trkpt>
<trkpt lat="47.32638900" lon="0.61873300"><ele></ele><time>2014-6-17T8:9:32Z</time></trkpt>
<trkpt lat="47.32669900" lon="0.61860600"><ele></ele><time>2014-6-17T8:9:35Z</time></trkpt>
<trkpt lat="47.32691500" lon="0.61851500"><ele></ele><time>2014-6-17T8:9:38Z</time></trkpt>
<trkpt lat="47.32712500" lon="0.61833400"><ele></ele><time>2014-6-17T8:9:41Z</time></trkpt>
<trkpt lat="47.32737100" lon="0.61805200"><ele></ele><time>2014-6-17T8:9:44Z</time></trkpt>
<trkpt lat="47.32754100" lon="0.61791300"><ele></ele><time>2014-6-17T8:9:47Z</time></trkpt>
<trkpt lat="47.32769400" lon="0.61789200"><ele></ele><time>2014-6-17T8:9:50Z</time></trkpt>
<trkpt lat="47.32782700" lon="0.61791600"><ele></ele><time>2014-6-17T8:9:53Z</time></trkpt>
<trkpt lat="47.32804800" lon="0.61790200"><ele></ele><time>2014-6-17T8:9:56Z</time></trkpt>
<trkpt lat="47.32826600" lon="0.61775600"><ele></ele><time>2014-6-17T8:9:59Z</time></trkpt>
<trkpt lat="47.32843900" lon="0.61758800"><ele></ele><time>2014-6-17T8:10:2Z</time></trkpt>
<trkpt lat="47.32863100" lon="0.61742700"><ele></ele><time>2014-6-17T8:10:5Z</time></trkpt>
<trkpt lat="47.32882100" lon="0.61724000"><ele></ele><time>2014-6-17T8:10:8Z</time></trkpt>
<trkpt lat="47.32901300" lon="0.61703200"><ele></ele><time>2014-6-17T8:10:11Z</time></trkpt>
<trkpt lat="47.32925600" lon="0.61677800"><ele></ele><time>2014-6-17T8:10:14Z</time></trkpt>
<trkpt lat="47.32955600" lon="0.61648800"><ele></ele><time>2014-6-17T8:10:17Z</time></trkpt>
<trkpt lat="47.32986600" lon="0.61614700"><ele></ele><time>2014-6-17T8:10:20Z</time></trkpt>
<trkpt lat="47.33003600" lon="0.61597800"><ele></ele><time>2014-6-17T8:10:23Z</time></trkpt>
<trkpt lat="47.33031100" lon="0.61568700"><ele></ele><time>2014-6-17T8:10:26Z</time></trkpt>
<trkpt lat="47.33052800" lon="0.61561200"><ele></ele><time>2014-6-17T8:10:29Z</time></trkpt>
<trkpt lat="47.33059700" lon="0.61559000"><ele></ele><time>2014-6-17T8:10:32Z</time></trkpt>
<trkpt lat="47.33071100" lon="0.61573400"><ele></ele><time>2014-6-17T8:10:35Z</time></trkpt>
<trkpt lat="47.33075900" lon="0.61583900"><ele></ele><time>2014-6-17T8:10:38Z</time></trkpt>
<trkpt lat="47.33098400" lon="0.61604700"><ele></ele><time>2014-6-17T8:10:41Z</time></trkpt>
<trkpt lat="47.33115500" lon="0.61598500"><ele></ele><time>2014-6-17T8:10:44Z</time></trkpt>
<trkpt lat="47.33127600" lon="0.61589800"><ele></ele><time>2014-6-17T8:10:47Z</time></trkpt>
<trkpt lat="47.33162800" lon="0.61559900"><ele></ele><time>2014-6-17T8:10:50Z</time></trkpt>
<trkpt lat="47.33197600" lon="0.61530700"><ele></ele><time>2014-6-17T8:10:53Z</time></trkpt>
<trkpt lat="47.33218400" lon="0.61514700"><ele></ele><time>2014-6-17T8:10:56Z</time></trkpt>
<trkpt lat="47.33239200" lon="0.61496000"><ele></ele><time>2014-6-17T8:10:59Z</time></trkpt>
<trkpt lat="47.33263700" lon="0.61487700"><ele></ele><time>2014-6-17T8:11:2Z</time></trkpt>
<trkpt lat="47.33273600" lon="0.61484600"><ele></ele><time>2014-6-17T8:11:5Z</time></trkpt>
<trkpt lat="47.33299100" lon="0.61485900"><ele></ele><time>2014-6-17T8:11:8Z</time></trkpt>
<trkpt lat="47.33314600" lon="0.61491100"><ele></ele><time>2014-6-17T8:11:11Z</time></trkpt>
<trkpt lat="47.33337700" lon="0.61507400"><ele></ele><time>2014-6-17T8:11:14Z</time></trkpt>
<trkpt lat="47.33352800" lon="0.61524700"><ele></ele><time>2014-6-17T8:11:17Z</time></trkpt>
<trkpt lat="47.33373200" lon="0.61564200"><ele></ele><time>2014-6-17T8:11:20Z</time></trkpt>
<trkpt lat="47.33382700" lon="0.61594800"><ele></ele><time>2014-6-17T8:11:23Z</time></trkpt>
<trkpt lat="47.33392600" lon="0.61641800"><ele></ele><time>2014-6-17T8:11:26Z</time></trkpt>
<trkpt lat="47.33393600" lon="0.61647400"><ele></ele><time>2014-6-17T8:11:29Z</time></trkpt>
<trkpt lat="47.33400500" lon="0.61683000"><ele></ele><time>2014-6-17T8:11:32Z</time></trkpt>
<trkpt lat="47.33409900" lon="0.61729200"><ele></ele><time>2014-6-17T8:11:35Z</time></trkpt>
<trkpt lat="47.33419700" lon="0.61778900"><ele></ele><time>2014-6-17T8:11:38Z</time></trkpt>
<trkpt lat="47.33431100" lon="0.61839400"><ele></ele><time>2014-6-17T8:11:41Z</time></trkpt>
<trkpt lat="47.33439700" lon="0.61905000"><ele></ele><time>2014-6-17T8:11:44Z</time></trkpt>
<trkpt lat="47.33442000" lon="0.61927000"><ele></ele><time>2014-6-17T8:11:47Z</time></trkpt>
<trkpt lat="47.33443900" lon="0.61941200"><ele></ele><time>2014-6-17T8:11:50Z</time></trkpt>
<trkpt lat="47.33446200" lon="0.61960800"><ele></ele><time>2014-6-17T8:11:53Z</time></trkpt>
<trkpt lat="47.33457000" lon="0.61975100"><ele></ele><time>2014-6-17T8:11:56Z</time></trkpt>
<trkpt lat="47.33461700" lon="0.61966900"><ele></ele><time>2014-6-17T8:11:59Z</time></trkpt>
<trkpt lat="47.33462200" lon="0.61953700"><ele></ele><time>2014-6-17T8:12:2Z</time></trkpt>
<trkpt lat="47.33461000" lon="0.61931900"><ele></ele><time>2014-6-17T8:12:5Z</time></trkpt>
<trkpt lat="47.33471200" lon="0.61895800"><ele></ele><time>2014-6-17T8:12:8Z</time></trkpt>
<trkpt lat="47.33475700" lon="0.61891500"><ele></ele><time>2014-6-17T8:12:11Z</time></trkpt>
<trkpt lat="47.33504500" lon="0.61863100"><ele></ele><time>2014-6-17T8:12:14Z</time></trkpt>
<trkpt lat="47.33524800" lon="0.61836100"><ele></ele><time>2014-6-17T8:12:17Z</time></trkpt>
<trkpt lat="47.33541100" lon="0.61807600"><ele></ele><time>2014-6-17T8:12:20Z</time></trkpt>
<trkpt lat="47.33554000" lon="0.61786300"><ele></ele><time>2014-6-17T8:12:23Z</time></trkpt>
<trkpt lat="47.33568800" lon="0.61760500"><ele></ele><time>2014-6-17T8:12:26Z</time></trkpt>
<trkpt lat="47.33571300" lon="0.61756400"><ele></ele><time>2014-6-17T8:12:29Z</time></trkpt>
<trkpt lat="47.33579800" lon="0.61738900"><ele></ele><time>2014-6-17T8:12:32Z</time></trkpt>
<trkpt lat="47.33603600" lon="0.61703400"><ele></ele><time>2014-6-17T8:12:35Z</time></trkpt>
<trkpt lat="47.33627900" lon="0.61676400"><ele></ele><time>2014-6-17T8:12:38Z</time></trkpt>
<trkpt lat="47.33661900" lon="0.61638200"><ele></ele><time>2014-6-17T8:12:41Z</time></trkpt>
<trkpt lat="47.33668000" lon="0.61629300"><ele></ele><time>2014-6-17T8:12:44Z</time></trkpt>
<trkpt lat="47.33692400" lon="0.61598500"><ele></ele><time>2014-6-17T8:12:47Z</time></trkpt>
<trkpt lat="47.33702400" lon="0.61584800"><ele></ele><time>2014-6-17T8:12:50Z</time></trkpt>
<trkpt lat="47.33704600" lon="0.61582200"><ele></ele><time>2014-6-17T8:12:53Z</time></trkpt>
<trkpt lat="47.33715400" lon="0.61564400"><ele></ele><time>2014-6-17T8:12:56Z</time></trkpt>
<trkpt lat="47.33746100" lon="0.61519100"><ele></ele><time>2014-6-17T8:12:59Z</time></trkpt>
<trkpt lat="47.33752500" lon="0.61508600"><ele></ele><time>2014-6-17T8:13:2Z</time></trkpt>
<trkpt lat="47.33753700" lon="0.61502600"><ele></ele><time>2014-6-17T8:13:5Z</time></trkpt>
<trkpt lat="47.33742200" lon="0.61498200"><ele></ele><time>2014-6-17T8:13:8Z</time></trkpt>
<trkpt lat="47.33720400" lon="0.61474000"><ele></ele><time>2014-6-17T8:13:11Z</time></trkpt>
<trkpt lat="47.33701400" lon="0.61427300"><ele></ele><time>2014-6-17T8:13:14Z</time></trkpt>
<trkpt lat="47.33691900" lon="0.61380300"><ele></ele><time>2014-6-17T8:13:17Z</time></trkpt>
<trkpt lat="47.33685400" lon="0.61344900"><ele></ele><time>2014-6-17T8:13:20Z</time></trkpt>
<trkpt lat="47.33692800" lon="0.61329400"><ele></ele><time>2014-6-17T8:13:23Z</time></trkpt>
<trkpt lat="47.33730300" lon="0.61305700"><ele></ele><time>2014-6-17T8:13:26Z</time></trkpt>
<trkpt lat="47.33752000" lon="0.61291200"><ele></ele><time>2014-6-17T8:13:29Z</time></trkpt>
<trkpt lat="47.33772600" lon="0.61276800"><ele></ele><time>2014-6-17T8:13:32Z</time></trkpt>
<trkpt lat="47.33807600" lon="0.61250800"><ele></ele><time>2014-6-17T8:13:35Z</time></trkpt>
<trkpt lat="47.33815200" lon="0.61244500"><ele></ele><time>2014-6-17T8:13:38Z</time></trkpt>
<trkpt lat="47.33847200" lon="0.61218200"><ele></ele><time>2014-6-17T8:13:41Z</time></trkpt>
<trkpt lat="47.33875000" lon="0.61195100"><ele></ele><time>2014-6-17T8:13:44Z</time></trkpt>
<trkpt lat="47.33885900" lon="0.61185600"><ele></ele><time>2014-6-17T8:13:47Z</time></trkpt>
<trkpt lat="47.33919600" lon="0.61154500"><ele></ele><time>2014-6-17T8:13:50Z</time></trkpt>
<trkpt lat="47.33938400" lon="0.61134500"><ele></ele><time>2014-6-17T8:13:53Z</time></trkpt>
<trkpt lat="47.33957000" lon="0.61116900"><ele></ele><time>2014-6-17T8:13:56Z</time></trkpt>
<trkpt lat="47.33967600" lon="0.61109000"><ele></ele><time>2014-6-17T8:13:59Z</time></trkpt>
<trkpt lat="47.33975500" lon="0.61125500"><ele></ele><time>2014-6-17T8:14:2Z</time></trkpt>
<trkpt lat="47.33977500" lon="0.61131600"><ele></ele><time>2014-6-17T8:14:5Z</time></trkpt>
<trkpt lat="47.33996300" lon="0.61183200"><ele></ele><time>2014-6-17T8:14:8Z</time></trkpt>
<trkpt lat="47.34006300" lon="0.61210700"><ele></ele><time>2014-6-17T8:14:11Z</time></trkpt>
<trkpt lat="47.34029000" lon="0.61267000"><ele></ele><time>2014-6-17T8:14:14Z</time></trkpt>
<trkpt lat="47.34043300" lon="0.61296800"><ele></ele><time>2014-6-17T8:14:17Z</time></trkpt>
<trkpt lat="47.34054500" lon="0.61326400"><ele></ele><time>2014-6-17T8:14:20Z</time></trkpt>
<trkpt lat="47.34070900" lon="0.61376200"><ele></ele><time>2014-6-17T8:14:23Z</time></trkpt>
<trkpt lat="47.34085300" lon="0.61400800"><ele></ele><time>2014-6-17T8:14:26Z</time></trkpt>
<trkpt lat="47.34092600" lon="0.61408200"><ele></ele><time>2014-6-17T8:14:29Z</time></trkpt>
<trkpt lat="47.34106100" lon="0.61403900"><ele></ele><time>2014-6-17T8:14:32Z</time></trkpt>
<trkpt lat="47.34119500" lon="0.61382700"><ele></ele><time>2014-6-17T8:14:35Z</time></trkpt>
<trkpt lat="47.34125100" lon="0.61372100"><ele></ele><time>2014-6-17T8:14:38Z</time></trkpt>
<trkpt lat="47.34125000" lon="0.61371600"><ele></ele><time>2014-6-17T8:14:41Z</time></trkpt>
<trkpt lat="47.34125400" lon="0.61366800"><ele></ele><time>2014-6-17T8:14:44Z</time></trkpt>
<trkpt lat="47.34128400" lon="0.61360800"><ele></ele><time>2014-6-17T8:14:47Z</time></trkpt>
<trkpt lat="47.34130000" lon="0.61358600"><ele></ele><time>2014-6-17T8:14:50Z</time></trkpt>
<trkpt lat="47.34137800" lon="0.61358400"><ele></ele><time>2014-6-17T8:14:53Z</time></trkpt>
<trkpt lat="47.34148500" lon="0.61363500"><ele></ele><time>2014-6-17T8:14:56Z</time></trkpt>
<trkpt lat="47.34162800" lon="0.61352200"><ele></ele><time>2014-6-17T8:14:59Z</time></trkpt>
<trkpt lat="47.34169500" lon="0.61349200"><ele></ele><time>2014-6-17T8:15:2Z</time></trkpt>
<trkpt lat="47.34195300" lon="0.61324900"><ele></ele><time>2014-6-17T8:15:5Z</time></trkpt>
<trkpt lat="47.34198100" lon="0.61320800"><ele></ele><time>2014-6-17T8:15:8Z</time></trkpt>
<trkpt lat="47.34213800" lon="0.61324000"><ele></ele><time>2014-6-17T8:15:11Z</time></trkpt>
<trkpt lat="47.34219300" lon="0.61333900"><ele></ele><time>2014-6-17T8:15:14Z</time></trkpt>
<trkpt lat="47.34225200" lon="0.61356800"><ele></ele><time>2014-6-17T8:15:17Z</time></trkpt>
<trkpt lat="47.34224400" lon="0.61396900"><ele></ele><time>2014-6-17T8:15:20Z</time></trkpt>
<trkpt lat="47.34229400" lon="0.61431900"><ele></ele><time>2014-6-17T8:15:23Z</time></trkpt>
<trkpt lat="47.34241300" lon="0.61458800"><ele></ele><time>2014-6-17T8:15:26Z</time></trkpt>
<trkpt lat="47.34255100" lon="0.61481500"><ele></ele><time>2014-6-17T8:15:29Z</time></trkpt>
<trkpt lat="47.34275300" lon="0.61504800"><ele></ele><time>2014-6-17T8:15:32Z</time></trkpt>
<trkpt lat="47.34291200" lon="0.61505300"><ele></ele><time>2014-6-17T8:15:35Z</time></trkpt>
<trkpt lat="47.34294900" lon="0.61502600"><ele></ele><time>2014-6-17T8:15:38Z</time></trkpt>
<trkpt lat="47.34311000" lon="0.61477600"><ele></ele><time>2014-6-17T8:15:41Z</time></trkpt>
<trkpt lat="47.34314700" lon="0.61456400"><ele></ele><time>2014-6-17T8:15:44Z</time></trkpt>
<trkpt lat="47.34315600" lon="0.61452300"><ele></ele><time>2014-6-17T8:15:47Z</time></trkpt>
<trkpt lat="47.34309900" lon="0.61443600"><ele></ele><time>2014-6-17T8:15:50Z</time></trkpt>
<trkpt lat="47.34299900" lon="0.61434400"><ele></ele><time>2014-6-17T8:15:53Z</time></trkpt>
<trkpt lat="47.34298600" lon="0.61430100"><ele></ele><time>2014-6-17T8:15:56Z</time></trkpt>
<trkpt lat="47.34298500" lon="0.61428300"><ele></ele><time>2014-6-17T8:15:59Z</time></trkpt>
<trkpt lat="47.34298700" lon="0.61420700"><ele></ele><time>2014-6-17T8:16:2Z</time></trkpt>
<trkpt lat="47.34287700" lon="0.61405700"><ele></ele><time>2014-6-17T8:16:5Z</time></trkpt>
<trkpt lat="47.34285600" lon="0.61400400"><ele></ele><time>2014-6-17T8:16:8Z</time></trkpt>
<trkpt lat="47.34285600" lon="0.61395800"><ele></ele><time>2014-6-17T8:16:11Z</time></trkpt>
<trkpt lat="47.34297100" lon="0.61382600"><ele></ele><time>2014-6-17T8:16:14Z</time></trkpt>
<trkpt lat="47.16534300" lon="0.24522300"><ele></ele><time>2014-6-17T8:16:17Z</time></trkpt>
<trkpt lat="47.16534300" lon="0.24522300"><ele></ele><time>2014-6-17T8:16:20Z</time></trkpt>
<trkpt lat="47.16534300" lon="0.24522300"><ele></ele><time>2014-6-17T8:16:23Z</time></trkpt>
<trkpt lat="47.16534300" lon="0.24522300"><ele></ele><time>2014-6-17T8:16:26Z</time></trkpt>
<trkpt lat="47.16534300" lon="0.24522300"><ele></ele><time>2014-6-17T8:16:29Z</time></trkpt>
<trkpt lat="47.16534300" lon="0.24522300"><ele></ele><time>2014-6-17T8:16:32Z</time></trkpt>
<trkpt lat="47.16534300" lon="0.24522300"><ele></ele><time>2014-6-17T8:16:35Z</time></trkpt>
<trkpt lat="47.16534300" lon="0.24522300"><ele></ele><time>2014-6-17T8:16:38Z</time></trkpt>
<trkpt lat="47.16526300" lon="0.24511900"><ele></ele><time>2014-6-17T8:16:41Z</time></trkpt>
<trkpt lat="47.16526300" lon="0.24511900"><ele></ele><time>2014-6-17T8:16:44Z</time></trkpt>
<trkpt lat="47.16526300" lon="0.24511900"><ele></ele><time>2014-6-17T8:16:47Z</time></trkpt>
<trkpt lat="47.16526300" lon="0.24511900"><ele></ele><time>2014-6-17T8:16:50Z</time></trkpt>
<trkpt lat="47.16526300" lon="0.24511900"><ele></ele><time>2014-6-17T8:16:53Z</time></trkpt>
<trkpt lat="47.16526300" lon="0.24511900"><ele></ele><time>2014-6-17T8:16:56Z</time></trkpt>
<trkpt lat="47.16515000" lon="0.24497300"><ele></ele><time>2014-6-17T8:16:59Z</time></trkpt>
<trkpt lat="47.16514800" lon="0.24497900"><ele></ele><time>2014-6-17T8:17:2Z</time></trkpt>
<trkpt lat="47.16514800" lon="0.24497900"><ele></ele><time>2014-6-17T8:17:5Z</time></trkpt>
<trkpt lat="47.16514800" lon="0.24497900"><ele></ele><time>2014-6-17T8:17:8Z</time></trkpt>
<trkpt lat="47.16514800" lon="0.24497900"><ele></ele><time>2014-6-17T8:17:11Z</time></trkpt>
<trkpt lat="47.16514800" lon="0.24497900"><ele></ele><time>2014-6-17T8:17:14Z</time></trkpt>
<trkpt lat="47.16514800" lon="0.24497900"><ele></ele><time>2014-6-17T8:17:17Z</time></trkpt>
<trkpt lat="47.16514800" lon="0.24497900"><ele></ele><time>2014-6-17T8:17:20Z</time></trkpt>
<trkpt lat="47.16514800" lon="0.24497900"><ele></ele><time>2014-6-17T8:17:23Z</time></trkpt>
<trkpt lat="47.16514800" lon="0.24497900"><ele></ele><time>2014-6-17T8:17:26Z</time></trkpt>
<trkpt lat="47.16514800" lon="0.24497900"><ele></ele><time>2014-6-17T8:17:29Z</time></trkpt>
<trkpt lat="47.16514800" lon="0.24497900"><ele></ele><time>2014-6-17T8:17:32Z</time></trkpt>
<trkpt lat="47.16513700" lon="0.24502400"><ele></ele><time>2014-6-17T8:17:35Z</time></trkpt>
<trkpt lat="47.16513700" lon="0.24502400"><ele></ele><time>2014-6-17T8:17:38Z</time></trkpt>
<trkpt lat="47.16513700" lon="0.24502400"><ele></ele><time>2014-6-17T8:17:41Z</time></trkpt>
<trkpt lat="47.16513700" lon="0.24502400"><ele></ele><time>2014-6-17T8:17:44Z</time></trkpt>
<trkpt lat="47.16513700" lon="0.24502400"><ele></ele><time>2014-6-17T8:17:47Z</time></trkpt>
<trkpt lat="47.16514000" lon="0.24508000"><ele></ele><time>2014-6-17T8:17:50Z</time></trkpt>
<trkpt lat="47.16511700" lon="0.24513500"><ele></ele><time>2014-6-17T8:17:53Z</time></trkpt>
<trkpt lat="47.16510800" lon="0.24517200"><ele></ele><time>2014-6-17T8:17:56Z</time></trkpt>
<trkpt lat="47.16511700" lon="0.24520600"><ele></ele><time>2014-6-17T8:17:59Z</time></trkpt>
<trkpt lat="47.16511700" lon="0.24520600"><ele></ele><time>2014-6-17T8:18:2Z</time></trkpt>
<trkpt lat="47.16511700" lon="0.24520600"><ele></ele><time>2014-6-17T8:18:5Z</time></trkpt>
<trkpt lat="47.16511700" lon="0.24520600"><ele></ele><time>2014-6-17T8:18:8Z</time></trkpt>
<trkpt lat="47.16511700" lon="0.24520600"><ele></ele><time>2014-6-17T8:18:11Z</time></trkpt>
<trkpt lat="47.16511700" lon="0.24520600"><ele></ele><time>2014-6-17T8:18:14Z</time></trkpt>
<trkpt lat="47.16511700" lon="0.24520600"><ele></ele><time>2014-6-17T8:18:17Z</time></trkpt>
<trkpt lat="47.16511700" lon="0.24520600"><ele></ele><time>2014-6-17T8:18:20Z</time></trkpt>
<trkpt lat="47.16511700" lon="0.24520500"><ele></ele><time>2014-6-17T8:18:23Z</time></trkpt>
<trkpt lat="47.16511800" lon="0.24520500"><ele></ele><time>2014-6-17T8:18:26Z</time></trkpt>
<trkpt lat="47.16511700" lon="0.24520500"><ele></ele><time>2014-6-17T8:18:29Z</time></trkpt>
<trkpt lat="47.16511700" lon="0.24520500"><ele></ele><time>2014-6-17T8:18:32Z</time></trkpt>
<trkpt lat="47.16512200" lon="0.24520600"><ele></ele><time>2014-6-17T8:18:35Z</time></trkpt>
<trkpt lat="47.16512400" lon="0.24520600"><ele></ele><time>2014-6-17T8:18:38Z</time></trkpt>
<trkpt lat="47.16511300" lon="0.24526300"><ele></ele><time>2014-6-17T8:18:41Z</time></trkpt>
<trkpt lat="47.16507800" lon="0.24529600"><ele></ele><time>2014-6-17T8:18:44Z</time></trkpt>
<trkpt lat="47.16503700" lon="0.24526400"><ele></ele><time>2014-6-17T8:18:47Z</time></trkpt>
<trkpt lat="47.16499100" lon="0.24525000"><ele></ele><time>2014-6-17T8:18:50Z</time></trkpt>
<trkpt lat="47.16492500" lon="0.24523200"><ele></ele><time>2014-6-17T8:18:53Z</time></trkpt>
<trkpt lat="47.16479200" lon="0.24537000"><ele></ele><time>2014-6-17T8:18:56Z</time></trkpt>
<trkpt lat="47.16476400" lon="0.24543100"><ele></ele><time>2014-6-17T8:18:59Z</time></trkpt>
<trkpt lat="47.16467400" lon="0.24567200"><ele></ele><time>2014-6-17T8:19:2Z</time></trkpt>
<trkpt lat="47.16450200" lon="0.24594200"><ele></ele><time>2014-6-17T8:19:5Z</time></trkpt>
<trkpt lat="47.16441300" lon="0.24608000"><ele></ele><time>2014-6-17T8:19:8Z</time></trkpt>
<trkpt lat="47.16436200" lon="0.24622400"><ele></ele><time>2014-6-17T8:19:11Z</time></trkpt>
<trkpt lat="47.16433900" lon="0.24627000"><ele></ele><time>2014-6-17T8:19:14Z</time></trkpt>
<trkpt lat="47.16400400" lon="0.24686700"><ele></ele><time>2014-6-17T8:19:17Z</time></trkpt>
<trkpt lat="47.16385500" lon="0.24719100"><ele></ele><time>2014-6-17T8:19:20Z</time></trkpt>
<trkpt lat="47.16384800" lon="0.24737300"><ele></ele><time>2014-6-17T8:19:23Z</time></trkpt>
<trkpt lat="47.16409000" lon="0.24771200"><ele></ele><time>2014-6-17T8:19:26Z</time></trkpt>
<trkpt lat="47.16450800" lon="0.24811000"><ele></ele><time>2014-6-17T8:19:29Z</time></trkpt>
<trkpt lat="47.16473100" lon="0.24834500"><ele></ele><time>2014-6-17T8:19:32Z</time></trkpt>
<trkpt lat="47.16494600" lon="0.24852700"><ele></ele><time>2014-6-17T8:19:35Z</time></trkpt>
<trkpt lat="47.16518300" lon="0.24875300"><ele></ele><time>2014-6-17T8:19:38Z</time></trkpt>
<trkpt lat="47.16525500" lon="0.24882400"><ele></ele><time>2014-6-17T8:19:41Z</time></trkpt>
<trkpt lat="47.16570500" lon="0.24921600"><ele></ele><time>2014-6-17T8:19:44Z</time></trkpt>
<trkpt lat="47.16583400" lon="0.24933000"><ele></ele><time>2014-6-17T8:19:47Z</time></trkpt>
<trkpt lat="47.16622900" lon="0.24970300"><ele></ele><time>2014-6-17T8:19:50Z</time></trkpt>
<trkpt lat="47.16687800" lon="0.25028100"><ele></ele><time>2014-6-17T8:19:53Z</time></trkpt>
<trkpt lat="47.16724200" lon="0.25059400"><ele></ele><time>2014-6-17T8:19:56Z</time></trkpt>
<trkpt lat="47.16735100" lon="0.25040700"><ele></ele><time>2014-6-17T8:19:59Z</time></trkpt>
<trkpt lat="47.16744100" lon="0.24992400"><ele></ele><time>2014-6-17T8:20:2Z</time></trkpt>
<trkpt lat="47.16751500" lon="0.24930500"><ele></ele><time>2014-6-17T8:20:5Z</time></trkpt>
<trkpt lat="47.16755100" lon="0.24858100"><ele></ele><time>2014-6-17T8:20:8Z</time></trkpt>
<trkpt lat="47.16752800" lon="0.24824900"><ele></ele><time>2014-6-17T8:20:11Z</time></trkpt>
<trkpt lat="47.16753500" lon="0.24800200"><ele></ele><time>2014-6-17T8:20:14Z</time></trkpt>
<trkpt lat="47.16750000" lon="0.24728600"><ele></ele><time>2014-6-17T8:20:17Z</time></trkpt>
<trkpt lat="47.16751200" lon="0.24711900"><ele></ele><time>2014-6-17T8:20:20Z</time></trkpt>
<trkpt lat="47.16749900" lon="0.24690300"><ele></ele><time>2014-6-17T8:20:23Z</time></trkpt>
<trkpt lat="47.16746300" lon="0.24620300"><ele></ele><time>2014-6-17T8:20:26Z</time></trkpt>
<trkpt lat="47.16751300" lon="0.24589800"><ele></ele><time>2014-6-17T8:20:29Z</time></trkpt>
<trkpt lat="47.16757900" lon="0.24551600"><ele></ele><time>2014-6-17T8:20:32Z</time></trkpt>
<trkpt lat="47.16760000" lon="0.24535800"><ele></ele><time>2014-6-17T8:20:35Z</time></trkpt>
<trkpt lat="47.16786600" lon="0.24528900"><ele></ele><time>2014-6-17T8:20:38Z</time></trkpt>
<trkpt lat="47.16792500" lon="0.24531000"><ele></ele><time>2014-6-17T8:20:41Z</time></trkpt>
<trkpt lat="47.16797600" lon="0.24545100"><ele></ele><time>2014-6-17T8:20:44Z</time></trkpt>
<trkpt lat="47.16801600" lon="0.24571300"><ele></ele><time>2014-6-17T8:20:47Z</time></trkpt>
<trkpt lat="47.16801600" lon="0.24590400"><ele></ele><time>2014-6-17T8:20:50Z</time></trkpt>
<trkpt lat="47.16811400" lon="0.24619400"><ele></ele><time>2014-6-17T8:20:53Z</time></trkpt>
<trkpt lat="47.16815500" lon="0.24635600"><ele></ele><time>2014-6-17T8:20:56Z</time></trkpt>
<trkpt lat="47.16818800" lon="0.24642900"><ele></ele><time>2014-6-17T8:20:59Z</time></trkpt>
<trkpt lat="47.16820500" lon="0.24653100"><ele></ele><time>2014-6-17T8:21:2Z</time></trkpt>
<trkpt lat="47.16827000" lon="0.24665800"><ele></ele><time>2014-6-17T8:21:5Z</time></trkpt>
<trkpt lat="47.16827700" lon="0.24670600"><ele></ele><time>2014-6-17T8:21:8Z</time></trkpt>
<trkpt lat="47.16835900" lon="0.24686100"><ele></ele><time>2014-6-17T8:21:11Z</time></trkpt>
<trkpt lat="47.16834000" lon="0.24688300"><ele></ele><time>2014-6-17T8:21:14Z</time></trkpt>
<trkpt lat="47.16832200" lon="0.24694900"><ele></ele><time>2014-6-17T8:21:17Z</time></trkpt>
<trkpt lat="47.16836500" lon="0.24702600"><ele></ele><time>2014-6-17T8:21:20Z</time></trkpt>
<trkpt lat="47.16836000" lon="0.24715200"><ele></ele><time>2014-6-17T8:21:23Z</time></trkpt>
<trkpt lat="47.16836000" lon="0.24745500"><ele></ele><time>2014-6-17T8:21:26Z</time></trkpt>
<trkpt lat="47.16832400" lon="0.24761800"><ele></ele><time>2014-6-17T8:21:29Z</time></trkpt>
<trkpt lat="47.16833300" lon="0.24820000"><ele></ele><time>2014-6-17T8:21:32Z</time></trkpt>
<trkpt lat="47.16846900" lon="0.24852800"><ele></ele><time>2014-6-17T8:21:35Z</time></trkpt>
<trkpt lat="47.16850400" lon="0.24900500"><ele></ele><time>2014-6-17T8:21:38Z</time></trkpt>
<trkpt lat="47.16844100" lon="0.24934400"><ele></ele><time>2014-6-17T8:21:41Z</time></trkpt>
<trkpt lat="47.16824700" lon="0.24964400"><ele></ele><time>2014-6-17T8:21:44Z</time></trkpt>
<trkpt lat="47.16833900" lon="0.25011300"><ele></ele><time>2014-6-17T8:21:47Z</time></trkpt>
<trkpt lat="47.16839800" lon="0.25031600"><ele></ele><time>2014-6-17T8:21:50Z</time></trkpt>
<trkpt lat="47.16839800" lon="0.25058700"><ele></ele><time>2014-6-17T8:21:53Z</time></trkpt>
<trkpt lat="47.16843100" lon="0.25091300"><ele></ele><time>2014-6-17T8:21:56Z</time></trkpt>
<trkpt lat="47.16851300" lon="0.25122100"><ele></ele><time>2014-6-17T8:21:59Z</time></trkpt>
<trkpt lat="47.16854300" lon="0.25150800"><ele></ele><time>2014-6-17T8:22:2Z</time></trkpt>
<trkpt lat="47.16850400" lon="0.25225600"><ele></ele><time>2014-6-17T8:22:5Z</time></trkpt>
<trkpt lat="47.16848900" lon="0.25251700"><ele></ele><time>2014-6-17T8:22:8Z</time></trkpt>
<trkpt lat="47.16848600" lon="0.25283200"><ele></ele><time>2014-6-17T8:22:11Z</time></trkpt>
<trkpt lat="47.16851100" lon="0.25300500"><ele></ele><time>2014-6-17T8:22:14Z</time></trkpt>
<trkpt lat="47.16841800" lon="0.25365400"><ele></ele><time>2014-6-17T8:22:17Z</time></trkpt>
<trkpt lat="47.16842300" lon="0.25391200"><ele></ele><time>2014-6-17T8:22:20Z</time></trkpt>
<trkpt lat="47.16847400" lon="0.25481400"><ele></ele><time>2014-6-17T8:22:23Z</time></trkpt>
<trkpt lat="47.16845900" lon="0.25500400"><ele></ele><time>2014-6-17T8:22:26Z</time></trkpt>
<trkpt lat="47.16843600" lon="0.25523700"><ele></ele><time>2014-6-17T8:22:29Z</time></trkpt>
<trkpt lat="47.16843600" lon="0.25548200"><ele></ele><time>2014-6-17T8:22:32Z</time></trkpt>
<trkpt lat="47.16845900" lon="0.25579600"><ele></ele><time>2014-6-17T8:22:35Z</time></trkpt>
<trkpt lat="47.16849500" lon="0.25601600"><ele></ele><time>2014-6-17T8:22:38Z</time></trkpt>
<trkpt lat="47.16875900" lon="0.25646800"><ele></ele><time>2014-6-17T8:22:41Z</time></trkpt>
<trkpt lat="47.16880400" lon="0.25647900"><ele></ele><time>2014-6-17T8:22:44Z</time></trkpt>
<trkpt lat="47.16909800" lon="0.25651100"><ele></ele><time>2014-6-17T8:22:47Z</time></trkpt>
<trkpt lat="47.16928200" lon="0.25655700"><ele></ele><time>2014-6-17T8:22:50Z</time></trkpt>
<trkpt lat="47.16952800" lon="0.25669500"><ele></ele><time>2014-6-17T8:22:53Z</time></trkpt>
<trkpt lat="47.16975600" lon="0.25663300"><ele></ele><time>2014-6-17T8:22:56Z</time></trkpt>
<trkpt lat="47.16988500" lon="0.25647200"><ele></ele><time>2014-6-17T8:22:59Z</time></trkpt>
<trkpt lat="47.17004400" lon="0.25637700"><ele></ele><time>2014-6-17T8:23:2Z</time></trkpt>
<trkpt lat="47.17013000" lon="0.25638700"><ele></ele><time>2014-6-17T8:23:5Z</time></trkpt>
<trkpt lat="47.17020500" lon="0.25638800"><ele></ele><time>2014-6-17T8:23:8Z</time></trkpt>
<trkpt lat="47.17023600" lon="0.25640700"><ele></ele><time>2014-6-17T8:23:11Z</time></trkpt>
<trkpt lat="47.17025400" lon="0.25641500"><ele></ele><time>2014-6-17T8:23:14Z</time></trkpt>
<trkpt lat="47.17042100" lon="0.25642800"><ele></ele><time>2014-6-17T8:23:17Z</time></trkpt>
<trkpt lat="47.17050300" lon="0.25644300"><ele></ele><time>2014-6-17T8:23:20Z</time></trkpt>
<trkpt lat="47.17067300" lon="0.25646700"><ele></ele><time>2014-6-17T8:23:23Z</time></trkpt>
<trkpt lat="47.17074600" lon="0.25644800"><ele></ele><time>2014-6-17T8:23:26Z</time></trkpt>
<trkpt lat="47.17083100" lon="0.25649100"><ele></ele><time>2014-6-17T8:23:29Z</time></trkpt>
<trkpt lat="47.17088700" lon="0.25653300"><ele></ele><time>2014-6-17T8:23:32Z</time></trkpt>
<trkpt lat="47.17092500" lon="0.25666400"><ele></ele><time>2014-6-17T8:23:35Z</time></trkpt>
<trkpt lat="47.17095600" lon="0.25672700"><ele></ele><time>2014-6-17T8:23:38Z</time></trkpt>
<trkpt lat="47.17097900" lon="0.25694200"><ele></ele><time>2014-6-17T8:23:41Z</time></trkpt>
<trkpt lat="47.17098100" lon="0.25695900"><ele></ele><time>2014-6-17T8:23:44Z</time></trkpt>
<trkpt lat="47.17100700" lon="0.25713800"><ele></ele><time>2014-6-17T8:23:47Z</time></trkpt>
<trkpt lat="47.17101100" lon="0.25733200"><ele></ele><time>2014-6-17T8:23:50Z</time></trkpt>
<trkpt lat="47.17102700" lon="0.25741900"><ele></ele><time>2014-6-17T8:23:53Z</time></trkpt>
<trkpt lat="47.17106300" lon="0.25778100"><ele></ele><time>2014-6-17T8:23:56Z</time></trkpt>
<trkpt lat="47.17107600" lon="0.25793100"><ele></ele><time>2014-6-17T8:23:59Z</time></trkpt>
<trkpt lat="47.17115600" lon="0.25846100"><ele></ele><time>2014-6-17T8:24:2Z</time></trkpt>
<trkpt lat="47.17115800" lon="0.25850700"><ele></ele><time>2014-6-17T8:24:5Z</time></trkpt>
<trkpt lat="47.17089200" lon="0.25852900"><ele></ele><time>2014-6-17T8:24:8Z</time></trkpt>
<trkpt lat="47.17084500" lon="0.25852200"><ele></ele><time>2014-6-17T8:24:11Z</time></trkpt>
<trkpt lat="47.17047500" lon="0.25849300"><ele></ele><time>2014-6-17T8:24:14Z</time></trkpt>
<trkpt lat="47.17004800" lon="0.25848800"><ele></ele><time>2014-6-17T8:24:17Z</time></trkpt>
<trkpt lat="47.16958500" lon="0.25851100"><ele></ele><time>2014-6-17T8:24:20Z</time></trkpt>
<trkpt lat="47.16932200" lon="0.25854800"><ele></ele><time>2014-6-17T8:24:23Z</time></trkpt>
<trkpt lat="47.16896800" lon="0.25883200"><ele></ele><time>2014-6-17T8:24:26Z</time></trkpt>
<trkpt lat="47.16885900" lon="0.25904700"><ele></ele><time>2014-6-17T8:24:29Z</time></trkpt>
<trkpt lat="47.16877400" lon="0.25937900"><ele></ele><time>2014-6-17T8:24:32Z</time></trkpt>
<trkpt lat="47.16875900" lon="0.25983500"><ele></ele><time>2014-6-17T8:24:35Z</time></trkpt>
<trkpt lat="47.16873800" lon="0.25996700"><ele></ele><time>2014-6-17T8:24:38Z</time></trkpt>
<trkpt lat="47.16856000" lon="0.26038100"><ele></ele><time>2014-6-17T8:24:41Z</time></trkpt>
<trkpt lat="47.16853800" lon="0.26082000"><ele></ele><time>2014-6-17T8:24:44Z</time></trkpt>
<trkpt lat="47.16858400" lon="0.26098000"><ele></ele><time>2014-6-17T8:24:47Z</time></trkpt>
<trkpt lat="47.16859600" lon="0.26132200"><ele></ele><time>2014-6-17T8:24:50Z</time></trkpt>
<trkpt lat="47.16859100" lon="0.26215300"><ele></ele><time>2014-6-17T8:24:53Z</time></trkpt>
<trkpt lat="47.16847000" lon="0.26295300"><ele></ele><time>2014-6-17T8:24:56Z</time></trkpt>
<trkpt lat="47.16846500" lon="0.26306000"><ele></ele><time>2014-6-17T8:24:59Z</time></trkpt>
<trkpt lat="47.16846100" lon="0.26315900"><ele></ele><time>2014-6-17T8:25:2Z</time></trkpt>
<trkpt lat="47.16853600" lon="0.26348500"><ele></ele><time>2014-6-17T8:25:5Z</time></trkpt>
<trkpt lat="47.16865800" lon="0.26378000"><ele></ele><time>2014-6-17T8:25:8Z</time></trkpt>
<trkpt lat="47.16876700" lon="0.26393700"><ele></ele><time>2014-6-17T8:25:11Z</time></trkpt>
<trkpt lat="47.16887800" lon="0.26413800"><ele></ele><time>2014-6-17T8:25:14Z</time></trkpt>
<trkpt lat="47.16906200" lon="0.26461200"><ele></ele><time>2014-6-17T8:25:17Z</time></trkpt>
<trkpt lat="47.16908000" lon="0.26496500"><ele></ele><time>2014-6-17T8:25:20Z</time></trkpt>
<trkpt lat="47.16911500" lon="0.26533500"><ele></ele><time>2014-6-17T8:25:23Z</time></trkpt>
<trkpt lat="47.16924200" lon="0.26567800"><ele></ele><time>2014-6-17T8:25:26Z</time></trkpt>
<trkpt lat="47.16932400" lon="0.26601000"><ele></ele><time>2014-6-17T8:25:29Z</time></trkpt>
<trkpt lat="47.16931500" lon="0.26625100"><ele></ele><time>2014-6-17T8:25:32Z</time></trkpt>
<trkpt lat="47.16931400" lon="0.26661700"><ele></ele><time>2014-6-17T8:25:35Z</time></trkpt>
<trkpt lat="47.16949000" lon="0.26687300"><ele></ele><time>2014-6-17T8:25:38Z</time></trkpt>
<trkpt lat="47.16960300" lon="0.26713900"><ele></ele><time>2014-6-17T8:25:41Z</time></trkpt>
<trkpt lat="47.16955500" lon="0.26750500"><ele></ele><time>2014-6-17T8:25:44Z</time></trkpt>
<trkpt lat="47.16951400" lon="0.26779900"><ele></ele><time>2014-6-17T8:25:47Z</time></trkpt>
<trkpt lat="47.16943700" lon="0.26843100"><ele></ele><time>2014-6-17T8:25:50Z</time></trkpt>
<trkpt lat="47.16939700" lon="0.26874600"><ele></ele><time>2014-6-17T8:25:53Z</time></trkpt>
<trkpt lat="47.16923200" lon="0.26969000"><ele></ele><time>2014-6-17T8:25:56Z</time></trkpt>
<trkpt lat="47.16921300" lon="0.26976300"><ele></ele><time>2014-6-17T8:25:59Z</time></trkpt>
<trkpt lat="47.16899800" lon="0.26987800"><ele></ele><time>2014-6-17T8:26:2Z</time></trkpt>
<trkpt lat="47.16895000" lon="0.26982800"><ele></ele><time>2014-6-17T8:26:5Z</time></trkpt>
<trkpt lat="47.16871400" lon="0.26965000"><ele></ele><time>2014-6-17T8:26:8Z</time></trkpt>
<trkpt lat="47.16854900" lon="0.26953800"><ele></ele><time>2014-6-17T8:26:11Z</time></trkpt>
<trkpt lat="47.16846700" lon="0.26965100"><ele></ele><time>2014-6-17T8:26:14Z</time></trkpt>
<trkpt lat="47.16830900" lon="0.27012900"><ele></ele><time>2014-6-17T8:26:17Z</time></trkpt>
<trkpt lat="47.16816300" lon="0.27052700"><ele></ele><time>2014-6-17T8:26:20Z</time></trkpt>
<trkpt lat="47.16807500" lon="0.27078500"><ele></ele><time>2014-6-17T8:26:23Z</time></trkpt>
<trkpt lat="47.16797700" lon="0.27101100"><ele></ele><time>2014-6-17T8:26:26Z</time></trkpt>
<trkpt lat="47.16792800" lon="0.27116100"><ele></ele><time>2014-6-17T8:26:29Z</time></trkpt>
<trkpt lat="47.16787300" lon="0.27131400"><ele></ele><time>2014-6-17T8:26:32Z</time></trkpt>
<trkpt lat="47.16781000" lon="0.27151700"><ele></ele><time>2014-6-17T8:26:35Z</time></trkpt>
<trkpt lat="47.16774900" lon="0.27169600"><ele></ele><time>2014-6-17T8:26:38Z</time></trkpt>
<trkpt lat="47.16770600" lon="0.27184900"><ele></ele><time>2014-6-17T8:26:41Z</time></trkpt>
<trkpt lat="47.16764500" lon="0.27205100"><ele></ele><time>2014-6-17T8:26:44Z</time></trkpt>
<trkpt lat="47.16759000" lon="0.27218900"><ele></ele><time>2014-6-17T8:26:47Z</time></trkpt>
<trkpt lat="47.16756500" lon="0.27228100"><ele></ele><time>2014-6-17T8:26:50Z</time></trkpt>
<trkpt lat="47.16741300" lon="0.27274300"><ele></ele><time>2014-6-17T8:26:53Z</time></trkpt>
<trkpt lat="47.16741000" lon="0.27276300"><ele></ele><time>2014-6-17T8:26:56Z</time></trkpt>
<trkpt lat="47.16738000" lon="0.27289100"><ele></ele><time>2014-6-17T8:26:59Z</time></trkpt>
<trkpt lat="47.16731200" lon="0.27313200"><ele></ele><time>2014-6-17T8:27:2Z</time></trkpt>
<trkpt lat="47.16740000" lon="0.27318300"><ele></ele><time>2014-6-17T8:27:5Z</time></trkpt>
<trkpt lat="47.16755400" lon="0.27320700"><ele></ele><time>2014-6-17T8:27:8Z</time></trkpt>
<trkpt lat="47.16762800" lon="0.27326700"><ele></ele><time>2014-6-17T8:27:11Z</time></trkpt>
<trkpt lat="47.16772100" lon="0.27329000"><ele></ele><time>2014-6-17T8:27:14Z</time></trkpt>
<trkpt lat="47.16777900" lon="0.27338200"><ele></ele><time>2014-6-17T8:27:17Z</time></trkpt>
<trkpt lat="47.16776500" lon="0.27344000"><ele></ele><time>2014-6-17T8:27:20Z</time></trkpt>
<trkpt lat="47.16774400" lon="0.27353100"><ele></ele><time>2014-6-17T8:27:23Z</time></trkpt>
<trkpt lat="47.16769000" lon="0.27382600"><ele></ele><time>2014-6-17T8:27:26Z</time></trkpt>
<trkpt lat="47.16769600" lon="0.27390500"><ele></ele><time>2014-6-17T8:27:29Z</time></trkpt>
<trkpt lat="47.16768400" lon="0.27403800"><ele></ele><time>2014-6-17T8:27:32Z</time></trkpt>
<trkpt lat="47.16779900" lon="0.27416000"><ele></ele><time>2014-6-17T8:27:35Z</time></trkpt>
<trkpt lat="47.16787100" lon="0.27416900"><ele></ele><time>2014-6-17T8:27:38Z</time></trkpt>
<trkpt lat="47.16798700" lon="0.27422000"><ele></ele><time>2014-6-17T8:27:41Z</time></trkpt>
<trkpt lat="47.16808100" lon="0.27425800"><ele></ele><time>2014-6-17T8:27:44Z</time></trkpt>
<trkpt lat="47.16820800" lon="0.27430300"><ele></ele><time>2014-6-17T8:27:47Z</time></trkpt>
<trkpt lat="47.16833300" lon="0.27432400"><ele></ele><time>2014-6-17T8:27:50Z</time></trkpt>
<trkpt lat="47.16846500" lon="0.27437500"><ele></ele><time>2014-6-17T8:27:53Z</time></trkpt>
<trkpt lat="47.16870600" lon="0.27443200"><ele></ele><time>2014-6-17T8:27:56Z</time></trkpt>
<trkpt lat="47.16872200" lon="0.27443800"><ele></ele><time>2014-6-17T8:27:59Z</time></trkpt>
<trkpt lat="47.16891400" lon="0.27450200"><ele></ele><time>2014-6-17T8:28:2Z</time></trkpt>
<trkpt lat="47.16895100" lon="0.27453000"><ele></ele><time>2014-6-17T8:28:5Z</time></trkpt>
<trkpt lat="47.16903600" lon="0.27457600"><ele></ele><time>2014-6-17T8:28:8Z</time></trkpt>
<trkpt lat="47.16917500" lon="0.27465300"><ele></ele><time>2014-6-17T8:28:11Z</time></trkpt>
<trkpt lat="47.16930600" lon="0.27472500"><ele></ele><time>2014-6-17T8:28:14Z</time></trkpt>
<trkpt lat="47.16952700" lon="0.27483100"><ele></ele><time>2014-6-17T8:28:17Z</time></trkpt>
<trkpt lat="47.16975500" lon="0.27489900"><ele></ele><time>2014-6-17T8:28:20Z</time></trkpt>
<trkpt lat="47.16972700" lon="0.27512000"><ele></ele><time>2014-6-17T8:28:23Z</time></trkpt>
<trkpt lat="47.16972600" lon="0.27536500"><ele></ele><time>2014-6-17T8:28:26Z</time></trkpt>
<trkpt lat="47.16970600" lon="0.27540500"><ele></ele><time>2014-6-17T8:28:29Z</time></trkpt>
<trkpt lat="47.16965700" lon="0.27579600"><ele></ele><time>2014-6-17T8:28:32Z</time></trkpt>
<trkpt lat="47.16965000" lon="0.27588700"><ele></ele><time>2014-6-17T8:28:35Z</time></trkpt>
<trkpt lat="47.16961200" lon="0.27602700"><ele></ele><time>2014-6-17T8:28:38Z</time></trkpt>
<trkpt lat="47.16961200" lon="0.27651000"><ele></ele><time>2014-6-17T8:28:41Z</time></trkpt>
<trkpt lat="47.16964100" lon="0.27699800"><ele></ele><time>2014-6-17T8:28:44Z</time></trkpt>
<trkpt lat="47.16952000" lon="0.27713100"><ele></ele><time>2014-6-17T8:28:47Z</time></trkpt>
<trkpt lat="47.16941700" lon="0.27711000"><ele></ele><time>2014-6-17T8:28:50Z</time></trkpt>
<trkpt lat="47.16903700" lon="0.27706500"><ele></ele><time>2014-6-17T8:28:53Z</time></trkpt>
<trkpt lat="47.16889700" lon="0.27717400"><ele></ele><time>2014-6-17T8:28:56Z</time></trkpt>
<trkpt lat="47.16876900" lon="0.27768900"><ele></ele><time>2014-6-17T8:28:59Z</time></trkpt>
<trkpt lat="47.16875500" lon="0.27781000"><ele></ele><time>2014-6-17T8:29:2Z</time></trkpt>
<trkpt lat="47.16865700" lon="0.27836900"><ele></ele><time>2014-6-17T8:29:5Z</time></trkpt>
<trkpt lat="47.16852000" lon="0.27896800"><ele></ele><time>2014-6-17T8:29:8Z</time></trkpt>
<trkpt lat="47.16841200" lon="0.27943100"><ele></ele><time>2014-6-17T8:29:11Z</time></trkpt>
<trkpt lat="47.16824700" lon="0.28004700"><ele></ele><time>2014-6-17T8:29:14Z</time></trkpt>
<trkpt lat="47.16807900" lon="0.28048400"><ele></ele><time>2014-6-17T8:29:17Z</time></trkpt>
<trkpt lat="47.16809500" lon="0.28053100"><ele></ele><time>2014-6-17T8:29:20Z</time></trkpt>
<trkpt lat="47.16822100" lon="0.28066500"><ele></ele><time>2014-6-17T8:29:23Z</time></trkpt>
<trkpt lat="47.16842400" lon="0.28092000"><ele></ele><time>2014-6-17T8:29:26Z</time></trkpt>
<trkpt lat="47.16854400" lon="0.28106800"><ele></ele><time>2014-6-17T8:29:29Z</time></trkpt>
<trkpt lat="47.16872200" lon="0.28133600"><ele></ele><time>2014-6-17T8:29:32Z</time></trkpt>
<trkpt lat="47.16924000" lon="0.28234200"><ele></ele><time>2014-6-17T8:29:35Z</time></trkpt>
<trkpt lat="47.16968400" lon="0.28297900"><ele></ele><time>2014-6-17T8:29:38Z</time></trkpt>
<trkpt lat="47.16999600" lon="0.28325600"><ele></ele><time>2014-6-17T8:29:41Z</time></trkpt>
<trkpt lat="47.17083900" lon="0.28380300"><ele></ele><time>2014-6-17T8:29:44Z</time></trkpt>
<trkpt lat="47.17115900" lon="0.28398800"><ele></ele><time>2014-6-17T8:29:47Z</time></trkpt>
<trkpt lat="47.17130100" lon="0.28444900"><ele></ele><time>2014-6-17T8:29:50Z</time></trkpt>
<trkpt lat="47.17133200" lon="0.28501400"><ele></ele><time>2014-6-17T8:29:53Z</time></trkpt>
<trkpt lat="47.17135300" lon="0.28555900"><ele></ele><time>2014-6-17T8:29:56Z</time></trkpt>
<trkpt lat="47.17133500" lon="0.28575000"><ele></ele><time>2014-6-17T8:29:59Z</time></trkpt>
<trkpt lat="47.17129100" lon="0.28593100"><ele></ele><time>2014-6-17T8:30:2Z</time></trkpt>
<trkpt lat="47.17103400" lon="0.28647000"><ele></ele><time>2014-6-17T8:30:5Z</time></trkpt>
<trkpt lat="47.17053200" lon="0.28742200"><ele></ele><time>2014-6-17T8:30:8Z</time></trkpt>
<trkpt lat="47.17047700" lon="0.28752600"><ele></ele><time>2014-6-17T8:30:11Z</time></trkpt>
<trkpt lat="47.17055000" lon="0.28772700"><ele></ele><time>2014-6-17T8:30:14Z</time></trkpt>
<trkpt lat="47.17067100" lon="0.28790900"><ele></ele><time>2014-6-17T8:30:17Z</time></trkpt>
<trkpt lat="47.17095000" lon="0.28832100"><ele></ele><time>2014-6-17T8:30:20Z</time></trkpt>
<trkpt lat="47.17099900" lon="0.28839100"><ele></ele><time>2014-6-17T8:30:23Z</time></trkpt>
<trkpt lat="47.17160400" lon="0.28926500"><ele></ele><time>2014-6-17T8:30:26Z</time></trkpt>
<trkpt lat="47.17164200" lon="0.28932100"><ele></ele><time>2014-6-17T8:30:29Z</time></trkpt>
<trkpt lat="47.17186900" lon="0.28968800"><ele></ele><time>2014-6-17T8:30:32Z</time></trkpt>
<trkpt lat="47.17224900" lon="0.29018500"><ele></ele><time>2014-6-17T8:30:35Z</time></trkpt>
<trkpt lat="47.17225500" lon="0.29069700"><ele></ele><time>2014-6-17T8:30:38Z</time></trkpt>
<trkpt lat="47.17219800" lon="0.29084900"><ele></ele><time>2014-6-17T8:30:41Z</time></trkpt>
<trkpt lat="47.17212400" lon="0.29102000"><ele></ele><time>2014-6-17T8:30:44Z</time></trkpt>
<trkpt lat="47.17203700" lon="0.29122600"><ele></ele><time>2014-6-17T8:30:47Z</time></trkpt>
<trkpt lat="47.17186600" lon="0.29156300"><ele></ele><time>2014-6-17T8:30:50Z</time></trkpt>
<trkpt lat="47.17164700" lon="0.29205000"><ele></ele><time>2014-6-17T8:30:53Z</time></trkpt>
<trkpt lat="47.17131300" lon="0.29267500"><ele></ele><time>2014-6-17T8:30:56Z</time></trkpt>
<trkpt lat="47.17124800" lon="0.29279100"><ele></ele><time>2014-6-17T8:30:59Z</time></trkpt>
<trkpt lat="47.17149300" lon="0.29321900"><ele></ele><time>2014-6-17T8:31:2Z</time></trkpt>
<trkpt lat="47.17192000" lon="0.29373300"><ele></ele><time>2014-6-17T8:31:5Z</time></trkpt>
<trkpt lat="47.17237000" lon="0.29429600"><ele></ele><time>2014-6-17T8:31:8Z</time></trkpt>
<trkpt lat="47.17303500" lon="0.29488900"><ele></ele><time>2014-6-17T8:31:11Z</time></trkpt>
<trkpt lat="47.17329300" lon="0.29460800"><ele></ele><time>2014-6-17T8:31:14Z</time></trkpt>
<trkpt lat="47.17358000" lon="0.29429500"><ele></ele><time>2014-6-17T8:31:17Z</time></trkpt>
<trkpt lat="47.17377600" lon="0.29411700"><ele></ele><time>2014-6-17T8:31:20Z</time></trkpt>
<trkpt lat="47.17390400" lon="0.29393800"><ele></ele><time>2014-6-17T8:31:23Z</time></trkpt>
<trkpt lat="47.17404600" lon="0.29373000"><ele></ele><time>2014-6-17T8:31:26Z</time></trkpt>
<trkpt lat="47.17409400" lon="0.29366900"><ele></ele><time>2014-6-17T8:31:29Z</time></trkpt>
<trkpt lat="47.17411200" lon="0.29365600"><ele></ele><time>2014-6-17T8:31:32Z</time></trkpt>
<trkpt lat="47.17416000" lon="0.29363000"><ele></ele><time>2014-6-17T8:31:35Z</time></trkpt>
<trkpt lat="47.17425900" lon="0.29398000"><ele></ele><time>2014-6-17T8:31:38Z</time></trkpt>
<trkpt lat="47.17434700" lon="0.29434100"><ele></ele><time>2014-6-17T8:31:41Z</time></trkpt>
<trkpt lat="47.17439000" lon="0.29457000"><ele></ele><time>2014-6-17T8:31:44Z</time></trkpt>
<trkpt lat="47.17446200" lon="0.29488300"><ele></ele><time>2014-6-17T8:31:47Z</time></trkpt>
<trkpt lat="47.17450200" lon="0.29504500"><ele></ele><time>2014-6-17T8:31:50Z</time></trkpt>
<trkpt lat="47.17474600" lon="0.29612200"><ele></ele><time>2014-6-17T8:31:53Z</time></trkpt>
<trkpt lat="47.17481000" lon="0.29627800"><ele></ele><time>2014-6-17T8:31:56Z</time></trkpt>
<trkpt lat="47.17493300" lon="0.29649100"><ele></ele><time>2014-6-17T8:31:59Z</time></trkpt>
<trkpt lat="47.17508900" lon="0.29677200"><ele></ele><time>2014-6-17T8:32:2Z</time></trkpt>
<trkpt lat="47.17520700" lon="0.29699800"><ele></ele><time>2014-6-17T8:32:5Z</time></trkpt>
<trkpt lat="47.17529500" lon="0.29744000"><ele></ele><time>2014-6-17T8:32:8Z</time></trkpt>
<trkpt lat="47.17527400" lon="0.29811000"><ele></ele><time>2014-6-17T8:32:11Z</time></trkpt>
<trkpt lat="47.17522600" lon="0.29840200"><ele></ele><time>2014-6-17T8:32:14Z</time></trkpt>
<trkpt lat="47.17510500" lon="0.29887800"><ele></ele><time>2014-6-17T8:32:17Z</time></trkpt>
<trkpt lat="47.17507800" lon="0.29899500"><ele></ele><time>2014-6-17T8:32:20Z</time></trkpt>
<trkpt lat="47.17493500" lon="0.29919200"><ele></ele><time>2014-6-17T8:32:23Z</time></trkpt>
<trkpt lat="47.17419600" lon="0.29928900"><ele></ele><time>2014-6-17T8:32:26Z</time></trkpt>
<trkpt lat="47.17409400" lon="0.29930100"><ele></ele><time>2014-6-17T8:32:29Z</time></trkpt>
<trkpt lat="47.17365300" lon="0.29942100"><ele></ele><time>2014-6-17T8:32:32Z</time></trkpt>
<trkpt lat="47.17339800" lon="0.29959700"><ele></ele><time>2014-6-17T8:32:35Z</time></trkpt>
<trkpt lat="47.17293900" lon="0.29987000"><ele></ele><time>2014-6-17T8:32:38Z</time></trkpt>
<trkpt lat="47.17275600" lon="0.30005300"><ele></ele><time>2014-6-17T8:32:41Z</time></trkpt>
<trkpt lat="47.17252400" lon="0.30031200"><ele></ele><time>2014-6-17T8:32:44Z</time></trkpt>
<trkpt lat="47.17235200" lon="0.30053400"><ele></ele><time>2014-6-17T8:32:47Z</time></trkpt>
<trkpt lat="47.17216200" lon="0.30072100"><ele></ele><time>2014-6-17T8:32:50Z</time></trkpt>
<trkpt lat="47.17196700" lon="0.30090200"><ele></ele><time>2014-6-17T8:32:53Z</time></trkpt>
<trkpt lat="47.17181400" lon="0.30110200"><ele></ele><time>2014-6-17T8:32:56Z</time></trkpt>
<trkpt lat="47.17175300" lon="0.30118100"><ele></ele><time>2014-6-17T8:32:59Z</time></trkpt>
<trkpt lat="47.17158100" lon="0.30137500"><ele></ele><time>2014-6-17T8:33:2Z</time></trkpt>
<trkpt lat="47.17145600" lon="0.30146700"><ele></ele><time>2014-6-17T8:33:5Z</time></trkpt>
<trkpt lat="47.17136200" lon="0.30163300"><ele></ele><time>2014-6-17T8:33:8Z</time></trkpt>
<trkpt lat="47.17134700" lon="0.30172200"><ele></ele><time>2014-6-17T8:33:11Z</time></trkpt>
<trkpt lat="47.17129100" lon="0.30175800"><ele></ele><time>2014-6-17T8:33:14Z</time></trkpt>
<trkpt lat="47.17125500" lon="0.30179300"><ele></ele><time>2014-6-17T8:33:17Z</time></trkpt>
<trkpt lat="47.17116300" lon="0.30195800"><ele></ele><time>2014-6-17T8:33:20Z</time></trkpt>
<trkpt lat="47.17107100" lon="0.30208200"><ele></ele><time>2014-6-17T8:33:23Z</time></trkpt>
<trkpt lat="47.17103300" lon="0.30215900"><ele></ele><time>2014-6-17T8:33:26Z</time></trkpt>
<trkpt lat="47.17101400" lon="0.30219300"><ele></ele><time>2014-6-17T8:33:29Z</time></trkpt>
<trkpt lat="47.17094500" lon="0.30232200"><ele></ele><time>2014-6-17T8:33:32Z</time></trkpt>
<trkpt lat="47.17087600" lon="0.30241700"><ele></ele><time>2014-6-17T8:33:35Z</time></trkpt>
<trkpt lat="47.17081900" lon="0.30250600"><ele></ele><time>2014-6-17T8:33:38Z</time></trkpt>
<trkpt lat="47.17077400" lon="0.30257500"><ele></ele><time>2014-6-17T8:33:41Z</time></trkpt>
<trkpt lat="47.17060400" lon="0.30281600"><ele></ele><time>2014-6-17T8:33:44Z</time></trkpt>
<trkpt lat="47.17058900" lon="0.30282700"><ele></ele><time>2014-6-17T8:33:47Z</time></trkpt>
<trkpt lat="47.17044600" lon="0.30306600"><ele></ele><time>2014-6-17T8:33:50Z</time></trkpt>
<trkpt lat="47.17019500" lon="0.30347100"><ele></ele><time>2014-6-17T8:33:53Z</time></trkpt>
<trkpt lat="47.17006500" lon="0.30367700"><ele></ele><time>2014-6-17T8:33:56Z</time></trkpt>
<trkpt lat="47.17005300" lon="0.30374000"><ele></ele><time>2014-6-17T8:33:59Z</time></trkpt>
<trkpt lat="47.17007600" lon="0.30381900"><ele></ele><time>2014-6-17T8:34:2Z</time></trkpt>
<trkpt lat="47.17012100" lon="0.30395900"><ele></ele><time>2014-6-17T8:34:5Z</time></trkpt>
<trkpt lat="47.17007200" lon="0.30406400"><ele></ele><time>2014-6-17T8:34:8Z</time></trkpt>
<trkpt lat="47.17005200" lon="0.30411600"><ele></ele><time>2014-6-17T8:34:11Z</time></trkpt>
<trkpt lat="47.17003200" lon="0.30417400"><ele></ele><time>2014-6-17T8:34:14Z</time></trkpt>
<trkpt lat="47.17006300" lon="0.30416900"><ele></ele><time>2014-6-17T8:34:17Z</time></trkpt>
<trkpt lat="47.17005600" lon="0.30417800"><ele></ele><time>2014-6-17T8:34:20Z</time></trkpt>
<trkpt lat="47.17006100" lon="0.30415900"><ele></ele><time>2014-6-17T8:34:23Z</time></trkpt>
<trkpt lat="47.17011300" lon="0.30395600"><ele></ele><time>2014-6-17T8:34:26Z</time></trkpt>
<trkpt lat="47.17018100" lon="0.30389500"><ele></ele><time>2014-6-17T8:34:29Z</time></trkpt>
<trkpt lat="47.17017000" lon="0.30388100"><ele></ele><time>2014-6-17T8:34:32Z</time></trkpt>
<trkpt lat="47.17016700" lon="0.30386500"><ele></ele><time>2014-6-17T8:34:35Z</time></trkpt>
<trkpt lat="47.17017100" lon="0.30388100"><ele></ele><time>2014-6-17T8:34:38Z</time></trkpt>
<trkpt lat="47.17012000" lon="0.30391500"><ele></ele><time>2014-6-17T8:34:41Z</time></trkpt>
<trkpt lat="47.17010600" lon="0.30392500"><ele></ele><time>2014-6-17T8:34:44Z</time></trkpt>
<trkpt lat="47.17008100" lon="0.30400700"><ele></ele><time>2014-6-17T8:34:47Z</time></trkpt>
<trkpt lat="47.17007000" lon="0.30415500"><ele></ele><time>2014-6-17T8:34:50Z</time></trkpt>
<trkpt lat="47.17004000" lon="0.30440700"><ele></ele><time>2014-6-17T8:34:53Z</time></trkpt>
<trkpt lat="47.17001500" lon="0.30454600"><ele></ele><time>2014-6-17T8:34:56Z</time></trkpt>
<trkpt lat="47.17002100" lon="0.30458300"><ele></ele><time>2014-6-17T8:34:59Z</time></trkpt>
<trkpt lat="47.17002700" lon="0.30460600"><ele></ele><time>2014-6-17T8:35:2Z</time></trkpt>
<trkpt lat="47.17002400" lon="0.30468000"><ele></ele><time>2014-6-17T8:35:5Z</time></trkpt>
<trkpt lat="47.17000300" lon="0.30468400"><ele></ele><time>2014-6-17T8:35:8Z</time></trkpt>
<trkpt lat="47.16991700" lon="0.30510300"><ele></ele><time>2014-6-17T8:35:11Z</time></trkpt>
<trkpt lat="47.16981400" lon="0.30568700"><ele></ele><time>2014-6-17T8:35:14Z</time></trkpt>
<trkpt lat="47.16977700" lon="0.30600700"><ele></ele><time>2014-6-17T8:35:17Z</time></trkpt>
<trkpt lat="47.16962100" lon="0.30712000"><ele></ele><time>2014-6-17T8:35:20Z</time></trkpt>
<trkpt lat="47.16958900" lon="0.30737300"><ele></ele><time>2014-6-17T8:35:23Z</time></trkpt>
<trkpt lat="47.16946400" lon="0.30816800"><ele></ele><time>2014-6-17T8:35:26Z</time></trkpt>
<trkpt lat="47.16933400" lon="0.30887900"><ele></ele><time>2014-6-17T8:35:29Z</time></trkpt>
<trkpt lat="47.16928000" lon="0.30907600"><ele></ele><time>2014-6-17T8:35:32Z</time></trkpt>
<trkpt lat="47.16927500" lon="0.30909000"><ele></ele><time>2014-6-17T8:35:35Z</time></trkpt>
<trkpt lat="47.16922500" lon="0.30923700"><ele></ele><time>2014-6-17T8:35:38Z</time></trkpt>
<trkpt lat="47.16910400" lon="0.30986000"><ele></ele><time>2014-6-17T8:35:41Z</time></trkpt>
<trkpt lat="47.16917000" lon="0.31057400"><ele></ele><time>2014-6-17T8:35:44Z</time></trkpt>
<trkpt lat="47.16925100" lon="0.31083800"><ele></ele><time>2014-6-17T8:35:47Z</time></trkpt>
<trkpt lat="47.16945700" lon="0.31113500"><ele></ele><time>2014-6-17T8:35:50Z</time></trkpt>
<trkpt lat="47.16952000" lon="0.31123300"><ele></ele><time>2014-6-17T8:35:53Z</time></trkpt>
<trkpt lat="47.16962400" lon="0.31145900"><ele></ele><time>2014-6-17T8:35:56Z</time></trkpt>
<trkpt lat="47.16968300" lon="0.31164300"><ele></ele><time>2014-6-17T8:35:59Z</time></trkpt>
<trkpt lat="47.16976700" lon="0.31234500"><ele></ele><time>2014-6-17T8:36:2Z</time></trkpt>
<trkpt lat="47.16980700" lon="0.31292100"><ele></ele><time>2014-6-17T8:36:5Z</time></trkpt>
<trkpt lat="47.16979600" lon="0.31345200"><ele></ele><time>2014-6-17T8:36:8Z</time></trkpt>
<trkpt lat="47.16977200" lon="0.31353300"><ele></ele><time>2014-6-17T8:36:11Z</time></trkpt>
<trkpt lat="47.16938700" lon="0.31367800"><ele></ele><time>2014-6-17T8:36:14Z</time></trkpt>
<trkpt lat="47.16919400" lon="0.31368100"><ele></ele><time>2014-6-17T8:36:17Z</time></trkpt>
<trkpt lat="47.16912500" lon="0.31368500"><ele></ele><time>2014-6-17T8:36:20Z</time></trkpt>
<trkpt lat="47.16893100" lon="0.31375600"><ele></ele><time>2014-6-17T8:36:23Z</time></trkpt>
<trkpt lat="47.16878000" lon="0.31398700"><ele></ele><time>2014-6-17T8:36:26Z</time></trkpt>
<trkpt lat="47.16846000" lon="0.31459000"><ele></ele><time>2014-6-17T8:36:29Z</time></trkpt>
<trkpt lat="47.16851000" lon="0.31527700"><ele></ele><time>2014-6-17T8:36:32Z</time></trkpt>
<trkpt lat="47.16852000" lon="0.31619000"><ele></ele><time>2014-6-17T8:36:35Z</time></trkpt>
<trkpt lat="47.16837200" lon="0.31691800"><ele></ele><time>2014-6-17T8:36:38Z</time></trkpt>
<trkpt lat="47.16819600" lon="0.31771400"><ele></ele><time>2014-6-17T8:36:41Z</time></trkpt>
<trkpt lat="47.16815400" lon="0.31838200"><ele></ele><time>2014-6-17T8:36:44Z</time></trkpt>
<trkpt lat="47.16808200" lon="0.31896700"><ele></ele><time>2014-6-17T8:36:47Z</time></trkpt>
<trkpt lat="47.16798100" lon="0.31936900"><ele></ele><time>2014-6-17T8:36:50Z</time></trkpt>
<trkpt lat="47.16796100" lon="0.31954400"><ele></ele><time>2014-6-17T8:36:53Z</time></trkpt>
<trkpt lat="47.16788900" lon="0.31977000"><ele></ele><time>2014-6-17T8:36:56Z</time></trkpt>
<trkpt lat="47.16776500" lon="0.32025700"><ele></ele><time>2014-6-17T8:36:59Z</time></trkpt>
<trkpt lat="47.16749600" lon="0.32119200"><ele></ele><time>2014-6-17T8:37:2Z</time></trkpt>
<trkpt lat="47.16728900" lon="0.32157500"><ele></ele><time>2014-6-17T8:37:5Z</time></trkpt>
<trkpt lat="47.16706400" lon="0.32202100"><ele></ele><time>2014-6-17T8:37:8Z</time></trkpt>
<trkpt lat="47.16676100" lon="0.32262300"><ele></ele><time>2014-6-17T8:37:11Z</time></trkpt>
<trkpt lat="47.16655000" lon="0.32316100"><ele></ele><time>2014-6-17T8:37:14Z</time></trkpt>
<trkpt lat="47.16642400" lon="0.32362600"><ele></ele><time>2014-6-17T8:37:17Z</time></trkpt>
<trkpt lat="47.16642300" lon="0.32373700"><ele></ele><time>2014-6-17T8:37:20Z</time></trkpt>
<trkpt lat="47.16638900" lon="0.32394500"><ele></ele><time>2014-6-17T8:37:23Z</time></trkpt>
<trkpt lat="47.16619900" lon="0.32451100"><ele></ele><time>2014-6-17T8:37:26Z</time></trkpt>
<trkpt lat="47.16604900" lon="0.32491900"><ele></ele><time>2014-6-17T8:37:29Z</time></trkpt>
<trkpt lat="47.16581000" lon="0.32539900"><ele></ele><time>2014-6-17T8:37:32Z</time></trkpt>
<trkpt lat="47.16559000" lon="0.32587900"><ele></ele><time>2014-6-17T8:37:35Z</time></trkpt>
<trkpt lat="47.16550500" lon="0.32614300"><ele></ele><time>2014-6-17T8:37:38Z</time></trkpt>
<trkpt lat="47.16564700" lon="0.32621700"><ele></ele><time>2014-6-17T8:37:41Z</time></trkpt>
<trkpt lat="47.16572300" lon="0.32619100"><ele></ele><time>2014-6-17T8:37:44Z</time></trkpt>
<trkpt lat="47.16589200" lon="0.32625300"><ele></ele><time>2014-6-17T8:37:47Z</time></trkpt>
<trkpt lat="47.16636000" lon="0.32687400"><ele></ele><time>2014-6-17T8:37:50Z</time></trkpt>
<trkpt lat="47.16646500" lon="0.32704300"><ele></ele><time>2014-6-17T8:37:53Z</time></trkpt>
<trkpt lat="47.16665100" lon="0.32726400"><ele></ele><time>2014-6-17T8:37:56Z</time></trkpt>
<trkpt lat="47.16675400" lon="0.32764600"><ele></ele><time>2014-6-17T8:37:59Z</time></trkpt>
<trkpt lat="47.16675700" lon="0.32769800"><ele></ele><time>2014-6-17T8:38:2Z</time></trkpt>
<trkpt lat="47.16675000" lon="0.32797400"><ele></ele><time>2014-6-17T8:38:5Z</time></trkpt>
<trkpt lat="47.16677200" lon="0.32832400"><ele></ele><time>2014-6-17T8:38:8Z</time></trkpt>
<trkpt lat="47.16677000" lon="0.32859900"><ele></ele><time>2014-6-17T8:38:11Z</time></trkpt>
<trkpt lat="47.16678700" lon="0.32914800"><ele></ele><time>2014-6-17T8:38:14Z</time></trkpt>
<trkpt lat="47.16681600" lon="0.32969200"><ele></ele><time>2014-6-17T8:38:17Z</time></trkpt>
<trkpt lat="47.16684200" lon="0.33019800"><ele></ele><time>2014-6-17T8:38:20Z</time></trkpt>
<trkpt lat="47.16683300" lon="0.33029600"><ele></ele><time>2014-6-17T8:38:23Z</time></trkpt>
<trkpt lat="47.16685000" lon="0.33048400"><ele></ele><time>2014-6-17T8:38:26Z</time></trkpt>
<trkpt lat="47.16686500" lon="0.33093300"><ele></ele><time>2014-6-17T8:38:29Z</time></trkpt>
<trkpt lat="47.16689600" lon="0.33122400"><ele></ele><time>2014-6-17T8:38:32Z</time></trkpt>
<trkpt lat="47.16687600" lon="0.33150900"><ele></ele><time>2014-6-17T8:38:35Z</time></trkpt>
<trkpt lat="47.16691100" lon="0.33177000"><ele></ele><time>2014-6-17T8:38:38Z</time></trkpt>
<trkpt lat="47.16690700" lon="0.33187400"><ele></ele><time>2014-6-17T8:38:41Z</time></trkpt>
<trkpt lat="47.16690500" lon="0.33227000"><ele></ele><time>2014-6-17T8:38:44Z</time></trkpt>
<trkpt lat="47.16694500" lon="0.33257600"><ele></ele><time>2014-6-17T8:38:47Z</time></trkpt>
<trkpt lat="47.16691700" lon="0.33290100"><ele></ele><time>2014-6-17T8:38:50Z</time></trkpt>
<trkpt lat="47.16695000" lon="0.33318100"><ele></ele><time>2014-6-17T8:38:53Z</time></trkpt>
<trkpt lat="47.16698800" lon="0.33354700"><ele></ele><time>2014-6-17T8:38:56Z</time></trkpt>
<trkpt lat="47.16699500" lon="0.33382700"><ele></ele><time>2014-6-17T8:38:59Z</time></trkpt>
<trkpt lat="47.16698400" lon="0.33392800"><ele></ele><time>2014-6-17T8:39:2Z</time></trkpt>
<trkpt lat="47.16703700" lon="0.33440300"><ele></ele><time>2014-6-17T8:39:5Z</time></trkpt>
<trkpt lat="47.16703300" lon="0.33466700"><ele></ele><time>2014-6-17T8:39:8Z</time></trkpt>
<trkpt lat="47.16704500" lon="0.33495700"><ele></ele><time>2014-6-17T8:39:11Z</time></trkpt>
<trkpt lat="47.16709600" lon="0.33517500"><ele></ele><time>2014-6-17T8:39:14Z</time></trkpt>
<trkpt lat="47.16707100" lon="0.33550500"><ele></ele><time>2014-6-17T8:39:17Z</time></trkpt>
<trkpt lat="47.16705700" lon="0.33559800"><ele></ele><time>2014-6-17T8:39:20Z</time></trkpt>
<trkpt lat="47.16706200" lon="0.33564700"><ele></ele><time>2014-6-17T8:39:23Z</time></trkpt>
<trkpt lat="47.16704100" lon="0.33588000"><ele></ele><time>2014-6-17T8:39:26Z</time></trkpt>
<trkpt lat="47.16704700" lon="0.33602100"><ele></ele><time>2014-6-17T8:39:29Z</time></trkpt>
<trkpt lat="47.16707900" lon="0.33622700"><ele></ele><time>2014-6-17T8:39:32Z</time></trkpt>
<trkpt lat="47.16710200" lon="0.33652500"><ele></ele><time>2014-6-17T8:39:35Z</time></trkpt>
<trkpt lat="47.16711200" lon="0.33695700"><ele></ele><time>2014-6-17T8:39:38Z</time></trkpt>
<trkpt lat="47.16712000" lon="0.33723500"><ele></ele><time>2014-6-17T8:39:41Z</time></trkpt>
<trkpt lat="47.16715800" lon="0.33775700"><ele></ele><time>2014-6-17T8:39:44Z</time></trkpt>
<trkpt lat="47.16716100" lon="0.33796900"><ele></ele><time>2014-6-17T8:39:47Z</time></trkpt>
<trkpt lat="47.16718300" lon="0.33851400"><ele></ele><time>2014-6-17T8:39:50Z</time></trkpt>
<trkpt lat="47.16718700" lon="0.33855500"><ele></ele><time>2014-6-17T8:39:53Z</time></trkpt>
<trkpt lat="47.16720800" lon="0.33904800"><ele></ele><time>2014-6-17T8:39:56Z</time></trkpt>
<trkpt lat="47.16720400" lon="0.33952100"><ele></ele><time>2014-6-17T8:39:59Z</time></trkpt>
<trkpt lat="47.16723000" lon="0.33984000"><ele></ele><time>2014-6-17T8:40:2Z</time></trkpt>
<trkpt lat="47.16722600" lon="0.33995300"><ele></ele><time>2014-6-17T8:40:5Z</time></trkpt>
<trkpt lat="47.16726400" lon="0.34052700"><ele></ele><time>2014-6-17T8:40:8Z</time></trkpt>
<trkpt lat="47.16728400" lon="0.34111100"><ele></ele><time>2014-6-17T8:40:11Z</time></trkpt>
<trkpt lat="47.16728400" lon="0.34159100"><ele></ele><time>2014-6-17T8:40:14Z</time></trkpt>
<trkpt lat="47.16730000" lon="0.34221600"><ele></ele><time>2014-6-17T8:40:17Z</time></trkpt>
<trkpt lat="47.16732600" lon="0.34276500"><ele></ele><time>2014-6-17T8:40:20Z</time></trkpt>
<trkpt lat="47.16736600" lon="0.34330500"><ele></ele><time>2014-6-17T8:40:23Z</time></trkpt>
<trkpt lat="47.16738700" lon="0.34389900"><ele></ele><time>2014-6-17T8:40:26Z</time></trkpt>
<trkpt lat="47.16739600" lon="0.34427200"><ele></ele><time>2014-6-17T8:40:29Z</time></trkpt>
<trkpt lat="47.16716400" lon="0.34435700"><ele></ele><time>2014-6-17T8:40:32Z</time></trkpt>
<trkpt lat="47.16685300" lon="0.34426300"><ele></ele><time>2014-6-17T8:40:35Z</time></trkpt>
<trkpt lat="47.16660200" lon="0.34449600"><ele></ele><time>2014-6-17T8:40:38Z</time></trkpt>
<trkpt lat="47.16658300" lon="0.34460200"><ele></ele><time>2014-6-17T8:40:41Z</time></trkpt>
<trkpt lat="47.16654400" lon="0.34514000"><ele></ele><time>2014-6-17T8:40:44Z</time></trkpt>
<trkpt lat="47.16651000" lon="0.34563400"><ele></ele><time>2014-6-17T8:40:47Z</time></trkpt>
<trkpt lat="47.16647700" lon="0.34599600"><ele></ele><time>2014-6-17T8:40:50Z</time></trkpt>
<trkpt lat="47.16642400" lon="0.34655700"><ele></ele><time>2014-6-17T8:40:53Z</time></trkpt>
<trkpt lat="47.16640500" lon="0.34691600"><ele></ele><time>2014-6-17T8:40:56Z</time></trkpt>
<trkpt lat="47.16638500" lon="0.34715600"><ele></ele><time>2014-6-17T8:40:59Z</time></trkpt>
<trkpt lat="47.16652300" lon="0.34733300"><ele></ele><time>2014-6-17T8:41:2Z</time></trkpt>
<trkpt lat="47.16655900" lon="0.34750100"><ele></ele><time>2014-6-17T8:41:5Z</time></trkpt>
<trkpt lat="47.16658600" lon="0.34778900"><ele></ele><time>2014-6-17T8:41:8Z</time></trkpt>
<trkpt lat="47.16656500" lon="0.34815800"><ele></ele><time>2014-6-17T8:41:11Z</time></trkpt>
<trkpt lat="47.16658200" lon="0.34855000"><ele></ele><time>2014-6-17T8:41:14Z</time></trkpt>
<trkpt lat="47.16643200" lon="0.34913600"><ele></ele><time>2014-6-17T8:41:17Z</time></trkpt>
<trkpt lat="47.16639200" lon="0.34918100"><ele></ele><time>2014-6-17T8:41:20Z</time></trkpt>
<trkpt lat="47.16624200" lon="0.34944700"><ele></ele><time>2014-6-17T8:41:23Z</time></trkpt>
<trkpt lat="47.16625300" lon="0.34953200"><ele></ele><time>2014-6-17T8:41:26Z</time></trkpt>
<trkpt lat="47.16628500" lon="0.34968200"><ele></ele><time>2014-6-17T8:41:29Z</time></trkpt>
<trkpt lat="47.16634000" lon="0.34980000"><ele></ele><time>2014-6-17T8:41:32Z</time></trkpt>
<trkpt lat="47.16615800" lon="0.34991500"><ele></ele><time>2014-6-17T8:41:35Z</time></trkpt>
<trkpt lat="47.16594100" lon="0.35026600"><ele></ele><time>2014-6-17T8:41:38Z</time></trkpt>
<trkpt lat="47.16588100" lon="0.35041600"><ele></ele><time>2014-6-17T8:41:41Z</time></trkpt>
<trkpt lat="47.16583000" lon="0.35051300"><ele></ele><time>2014-6-17T8:41:44Z</time></trkpt>
<trkpt lat="47.16575900" lon="0.35062400"><ele></ele><time>2014-6-17T8:41:47Z</time></trkpt>
<trkpt lat="47.16565800" lon="0.35065400"><ele></ele><time>2014-6-17T8:41:50Z</time></trkpt>
<trkpt lat="47.16526400" lon="0.35057300"><ele></ele><time>2014-6-17T8:41:53Z</time></trkpt>
<trkpt lat="47.16492300" lon="0.35055000"><ele></ele><time>2014-6-17T8:41:56Z</time></trkpt>
<trkpt lat="47.16472300" lon="0.35056000"><ele></ele><time>2014-6-17T8:41:59Z</time></trkpt>
<trkpt lat="47.16465200" lon="0.35056000"><ele></ele><time>2014-6-17T8:42:2Z</time></trkpt>
<trkpt lat="47.16434800" lon="0.35053200"><ele></ele><time>2014-6-17T8:42:5Z</time></trkpt>
<trkpt lat="47.16406800" lon="0.35045000"><ele></ele><time>2014-6-17T8:42:8Z</time></trkpt>
<trkpt lat="47.16388400" lon="0.35047700"><ele></ele><time>2014-6-17T8:42:11Z</time></trkpt>
<trkpt lat="47.16351700" lon="0.35042200"><ele></ele><time>2014-6-17T8:42:14Z</time></trkpt>
<trkpt lat="47.16328000" lon="0.35035500"><ele></ele><time>2014-6-17T8:42:17Z</time></trkpt>
<trkpt lat="47.16274300" lon="0.35011800"><ele></ele><time>2014-6-17T8:42:20Z</time></trkpt>
<trkpt lat="47.16254200" lon="0.35005500"><ele></ele><time>2014-6-17T8:42:23Z</time></trkpt>
<trkpt lat="47.16231500" lon="0.35002500"><ele></ele><time>2014-6-17T8:42:26Z</time></trkpt>
<trkpt lat="47.16214200" lon="0.35009800"><ele></ele><time>2014-6-17T8:42:29Z</time></trkpt>
<trkpt lat="47.16212100" lon="0.35009900"><ele></ele><time>2014-6-17T8:42:32Z</time></trkpt>
<trkpt lat="47.16207500" lon="0.35013100"><ele></ele><time>2014-6-17T8:42:35Z</time></trkpt>
<trkpt lat="47.16207700" lon="0.35013300"><ele></ele><time>2014-6-17T8:42:38Z</time></trkpt>
<trkpt lat="47.16207800" lon="0.35013200"><ele></ele><time>2014-6-17T8:42:41Z</time></trkpt>
<trkpt lat="47.16208000" lon="0.35013000"><ele></ele><time>2014-6-17T8:42:44Z</time></trkpt>
<trkpt lat="47.16208000" lon="0.35012900"><ele></ele><time>2014-6-17T8:42:47Z</time></trkpt>
<trkpt lat="47.16208000" lon="0.35012900"><ele></ele><time>2014-6-17T8:42:50Z</time></trkpt>
<trkpt lat="47.16208000" lon="0.35012900"><ele></ele><time>2014-6-17T8:42:53Z</time></trkpt>
<trkpt lat="47.16208000" lon="0.35012900"><ele></ele><time>2014-6-17T8:42:56Z</time></trkpt>
<trkpt lat="47.16207600" lon="0.35011900"><ele></ele><time>2014-6-17T8:42:59Z</time></trkpt>
<trkpt lat="47.16207800" lon="0.35015400"><ele></ele><time>2014-6-17T8:43:2Z</time></trkpt>
<trkpt lat="47.16205800" lon="0.35016600"><ele></ele><time>2014-6-17T8:43:5Z</time></trkpt>
<trkpt lat="47.16205000" lon="0.35018900"><ele></ele><time>2014-6-17T8:43:8Z</time></trkpt>
<trkpt lat="47.16209000" lon="0.35037400"><ele></ele><time>2014-6-17T8:43:11Z</time></trkpt>
<trkpt lat="47.16206700" lon="0.35083300"><ele></ele><time>2014-6-17T8:43:14Z</time></trkpt>
<trkpt lat="47.16206900" lon="0.35126900"><ele></ele><time>2014-6-17T8:43:17Z</time></trkpt>
<trkpt lat="47.16207300" lon="0.35168300"><ele></ele><time>2014-6-17T8:43:20Z</time></trkpt>
<trkpt lat="47.16218100" lon="0.35195600"><ele></ele><time>2014-6-17T8:43:23Z</time></trkpt>
<trkpt lat="47.16227500" lon="0.35223400"><ele></ele><time>2014-6-17T8:43:26Z</time></trkpt>
<trkpt lat="47.16232900" lon="0.35217200"><ele></ele><time>2014-6-17T8:43:29Z</time></trkpt>
<trkpt lat="47.16232100" lon="0.35202200"><ele></ele><time>2014-6-17T8:43:32Z</time></trkpt>
<trkpt lat="47.16233600" lon="0.35190200"><ele></ele><time>2014-6-17T8:43:35Z</time></trkpt>
<trkpt lat="47.16238400" lon="0.35179200"><ele></ele><time>2014-6-17T8:43:38Z</time></trkpt>
<trkpt lat="47.16241500" lon="0.35174500"><ele></ele><time>2014-6-17T8:43:41Z</time></trkpt>
<trkpt lat="47.16240100" lon="0.35166200"><ele></ele><time>2014-6-17T8:43:44Z</time></trkpt>
<trkpt lat="47.16243500" lon="0.35162800"><ele></ele><time>2014-6-17T8:43:47Z</time></trkpt>
<trkpt lat="47.16250400" lon="0.35161000"><ele></ele><time>2014-6-17T8:43:50Z</time></trkpt>
<trkpt lat="47.16256800" lon="0.35165500"><ele></ele><time>2014-6-17T8:43:53Z</time></trkpt>
<trkpt lat="47.16263400" lon="0.35176100"><ele></ele><time>2014-6-17T8:43:56Z</time></trkpt>
<trkpt lat="47.16269100" lon="0.35182100"><ele></ele><time>2014-6-17T8:43:59Z</time></trkpt>
<trkpt lat="47.16282600" lon="0.35192000"><ele></ele><time>2014-6-17T8:44:2Z</time></trkpt>
<trkpt lat="47.16296900" lon="0.35201000"><ele></ele><time>2014-6-17T8:44:5Z</time></trkpt>
<trkpt lat="47.16300800" lon="0.35203100"><ele></ele><time>2014-6-17T8:44:8Z</time></trkpt>
<trkpt lat="47.16317500" lon="0.35207900"><ele></ele><time>2014-6-17T8:44:11Z</time></trkpt>
<trkpt lat="47.16330200" lon="0.35217400"><ele></ele><time>2014-6-17T8:44:14Z</time></trkpt>
<trkpt lat="47.16345500" lon="0.35225700"><ele></ele><time>2014-6-17T8:44:17Z</time></trkpt>
<trkpt lat="47.16367100" lon="0.35239200"><ele></ele><time>2014-6-17T8:44:20Z</time></trkpt>
<trkpt lat="47.16367300" lon="0.35258800"><ele></ele><time>2014-6-17T8:44:23Z</time></trkpt>
<trkpt lat="47.16363300" lon="0.35310500"><ele></ele><time>2014-6-17T8:44:26Z</time></trkpt>
<trkpt lat="47.16409400" lon="0.35336400"><ele></ele><time>2014-6-17T8:44:29Z</time></trkpt>
<trkpt lat="47.16476400" lon="0.35372600"><ele></ele><time>2014-6-17T8:44:32Z</time></trkpt>
<trkpt lat="47.16536000" lon="0.35402800"><ele></ele><time>2014-6-17T8:44:35Z</time></trkpt>
<trkpt lat="47.16554100" lon="0.35447300"><ele></ele><time>2014-6-17T8:44:38Z</time></trkpt>
<trkpt lat="47.16581800" lon="0.35483000"><ele></ele><time>2014-6-17T8:44:41Z</time></trkpt>
<trkpt lat="47.16632500" lon="0.35526400"><ele></ele><time>2014-6-17T8:44:44Z</time></trkpt>
<trkpt lat="47.16662300" lon="0.35563400"><ele></ele><time>2014-6-17T8:44:47Z</time></trkpt>
<trkpt lat="47.16682900" lon="0.35611500"><ele></ele><time>2014-6-17T8:44:50Z</time></trkpt>
<trkpt lat="47.16683200" lon="0.35661500"><ele></ele><time>2014-6-17T8:44:53Z</time></trkpt>
<trkpt lat="47.16689200" lon="0.35670800"><ele></ele><time>2014-6-17T8:44:56Z</time></trkpt>
<trkpt lat="47.16744500" lon="0.35727800"><ele></ele><time>2014-6-17T8:44:59Z</time></trkpt>
<trkpt lat="47.16763600" lon="0.35714700"><ele></ele><time>2014-6-17T8:45:2Z</time></trkpt>
<trkpt lat="47.16773900" lon="0.35703900"><ele></ele><time>2014-6-17T8:45:5Z</time></trkpt>
<trkpt lat="47.16803100" lon="0.35664400"><ele></ele><time>2014-6-17T8:45:8Z</time></trkpt>
<trkpt lat="47.16811100" lon="0.35660600"><ele></ele><time>2014-6-17T8:45:11Z</time></trkpt>
<trkpt lat="47.16829500" lon="0.35660500"><ele></ele><time>2014-6-17T8:45:14Z</time></trkpt>
<trkpt lat="47.16865700" lon="0.35687000"><ele></ele><time>2014-6-17T8:45:17Z</time></trkpt>
<trkpt lat="47.16899800" lon="0.35707700"><ele></ele><time>2014-6-17T8:45:20Z</time></trkpt>
<trkpt lat="47.16925000" lon="0.35719100"><ele></ele><time>2014-6-17T8:45:23Z</time></trkpt>
<trkpt lat="47.16944200" lon="0.35728900"><ele></ele><time>2014-6-17T8:45:26Z</time></trkpt>
<trkpt lat="47.16990200" lon="0.35760200"><ele></ele><time>2014-6-17T8:45:29Z</time></trkpt>
<trkpt lat="47.16997500" lon="0.35768200"><ele></ele><time>2014-6-17T8:45:32Z</time></trkpt>
<trkpt lat="47.17010200" lon="0.35787300"><ele></ele><time>2014-6-17T8:45:35Z</time></trkpt>
<trkpt lat="47.17022900" lon="0.35805800"><ele></ele><time>2014-6-17T8:45:38Z</time></trkpt>
<trkpt lat="47.17038000" lon="0.35830600"><ele></ele><time>2014-6-17T8:45:41Z</time></trkpt>
<trkpt lat="47.17046600" lon="0.35846700"><ele></ele><time>2014-6-17T8:45:44Z</time></trkpt>
<trkpt lat="47.17070700" lon="0.35881900"><ele></ele><time>2014-6-17T8:45:47Z</time></trkpt>
<trkpt lat="47.17081400" lon="0.35893100"><ele></ele><time>2014-6-17T8:45:50Z</time></trkpt>
<trkpt lat="47.17084600" lon="0.35895500"><ele></ele><time>2014-6-17T8:45:53Z</time></trkpt>
<trkpt lat="47.17088100" lon="0.35897500"><ele></ele><time>2014-6-17T8:45:56Z</time></trkpt>
<trkpt lat="47.17091700" lon="0.35899600"><ele></ele><time>2014-6-17T8:45:59Z</time></trkpt>
<trkpt lat="47.17102800" lon="0.35907100"><ele></ele><time>2014-6-17T8:46:2Z</time></trkpt>
<trkpt lat="47.17128000" lon="0.35923300"><ele></ele><time>2014-6-17T8:46:5Z</time></trkpt>
<trkpt lat="47.17160400" lon="0.35949000"><ele></ele><time>2014-6-17T8:46:8Z</time></trkpt>
<trkpt lat="47.17163200" lon="0.35951900"><ele></ele><time>2014-6-17T8:46:11Z</time></trkpt>
<trkpt lat="47.17179600" lon="0.35968100"><ele></ele><time>2014-6-17T8:46:14Z</time></trkpt>
<trkpt lat="47.17182900" lon="0.35971600"><ele></ele><time>2014-6-17T8:46:17Z</time></trkpt>
<trkpt lat="47.17189500" lon="0.35978000"><ele></ele><time>2014-6-17T8:46:20Z</time></trkpt>
<trkpt lat="47.17199200" lon="0.35989900"><ele></ele><time>2014-6-17T8:46:23Z</time></trkpt>
<trkpt lat="47.17202400" lon="0.35994100"><ele></ele><time>2014-6-17T8:46:26Z</time></trkpt>
<trkpt lat="47.17205500" lon="0.35998300"><ele></ele><time>2014-6-17T8:46:29Z</time></trkpt>
<trkpt lat="47.17208700" lon="0.36002400"><ele></ele><time>2014-6-17T8:46:32Z</time></trkpt>
<trkpt lat="47.17246800" lon="0.36059800"><ele></ele><time>2014-6-17T8:46:35Z</time></trkpt>
<trkpt lat="47.17273800" lon="0.36107900"><ele></ele><time>2014-6-17T8:46:38Z</time></trkpt>
<trkpt lat="47.17279800" lon="0.36118700"><ele></ele><time>2014-6-17T8:46:41Z</time></trkpt>
<trkpt lat="47.17311200" lon="0.36178600"><ele></ele><time>2014-6-17T8:46:44Z</time></trkpt>
<trkpt lat="47.17325300" lon="0.36172700"><ele></ele><time>2014-6-17T8:46:47Z</time></trkpt>
<trkpt lat="47.17355000" lon="0.36103700"><ele></ele><time>2014-6-17T8:46:50Z</time></trkpt>
<trkpt lat="47.17382500" lon="0.36046200"><ele></ele><time>2014-6-17T8:46:53Z</time></trkpt>
<trkpt lat="47.17401700" lon="0.36018200"><ele></ele><time>2014-6-17T8:46:56Z</time></trkpt>
<trkpt lat="47.17407900" lon="0.36008600"><ele></ele><time>2014-6-17T8:46:59Z</time></trkpt>
<trkpt lat="47.17421800" lon="0.35958300"><ele></ele><time>2014-6-17T8:47:2Z</time></trkpt>
<trkpt lat="47.17416300" lon="0.35891700"><ele></ele><time>2014-6-17T8:47:5Z</time></trkpt>
<trkpt lat="47.17397900" lon="0.35832600"><ele></ele><time>2014-6-17T8:47:8Z</time></trkpt>
<trkpt lat="47.17392700" lon="0.35819300"><ele></ele><time>2014-6-17T8:47:11Z</time></trkpt>
<trkpt lat="47.17383800" lon="0.35765100"><ele></ele><time>2014-6-17T8:47:14Z</time></trkpt>
<trkpt lat="47.17380800" lon="0.35726300"><ele></ele><time>2014-6-17T8:47:17Z</time></trkpt>
<trkpt lat="47.17388600" lon="0.35689300"><ele></ele><time>2014-6-17T8:47:20Z</time></trkpt>
<trkpt lat="47.17380100" lon="0.35657700"><ele></ele><time>2014-6-17T8:47:23Z</time></trkpt>
<trkpt lat="47.17365500" lon="0.35643700"><ele></ele><time>2014-6-17T8:47:26Z</time></trkpt>
<trkpt lat="47.17363500" lon="0.35627900"><ele></ele><time>2014-6-17T8:47:29Z</time></trkpt>
<trkpt lat="47.17355300" lon="0.35587300"><ele></ele><time>2014-6-17T8:47:32Z</time></trkpt>
<trkpt lat="47.17338800" lon="0.35542000"><ele></ele><time>2014-6-17T8:47:35Z</time></trkpt>
<trkpt lat="47.17328100" lon="0.35447100"><ele></ele><time>2014-6-17T8:47:38Z</time></trkpt>
<trkpt lat="47.17325000" lon="0.35420000"><ele></ele><time>2014-6-17T8:47:41Z</time></trkpt>
<trkpt lat="47.17321400" lon="0.35393800"><ele></ele><time>2014-6-17T8:47:44Z</time></trkpt>
<trkpt lat="47.17320100" lon="0.35381200"><ele></ele><time>2014-6-17T8:47:47Z</time></trkpt>
<trkpt lat="47.17318200" lon="0.35368400"><ele></ele><time>2014-6-17T8:47:50Z</time></trkpt>
<trkpt lat="47.17293500" lon="0.35315400"><ele></ele><time>2014-6-17T8:47:53Z</time></trkpt>
<trkpt lat="47.17290300" lon="0.35311400"><ele></ele><time>2014-6-17T8:47:56Z</time></trkpt>
<trkpt lat="47.17246500" lon="0.35252500"><ele></ele><time>2014-6-17T8:47:59Z</time></trkpt>
<trkpt lat="47.17207900" lon="0.35205200"><ele></ele><time>2014-6-17T8:48:2Z</time></trkpt>
<trkpt lat="47.17157500" lon="0.35192600"><ele></ele><time>2014-6-17T8:48:5Z</time></trkpt>
<trkpt lat="47.17149800" lon="0.35191600"><ele></ele><time>2014-6-17T8:48:8Z</time></trkpt>
<trkpt lat="47.17088800" lon="0.35178100"><ele></ele><time>2014-6-17T8:48:11Z</time></trkpt>
<trkpt lat="47.17075300" lon="0.35172400"><ele></ele><time>2014-6-17T8:48:14Z</time></trkpt>
<trkpt lat="47.17052500" lon="0.35161700"><ele></ele><time>2014-6-17T8:48:17Z</time></trkpt>
<trkpt lat="47.17042900" lon="0.35143100"><ele></ele><time>2014-6-17T8:48:20Z</time></trkpt>
<trkpt lat="47.17037800" lon="0.35122300"><ele></ele><time>2014-6-17T8:48:23Z</time></trkpt>
<trkpt lat="47.17036100" lon="0.35100500"><ele></ele><time>2014-6-17T8:48:26Z</time></trkpt>
<trkpt lat="47.17036700" lon="0.35065000"><ele></ele><time>2014-6-17T8:48:29Z</time></trkpt>
<trkpt lat="47.17057400" lon="0.34980100"><ele></ele><time>2014-6-17T8:48:32Z</time></trkpt>
<trkpt lat="47.17102300" lon="0.34879800"><ele></ele><time>2014-6-17T8:48:35Z</time></trkpt>
<trkpt lat="47.17134300" lon="0.34762600"><ele></ele><time>2014-6-17T8:48:38Z</time></trkpt>
<trkpt lat="47.17152200" lon="0.34697300"><ele></ele><time>2014-6-17T8:48:41Z</time></trkpt>
<trkpt lat="47.17164000" lon="0.34677300"><ele></ele><time>2014-6-17T8:48:44Z</time></trkpt>
<trkpt lat="47.17173400" lon="0.34664900"><ele></ele><time>2014-6-17T8:48:47Z</time></trkpt>
<trkpt lat="47.17185300" lon="0.34617700"><ele></ele><time>2014-6-17T8:48:50Z</time></trkpt>
<trkpt lat="47.17180900" lon="0.34487700"><ele></ele><time>2014-6-17T8:48:53Z</time></trkpt>
<trkpt lat="47.17173800" lon="0.34355600"><ele></ele><time>2014-6-17T8:48:56Z</time></trkpt>
<trkpt lat="47.17171200" lon="0.34339300"><ele></ele><time>2014-6-17T8:48:59Z</time></trkpt>
<trkpt lat="47.17163900" lon="0.34307800"><ele></ele><time>2014-6-17T8:49:2Z</time></trkpt>
<trkpt lat="47.17162800" lon="0.34262400"><ele></ele><time>2014-6-17T8:49:5Z</time></trkpt>
<trkpt lat="47.17168600" lon="0.34243500"><ele></ele><time>2014-6-17T8:49:8Z</time></trkpt>
<trkpt lat="47.17172400" lon="0.34229400"><ele></ele><time>2014-6-17T8:49:11Z</time></trkpt>
<trkpt lat="47.17180000" lon="0.34191700"><ele></ele><time>2014-6-17T8:49:14Z</time></trkpt>
<trkpt lat="47.17187200" lon="0.34161800"><ele></ele><time>2014-6-17T8:49:17Z</time></trkpt>
<trkpt lat="47.17190200" lon="0.34147300"><ele></ele><time>2014-6-17T8:49:20Z</time></trkpt>
<trkpt lat="47.17197500" lon="0.34114200"><ele></ele><time>2014-6-17T8:49:23Z</time></trkpt>
<trkpt lat="47.17201400" lon="0.34099700"><ele></ele><time>2014-6-17T8:49:26Z</time></trkpt>
<trkpt lat="47.17225100" lon="0.34046400"><ele></ele><time>2014-6-17T8:49:29Z</time></trkpt>
<trkpt lat="47.17237300" lon="0.34002700"><ele></ele><time>2014-6-17T8:49:32Z</time></trkpt>
<trkpt lat="47.17239700" lon="0.33963400"><ele></ele><time>2014-6-17T8:49:35Z</time></trkpt>
<trkpt lat="47.17236100" lon="0.33884800"><ele></ele><time>2014-6-17T8:49:38Z</time></trkpt>
<trkpt lat="47.17237400" lon="0.33849200"><ele></ele><time>2014-6-17T8:49:41Z</time></trkpt>
<trkpt lat="47.17240400" lon="0.33795900"><ele></ele><time>2014-6-17T8:49:44Z</time></trkpt>
<trkpt lat="47.17240200" lon="0.33769600"><ele></ele><time>2014-6-17T8:49:47Z</time></trkpt>
<trkpt lat="47.17240900" lon="0.33753900"><ele></ele><time>2014-6-17T8:49:50Z</time></trkpt>
<trkpt lat="47.17241700" lon="0.33715400"><ele></ele><time>2014-6-17T8:49:53Z</time></trkpt>
<trkpt lat="47.17242900" lon="0.33699700"><ele></ele><time>2014-6-17T8:49:56Z</time></trkpt>
<trkpt lat="47.17245500" lon="0.33685100"><ele></ele><time>2014-6-17T8:49:59Z</time></trkpt>
<trkpt lat="47.17252200" lon="0.33660900"><ele></ele><time>2014-6-17T8:50:2Z</time></trkpt>
<trkpt lat="47.17259500" lon="0.33626100"><ele></ele><time>2014-6-17T8:50:5Z</time></trkpt>
<trkpt lat="47.17261800" lon="0.33604900"><ele></ele><time>2014-6-17T8:50:8Z</time></trkpt>
<trkpt lat="47.17265900" lon="0.33572900"><ele></ele><time>2014-6-17T8:50:11Z</time></trkpt>
<trkpt lat="47.17269100" lon="0.33537700"><ele></ele><time>2014-6-17T8:50:14Z</time></trkpt>
<trkpt lat="47.17270600" lon="0.33510500"><ele></ele><time>2014-6-17T8:50:17Z</time></trkpt>
<trkpt lat="47.17271700" lon="0.33489700"><ele></ele><time>2014-6-17T8:50:20Z</time></trkpt>
<trkpt lat="47.17276100" lon="0.33435200"><ele></ele><time>2014-6-17T8:50:23Z</time></trkpt>
<trkpt lat="47.17281400" lon="0.33396000"><ele></ele><time>2014-6-17T8:50:26Z</time></trkpt>
<trkpt lat="47.17283900" lon="0.33362900"><ele></ele><time>2014-6-17T8:50:29Z</time></trkpt>
<trkpt lat="47.17286800" lon="0.33336000"><ele></ele><time>2014-6-17T8:50:32Z</time></trkpt>
<trkpt lat="47.17290000" lon="0.33299800"><ele></ele><time>2014-6-17T8:50:35Z</time></trkpt>
<trkpt lat="47.17300100" lon="0.33249600"><ele></ele><time>2014-6-17T8:50:38Z</time></trkpt>
<trkpt lat="47.17302000" lon="0.33243700"><ele></ele><time>2014-6-17T8:50:41Z</time></trkpt>
<trkpt lat="47.17307700" lon="0.33225800"><ele></ele><time>2014-6-17T8:50:44Z</time></trkpt>
<trkpt lat="47.17313900" lon="0.33200400"><ele></ele><time>2014-6-17T8:50:47Z</time></trkpt>
<trkpt lat="47.17329300" lon="0.33146600"><ele></ele><time>2014-6-17T8:50:50Z</time></trkpt>
<trkpt lat="47.17335000" lon="0.33120200"><ele></ele><time>2014-6-17T8:50:53Z</time></trkpt>
<trkpt lat="47.17339400" lon="0.33100600"><ele></ele><time>2014-6-17T8:50:56Z</time></trkpt>
<trkpt lat="47.17346800" lon="0.33070400"><ele></ele><time>2014-6-17T8:50:59Z</time></trkpt>
<trkpt lat="47.17358100" lon="0.33024100"><ele></ele><time>2014-6-17T8:51:2Z</time></trkpt>
<trkpt lat="47.17367100" lon="0.33004500"><ele></ele><time>2014-6-17T8:51:5Z</time></trkpt>
<trkpt lat="47.17377600" lon="0.32984700"><ele></ele><time>2014-6-17T8:51:8Z</time></trkpt>
<trkpt lat="47.17384400" lon="0.32969700"><ele></ele><time>2014-6-17T8:51:11Z</time></trkpt>
<trkpt lat="47.17411900" lon="0.32929100"><ele></ele><time>2014-6-17T8:51:14Z</time></trkpt>
<trkpt lat="47.17422100" lon="0.32890500"><ele></ele><time>2014-6-17T8:51:17Z</time></trkpt>
<trkpt lat="47.17423700" lon="0.32885300"><ele></ele><time>2014-6-17T8:51:20Z</time></trkpt>
<trkpt lat="47.17430900" lon="0.32839600"><ele></ele><time>2014-6-17T8:51:23Z</time></trkpt>
<trkpt lat="47.17433100" lon="0.32820400"><ele></ele><time>2014-6-17T8:51:26Z</time></trkpt>
<trkpt lat="47.17438800" lon="0.32773500"><ele></ele><time>2014-6-17T8:51:29Z</time></trkpt>
<trkpt lat="47.17444100" lon="0.32710800"><ele></ele><time>2014-6-17T8:51:32Z</time></trkpt>
<trkpt lat="47.17459600" lon="0.32625800"><ele></ele><time>2014-6-17T8:51:35Z</time></trkpt>
<trkpt lat="47.17469800" lon="0.32560800"><ele></ele><time>2014-6-17T8:51:38Z</time></trkpt>
<trkpt lat="47.17481800" lon="0.32503500"><ele></ele><time>2014-6-17T8:51:41Z</time></trkpt>
<trkpt lat="47.17483400" lon="0.32427100"><ele></ele><time>2014-6-17T8:51:44Z</time></trkpt>
<trkpt lat="47.17490300" lon="0.32385500"><ele></ele><time>2014-6-17T8:51:47Z</time></trkpt>
<trkpt lat="47.17492300" lon="0.32373600"><ele></ele><time>2014-6-17T8:51:50Z</time></trkpt>
<trkpt lat="47.17497700" lon="0.32321500"><ele></ele><time>2014-6-17T8:51:53Z</time></trkpt>
<trkpt lat="47.17500800" lon="0.32289500"><ele></ele><time>2014-6-17T8:51:56Z</time></trkpt>
<trkpt lat="47.17511700" lon="0.32249200"><ele></ele><time>2014-6-17T8:51:59Z</time></trkpt>
<trkpt lat="47.17511700" lon="0.32196700"><ele></ele><time>2014-6-17T8:52:2Z</time></trkpt>
<trkpt lat="47.17517400" lon="0.32183100"><ele></ele><time>2014-6-17T8:52:5Z</time></trkpt>
<trkpt lat="47.17522800" lon="0.32122900"><ele></ele><time>2014-6-17T8:52:8Z</time></trkpt>
<trkpt lat="47.17527500" lon="0.32083500"><ele></ele><time>2014-6-17T8:52:11Z</time></trkpt>
<trkpt lat="47.17542100" lon="0.32077000"><ele></ele><time>2014-6-17T8:52:14Z</time></trkpt>
<trkpt lat="47.17554900" lon="0.32095000"><ele></ele><time>2014-6-17T8:52:17Z</time></trkpt>
<trkpt lat="47.17557500" lon="0.32095600"><ele></ele><time>2014-6-17T8:52:20Z</time></trkpt>
<trkpt lat="47.17579300" lon="0.32106600"><ele></ele><time>2014-6-17T8:52:23Z</time></trkpt>
<trkpt lat="47.17581200" lon="0.32110300"><ele></ele><time>2014-6-17T8:52:26Z</time></trkpt>
<trkpt lat="47.17609100" lon="0.32135400"><ele></ele><time>2014-6-17T8:52:29Z</time></trkpt>
<trkpt lat="47.17644800" lon="0.32160000"><ele></ele><time>2014-6-17T8:52:32Z</time></trkpt>
<trkpt lat="47.17663100" lon="0.32180400"><ele></ele><time>2014-6-17T8:52:35Z</time></trkpt>
<trkpt lat="47.17708700" lon="0.32206000"><ele></ele><time>2014-6-17T8:52:38Z</time></trkpt>
<trkpt lat="47.17735300" lon="0.32220500"><ele></ele><time>2014-6-17T8:52:41Z</time></trkpt>
<trkpt lat="47.17747600" lon="0.32228000"><ele></ele><time>2014-6-17T8:52:44Z</time></trkpt>
<trkpt lat="47.17807700" lon="0.32261900"><ele></ele><time>2014-6-17T8:52:47Z</time></trkpt>
<trkpt lat="47.17863600" lon="0.32290200"><ele></ele><time>2014-6-17T8:52:50Z</time></trkpt>
<trkpt lat="47.17904600" lon="0.32308900"><ele></ele><time>2014-6-17T8:52:53Z</time></trkpt>
<trkpt lat="47.17912700" lon="0.32305000"><ele></ele><time>2014-6-17T8:52:56Z</time></trkpt>
<trkpt lat="47.17919900" lon="0.32290500"><ele></ele><time>2014-6-17T8:52:59Z</time></trkpt>
<trkpt lat="47.17925000" lon="0.32280000"><ele></ele><time>2014-6-17T8:53:2Z</time></trkpt>
<trkpt lat="47.17925800" lon="0.32278500"><ele></ele><time>2014-6-17T8:53:5Z</time></trkpt>
<trkpt lat="47.17929800" lon="0.32268600"><ele></ele><time>2014-6-17T8:53:8Z</time></trkpt>
<trkpt lat="47.17935600" lon="0.32252800"><ele></ele><time>2014-6-17T8:53:11Z</time></trkpt>
<trkpt lat="47.17939100" lon="0.32240500"><ele></ele><time>2014-6-17T8:53:14Z</time></trkpt>
<trkpt lat="47.17940900" lon="0.32235600"><ele></ele><time>2014-6-17T8:53:17Z</time></trkpt>
<trkpt lat="47.17944000" lon="0.32213500"><ele></ele><time>2014-6-17T8:53:20Z</time></trkpt>
<trkpt lat="47.17952800" lon="0.32181100"><ele></ele><time>2014-6-17T8:53:23Z</time></trkpt>
<trkpt lat="47.17955500" lon="0.32162600"><ele></ele><time>2014-6-17T8:53:26Z</time></trkpt>
<trkpt lat="47.17960100" lon="0.32148400"><ele></ele><time>2014-6-17T8:53:29Z</time></trkpt>
<trkpt lat="47.17964600" lon="0.32127600"><ele></ele><time>2014-6-17T8:53:32Z</time></trkpt>
<trkpt lat="47.17973900" lon="0.32086900"><ele></ele><time>2014-6-17T8:53:35Z</time></trkpt>
<trkpt lat="47.17986900" lon="0.32035600"><ele></ele><time>2014-6-17T8:53:38Z</time></trkpt>
<trkpt lat="47.17995900" lon="0.31984500"><ele></ele><time>2014-6-17T8:53:41Z</time></trkpt>
<trkpt lat="47.18006600" lon="0.31940000"><ele></ele><time>2014-6-17T8:53:44Z</time></trkpt>
<trkpt lat="47.18020800" lon="0.31883100"><ele></ele><time>2014-6-17T8:53:47Z</time></trkpt>
<trkpt lat="47.18036900" lon="0.31821300"><ele></ele><time>2014-6-17T8:53:50Z</time></trkpt>
<trkpt lat="47.18052600" lon="0.31765200"><ele></ele><time>2014-6-17T8:53:53Z</time></trkpt>
<trkpt lat="47.18060700" lon="0.31709900"><ele></ele><time>2014-6-17T8:53:56Z</time></trkpt>
<trkpt lat="47.18075000" lon="0.31663700"><ele></ele><time>2014-6-17T8:53:59Z</time></trkpt>
<trkpt lat="47.18083000" lon="0.31631800"><ele></ele><time>2014-6-17T8:54:2Z</time></trkpt>
<trkpt lat="47.18093100" lon="0.31586600"><ele></ele><time>2014-6-17T8:54:5Z</time></trkpt>
<trkpt lat="47.18103300" lon="0.31539200"><ele></ele><time>2014-6-17T8:54:8Z</time></trkpt>
<trkpt lat="47.18113200" lon="0.31500500"><ele></ele><time>2014-6-17T8:54:11Z</time></trkpt>
<trkpt lat="47.18119600" lon="0.31472100"><ele></ele><time>2014-6-17T8:54:14Z</time></trkpt>
<trkpt lat="47.18128000" lon="0.31447500"><ele></ele><time>2014-6-17T8:54:17Z</time></trkpt>
<trkpt lat="47.18128700" lon="0.31441800"><ele></ele><time>2014-6-17T8:54:20Z</time></trkpt>
<trkpt lat="47.18128200" lon="0.31432900"><ele></ele><time>2014-6-17T8:54:23Z</time></trkpt>
<trkpt lat="47.18132200" lon="0.31421100"><ele></ele><time>2014-6-17T8:54:26Z</time></trkpt>
<trkpt lat="47.18157300" lon="0.31406400"><ele></ele><time>2014-6-17T8:54:29Z</time></trkpt>
<trkpt lat="47.18169500" lon="0.31408700"><ele></ele><time>2014-6-17T8:54:32Z</time></trkpt>
<trkpt lat="47.18198500" lon="0.31406400"><ele></ele><time>2014-6-17T8:54:35Z</time></trkpt>
<trkpt lat="47.18226100" lon="0.31406500"><ele></ele><time>2014-6-17T8:54:38Z</time></trkpt>
<trkpt lat="47.18252500" lon="0.31405500"><ele></ele><time>2014-6-17T8:54:41Z</time></trkpt>
<trkpt lat="47.18285000" lon="0.31416700"><ele></ele><time>2014-6-17T8:54:44Z</time></trkpt>
<trkpt lat="47.18323900" lon="0.31424000"><ele></ele><time>2014-6-17T8:54:47Z</time></trkpt>
<trkpt lat="47.18354100" lon="0.31435900"><ele></ele><time>2014-6-17T8:54:50Z</time></trkpt>
<trkpt lat="47.18400300" lon="0.31454200"><ele></ele><time>2014-6-17T8:54:53Z</time></trkpt>
<trkpt lat="47.18433900" lon="0.31468000"><ele></ele><time>2014-6-17T8:54:56Z</time></trkpt>
<trkpt lat="47.18476100" lon="0.31480800"><ele></ele><time>2014-6-17T8:54:59Z</time></trkpt>
<trkpt lat="47.18490800" lon="0.31485700"><ele></ele><time>2014-6-17T8:55:2Z</time></trkpt>
<trkpt lat="47.18496900" lon="0.31481200"><ele></ele><time>2014-6-17T8:55:5Z</time></trkpt>
<trkpt lat="47.18486000" lon="0.31456500"><ele></ele><time>2014-6-17T8:55:8Z</time></trkpt>
<trkpt lat="47.18475500" lon="0.31445600"><ele></ele><time>2014-6-17T8:55:11Z</time></trkpt>
<trkpt lat="47.18468400" lon="0.31435600"><ele></ele><time>2014-6-17T8:55:14Z</time></trkpt>
<trkpt lat="47.18456300" lon="0.31416000"><ele></ele><time>2014-6-17T8:55:17Z</time></trkpt>
<trkpt lat="47.18437900" lon="0.31392900"><ele></ele><time>2014-6-17T8:55:20Z</time></trkpt>
<trkpt lat="47.18420700" lon="0.31380200"><ele></ele><time>2014-6-17T8:55:23Z</time></trkpt>
<trkpt lat="47.18417900" lon="0.31378300"><ele></ele><time>2014-6-17T8:55:26Z</time></trkpt>
<trkpt lat="47.18413700" lon="0.31376300"><ele></ele><time>2014-6-17T8:55:29Z</time></trkpt>
<trkpt lat="47.18411100" lon="0.31368700"><ele></ele><time>2014-6-17T8:55:32Z</time></trkpt>
<trkpt lat="47.18403200" lon="0.31359600"><ele></ele><time>2014-6-17T8:55:35Z</time></trkpt>
<trkpt lat="47.18396100" lon="0.31322700"><ele></ele><time>2014-6-17T8:55:38Z</time></trkpt>
<trkpt lat="47.18386300" lon="0.31300000"><ele></ele><time>2014-6-17T8:55:41Z</time></trkpt>
<trkpt lat="47.18377900" lon="0.31290300"><ele></ele><time>2014-6-17T8:55:44Z</time></trkpt>
<trkpt lat="47.18372300" lon="0.31285400"><ele></ele><time>2014-6-17T8:55:47Z</time></trkpt>
<trkpt lat="47.18361500" lon="0.31276300"><ele></ele><time>2014-6-17T8:55:50Z</time></trkpt>
<trkpt lat="47.18349200" lon="0.31275500"><ele></ele><time>2014-6-17T8:55:53Z</time></trkpt>
<trkpt lat="47.18338200" lon="0.31279200"><ele></ele><time>2014-6-17T8:55:56Z</time></trkpt>
<trkpt lat="47.18319100" lon="0.31266800"><ele></ele><time>2014-6-17T8:55:59Z</time></trkpt>
<trkpt lat="47.18314200" lon="0.31253400"><ele></ele><time>2014-6-17T8:56:2Z</time></trkpt>
<trkpt lat="47.18298200" lon="0.31228600"><ele></ele><time>2014-6-17T8:56:5Z</time></trkpt>
<trkpt lat="47.18270700" lon="0.31239300"><ele></ele><time>2014-6-17T8:56:8Z</time></trkpt>
<trkpt lat="47.18264300" lon="0.31240100"><ele></ele><time>2014-6-17T8:56:11Z</time></trkpt>
<trkpt lat="47.18236600" lon="0.31244800"><ele></ele><time>2014-6-17T8:56:14Z</time></trkpt>
<trkpt lat="47.18222500" lon="0.31246600"><ele></ele><time>2014-6-17T8:56:17Z</time></trkpt>
<trkpt lat="47.18183900" lon="0.31232100"><ele></ele><time>2014-6-17T8:56:20Z</time></trkpt>
<trkpt lat="47.18178800" lon="0.31230400"><ele></ele><time>2014-6-17T8:56:23Z</time></trkpt>
<trkpt lat="47.18155500" lon="0.31215300"><ele></ele><time>2014-6-17T8:56:26Z</time></trkpt>
<trkpt lat="47.18127900" lon="0.31160100"><ele></ele><time>2014-6-17T8:56:29Z</time></trkpt>
<trkpt lat="47.18124000" lon="0.31151500"><ele></ele><time>2014-6-17T8:56:32Z</time></trkpt>
<trkpt lat="47.18103200" lon="0.31102600"><ele></ele><time>2014-6-17T8:56:35Z</time></trkpt>
<trkpt lat="47.18094200" lon="0.31083200"><ele></ele><time>2014-6-17T8:56:38Z</time></trkpt>
<trkpt lat="47.18062800" lon="0.31007600"><ele></ele><time>2014-6-17T8:56:41Z</time></trkpt>
<trkpt lat="47.18076100" lon="0.30994100"><ele></ele><time>2014-6-17T8:56:44Z</time></trkpt>
<trkpt lat="47.18082000" lon="0.30993400"><ele></ele><time>2014-6-17T8:56:47Z</time></trkpt>
<trkpt lat="47.18099000" lon="0.30992200"><ele></ele><time>2014-6-17T8:56:50Z</time></trkpt>
<trkpt lat="47.18104900" lon="0.30990500"><ele></ele><time>2014-6-17T8:56:53Z</time></trkpt>
<trkpt lat="47.18109200" lon="0.30991000"><ele></ele><time>2014-6-17T8:56:56Z</time></trkpt>
<trkpt lat="47.18120400" lon="0.30990800"><ele></ele><time>2014-6-17T8:56:59Z</time></trkpt>
<trkpt lat="47.18124700" lon="0.30992100"><ele></ele><time>2014-6-17T8:57:2Z</time></trkpt>
<trkpt lat="47.18145100" lon="0.30989800"><ele></ele><time>2014-6-17T8:57:5Z</time></trkpt>
<trkpt lat="47.18156200" lon="0.30991000"><ele></ele><time>2014-6-17T8:57:8Z</time></trkpt>
<trkpt lat="47.18187400" lon="0.30979800"><ele></ele><time>2014-6-17T8:57:11Z</time></trkpt>
<trkpt lat="47.18192400" lon="0.30979500"><ele></ele><time>2014-6-17T8:57:14Z</time></trkpt>
<trkpt lat="47.18211800" lon="0.30975600"><ele></ele><time>2014-6-17T8:57:17Z</time></trkpt>
<trkpt lat="47.18223300" lon="0.30975500"><ele></ele><time>2014-6-17T8:57:20Z</time></trkpt>
<trkpt lat="47.18232300" lon="0.30974200"><ele></ele><time>2014-6-17T8:57:23Z</time></trkpt>
<trkpt lat="47.18237700" lon="0.30972500"><ele></ele><time>2014-6-17T8:57:26Z</time></trkpt>
<trkpt lat="47.18255800" lon="0.30975700"><ele></ele><time>2014-6-17T8:57:29Z</time></trkpt>
<trkpt lat="47.18259500" lon="0.30976400"><ele></ele><time>2014-6-17T8:57:32Z</time></trkpt>
<trkpt lat="47.18282800" lon="0.30969800"><ele></ele><time>2014-6-17T8:57:35Z</time></trkpt>
<trkpt lat="47.18288000" lon="0.30969600"><ele></ele><time>2014-6-17T8:57:38Z</time></trkpt>
<trkpt lat="47.18307100" lon="0.30973000"><ele></ele><time>2014-6-17T8:57:41Z</time></trkpt>
<trkpt lat="47.18326700" lon="0.30983800"><ele></ele><time>2014-6-17T8:57:44Z</time></trkpt>
<trkpt lat="47.18342800" lon="0.30995600"><ele></ele><time>2014-6-17T8:57:47Z</time></trkpt>
<trkpt lat="47.18361600" lon="0.30992100"><ele></ele><time>2014-6-17T8:57:50Z</time></trkpt>
<trkpt lat="47.18383700" lon="0.30988100"><ele></ele><time>2014-6-17T8:57:53Z</time></trkpt>
<trkpt lat="47.18391400" lon="0.30988400"><ele></ele><time>2014-6-17T8:57:56Z</time></trkpt>
<trkpt lat="47.18396300" lon="0.30987200"><ele></ele><time>2014-6-17T8:57:59Z</time></trkpt>
<trkpt lat="47.18433900" lon="0.30970500"><ele></ele><time>2014-6-17T8:58:2Z</time></trkpt>
<trkpt lat="47.18436200" lon="0.30970000"><ele></ele><time>2014-6-17T8:58:5Z</time></trkpt>
<trkpt lat="47.18457300" lon="0.30962400"><ele></ele><time>2014-6-17T8:58:8Z</time></trkpt>
<trkpt lat="47.18488100" lon="0.30953400"><ele></ele><time>2014-6-17T8:58:11Z</time></trkpt>
<trkpt lat="47.18503800" lon="0.30949700"><ele></ele><time>2014-6-17T8:58:14Z</time></trkpt>
<trkpt lat="47.18512000" lon="0.30947400"><ele></ele><time>2014-6-17T8:58:17Z</time></trkpt>
<trkpt lat="47.18535200" lon="0.30940300"><ele></ele><time>2014-6-17T8:58:20Z</time></trkpt>
<trkpt lat="47.18556000" lon="0.30946400"><ele></ele><time>2014-6-17T8:58:23Z</time></trkpt>
<trkpt lat="47.18588900" lon="0.30949600"><ele></ele><time>2014-6-17T8:58:26Z</time></trkpt>
<trkpt lat="47.18600300" lon="0.30952600"><ele></ele><time>2014-6-17T8:58:29Z</time></trkpt>
<trkpt lat="47.18604500" lon="0.30953800"><ele></ele><time>2014-6-17T8:58:32Z</time></trkpt>
<trkpt lat="47.18628500" lon="0.30955300"><ele></ele><time>2014-6-17T8:58:35Z</time></trkpt>
<trkpt lat="47.18648200" lon="0.30953500"><ele></ele><time>2014-6-17T8:58:38Z</time></trkpt>
<trkpt lat="47.18655900" lon="0.30951100"><ele></ele><time>2014-6-17T8:58:41Z</time></trkpt>
<trkpt lat="47.18680300" lon="0.30945700"><ele></ele><time>2014-6-17T8:58:44Z</time></trkpt>
<trkpt lat="47.18701400" lon="0.30955600"><ele></ele><time>2014-6-17T8:58:47Z</time></trkpt>
<trkpt lat="47.18720200" lon="0.30974500"><ele></ele><time>2014-6-17T8:58:50Z</time></trkpt>
<trkpt lat="47.18723500" lon="0.30989400"><ele></ele><time>2014-6-17T8:58:53Z</time></trkpt>
<trkpt lat="47.18748300" lon="0.30999800"><ele></ele><time>2014-6-17T8:58:56Z</time></trkpt>
<trkpt lat="47.18760300" lon="0.31004500"><ele></ele><time>2014-6-17T8:58:59Z</time></trkpt>
<trkpt lat="47.18766600" lon="0.30996200"><ele></ele><time>2014-6-17T8:59:2Z</time></trkpt>
<trkpt lat="47.18782100" lon="0.30990600"><ele></ele><time>2014-6-17T8:59:5Z</time></trkpt>
<trkpt lat="47.18808300" lon="0.30991200"><ele></ele><time>2014-6-17T8:59:8Z</time></trkpt>
<trkpt lat="47.18813800" lon="0.30996100"><ele></ele><time>2014-6-17T8:59:11Z</time></trkpt>
<trkpt lat="47.18824100" lon="0.30997600"><ele></ele><time>2014-6-17T8:59:14Z</time></trkpt>
<trkpt lat="47.18859200" lon="0.31011700"><ele></ele><time>2014-6-17T8:59:17Z</time></trkpt>
<trkpt lat="47.18871300" lon="0.31015700"><ele></ele><time>2014-6-17T8:59:20Z</time></trkpt>
<trkpt lat="47.18880000" lon="0.31013600"><ele></ele><time>2014-6-17T8:59:23Z</time></trkpt>
<trkpt lat="47.18906200" lon="0.31017200"><ele></ele><time>2014-6-17T8:59:26Z</time></trkpt>
<trkpt lat="47.18922700" lon="0.31017500"><ele></ele><time>2014-6-17T8:59:29Z</time></trkpt>
<trkpt lat="47.18957900" lon="0.31031200"><ele></ele><time>2014-6-17T8:59:32Z</time></trkpt>
<trkpt lat="47.18992300" lon="0.31044100"><ele></ele><time>2014-6-17T8:59:35Z</time></trkpt>
<trkpt lat="47.19031900" lon="0.31050100"><ele></ele><time>2014-6-17T8:59:38Z</time></trkpt>
<trkpt lat="47.19036900" lon="0.31050400"><ele></ele><time>2014-6-17T8:59:41Z</time></trkpt>
<trkpt lat="47.19070500" lon="0.31056900"><ele></ele><time>2014-6-17T8:59:44Z</time></trkpt>
<trkpt lat="47.19104000" lon="0.31064500"><ele></ele><time>2014-6-17T8:59:47Z</time></trkpt>
<trkpt lat="47.19126900" lon="0.31070700"><ele></ele><time>2014-6-17T8:59:50Z</time></trkpt>
<trkpt lat="47.19179600" lon="0.31087700"><ele></ele><time>2014-6-17T8:59:53Z</time></trkpt>
<trkpt lat="47.19212500" lon="0.31098000"><ele></ele><time>2014-6-17T8:59:56Z</time></trkpt>
<trkpt lat="47.19244800" lon="0.31096900"><ele></ele><time>2014-6-17T8:59:59Z</time></trkpt>
<trkpt lat="47.19260500" lon="0.31092800"><ele></ele><time>2014-6-17T9:0:2Z</time></trkpt>
<trkpt lat="47.19287700" lon="0.31091700"><ele></ele><time>2014-6-17T9:0:5Z</time></trkpt>
<trkpt lat="47.19312100" lon="0.31133900"><ele></ele><time>2014-6-17T9:0:8Z</time></trkpt>
<trkpt lat="47.19319200" lon="0.31153400"><ele></ele><time>2014-6-17T9:0:11Z</time></trkpt>
<trkpt lat="47.19341300" lon="0.31147800"><ele></ele><time>2014-6-17T9:0:14Z</time></trkpt>
<trkpt lat="47.19350500" lon="0.31143700"><ele></ele><time>2014-6-17T9:0:17Z</time></trkpt>
<trkpt lat="47.19353600" lon="0.31192800"><ele></ele><time>2014-6-17T9:0:20Z</time></trkpt>
<trkpt lat="47.19360100" lon="0.31227900"><ele></ele><time>2014-6-17T9:0:23Z</time></trkpt>
<trkpt lat="47.19369600" lon="0.31270600"><ele></ele><time>2014-6-17T9:0:26Z</time></trkpt>
<trkpt lat="47.19386200" lon="0.31332100"><ele></ele><time>2014-6-17T9:0:29Z</time></trkpt>
<trkpt lat="47.19397600" lon="0.31372000"><ele></ele><time>2014-6-17T9:0:32Z</time></trkpt>
<trkpt lat="47.19407000" lon="0.31399800"><ele></ele><time>2014-6-17T9:0:35Z</time></trkpt>
<trkpt lat="47.19413700" lon="0.31419200"><ele></ele><time>2014-6-17T9:0:38Z</time></trkpt>
<trkpt lat="47.19426400" lon="0.31454900"><ele></ele><time>2014-6-17T9:0:41Z</time></trkpt>
<trkpt lat="47.19440800" lon="0.31493500"><ele></ele><time>2014-6-17T9:0:44Z</time></trkpt>
<trkpt lat="47.19451700" lon="0.31524400"><ele></ele><time>2014-6-17T9:0:47Z</time></trkpt>
<trkpt lat="47.19447700" lon="0.31586900"><ele></ele><time>2014-6-17T9:0:50Z</time></trkpt>
<trkpt lat="47.19446700" lon="0.31662700"><ele></ele><time>2014-6-17T9:0:53Z</time></trkpt>
<trkpt lat="47.19443800" lon="0.31713900"><ele></ele><time>2014-6-17T9:0:56Z</time></trkpt>
<trkpt lat="47.19451400" lon="0.31754600"><ele></ele><time>2014-6-17T9:0:59Z</time></trkpt>
<trkpt lat="47.19455800" lon="0.31791900"><ele></ele><time>2014-6-17T9:1:2Z</time></trkpt>
<trkpt lat="47.19458500" lon="0.31819900"><ele></ele><time>2014-6-17T9:1:5Z</time></trkpt>
<trkpt lat="47.19462100" lon="0.31891300"><ele></ele><time>2014-6-17T9:1:8Z</time></trkpt>
<trkpt lat="47.19463000" lon="0.31897500"><ele></ele><time>2014-6-17T9:1:11Z</time></trkpt>
<trkpt lat="47.19464300" lon="0.31911500"><ele></ele><time>2014-6-17T9:1:14Z</time></trkpt>
<trkpt lat="47.19464600" lon="0.31926300"><ele></ele><time>2014-6-17T9:1:17Z</time></trkpt>
<trkpt lat="47.19467900" lon="0.31989600"><ele></ele><time>2014-6-17T9:1:20Z</time></trkpt>
<trkpt lat="47.19466100" lon="0.32055400"><ele></ele><time>2014-6-17T9:1:23Z</time></trkpt>
<trkpt lat="47.19476200" lon="0.32165000"><ele></ele><time>2014-6-17T9:1:26Z</time></trkpt>
<trkpt lat="47.19477000" lon="0.32202700"><ele></ele><time>2014-6-17T9:1:29Z</time></trkpt>
<trkpt lat="47.19483000" lon="0.32294100"><ele></ele><time>2014-6-17T9:1:32Z</time></trkpt>
<trkpt lat="47.19491500" lon="0.32329200"><ele></ele><time>2014-6-17T9:1:35Z</time></trkpt>
<trkpt lat="47.19500400" lon="0.32357000"><ele></ele><time>2014-6-17T9:1:38Z</time></trkpt>
<trkpt lat="47.19505100" lon="0.32374800"><ele></ele><time>2014-6-17T9:1:41Z</time></trkpt>
<trkpt lat="47.19514800" lon="0.32427500"><ele></ele><time>2014-6-17T9:1:44Z</time></trkpt>
<trkpt lat="47.19516600" lon="0.32435800"><ele></ele><time>2014-6-17T9:1:47Z</time></trkpt>
<trkpt lat="47.19519700" lon="0.32457100"><ele></ele><time>2014-6-17T9:1:50Z</time></trkpt>
<trkpt lat="47.19526900" lon="0.32508400"><ele></ele><time>2014-6-17T9:1:53Z</time></trkpt>
<trkpt lat="47.19533200" lon="0.32540900"><ele></ele><time>2014-6-17T9:1:56Z</time></trkpt>
<trkpt lat="47.19537300" lon="0.32543000"><ele></ele><time>2014-6-17T9:1:59Z</time></trkpt>
<trkpt lat="47.19540400" lon="0.32540700"><ele></ele><time>2014-6-17T9:2:2Z</time></trkpt>
<trkpt lat="47.19565300" lon="0.32525200"><ele></ele><time>2014-6-17T9:2:5Z</time></trkpt>
<trkpt lat="47.19573400" lon="0.32517600"><ele></ele><time>2014-6-17T9:2:8Z</time></trkpt>
<trkpt lat="47.19610200" lon="0.32487500"><ele></ele><time>2014-6-17T9:2:11Z</time></trkpt>
<trkpt lat="47.19621700" lon="0.32483800"><ele></ele><time>2014-6-17T9:2:14Z</time></trkpt>
<trkpt lat="47.19667100" lon="0.32429400"><ele></ele><time>2014-6-17T9:2:17Z</time></trkpt>
<trkpt lat="47.19696400" lon="0.32374500"><ele></ele><time>2014-6-17T9:2:20Z</time></trkpt>
<trkpt lat="47.19706300" lon="0.32361800"><ele></ele><time>2014-6-17T9:2:23Z</time></trkpt>
<trkpt lat="47.19725300" lon="0.32335300"><ele></ele><time>2014-6-17T9:2:26Z</time></trkpt>
<trkpt lat="47.19771800" lon="0.32294700"><ele></ele><time>2014-6-17T9:2:29Z</time></trkpt>
<trkpt lat="47.19786100" lon="0.32282100"><ele></ele><time>2014-6-17T9:2:32Z</time></trkpt>
<trkpt lat="47.19805200" lon="0.32264600"><ele></ele><time>2014-6-17T9:2:35Z</time></trkpt>
<trkpt lat="47.19822700" lon="0.32254400"><ele></ele><time>2014-6-17T9:2:38Z</time></trkpt>
<trkpt lat="47.19868400" lon="0.32228800"><ele></ele><time>2014-6-17T9:2:41Z</time></trkpt>
<trkpt lat="47.19929000" lon="0.32182800"><ele></ele><time>2014-6-17T9:2:44Z</time></trkpt>
<trkpt lat="47.19958700" lon="0.32159800"><ele></ele><time>2014-6-17T9:2:47Z</time></trkpt>
<trkpt lat="47.19972600" lon="0.32099200"><ele></ele><time>2014-6-17T9:2:50Z</time></trkpt>
<trkpt lat="47.19973100" lon="0.32068700"><ele></ele><time>2014-6-17T9:2:53Z</time></trkpt>
<trkpt lat="47.19997800" lon="0.32011100"><ele></ele><time>2014-6-17T9:2:56Z</time></trkpt>
<trkpt lat="47.20007300" lon="0.32004000"><ele></ele><time>2014-6-17T9:2:59Z</time></trkpt>
<trkpt lat="47.20026300" lon="0.31995400"><ele></ele><time>2014-6-17T9:3:2Z</time></trkpt>
<trkpt lat="47.20039400" lon="0.31983100"><ele></ele><time>2014-6-17T9:3:5Z</time></trkpt>
<trkpt lat="47.20055700" lon="0.31963200"><ele></ele><time>2014-6-17T9:3:8Z</time></trkpt>
<trkpt lat="47.20063200" lon="0.31954500"><ele></ele><time>2014-6-17T9:3:11Z</time></trkpt>
<trkpt lat="47.20075900" lon="0.31943800"><ele></ele><time>2014-6-17T9:3:14Z</time></trkpt>
<trkpt lat="47.20096300" lon="0.31937300"><ele></ele><time>2014-6-17T9:3:17Z</time></trkpt>
<trkpt lat="47.20107100" lon="0.31937600"><ele></ele><time>2014-6-17T9:3:20Z</time></trkpt>
<trkpt lat="47.20146000" lon="0.31940000"><ele></ele><time>2014-6-17T9:3:23Z</time></trkpt>
<trkpt lat="47.20145200" lon="0.31939400"><ele></ele><time>2014-6-17T9:3:26Z</time></trkpt>
<trkpt lat="47.20143800" lon="0.31940500"><ele></ele><time>2014-6-17T9:3:29Z</time></trkpt>
<trkpt lat="47.20146900" lon="0.31944900"><ele></ele><time>2014-6-17T9:3:32Z</time></trkpt>
<trkpt lat="47.20148400" lon="0.31941300"><ele></ele><time>2014-6-17T9:3:35Z</time></trkpt>
<trkpt lat="47.20158900" lon="0.31919000"><ele></ele><time>2014-6-17T9:3:38Z</time></trkpt>
<trkpt lat="47.20200800" lon="0.31802100"><ele></ele><time>2014-6-17T9:3:41Z</time></trkpt>
<trkpt lat="47.20216200" lon="0.31755800"><ele></ele><time>2014-6-17T9:3:44Z</time></trkpt>
<trkpt lat="47.20252200" lon="0.31649400"><ele></ele><time>2014-6-17T9:3:47Z</time></trkpt>
<trkpt lat="47.20265400" lon="0.31624500"><ele></ele><time>2014-6-17T9:3:50Z</time></trkpt>
<trkpt lat="47.20298700" lon="0.31584500"><ele></ele><time>2014-6-17T9:3:53Z</time></trkpt>
<trkpt lat="47.20320200" lon="0.31563300"><ele></ele><time>2014-6-17T9:3:56Z</time></trkpt>
<trkpt lat="47.20353400" lon="0.31530000"><ele></ele><time>2014-6-17T9:3:59Z</time></trkpt>
<trkpt lat="47.20423400" lon="0.31458700"><ele></ele><time>2014-6-17T9:4:2Z</time></trkpt>
<trkpt lat="47.20430100" lon="0.31453200"><ele></ele><time>2014-6-17T9:4:5Z</time></trkpt>
<trkpt lat="47.20447400" lon="0.31441000"><ele></ele><time>2014-6-17T9:4:8Z</time></trkpt>
<trkpt lat="47.20454100" lon="0.31416100"><ele></ele><time>2014-6-17T9:4:11Z</time></trkpt>
<trkpt lat="47.20441200" lon="0.31362700"><ele></ele><time>2014-6-17T9:4:14Z</time></trkpt>
<trkpt lat="47.20434400" lon="0.31336100"><ele></ele><time>2014-6-17T9:4:17Z</time></trkpt>
<trkpt lat="47.20423700" lon="0.31301900"><ele></ele><time>2014-6-17T9:4:20Z</time></trkpt>
<trkpt lat="47.20405400" lon="0.31252300"><ele></ele><time>2014-6-17T9:4:23Z</time></trkpt>
<trkpt lat="47.20392000" lon="0.31217600"><ele></ele><time>2014-6-17T9:4:26Z</time></trkpt>
<trkpt lat="47.20387500" lon="0.31208900"><ele></ele><time>2014-6-17T9:4:29Z</time></trkpt>
<trkpt lat="47.20381600" lon="0.31186900"><ele></ele><time>2014-6-17T9:4:32Z</time></trkpt>
<trkpt lat="47.20361700" lon="0.31128600"><ele></ele><time>2014-6-17T9:4:35Z</time></trkpt>
<trkpt lat="47.20354800" lon="0.31093300"><ele></ele><time>2014-6-17T9:4:38Z</time></trkpt>
<trkpt lat="47.20350100" lon="0.31084200"><ele></ele><time>2014-6-17T9:4:41Z</time></trkpt>
<trkpt lat="47.20345100" lon="0.31071600"><ele></ele><time>2014-6-17T9:4:44Z</time></trkpt>
<trkpt lat="47.20336700" lon="0.31047800"><ele></ele><time>2014-6-17T9:4:47Z</time></trkpt>
<trkpt lat="47.20329000" lon="0.31024900"><ele></ele><time>2014-6-17T9:4:50Z</time></trkpt>
<trkpt lat="47.20306200" lon="0.31003800"><ele></ele><time>2014-6-17T9:4:53Z</time></trkpt>
<trkpt lat="47.20306400" lon="0.30977500"><ele></ele><time>2014-6-17T9:4:56Z</time></trkpt>
<trkpt lat="47.20304700" lon="0.30942600"><ele></ele><time>2014-6-17T9:4:59Z</time></trkpt>
<trkpt lat="47.20311000" lon="0.30927000"><ele></ele><time>2014-6-17T9:5:2Z</time></trkpt>
<trkpt lat="47.20317700" lon="0.30902600"><ele></ele><time>2014-6-17T9:5:5Z</time></trkpt>
<trkpt lat="47.20315600" lon="0.30884500"><ele></ele><time>2014-6-17T9:5:8Z</time></trkpt>
<trkpt lat="47.20314900" lon="0.30880700"><ele></ele><time>2014-6-17T9:5:11Z</time></trkpt>
<trkpt lat="47.20306100" lon="0.30846900"><ele></ele><time>2014-6-17T9:5:14Z</time></trkpt>
<trkpt lat="47.20305600" lon="0.30837500"><ele></ele><time>2014-6-17T9:5:17Z</time></trkpt>
<trkpt lat="47.20305700" lon="0.30812800"><ele></ele><time>2014-6-17T9:5:20Z</time></trkpt>
<trkpt lat="47.20294200" lon="0.30780600"><ele></ele><time>2014-6-17T9:5:23Z</time></trkpt>
<trkpt lat="47.20280300" lon="0.30744700"><ele></ele><time>2014-6-17T9:5:26Z</time></trkpt>
<trkpt lat="47.20260100" lon="0.30719800"><ele></ele><time>2014-6-17T9:5:29Z</time></trkpt>
<trkpt lat="47.20252500" lon="0.30693000"><ele></ele><time>2014-6-17T9:5:32Z</time></trkpt>
<trkpt lat="47.20250400" lon="0.30687000"><ele></ele><time>2014-6-17T9:5:35Z</time></trkpt>
<trkpt lat="47.20217900" lon="0.30630100"><ele></ele><time>2014-6-17T9:5:38Z</time></trkpt>
<trkpt lat="47.20211500" lon="0.30597300"><ele></ele><time>2014-6-17T9:5:41Z</time></trkpt>
<trkpt lat="47.20206100" lon="0.30577900"><ele></ele><time>2014-6-17T9:5:44Z</time></trkpt>
<trkpt lat="47.20202400" lon="0.30564800"><ele></ele><time>2014-6-17T9:5:47Z</time></trkpt>
<trkpt lat="47.20198000" lon="0.30551800"><ele></ele><time>2014-6-17T9:5:50Z</time></trkpt>
<trkpt lat="47.20187300" lon="0.30501500"><ele></ele><time>2014-6-17T9:5:53Z</time></trkpt>
<trkpt lat="47.20170100" lon="0.30421400"><ele></ele><time>2014-6-17T9:5:56Z</time></trkpt>
<trkpt lat="47.20163000" lon="0.30381100"><ele></ele><time>2014-6-17T9:5:59Z</time></trkpt>
<trkpt lat="47.20146400" lon="0.30295300"><ele></ele><time>2014-6-17T9:6:2Z</time></trkpt>
<trkpt lat="47.20139900" lon="0.30256800"><ele></ele><time>2014-6-17T9:6:5Z</time></trkpt>
<trkpt lat="47.20134600" lon="0.30224700"><ele></ele><time>2014-6-17T9:6:8Z</time></trkpt>
<trkpt lat="47.20128100" lon="0.30192600"><ele></ele><time>2014-6-17T9:6:11Z</time></trkpt>
<trkpt lat="47.20127300" lon="0.30188500"><ele></ele><time>2014-6-17T9:6:14Z</time></trkpt>
<trkpt lat="47.20123600" lon="0.30166200"><ele></ele><time>2014-6-17T9:6:17Z</time></trkpt>
<trkpt lat="47.20118400" lon="0.30135100"><ele></ele><time>2014-6-17T9:6:20Z</time></trkpt>
<trkpt lat="47.20115800" lon="0.30124200"><ele></ele><time>2014-6-17T9:6:23Z</time></trkpt>
<trkpt lat="47.20113400" lon="0.30114800"><ele></ele><time>2014-6-17T9:6:26Z</time></trkpt>
<trkpt lat="47.20115900" lon="0.30103500"><ele></ele><time>2014-6-17T9:6:29Z</time></trkpt>
<trkpt lat="47.20116000" lon="0.30083500"><ele></ele><time>2014-6-17T9:6:32Z</time></trkpt>
<trkpt lat="47.20111200" lon="0.30052400"><ele></ele><time>2014-6-17T9:6:35Z</time></trkpt>
<trkpt lat="47.20109300" lon="0.30046800"><ele></ele><time>2014-6-17T9:6:38Z</time></trkpt>
<trkpt lat="47.20090500" lon="0.29998300"><ele></ele><time>2014-6-17T9:6:41Z</time></trkpt>
<trkpt lat="47.20084700" lon="0.29970300"><ele></ele><time>2014-6-17T9:6:44Z</time></trkpt>
<trkpt lat="47.20079100" lon="0.29962100"><ele></ele><time>2014-6-17T9:6:47Z</time></trkpt>
<trkpt lat="47.20079100" lon="0.29954500"><ele></ele><time>2014-6-17T9:6:50Z</time></trkpt>
<trkpt lat="47.20076900" lon="0.29936300"><ele></ele><time>2014-6-17T9:6:53Z</time></trkpt>
<trkpt lat="47.20079400" lon="0.29934500"><ele></ele><time>2014-6-17T9:6:56Z</time></trkpt>
<trkpt lat="47.20077100" lon="0.29922200"><ele></ele><time>2014-6-17T9:6:59Z</time></trkpt>
<trkpt lat="47.20077900" lon="0.29902300"><ele></ele><time>2014-6-17T9:7:2Z</time></trkpt>
<trkpt lat="47.20073400" lon="0.29876200"><ele></ele><time>2014-6-17T9:7:5Z</time></trkpt>
<trkpt lat="47.20073800" lon="0.29841000"><ele></ele><time>2014-6-17T9:7:8Z</time></trkpt>
<trkpt lat="47.20074300" lon="0.29837300"><ele></ele><time>2014-6-17T9:7:11Z</time></trkpt>
<trkpt lat="47.20072800" lon="0.29807900"><ele></ele><time>2014-6-17T9:7:14Z</time></trkpt>
<trkpt lat="47.20069400" lon="0.29785400"><ele></ele><time>2014-6-17T9:7:17Z</time></trkpt>
<trkpt lat="47.20068100" lon="0.29772000"><ele></ele><time>2014-6-17T9:7:20Z</time></trkpt>
<trkpt lat="47.20067100" lon="0.29756100"><ele></ele><time>2014-6-17T9:7:23Z</time></trkpt>
<trkpt lat="47.20068200" lon="0.29731300"><ele></ele><time>2014-6-17T9:7:26Z</time></trkpt>
<trkpt lat="47.20062400" lon="0.29700700"><ele></ele><time>2014-6-17T9:7:29Z</time></trkpt>
<trkpt lat="47.20055400" lon="0.29675900"><ele></ele><time>2014-6-17T9:7:32Z</time></trkpt>
<trkpt lat="47.20054100" lon="0.29646500"><ele></ele><time>2014-6-17T9:7:35Z</time></trkpt>
<trkpt lat="47.20053900" lon="0.29643000"><ele></ele><time>2014-6-17T9:7:38Z</time></trkpt>
<trkpt lat="47.20054200" lon="0.29621800"><ele></ele><time>2014-6-17T9:7:41Z</time></trkpt>
<trkpt lat="47.20052200" lon="0.29599000"><ele></ele><time>2014-6-17T9:7:44Z</time></trkpt>
<trkpt lat="47.20051600" lon="0.29590700"><ele></ele><time>2014-6-17T9:7:47Z</time></trkpt>
<trkpt lat="47.20052800" lon="0.29555300"><ele></ele><time>2014-6-17T9:7:50Z</time></trkpt>
<trkpt lat="47.20048200" lon="0.29540700"><ele></ele><time>2014-6-17T9:7:53Z</time></trkpt>
<trkpt lat="47.20044800" lon="0.29499100"><ele></ele><time>2014-6-17T9:7:56Z</time></trkpt>
<trkpt lat="47.20040900" lon="0.29494500"><ele></ele><time>2014-6-17T9:7:59Z</time></trkpt>
<trkpt lat="47.20043800" lon="0.29462900"><ele></ele><time>2014-6-17T9:8:2Z</time></trkpt>
<trkpt lat="47.20040000" lon="0.29444400"><ele></ele><time>2014-6-17T9:8:5Z</time></trkpt>
<trkpt lat="47.20031700" lon="0.29403700"><ele></ele><time>2014-6-17T9:8:8Z</time></trkpt>
<trkpt lat="47.20029600" lon="0.29373700"><ele></ele><time>2014-6-17T9:8:11Z</time></trkpt>
<trkpt lat="47.20028400" lon="0.29335400"><ele></ele><time>2014-6-17T9:8:14Z</time></trkpt>
<trkpt lat="47.20032000" lon="0.29309000"><ele></ele><time>2014-6-17T9:8:17Z</time></trkpt>
<trkpt lat="47.20047300" lon="0.29282000"><ele></ele><time>2014-6-17T9:8:20Z</time></trkpt>
<trkpt lat="47.20050200" lon="0.29265300"><ele></ele><time>2014-6-17T9:8:23Z</time></trkpt>
<trkpt lat="47.20073300" lon="0.29228900"><ele></ele><time>2014-6-17T9:8:26Z</time></trkpt>
<trkpt lat="47.20094800" lon="0.29187900"><ele></ele><time>2014-6-17T9:8:29Z</time></trkpt>
<trkpt lat="47.20114000" lon="0.29159300"><ele></ele><time>2014-6-17T9:8:32Z</time></trkpt>
<trkpt lat="47.20131800" lon="0.29125500"><ele></ele><time>2014-6-17T9:8:35Z</time></trkpt>
<trkpt lat="47.20136400" lon="0.29116000"><ele></ele><time>2014-6-17T9:8:38Z</time></trkpt>
<trkpt lat="47.20146100" lon="0.29110600"><ele></ele><time>2014-6-17T9:8:41Z</time></trkpt>
<trkpt lat="47.20155400" lon="0.29081200"><ele></ele><time>2014-6-17T9:8:44Z</time></trkpt>
<trkpt lat="47.20168700" lon="0.29063600"><ele></ele><time>2014-6-17T9:8:47Z</time></trkpt>
<trkpt lat="47.20176000" lon="0.29047000"><ele></ele><time>2014-6-17T9:8:50Z</time></trkpt>
<trkpt lat="47.20180700" lon="0.29042700"><ele></ele><time>2014-6-17T9:8:53Z</time></trkpt>
<trkpt lat="47.20186800" lon="0.29031300"><ele></ele><time>2014-6-17T9:8:56Z</time></trkpt>
<trkpt lat="47.20198500" lon="0.29008000"><ele></ele><time>2014-6-17T9:8:59Z</time></trkpt>
<trkpt lat="47.20198500" lon="0.28992400"><ele></ele><time>2014-6-17T9:9:2Z</time></trkpt>
<trkpt lat="47.20219100" lon="0.28965900"><ele></ele><time>2014-6-17T9:9:5Z</time></trkpt>
<trkpt lat="47.20237400" lon="0.28932900"><ele></ele><time>2014-6-17T9:9:8Z</time></trkpt>
<trkpt lat="47.20249200" lon="0.28918800"><ele></ele><time>2014-6-17T9:9:11Z</time></trkpt>
<trkpt lat="47.20269900" lon="0.28878000"><ele></ele><time>2014-6-17T9:9:14Z</time></trkpt>
<trkpt lat="47.20303500" lon="0.28830900"><ele></ele><time>2014-6-17T9:9:17Z</time></trkpt>
<trkpt lat="47.20318900" lon="0.28801800"><ele></ele><time>2014-6-17T9:9:20Z</time></trkpt>
<trkpt lat="47.20332200" lon="0.28774200"><ele></ele><time>2014-6-17T9:9:23Z</time></trkpt>
<trkpt lat="47.20337900" lon="0.28763900"><ele></ele><time>2014-6-17T9:9:26Z</time></trkpt>
<trkpt lat="47.20359100" lon="0.28722400"><ele></ele><time>2014-6-17T9:9:29Z</time></trkpt>
<trkpt lat="47.20367800" lon="0.28709600"><ele></ele><time>2014-6-17T9:9:32Z</time></trkpt>
<trkpt lat="47.20377300" lon="0.28692200"><ele></ele><time>2014-6-17T9:9:35Z</time></trkpt>
<trkpt lat="47.20389900" lon="0.28673300"><ele></ele><time>2014-6-17T9:9:38Z</time></trkpt>
<trkpt lat="47.20400300" lon="0.28656800"><ele></ele><time>2014-6-17T9:9:41Z</time></trkpt>
<trkpt lat="47.20407500" lon="0.28642600"><ele></ele><time>2014-6-17T9:9:44Z</time></trkpt>
<trkpt lat="47.20425800" lon="0.28619600"><ele></ele><time>2014-6-17T9:9:47Z</time></trkpt>
<trkpt lat="47.20438200" lon="0.28594000"><ele></ele><time>2014-6-17T9:9:50Z</time></trkpt>
<trkpt lat="47.20446800" lon="0.28576200"><ele></ele><time>2014-6-17T9:9:53Z</time></trkpt>
<trkpt lat="47.20452400" lon="0.28551700"><ele></ele><time>2014-6-17T9:9:56Z</time></trkpt>
<trkpt lat="47.20433800" lon="0.28508600"><ele></ele><time>2014-6-17T9:9:59Z</time></trkpt>
<trkpt lat="47.20418400" lon="0.28482800"><ele></ele><time>2014-6-17T9:10:2Z</time></trkpt>
<trkpt lat="47.20411500" lon="0.28463200"><ele></ele><time>2014-6-17T9:10:5Z</time></trkpt>
<trkpt lat="47.20392700" lon="0.28446200"><ele></ele><time>2014-6-17T9:10:8Z</time></trkpt>
<trkpt lat="47.20383200" lon="0.28414700"><ele></ele><time>2014-6-17T9:10:11Z</time></trkpt>
<trkpt lat="47.20379000" lon="0.28401500"><ele></ele><time>2014-6-17T9:10:14Z</time></trkpt>
<trkpt lat="47.20377700" lon="0.28382200"><ele></ele><time>2014-6-17T9:10:17Z</time></trkpt>
<trkpt lat="47.20374300" lon="0.28378400"><ele></ele><time>2014-6-17T9:10:20Z</time></trkpt>
<trkpt lat="47.20363500" lon="0.28340400"><ele></ele><time>2014-6-17T9:10:23Z</time></trkpt>
<trkpt lat="47.20360900" lon="0.28319600"><ele></ele><time>2014-6-17T9:10:26Z</time></trkpt>
<trkpt lat="47.20357200" lon="0.28277200"><ele></ele><time>2014-6-17T9:10:29Z</time></trkpt>
<trkpt lat="47.20361100" lon="0.28254300"><ele></ele><time>2014-6-17T9:10:32Z</time></trkpt>
<trkpt lat="47.20358200" lon="0.28202200"><ele></ele><time>2014-6-17T9:10:35Z</time></trkpt>
<trkpt lat="47.20349400" lon="0.28165200"><ele></ele><time>2014-6-17T9:10:38Z</time></trkpt>
<trkpt lat="47.20346000" lon="0.28156400"><ele></ele><time>2014-6-17T9:10:41Z</time></trkpt>
<trkpt lat="47.20340500" lon="0.28138000"><ele></ele><time>2014-6-17T9:10:44Z</time></trkpt>
<trkpt lat="47.20333500" lon="0.28111800"><ele></ele><time>2014-6-17T9:10:47Z</time></trkpt>
<trkpt lat="47.20326500" lon="0.28075400"><ele></ele><time>2014-6-17T9:10:50Z</time></trkpt>
<trkpt lat="47.20308800" lon="0.28028900"><ele></ele><time>2014-6-17T9:10:53Z</time></trkpt>
<trkpt lat="47.20298800" lon="0.28008100"><ele></ele><time>2014-6-17T9:10:56Z</time></trkpt>
<trkpt lat="47.20288400" lon="0.27983600"><ele></ele><time>2014-6-17T9:10:59Z</time></trkpt>
<trkpt lat="47.20280700" lon="0.27939800"><ele></ele><time>2014-6-17T9:11:2Z</time></trkpt>
<trkpt lat="47.20273900" lon="0.27930900"><ele></ele><time>2014-6-17T9:11:5Z</time></trkpt>
<trkpt lat="47.20260900" lon="0.27905500"><ele></ele><time>2014-6-17T9:11:8Z</time></trkpt>
<trkpt lat="47.20250000" lon="0.27880800"><ele></ele><time>2014-6-17T9:11:11Z</time></trkpt>
<trkpt lat="47.20244000" lon="0.27862100"><ele></ele><time>2014-6-17T9:11:14Z</time></trkpt>
<trkpt lat="47.20229200" lon="0.27843800"><ele></ele><time>2014-6-17T9:11:17Z</time></trkpt>
<trkpt lat="47.20221400" lon="0.27834900"><ele></ele><time>2014-6-17T9:11:20Z</time></trkpt>
<trkpt lat="47.20212500" lon="0.27828200"><ele></ele><time>2014-6-17T9:11:23Z</time></trkpt>
<trkpt lat="47.20210800" lon="0.27827900"><ele></ele><time>2014-6-17T9:11:26Z</time></trkpt>
<trkpt lat="47.20205600" lon="0.27813300"><ele></ele><time>2014-6-17T9:11:29Z</time></trkpt>
<trkpt lat="47.20188500" lon="0.27800100"><ele></ele><time>2014-6-17T9:11:32Z</time></trkpt>
<trkpt lat="47.20174400" lon="0.27789200"><ele></ele><time>2014-6-17T9:11:35Z</time></trkpt>
<trkpt lat="47.20141300" lon="0.27752600"><ele></ele><time>2014-6-17T9:11:38Z</time></trkpt>
<trkpt lat="47.20123300" lon="0.27730200"><ele></ele><time>2014-6-17T9:11:41Z</time></trkpt>
<trkpt lat="47.20104900" lon="0.27692400"><ele></ele><time>2014-6-17T9:11:44Z</time></trkpt>
<trkpt lat="47.20094000" lon="0.27640600"><ele></ele><time>2014-6-17T9:11:47Z</time></trkpt>
<trkpt lat="47.20083400" lon="0.27589900"><ele></ele><time>2014-6-17T9:11:50Z</time></trkpt>
<trkpt lat="47.20072700" lon="0.27511900"><ele></ele><time>2014-6-17T9:11:53Z</time></trkpt>
<trkpt lat="47.20070900" lon="0.27471200"><ele></ele><time>2014-6-17T9:11:56Z</time></trkpt>
<trkpt lat="47.20070800" lon="0.27451400"><ele></ele><time>2014-6-17T9:11:59Z</time></trkpt>
<trkpt lat="47.20066700" lon="0.27411600"><ele></ele><time>2014-6-17T9:12:2Z</time></trkpt>
<trkpt lat="47.20060400" lon="0.27334800"><ele></ele><time>2014-6-17T9:12:5Z</time></trkpt>
<trkpt lat="47.20059500" lon="0.27263400"><ele></ele><time>2014-6-17T9:12:8Z</time></trkpt>
<trkpt lat="47.20048300" lon="0.27165400"><ele></ele><time>2014-6-17T9:12:11Z</time></trkpt>
<trkpt lat="47.20043700" lon="0.27142600"><ele></ele><time>2014-6-17T9:12:14Z</time></trkpt>
<trkpt lat="47.20032600" lon="0.27067900"><ele></ele><time>2014-6-17T9:12:17Z</time></trkpt>
<trkpt lat="47.20021700" lon="0.27018400"><ele></ele><time>2014-6-17T9:12:20Z</time></trkpt>
<trkpt lat="47.20018300" lon="0.26971100"><ele></ele><time>2014-6-17T9:12:23Z</time></trkpt>
<trkpt lat="47.20025900" lon="0.26854500"><ele></ele><time>2014-6-17T9:12:26Z</time></trkpt>
<trkpt lat="47.20060000" lon="0.26749500"><ele></ele><time>2014-6-17T9:12:29Z</time></trkpt>
<trkpt lat="47.20101300" lon="0.26593400"><ele></ele><time>2014-6-17T9:12:32Z</time></trkpt>
<trkpt lat="47.20128900" lon="0.26428200"><ele></ele><time>2014-6-17T9:12:35Z</time></trkpt>
<trkpt lat="47.20135100" lon="0.26387200"><ele></ele><time>2014-6-17T9:12:38Z</time></trkpt>
<trkpt lat="47.20167700" lon="0.26221000"><ele></ele><time>2014-6-17T9:12:41Z</time></trkpt>
<trkpt lat="47.20176900" lon="0.26186300"><ele></ele><time>2014-6-17T9:12:44Z</time></trkpt>
<trkpt lat="47.20169000" lon="0.26154800"><ele></ele><time>2014-6-17T9:12:47Z</time></trkpt>
<trkpt lat="47.20089600" lon="0.26082100"><ele></ele><time>2014-6-17T9:12:50Z</time></trkpt>
<trkpt lat="47.20021500" lon="0.26008400"><ele></ele><time>2014-6-17T9:12:53Z</time></trkpt>
<trkpt lat="47.20011800" lon="0.26001600"><ele></ele><time>2014-6-17T9:12:56Z</time></trkpt>
<trkpt lat="47.19992000" lon="0.25994600"><ele></ele><time>2014-6-17T9:12:59Z</time></trkpt>
<trkpt lat="47.19966900" lon="0.25992800"><ele></ele><time>2014-6-17T9:13:2Z</time></trkpt>
<trkpt lat="47.19920000" lon="0.25992300"><ele></ele><time>2014-6-17T9:13:5Z</time></trkpt>
<trkpt lat="47.19899000" lon="0.25989800"><ele></ele><time>2014-6-17T9:13:8Z</time></trkpt>
<trkpt lat="47.19891900" lon="0.25971100"><ele></ele><time>2014-6-17T9:13:11Z</time></trkpt>
<trkpt lat="47.19881600" lon="0.25838700"><ele></ele><time>2014-6-17T9:13:14Z</time></trkpt>
<trkpt lat="47.19869000" lon="0.25769600"><ele></ele><time>2014-6-17T9:13:17Z</time></trkpt>
<trkpt lat="47.19840700" lon="0.25730700"><ele></ele><time>2014-6-17T9:13:20Z</time></trkpt>
<trkpt lat="47.19808900" lon="0.25691100"><ele></ele><time>2014-6-17T9:13:23Z</time></trkpt>
<trkpt lat="47.19790400" lon="0.25653500"><ele></ele><time>2014-6-17T9:13:26Z</time></trkpt>
<trkpt lat="47.19771000" lon="0.25615600"><ele></ele><time>2014-6-17T9:13:29Z</time></trkpt>
<trkpt lat="47.19756400" lon="0.25594000"><ele></ele><time>2014-6-17T9:13:32Z</time></trkpt>
<trkpt lat="47.19744400" lon="0.25575200"><ele></ele><time>2014-6-17T9:13:35Z</time></trkpt>
<trkpt lat="47.19728600" lon="0.25550800"><ele></ele><time>2014-6-17T9:13:38Z</time></trkpt>
<trkpt lat="47.19727200" lon="0.25548200"><ele></ele><time>2014-6-17T9:13:41Z</time></trkpt>
<trkpt lat="47.19718100" lon="0.25536300"><ele></ele><time>2014-6-17T9:13:44Z</time></trkpt>
<trkpt lat="47.19692000" lon="0.25503000"><ele></ele><time>2014-6-17T9:13:47Z</time></trkpt>
<trkpt lat="47.19658500" lon="0.25455300"><ele></ele><time>2014-6-17T9:13:50Z</time></trkpt>
<trkpt lat="47.19638400" lon="0.25416000"><ele></ele><time>2014-6-17T9:13:53Z</time></trkpt>
<trkpt lat="47.19606800" lon="0.25345700"><ele></ele><time>2014-6-17T9:13:56Z</time></trkpt>
<trkpt lat="47.19569100" lon="0.25282900"><ele></ele><time>2014-6-17T9:13:59Z</time></trkpt>
<trkpt lat="47.19554200" lon="0.25264000"><ele></ele><time>2014-6-17T9:14:2Z</time></trkpt>
<trkpt lat="47.19531800" lon="0.25236000"><ele></ele><time>2014-6-17T9:14:5Z</time></trkpt>
<trkpt lat="47.19511200" lon="0.25202100"><ele></ele><time>2014-6-17T9:14:8Z</time></trkpt>
<trkpt lat="47.19473500" lon="0.25152500"><ele></ele><time>2014-6-17T9:14:11Z</time></trkpt>
<trkpt lat="47.19439400" lon="0.25105500"><ele></ele><time>2014-6-17T9:14:14Z</time></trkpt>
<trkpt lat="47.19415000" lon="0.25052100"><ele></ele><time>2014-6-17T9:14:17Z</time></trkpt>
<trkpt lat="47.19401500" lon="0.25009500"><ele></ele><time>2014-6-17T9:14:20Z</time></trkpt>
<trkpt lat="47.19397400" lon="0.24986300"><ele></ele><time>2014-6-17T9:14:23Z</time></trkpt>
<trkpt lat="47.19384300" lon="0.24910000"><ele></ele><time>2014-6-17T9:14:26Z</time></trkpt>
<trkpt lat="47.19371500" lon="0.24835800"><ele></ele><time>2014-6-17T9:14:29Z</time></trkpt>
<trkpt lat="47.19339200" lon="0.24787100"><ele></ele><time>2014-6-17T9:14:32Z</time></trkpt>
<trkpt lat="47.19306800" lon="0.24750500"><ele></ele><time>2014-6-17T9:14:35Z</time></trkpt>
<trkpt lat="47.19272800" lon="0.24710300"><ele></ele><time>2014-6-17T9:14:38Z</time></trkpt>
<trkpt lat="47.19241800" lon="0.24677900"><ele></ele><time>2014-6-17T9:14:41Z</time></trkpt>
<trkpt lat="47.19199000" lon="0.24631700"><ele></ele><time>2014-6-17T9:14:44Z</time></trkpt>
<trkpt lat="47.19192000" lon="0.24625400"><ele></ele><time>2014-6-17T9:14:47Z</time></trkpt>
<trkpt lat="47.19139900" lon="0.24584900"><ele></ele><time>2014-6-17T9:14:50Z</time></trkpt>
<trkpt lat="47.19089200" lon="0.24540700"><ele></ele><time>2014-6-17T9:14:53Z</time></trkpt>
<trkpt lat="47.19051300" lon="0.24511300"><ele></ele><time>2014-6-17T9:14:56Z</time></trkpt>
<trkpt lat="47.19023400" lon="0.24487400"><ele></ele><time>2014-6-17T9:14:59Z</time></trkpt>
<trkpt lat="47.18988400" lon="0.24465300"><ele></ele><time>2014-6-17T9:15:2Z</time></trkpt>
<trkpt lat="47.18946100" lon="0.24432400"><ele></ele><time>2014-6-17T9:15:5Z</time></trkpt>
<trkpt lat="47.18905200" lon="0.24398200"><ele></ele><time>2014-6-17T9:15:8Z</time></trkpt>
<trkpt lat="47.18866000" lon="0.24373400"><ele></ele><time>2014-6-17T9:15:11Z</time></trkpt>
<trkpt lat="47.18831900" lon="0.24359600"><ele></ele><time>2014-6-17T9:15:14Z</time></trkpt>
<trkpt lat="47.18795100" lon="0.24328500"><ele></ele><time>2014-6-17T9:15:17Z</time></trkpt>
<trkpt lat="47.18750200" lon="0.24290200"><ele></ele><time>2014-6-17T9:15:20Z</time></trkpt>
<trkpt lat="47.18724000" lon="0.24264800"><ele></ele><time>2014-6-17T9:15:23Z</time></trkpt>
<trkpt lat="47.18710100" lon="0.24248300"><ele></ele><time>2014-6-17T9:15:26Z</time></trkpt>
<trkpt lat="47.18646400" lon="0.24162600"><ele></ele><time>2014-6-17T9:15:29Z</time></trkpt>
<trkpt lat="47.18586500" lon="0.24082900"><ele></ele><time>2014-6-17T9:15:32Z</time></trkpt>
<trkpt lat="47.18534700" lon="0.24002500"><ele></ele><time>2014-6-17T9:15:35Z</time></trkpt>
<trkpt lat="47.18466300" lon="0.23889600"><ele></ele><time>2014-6-17T9:15:38Z</time></trkpt>
<trkpt lat="47.18444000" lon="0.23857200"><ele></ele><time>2014-6-17T9:15:41Z</time></trkpt>
<trkpt lat="47.18444300" lon="0.23810200"><ele></ele><time>2014-6-17T9:15:44Z</time></trkpt>
<trkpt lat="47.18464900" lon="0.23778400"><ele></ele><time>2014-6-17T9:15:47Z</time></trkpt>
<trkpt lat="47.18481500" lon="0.23742200"><ele></ele><time>2014-6-17T9:15:50Z</time></trkpt>
<trkpt lat="47.18496200" lon="0.23700200"><ele></ele><time>2014-6-17T9:15:53Z</time></trkpt>
<trkpt lat="47.18530400" lon="0.23601100"><ele></ele><time>2014-6-17T9:15:56Z</time></trkpt>
<trkpt lat="47.18547700" lon="0.23542300"><ele></ele><time>2014-6-17T9:15:59Z</time></trkpt>
<trkpt lat="47.18562400" lon="0.23486400"><ele></ele><time>2014-6-17T9:16:2Z</time></trkpt>
<trkpt lat="47.18568100" lon="0.23435400"><ele></ele><time>2014-6-17T9:16:5Z</time></trkpt>
<trkpt lat="47.18551400" lon="0.23410600"><ele></ele><time>2014-6-17T9:16:8Z</time></trkpt>
<trkpt lat="47.18535900" lon="0.23411000"><ele></ele><time>2014-6-17T9:16:11Z</time></trkpt>
<trkpt lat="47.18522400" lon="0.23414500"><ele></ele><time>2014-6-17T9:16:14Z</time></trkpt>
<trkpt lat="47.18458200" lon="0.23444800"><ele></ele><time>2014-6-17T9:16:17Z</time></trkpt>
<trkpt lat="47.18442600" lon="0.23453500"><ele></ele><time>2014-6-17T9:16:20Z</time></trkpt>
<trkpt lat="47.18425000" lon="0.23460000"><ele></ele><time>2014-6-17T9:16:23Z</time></trkpt>
<trkpt lat="47.18395800" lon="0.23462300"><ele></ele><time>2014-6-17T9:16:26Z</time></trkpt>
<trkpt lat="47.18377200" lon="0.23461300"><ele></ele><time>2014-6-17T9:16:29Z</time></trkpt>
<trkpt lat="47.18344700" lon="0.23486500"><ele></ele><time>2014-6-17T9:16:32Z</time></trkpt>
<trkpt lat="47.18288600" lon="0.23612700"><ele></ele><time>2014-6-17T9:16:35Z</time></trkpt>
<trkpt lat="47.18250500" lon="0.23709400"><ele></ele><time>2014-6-17T9:16:38Z</time></trkpt>
<trkpt lat="47.18248600" lon="0.23715200"><ele></ele><time>2014-6-17T9:16:41Z</time></trkpt>
<trkpt lat="47.18232600" lon="0.23762600"><ele></ele><time>2014-6-17T9:16:44Z</time></trkpt>
<trkpt lat="47.18195200" lon="0.23838900"><ele></ele><time>2014-6-17T9:16:47Z</time></trkpt>
<trkpt lat="47.18164000" lon="0.23886700"><ele></ele><time>2014-6-17T9:16:50Z</time></trkpt>
<trkpt lat="47.18145800" lon="0.23909300"><ele></ele><time>2014-6-17T9:16:53Z</time></trkpt>
<trkpt lat="47.18132700" lon="0.23900300"><ele></ele><time>2014-6-17T9:16:56Z</time></trkpt>
<trkpt lat="47.18122600" lon="0.23894800"><ele></ele><time>2014-6-17T9:16:59Z</time></trkpt>
<trkpt lat="47.18102100" lon="0.23911400"><ele></ele><time>2014-6-17T9:17:2Z</time></trkpt>
<trkpt lat="47.18089200" lon="0.23931600"><ele></ele><time>2014-6-17T9:17:5Z</time></trkpt>
<trkpt lat="47.18071500" lon="0.23948400"><ele></ele><time>2014-6-17T9:17:8Z</time></trkpt>
<trkpt lat="47.18059800" lon="0.23958000"><ele></ele><time>2014-6-17T9:17:11Z</time></trkpt>
<trkpt lat="47.18046900" lon="0.23967900"><ele></ele><time>2014-6-17T9:17:14Z</time></trkpt>
<trkpt lat="47.18025900" lon="0.23989800"><ele></ele><time>2014-6-17T9:17:17Z</time></trkpt>
<trkpt lat="47.17990800" lon="0.23987600"><ele></ele><time>2014-6-17T9:17:20Z</time></trkpt>
<trkpt lat="47.17984900" lon="0.23985700"><ele></ele><time>2014-6-17T9:17:23Z</time></trkpt>
<trkpt lat="47.17960500" lon="0.23976000"><ele></ele><time>2014-6-17T9:17:26Z</time></trkpt>
<trkpt lat="47.17950600" lon="0.23971500"><ele></ele><time>2014-6-17T9:17:29Z</time></trkpt>
<trkpt lat="47.17940000" lon="0.23967100"><ele></ele><time>2014-6-17T9:17:32Z</time></trkpt>
<trkpt lat="47.17935100" lon="0.23964100"><ele></ele><time>2014-6-17T9:17:35Z</time></trkpt>
<trkpt lat="47.17914900" lon="0.23954200"><ele></ele><time>2014-6-17T9:17:38Z</time></trkpt>
<trkpt lat="47.17899300" lon="0.23945700"><ele></ele><time>2014-6-17T9:17:41Z</time></trkpt>
<trkpt lat="47.17885100" lon="0.23936200"><ele></ele><time>2014-6-17T9:17:44Z</time></trkpt>
<trkpt lat="47.17864800" lon="0.23929200"><ele></ele><time>2014-6-17T9:17:47Z</time></trkpt>
<trkpt lat="47.17839400" lon="0.23928100"><ele></ele><time>2014-6-17T9:17:50Z</time></trkpt>
<trkpt lat="47.17806700" lon="0.23920400"><ele></ele><time>2014-6-17T9:17:53Z</time></trkpt>
<trkpt lat="47.17775100" lon="0.23910300"><ele></ele><time>2014-6-17T9:17:56Z</time></trkpt>
<trkpt lat="47.17736400" lon="0.23898800"><ele></ele><time>2014-6-17T9:17:59Z</time></trkpt>
<trkpt lat="47.17695700" lon="0.23882200"><ele></ele><time>2014-6-17T9:18:2Z</time></trkpt>
<trkpt lat="47.17669000" lon="0.23874500"><ele></ele><time>2014-6-17T9:18:5Z</time></trkpt>
<trkpt lat="47.17641900" lon="0.23861900"><ele></ele><time>2014-6-17T9:18:8Z</time></trkpt>
<trkpt lat="47.17617100" lon="0.23849700"><ele></ele><time>2014-6-17T9:18:11Z</time></trkpt>
<trkpt lat="47.17591900" lon="0.23840700"><ele></ele><time>2014-6-17T9:18:14Z</time></trkpt>
<trkpt lat="47.17565400" lon="0.23831900"><ele></ele><time>2014-6-17T9:18:17Z</time></trkpt>
<trkpt lat="47.17544000" lon="0.23825900"><ele></ele><time>2014-6-17T9:18:20Z</time></trkpt>
<trkpt lat="47.17516000" lon="0.23816000"><ele></ele><time>2014-6-17T9:18:23Z</time></trkpt>
<trkpt lat="47.17493100" lon="0.23807200"><ele></ele><time>2014-6-17T9:18:26Z</time></trkpt>
<trkpt lat="47.17470600" lon="0.23805200"><ele></ele><time>2014-6-17T9:18:29Z</time></trkpt>
<trkpt lat="47.17448200" lon="0.23801700"><ele></ele><time>2014-6-17T9:18:32Z</time></trkpt>
<trkpt lat="47.17418800" lon="0.23799500"><ele></ele><time>2014-6-17T9:18:35Z</time></trkpt>
<trkpt lat="47.17391100" lon="0.23814100"><ele></ele><time>2014-6-17T9:18:38Z</time></trkpt>
<trkpt lat="47.17356200" lon="0.23825400"><ele></ele><time>2014-6-17T9:18:41Z</time></trkpt>
<trkpt lat="47.17306700" lon="0.23824000"><ele></ele><time>2014-6-17T9:18:44Z</time></trkpt>
<trkpt lat="47.17257500" lon="0.23808200"><ele></ele><time>2014-6-17T9:18:47Z</time></trkpt>
<trkpt lat="47.17217900" lon="0.23794100"><ele></ele><time>2014-6-17T9:18:50Z</time></trkpt>
<trkpt lat="47.17196200" lon="0.23786700"><ele></ele><time>2014-6-17T9:18:53Z</time></trkpt>
<trkpt lat="47.17148700" lon="0.23770100"><ele></ele><time>2014-6-17T9:18:56Z</time></trkpt>
<trkpt lat="47.17145000" lon="0.23769100"><ele></ele><time>2014-6-17T9:18:59Z</time></trkpt>
<trkpt lat="47.17128300" lon="0.23776200"><ele></ele><time>2014-6-17T9:19:2Z</time></trkpt>
<trkpt lat="47.17120500" lon="0.23784500"><ele></ele><time>2014-6-17T9:19:5Z</time></trkpt>
<trkpt lat="47.17106600" lon="0.23803800"><ele></ele><time>2014-6-17T9:19:8Z</time></trkpt>
<trkpt lat="47.17100700" lon="0.23814300"><ele></ele><time>2014-6-17T9:19:11Z</time></trkpt>
<trkpt lat="47.17092300" lon="0.23836500"><ele></ele><time>2014-6-17T9:19:14Z</time></trkpt>
<trkpt lat="47.17081900" lon="0.23867800"><ele></ele><time>2014-6-17T9:19:17Z</time></trkpt>
<trkpt lat="47.17072300" lon="0.23905900"><ele></ele><time>2014-6-17T9:19:20Z</time></trkpt>
<trkpt lat="47.17056200" lon="0.23912300"><ele></ele><time>2014-6-17T9:19:23Z</time></trkpt>
<trkpt lat="47.16997100" lon="0.23905100"><ele></ele><time>2014-6-17T9:19:26Z</time></trkpt>
<trkpt lat="47.16960000" lon="0.23904300"><ele></ele><time>2014-6-17T9:19:29Z</time></trkpt>
<trkpt lat="47.16942100" lon="0.23907200"><ele></ele><time>2014-6-17T9:19:32Z</time></trkpt>
<trkpt lat="47.16935600" lon="0.23908600"><ele></ele><time>2014-6-17T9:19:35Z</time></trkpt>
<trkpt lat="47.16919500" lon="0.23908700"><ele></ele><time>2014-6-17T9:19:38Z</time></trkpt>
<trkpt lat="47.16916700" lon="0.23900400"><ele></ele><time>2014-6-17T9:19:41Z</time></trkpt>
<trkpt lat="47.16908300" lon="0.23901300"><ele></ele><time>2014-6-17T9:19:44Z</time></trkpt>
<trkpt lat="47.16903400" lon="0.23909500"><ele></ele><time>2014-6-17T9:19:47Z</time></trkpt>
<trkpt lat="47.16893900" lon="0.23943700"><ele></ele><time>2014-6-17T9:19:50Z</time></trkpt>
<trkpt lat="47.16866800" lon="0.23982300"><ele></ele><time>2014-6-17T9:19:53Z</time></trkpt>
<trkpt lat="47.16841900" lon="0.23995600"><ele></ele><time>2014-6-17T9:19:56Z</time></trkpt>
<trkpt lat="47.16820600" lon="0.24002600"><ele></ele><time>2014-6-17T9:19:59Z</time></trkpt>
<trkpt lat="47.16816500" lon="0.24008800"><ele></ele><time>2014-6-17T9:20:2Z</time></trkpt>
<trkpt lat="47.16817800" lon="0.24022600"><ele></ele><time>2014-6-17T9:20:5Z</time></trkpt>
<trkpt lat="47.16819300" lon="0.24033400"><ele></ele><time>2014-6-17T9:20:8Z</time></trkpt>
<trkpt lat="47.16833600" lon="0.24109900"><ele></ele><time>2014-6-17T9:20:11Z</time></trkpt>
<trkpt lat="47.16833400" lon="0.24114900"><ele></ele><time>2014-6-17T9:20:14Z</time></trkpt>
<trkpt lat="47.16834500" lon="0.24158200"><ele></ele><time>2014-6-17T9:20:17Z</time></trkpt>
<trkpt lat="47.16838500" lon="0.24178400"><ele></ele><time>2014-6-17T9:20:20Z</time></trkpt>
<trkpt lat="47.16840500" lon="0.24191900"><ele></ele><time>2014-6-17T9:20:23Z</time></trkpt>
<trkpt lat="47.16841300" lon="0.24204100"><ele></ele><time>2014-6-17T9:20:26Z</time></trkpt>
<trkpt lat="47.16839600" lon="0.24256100"><ele></ele><time>2014-6-17T9:20:29Z</time></trkpt>
<trkpt lat="47.16839200" lon="0.24267800"><ele></ele><time>2014-6-17T9:20:32Z</time></trkpt>
<trkpt lat="47.16839500" lon="0.24280500"><ele></ele><time>2014-6-17T9:20:35Z</time></trkpt>
<trkpt lat="47.16834200" lon="0.24324000"><ele></ele><time>2014-6-17T9:20:38Z</time></trkpt>
<trkpt lat="47.16825600" lon="0.24369200"><ele></ele><time>2014-6-17T9:20:41Z</time></trkpt>
<trkpt lat="47.16818800" lon="0.24405900"><ele></ele><time>2014-6-17T9:20:44Z</time></trkpt>
<trkpt lat="47.16816600" lon="0.24431800"><ele></ele><time>2014-6-17T9:20:47Z</time></trkpt>
<trkpt lat="47.16816600" lon="0.24438300"><ele></ele><time>2014-6-17T9:20:50Z</time></trkpt>
<trkpt lat="47.16809400" lon="0.24433500"><ele></ele><time>2014-6-17T9:20:53Z</time></trkpt>
<trkpt lat="47.16804500" lon="0.24413800"><ele></ele><time>2014-6-17T9:20:56Z</time></trkpt>
<trkpt lat="47.16791700" lon="0.24382800"><ele></ele><time>2014-6-17T9:20:59Z</time></trkpt>
<trkpt lat="47.16783900" lon="0.24365200"><ele></ele><time>2014-6-17T9:21:2Z</time></trkpt>
<trkpt lat="47.16762000" lon="0.24345800"><ele></ele><time>2014-6-17T9:21:5Z</time></trkpt>
<trkpt lat="47.16741000" lon="0.24342000"><ele></ele><time>2014-6-17T9:21:8Z</time></trkpt>
<trkpt lat="47.16710100" lon="0.24341900"><ele></ele><time>2014-6-17T9:21:11Z</time></trkpt>
<trkpt lat="47.16645100" lon="0.24345700"><ele></ele><time>2014-6-17T9:21:14Z</time></trkpt>
<trkpt lat="47.16625100" lon="0.24344800"><ele></ele><time>2014-6-17T9:21:17Z</time></trkpt>
<trkpt lat="47.16580100" lon="0.24356300"><ele></ele><time>2014-6-17T9:21:20Z</time></trkpt>
<trkpt lat="47.16562400" lon="0.24371700"><ele></ele><time>2014-6-17T9:21:23Z</time></trkpt>
<trkpt lat="47.16552000" lon="0.24425600"><ele></ele><time>2014-6-17T9:21:26Z</time></trkpt>
<trkpt lat="47.16541100" lon="0.24460100"><ele></ele><time>2014-6-17T9:21:29Z</time></trkpt>
<trkpt lat="47.16539800" lon="0.24468700"><ele></ele><time>2014-6-17T9:21:32Z</time></trkpt>
<trkpt lat="47.16526000" lon="0.24495500"><ele></ele><time>2014-6-17T9:21:35Z</time></trkpt>
<trkpt lat="47.16522500" lon="0.24500100"><ele></ele><time>2014-6-17T9:21:38Z</time></trkpt>
<trkpt lat="47.16517800" lon="0.24497500"><ele></ele><time>2014-6-17T9:21:41Z</time></trkpt>
<trkpt lat="47.16517000" lon="0.24498900"><ele></ele><time>2014-6-17T9:21:44Z</time></trkpt>
<trkpt lat="47.16517300" lon="0.24497900"><ele></ele><time>2014-6-17T9:21:47Z</time></trkpt>
<trkpt lat="47.16517700" lon="0.24497200"><ele></ele><time>2014-6-17T9:21:50Z</time></trkpt>
<trkpt lat="47.16517700" lon="0.24497200"><ele></ele><time>2014-6-17T9:21:53Z</time></trkpt>
<trkpt lat="47.16517700" lon="0.24497200"><ele></ele><time>2014-6-17T9:21:56Z</time></trkpt>
<trkpt lat="47.16517700" lon="0.24497200"><ele></ele><time>2014-6-17T9:21:59Z</time></trkpt>
<trkpt lat="47.16517700" lon="0.24497200"><ele></ele><time>2014-6-17T9:22:2Z</time></trkpt>
<trkpt lat="47.16517700" lon="0.24497200"><ele></ele><time>2014-6-17T9:22:5Z</time></trkpt>
</trkseg></trk></gpx>